<?xml version="1.0" encoding="UTF-8"?>
<gpx creator="Garmin Connect" version="1.1"
  xsi:schemaLocation="http://www.topografix.com/GPX/1/1 http://www.topografix.com/GPX/11.xsd"
  xmlns:ns3="http://www.garmin.com/xmlschemas/TrackPointExtension/v1"
  xmlns="http://www.topografix.com/GPX/1/1"
  xmlns:xsi="http://www.w3.org/2001/XMLSchema-instance" xmlns:ns2="http://www.garmin.com/xmlschemas/GpxExtensions/v3">
  <metadata>
    <link href="connect.garmin.com">
      <text>Garmin Connect</text>
    </link>
    <time>2026-05-09T09:58:14.000Z</time>
  </metadata>
  <trk>
    <name>Perros-Guirec Gehen</name>
    <type>walking</type>
    <trkseg>
      <trkpt lat="48.83508522994816303253173828125" lon="-3.48029653541743755340576171875">
        <ele>11.19999980926513671875</ele>
        <time>2026-05-09T09:58:16.000Z</time>
        <extensions>
          <ns3:TrackPointExtension>
            <ns3:hr>81</ns3:hr>
          </ns3:TrackPointExtension>
        </extensions>
      </trkpt>
      <trkpt lat="48.8350192643702030181884765625" lon="-3.480393178761005401611328125">
        <ele>11.3999996185302734375</ele>
        <time>2026-05-09T09:58:19.000Z</time>
        <extensions>
          <ns3:TrackPointExtension>
            <ns3:atemp>16.0</ns3:atemp>
            <ns3:hr>81</ns3:hr>
          </ns3:TrackPointExtension>
        </extensions>
      </trkpt>
      <trkpt lat="48.83503192104399204254150390625" lon="-3.48038236610591411590576171875">
        <ele>11.3999996185302734375</ele>
        <time>2026-05-09T09:58:22.000Z</time>
        <extensions>
          <ns3:TrackPointExtension>
            <ns3:atemp>16.0</ns3:atemp>
            <ns3:hr>81</ns3:hr>
          </ns3:TrackPointExtension>
        </extensions>
      </trkpt>
      <trkpt lat="48.83504197932779788970947265625" lon="-3.4803713858127593994140625">
        <ele>11.19999980926513671875</ele>
        <time>2026-05-09T09:58:25.000Z</time>
        <extensions>
          <ns3:TrackPointExtension>
            <ns3:atemp>16.0</ns3:atemp>
            <ns3:hr>84</ns3:hr>
          </ns3:TrackPointExtension>
        </extensions>
      </trkpt>
      <trkpt lat="48.83503477089107036590576171875" lon="-3.48037532530725002288818359375">
        <ele>11.3999996185302734375</ele>
        <time>2026-05-09T09:58:27.000Z</time>
        <extensions>
          <ns3:TrackPointExtension>
            <ns3:atemp>16.0</ns3:atemp>
            <ns3:hr>85</ns3:hr>
          </ns3:TrackPointExtension>
        </extensions>
      </trkpt>
      <trkpt lat="48.83502018637955188751220703125" lon="-3.48035688512027263641357421875">
        <ele>11.19999980926513671875</ele>
        <time>2026-05-09T09:58:33.000Z</time>
        <extensions>
          <ns3:TrackPointExtension>
            <ns3:atemp>16.0</ns3:atemp>
            <ns3:hr>86</ns3:hr>
          </ns3:TrackPointExtension>
        </extensions>
      </trkpt>
      <trkpt lat="48.83501800708472728729248046875" lon="-3.48034716211259365081787109375">
        <ele>11.19999980926513671875</ele>
        <time>2026-05-09T09:58:41.000Z</time>
        <extensions>
          <ns3:TrackPointExtension>
            <ns3:atemp>16.0</ns3:atemp>
            <ns3:hr>85</ns3:hr>
          </ns3:TrackPointExtension>
        </extensions>
      </trkpt>
      <trkpt lat="48.8350263051688671112060546875" lon="-3.4803443960845470428466796875">
        <ele>11.19999980926513671875</ele>
        <time>2026-05-09T09:58:47.000Z</time>
        <extensions>
          <ns3:TrackPointExtension>
            <ns3:atemp>16.0</ns3:atemp>
            <ns3:hr>88</ns3:hr>
          </ns3:TrackPointExtension>
        </extensions>
      </trkpt>
      <trkpt lat="48.83503074757754802703857421875" lon="-3.4803705476224422454833984375">
        <ele>11.6000003814697265625</ele>
        <time>2026-05-09T09:58:49.000Z</time>
        <extensions>
          <ns3:TrackPointExtension>
            <ns3:atemp>16.0</ns3:atemp>
            <ns3:hr>89</ns3:hr>
          </ns3:TrackPointExtension>
        </extensions>
      </trkpt>
      <trkpt lat="48.83503242395818233489990234375" lon="-3.4803383611142635345458984375">
        <ele>11.3999996185302734375</ele>
        <time>2026-05-09T09:58:54.000Z</time>
        <extensions>
          <ns3:TrackPointExtension>
            <ns3:atemp>16.0</ns3:atemp>
            <ns3:hr>89</ns3:hr>
          </ns3:TrackPointExtension>
        </extensions>
      </trkpt>
      <trkpt lat="48.8350826315581798553466796875" lon="-3.4803004749119281768798828125">
        <ele>11.6000003814697265625</ele>
        <time>2026-05-09T09:59:01.000Z</time>
        <extensions>
          <ns3:TrackPointExtension>
            <ns3:atemp>16.0</ns3:atemp>
            <ns3:hr>90</ns3:hr>
          </ns3:TrackPointExtension>
        </extensions>
      </trkpt>
      <trkpt lat="48.8351349346339702606201171875" lon="-3.48020567558705806732177734375">
        <ele>11.19999980926513671875</ele>
        <time>2026-05-09T09:59:07.000Z</time>
        <extensions>
          <ns3:TrackPointExtension>
            <ns3:atemp>16.0</ns3:atemp>
            <ns3:hr>89</ns3:hr>
          </ns3:TrackPointExtension>
        </extensions>
      </trkpt>
      <trkpt lat="48.8352080248296260833740234375" lon="-3.48013929091393947601318359375">
        <ele>11.6000003814697265625</ele>
        <time>2026-05-09T09:59:13.000Z</time>
        <extensions>
          <ns3:TrackPointExtension>
            <ns3:atemp>16.0</ns3:atemp>
            <ns3:hr>92</ns3:hr>
          </ns3:TrackPointExtension>
        </extensions>
      </trkpt>
      <trkpt lat="48.8352596573531627655029296875" lon="-3.4800926037132740020751953125">
        <ele>10.6000003814697265625</ele>
        <time>2026-05-09T09:59:20.000Z</time>
        <extensions>
          <ns3:TrackPointExtension>
            <ns3:atemp>16.0</ns3:atemp>
            <ns3:hr>93</ns3:hr>
          </ns3:TrackPointExtension>
        </extensions>
      </trkpt>
      <trkpt lat="48.83526007644832134246826171875" lon="-3.4800808690488338470458984375">
        <ele>11</ele>
        <time>2026-05-09T09:59:28.000Z</time>
        <extensions>
          <ns3:TrackPointExtension>
            <ns3:atemp>16.0</ns3:atemp>
            <ns3:hr>93</ns3:hr>
          </ns3:TrackPointExtension>
        </extensions>
      </trkpt>
      <trkpt lat="48.8352717272937297821044921875" lon="-3.48010509274899959564208984375">
        <ele>10.80000019073486328125</ele>
        <time>2026-05-09T09:59:34.000Z</time>
        <extensions>
          <ns3:TrackPointExtension>
            <ns3:atemp>16.0</ns3:atemp>
            <ns3:hr>90</ns3:hr>
          </ns3:TrackPointExtension>
        </extensions>
      </trkpt>
      <trkpt lat="48.835289664566516876220703125" lon="-3.48011716268956661224365234375">
        <ele>10.80000019073486328125</ele>
        <time>2026-05-09T09:59:36.000Z</time>
        <extensions>
          <ns3:TrackPointExtension>
            <ns3:atemp>16.0</ns3:atemp>
            <ns3:hr>88</ns3:hr>
          </ns3:TrackPointExtension>
        </extensions>
      </trkpt>
      <trkpt lat="48.83533568121492862701416015625" lon="-3.48012353293597698211669921875">
        <ele>10.80000019073486328125</ele>
        <time>2026-05-09T09:59:40.000Z</time>
        <extensions>
          <ns3:TrackPointExtension>
            <ns3:atemp>16.0</ns3:atemp>
            <ns3:hr>85</ns3:hr>
          </ns3:TrackPointExtension>
        </extensions>
      </trkpt>
      <trkpt lat="48.83536568842828273773193359375" lon="-3.4801321662962436676025390625">
        <ele>10.80000019073486328125</ele>
        <time>2026-05-09T09:59:43.000Z</time>
        <extensions>
          <ns3:TrackPointExtension>
            <ns3:atemp>16.0</ns3:atemp>
            <ns3:hr>84</ns3:hr>
          </ns3:TrackPointExtension>
        </extensions>
      </trkpt>
      <trkpt lat="48.8354769162833690643310546875" lon="-3.48013275302946567535400390625">
        <ele>10.6000003814697265625</ele>
        <time>2026-05-09T09:59:52.000Z</time>
        <extensions>
          <ns3:TrackPointExtension>
            <ns3:atemp>16.0</ns3:atemp>
            <ns3:hr>83</ns3:hr>
          </ns3:TrackPointExtension>
        </extensions>
      </trkpt>
      <trkpt lat="48.83552075363695621490478515625" lon="-3.48013870418071746826171875">
        <ele>10.19999980926513671875</ele>
        <time>2026-05-09T09:59:56.000Z</time>
        <extensions>
          <ns3:TrackPointExtension>
            <ns3:atemp>16.0</ns3:atemp>
            <ns3:hr>83</ns3:hr>
          </ns3:TrackPointExtension>
        </extensions>
      </trkpt>
      <trkpt lat="48.83555193431675434112548828125" lon="-3.48014272749423980712890625">
        <ele>10</ele>
        <time>2026-05-09T09:59:58.000Z</time>
        <extensions>
          <ns3:TrackPointExtension>
            <ns3:atemp>16.0</ns3:atemp>
            <ns3:hr>82</ns3:hr>
          </ns3:TrackPointExtension>
        </extensions>
      </trkpt>
      <trkpt lat="48.8356287963688373565673828125" lon="-3.4801563061773777008056640625">
        <ele>9.6000003814697265625</ele>
        <time>2026-05-09T10:00:05.000Z</time>
        <extensions>
          <ns3:TrackPointExtension>
            <ns3:atemp>16.0</ns3:atemp>
            <ns3:hr>83</ns3:hr>
          </ns3:TrackPointExtension>
        </extensions>
      </trkpt>
      <trkpt lat="48.83573315106332302093505859375" lon="-3.48020316101610660552978515625">
        <ele>9.3999996185302734375</ele>
        <time>2026-05-09T10:00:14.000Z</time>
        <extensions>
          <ns3:TrackPointExtension>
            <ns3:atemp>16.0</ns3:atemp>
            <ns3:hr>84</ns3:hr>
          </ns3:TrackPointExtension>
        </extensions>
      </trkpt>
      <trkpt lat="48.8357533514499664306640625" lon="-3.48026275634765625">
        <ele>9.6000003814697265625</ele>
        <time>2026-05-09T10:00:19.000Z</time>
        <extensions>
          <ns3:TrackPointExtension>
            <ns3:atemp>15.0</ns3:atemp>
            <ns3:hr>85</ns3:hr>
          </ns3:TrackPointExtension>
        </extensions>
      </trkpt>
      <trkpt lat="48.83574731647968292236328125" lon="-3.48029427230358123779296875">
        <ele>9.80000019073486328125</ele>
        <time>2026-05-09T10:00:21.000Z</time>
        <extensions>
          <ns3:TrackPointExtension>
            <ns3:atemp>15.0</ns3:atemp>
            <ns3:hr>85</ns3:hr>
          </ns3:TrackPointExtension>
        </extensions>
      </trkpt>
      <trkpt lat="48.835736252367496490478515625" lon="-3.48041505552828311920166015625">
        <ele>9.6000003814697265625</ele>
        <time>2026-05-09T10:00:28.000Z</time>
        <extensions>
          <ns3:TrackPointExtension>
            <ns3:atemp>15.0</ns3:atemp>
            <ns3:hr>83</ns3:hr>
          </ns3:TrackPointExtension>
        </extensions>
      </trkpt>
      <trkpt lat="48.8357431255280971527099609375" lon="-3.4805505909025669097900390625">
        <ele>9.6000003814697265625</ele>
        <time>2026-05-09T10:00:35.000Z</time>
        <extensions>
          <ns3:TrackPointExtension>
            <ns3:atemp>15.0</ns3:atemp>
            <ns3:hr>83</ns3:hr>
          </ns3:TrackPointExtension>
        </extensions>
      </trkpt>
      <trkpt lat="48.83577707223594188690185546875" lon="-3.4805760718882083892822265625">
        <ele>9.19999980926513671875</ele>
        <time>2026-05-09T10:00:38.000Z</time>
        <extensions>
          <ns3:TrackPointExtension>
            <ns3:atemp>15.0</ns3:atemp>
            <ns3:hr>83</ns3:hr>
          </ns3:TrackPointExtension>
        </extensions>
      </trkpt>
      <trkpt lat="48.835799284279346466064453125" lon="-3.480610437691211700439453125">
        <ele>9</ele>
        <time>2026-05-09T10:00:41.000Z</time>
        <extensions>
          <ns3:TrackPointExtension>
            <ns3:atemp>15.0</ns3:atemp>
            <ns3:hr>83</ns3:hr>
          </ns3:TrackPointExtension>
        </extensions>
      </trkpt>
      <trkpt lat="48.83584245108067989349365234375" lon="-3.480683863162994384765625">
        <ele>9</ele>
        <time>2026-05-09T10:00:48.000Z</time>
        <extensions>
          <ns3:TrackPointExtension>
            <ns3:atemp>15.0</ns3:atemp>
            <ns3:hr>82</ns3:hr>
          </ns3:TrackPointExtension>
        </extensions>
      </trkpt>
      <trkpt lat="48.83583926595747470855712890625" lon="-3.48068478517234325408935546875">
        <ele>9</ele>
        <time>2026-05-09T10:00:49.000Z</time>
        <extensions>
          <ns3:TrackPointExtension>
            <ns3:atemp>15.0</ns3:atemp>
            <ns3:hr>83</ns3:hr>
          </ns3:TrackPointExtension>
        </extensions>
      </trkpt>
      <trkpt lat="48.83584345690906047821044921875" lon="-3.48073013126850128173828125">
        <ele>8.80000019073486328125</ele>
        <time>2026-05-09T10:00:52.000Z</time>
        <extensions>
          <ns3:TrackPointExtension>
            <ns3:atemp>15.0</ns3:atemp>
            <ns3:hr>82</ns3:hr>
          </ns3:TrackPointExtension>
        </extensions>
      </trkpt>
      <trkpt lat="48.83584312163293361663818359375" lon="-3.480861894786357879638671875">
        <ele>8.6000003814697265625</ele>
        <time>2026-05-09T10:00:59.000Z</time>
        <extensions>
          <ns3:TrackPointExtension>
            <ns3:atemp>15.0</ns3:atemp>
            <ns3:hr>82</ns3:hr>
          </ns3:TrackPointExtension>
        </extensions>
      </trkpt>
      <trkpt lat="48.83585200645029544830322265625" lon="-3.48099290393292903900146484375">
        <ele>8.80000019073486328125</ele>
        <time>2026-05-09T10:01:05.000Z</time>
        <extensions>
          <ns3:TrackPointExtension>
            <ns3:atemp>15.0</ns3:atemp>
            <ns3:hr>82</ns3:hr>
          </ns3:TrackPointExtension>
        </extensions>
      </trkpt>
      <trkpt lat="48.8358775712549686431884765625" lon="-3.4810709394514560699462890625">
        <ele>8.80000019073486328125</ele>
        <time>2026-05-09T10:01:10.000Z</time>
        <extensions>
          <ns3:TrackPointExtension>
            <ns3:atemp>15.0</ns3:atemp>
            <ns3:hr>82</ns3:hr>
          </ns3:TrackPointExtension>
        </extensions>
      </trkpt>
      <trkpt lat="48.83590732701122760772705078125" lon="-3.48116104491055011749267578125">
        <ele>9</ele>
        <time>2026-05-09T10:01:17.000Z</time>
        <extensions>
          <ns3:TrackPointExtension>
            <ns3:atemp>15.0</ns3:atemp>
            <ns3:hr>83</ns3:hr>
          </ns3:TrackPointExtension>
        </extensions>
      </trkpt>
      <trkpt lat="48.83591587655246257781982421875" lon="-3.48121619783341884613037109375">
        <ele>8.6000003814697265625</ele>
        <time>2026-05-09T10:01:23.000Z</time>
        <extensions>
          <ns3:TrackPointExtension>
            <ns3:atemp>15.0</ns3:atemp>
            <ns3:hr>83</ns3:hr>
          </ns3:TrackPointExtension>
        </extensions>
      </trkpt>
      <trkpt lat="48.83591763675212860107421875" lon="-3.48126430995762348175048828125">
        <ele>8.80000019073486328125</ele>
        <time>2026-05-09T10:01:28.000Z</time>
        <extensions>
          <ns3:TrackPointExtension>
            <ns3:atemp>15.0</ns3:atemp>
            <ns3:hr>82</ns3:hr>
          </ns3:TrackPointExtension>
        </extensions>
      </trkpt>
      <trkpt lat="48.8359640724956989288330078125" lon="-3.48133773542940616607666015625">
        <ele>8.80000019073486328125</ele>
        <time>2026-05-09T10:01:34.000Z</time>
        <extensions>
          <ns3:TrackPointExtension>
            <ns3:atemp>15.0</ns3:atemp>
            <ns3:hr>83</ns3:hr>
          </ns3:TrackPointExtension>
        </extensions>
      </trkpt>
      <trkpt lat="48.83598024956881999969482421875" lon="-3.48137511871755123138427734375">
        <ele>8.3999996185302734375</ele>
        <time>2026-05-09T10:01:39.000Z</time>
        <extensions>
          <ns3:TrackPointExtension>
            <ns3:atemp>15.0</ns3:atemp>
            <ns3:hr>84</ns3:hr>
          </ns3:TrackPointExtension>
        </extensions>
      </trkpt>
      <trkpt lat="48.83604562841355800628662109375" lon="-3.48143144510686397552490234375">
        <ele>8.6000003814697265625</ele>
        <time>2026-05-09T10:01:45.000Z</time>
        <extensions>
          <ns3:TrackPointExtension>
            <ns3:atemp>15.0</ns3:atemp>
            <ns3:hr>84</ns3:hr>
          </ns3:TrackPointExtension>
        </extensions>
      </trkpt>
      <trkpt lat="48.83612391538918018341064453125" lon="-3.4814791381359100341796875">
        <ele>8.3999996185302734375</ele>
        <time>2026-05-09T10:01:52.000Z</time>
        <extensions>
          <ns3:TrackPointExtension>
            <ns3:atemp>15.0</ns3:atemp>
            <ns3:hr>84</ns3:hr>
          </ns3:TrackPointExtension>
        </extensions>
      </trkpt>
      <trkpt lat="48.8361840136349201202392578125" lon="-3.4814979135990142822265625">
        <ele>8.19999980926513671875</ele>
        <time>2026-05-09T10:01:57.000Z</time>
        <extensions>
          <ns3:TrackPointExtension>
            <ns3:atemp>15.0</ns3:atemp>
            <ns3:hr>85</ns3:hr>
          </ns3:TrackPointExtension>
        </extensions>
      </trkpt>
      <trkpt lat="48.8361932337284088134765625" lon="-3.48150218836963176727294921875">
        <ele>8</ele>
        <time>2026-05-09T10:01:58.000Z</time>
        <extensions>
          <ns3:TrackPointExtension>
            <ns3:atemp>15.0</ns3:atemp>
            <ns3:hr>85</ns3:hr>
          </ns3:TrackPointExtension>
        </extensions>
      </trkpt>
      <trkpt lat="48.8362520746886730194091796875" lon="-3.48149229772388935089111328125">
        <ele>7.19999980926513671875</ele>
        <time>2026-05-09T10:02:04.000Z</time>
        <extensions>
          <ns3:TrackPointExtension>
            <ns3:atemp>15.0</ns3:atemp>
            <ns3:hr>86</ns3:hr>
          </ns3:TrackPointExtension>
        </extensions>
      </trkpt>
      <trkpt lat="48.8362926431000232696533203125" lon="-3.4814863465726375579833984375">
        <ele>7</ele>
        <time>2026-05-09T10:02:08.000Z</time>
        <extensions>
          <ns3:TrackPointExtension>
            <ns3:atemp>15.0</ns3:atemp>
            <ns3:hr>85</ns3:hr>
          </ns3:TrackPointExtension>
        </extensions>
      </trkpt>
      <trkpt lat="48.8363094069063663482666015625" lon="-3.4814487956464290618896484375">
        <ele>6</ele>
        <time>2026-05-09T10:02:12.000Z</time>
        <extensions>
          <ns3:TrackPointExtension>
            <ns3:atemp>15.0</ns3:atemp>
            <ns3:hr>85</ns3:hr>
          </ns3:TrackPointExtension>
        </extensions>
      </trkpt>
      <trkpt lat="48.83632575161755084991455078125" lon="-3.4813884459435939788818359375">
        <ele>7.19999980926513671875</ele>
        <time>2026-05-09T10:02:18.000Z</time>
        <extensions>
          <ns3:TrackPointExtension>
            <ns3:atemp>15.0</ns3:atemp>
            <ns3:hr>84</ns3:hr>
          </ns3:TrackPointExtension>
        </extensions>
      </trkpt>
      <trkpt lat="48.83632558397948741912841796875" lon="-3.48138861358165740966796875">
        <ele>7.19999980926513671875</ele>
        <time>2026-05-09T10:02:20.000Z</time>
        <extensions>
          <ns3:TrackPointExtension>
            <ns3:atemp>15.0</ns3:atemp>
            <ns3:hr>84</ns3:hr>
          </ns3:TrackPointExtension>
        </extensions>
      </trkpt>
      <trkpt lat="48.83632558397948741912841796875" lon="-3.48138861358165740966796875">
        <ele>7.19999980926513671875</ele>
        <time>2026-05-09T10:02:23.000Z</time>
        <extensions>
          <ns3:TrackPointExtension>
            <ns3:atemp>15.0</ns3:atemp>
            <ns3:hr>81</ns3:hr>
          </ns3:TrackPointExtension>
        </extensions>
      </trkpt>
      <trkpt lat="48.83632457815110683441162109375" lon="-3.48139121197164058685302734375">
        <ele>7</ele>
        <time>2026-05-09T10:02:25.000Z</time>
        <extensions>
          <ns3:TrackPointExtension>
            <ns3:atemp>15.0</ns3:atemp>
            <ns3:hr>78</ns3:hr>
          </ns3:TrackPointExtension>
        </extensions>
      </trkpt>
      <trkpt lat="48.8363208062946796417236328125" lon="-3.481419123709201812744140625">
        <ele>7</ele>
        <time>2026-05-09T10:02:26.000Z</time>
        <extensions>
          <ns3:TrackPointExtension>
            <ns3:atemp>15.0</ns3:atemp>
            <ns3:hr>75</ns3:hr>
          </ns3:TrackPointExtension>
        </extensions>
      </trkpt>
      <trkpt lat="48.8363174535334110260009765625" lon="-3.481467403471469879150390625">
        <ele>7</ele>
        <time>2026-05-09T10:02:29.000Z</time>
        <extensions>
          <ns3:TrackPointExtension>
            <ns3:atemp>15.0</ns3:atemp>
            <ns3:hr>73</ns3:hr>
          </ns3:TrackPointExtension>
        </extensions>
      </trkpt>
      <trkpt lat="48.83632591925561428070068359375" lon="-3.48148626275360584259033203125">
        <ele>7.19999980926513671875</ele>
        <time>2026-05-09T10:02:30.000Z</time>
        <extensions>
          <ns3:TrackPointExtension>
            <ns3:atemp>15.0</ns3:atemp>
            <ns3:hr>72</ns3:hr>
          </ns3:TrackPointExtension>
        </extensions>
      </trkpt>
      <trkpt lat="48.8363600336015224456787109375" lon="-3.48154476843774318695068359375">
        <ele>7.19999980926513671875</ele>
        <time>2026-05-09T10:02:35.000Z</time>
        <extensions>
          <ns3:TrackPointExtension>
            <ns3:atemp>15.0</ns3:atemp>
            <ns3:hr>73</ns3:hr>
          </ns3:TrackPointExtension>
        </extensions>
      </trkpt>
      <trkpt lat="48.836379311978816986083984375" lon="-3.48166345618665218353271484375">
        <ele>7.19999980926513671875</ele>
        <time>2026-05-09T10:02:43.000Z</time>
        <extensions>
          <ns3:TrackPointExtension>
            <ns3:atemp>15.0</ns3:atemp>
            <ns3:hr>75</ns3:hr>
          </ns3:TrackPointExtension>
        </extensions>
      </trkpt>
      <trkpt lat="48.836398087441921234130859375" lon="-3.48171995021402835845947265625">
        <ele>7.400000095367431640625</ele>
        <time>2026-05-09T10:02:47.000Z</time>
        <extensions>
          <ns3:TrackPointExtension>
            <ns3:atemp>15.0</ns3:atemp>
            <ns3:hr>75</ns3:hr>
          </ns3:TrackPointExtension>
        </extensions>
      </trkpt>
      <trkpt lat="48.83642666973173618316650390625" lon="-3.481736294925212860107421875">
        <ele>8</ele>
        <time>2026-05-09T10:02:50.000Z</time>
        <extensions>
          <ns3:TrackPointExtension>
            <ns3:atemp>15.0</ns3:atemp>
            <ns3:hr>75</ns3:hr>
          </ns3:TrackPointExtension>
        </extensions>
      </trkpt>
      <trkpt lat="48.83642918430268764495849609375" lon="-3.48172833211719989776611328125">
        <ele>8.19999980926513671875</ele>
        <time>2026-05-09T10:02:51.000Z</time>
        <extensions>
          <ns3:TrackPointExtension>
            <ns3:atemp>15.0</ns3:atemp>
            <ns3:hr>75</ns3:hr>
          </ns3:TrackPointExtension>
        </extensions>
      </trkpt>
      <trkpt lat="48.8364294357597827911376953125" lon="-3.48173956386744976043701171875">
        <ele>8.3999996185302734375</ele>
        <time>2026-05-09T10:02:53.000Z</time>
        <extensions>
          <ns3:TrackPointExtension>
            <ns3:atemp>15.0</ns3:atemp>
            <ns3:hr>75</ns3:hr>
          </ns3:TrackPointExtension>
        </extensions>
      </trkpt>
      <trkpt lat="48.8364364765584468841552734375" lon="-3.48174425773322582244873046875">
        <ele>8.19999980926513671875</ele>
        <time>2026-05-09T10:02:55.000Z</time>
        <extensions>
          <ns3:TrackPointExtension>
            <ns3:atemp>15.0</ns3:atemp>
            <ns3:hr>76</ns3:hr>
          </ns3:TrackPointExtension>
        </extensions>
      </trkpt>
      <trkpt lat="48.836465813219547271728515625" lon="-3.48180930130183696746826171875">
        <ele>8.19999980926513671875</ele>
        <time>2026-05-09T10:03:01.000Z</time>
        <extensions>
          <ns3:TrackPointExtension>
            <ns3:atemp>15.0</ns3:atemp>
            <ns3:hr>77</ns3:hr>
          </ns3:TrackPointExtension>
        </extensions>
      </trkpt>
      <trkpt lat="48.83648517541587352752685546875" lon="-3.48190032877027988433837890625">
        <ele>9.19999980926513671875</ele>
        <time>2026-05-09T10:03:07.000Z</time>
        <extensions>
          <ns3:TrackPointExtension>
            <ns3:atemp>15.0</ns3:atemp>
            <ns3:hr>78</ns3:hr>
          </ns3:TrackPointExtension>
        </extensions>
      </trkpt>
      <trkpt lat="48.83648618124425411224365234375" lon="-3.4819144941866397857666015625">
        <ele>9.19999980926513671875</ele>
        <time>2026-05-09T10:03:08.000Z</time>
        <extensions>
          <ns3:TrackPointExtension>
            <ns3:atemp>15.0</ns3:atemp>
            <ns3:hr>78</ns3:hr>
          </ns3:TrackPointExtension>
        </extensions>
      </trkpt>
      <trkpt lat="48.8365162722766399383544921875" lon="-3.48201951943337917327880859375">
        <ele>10.19999980926513671875</ele>
        <time>2026-05-09T10:03:15.000Z</time>
        <extensions>
          <ns3:TrackPointExtension>
            <ns3:atemp>15.0</ns3:atemp>
            <ns3:hr>79</ns3:hr>
          </ns3:TrackPointExtension>
        </extensions>
      </trkpt>
      <trkpt lat="48.836534209549427032470703125" lon="-3.48204667679965496063232421875">
        <ele>10.6000003814697265625</ele>
        <time>2026-05-09T10:03:17.000Z</time>
        <extensions>
          <ns3:TrackPointExtension>
            <ns3:atemp>15.0</ns3:atemp>
            <ns3:hr>80</ns3:hr>
          </ns3:TrackPointExtension>
        </extensions>
      </trkpt>
      <trkpt lat="48.8365668989717960357666015625" lon="-3.48207986913621425628662109375">
        <ele>11.19999980926513671875</ele>
        <time>2026-05-09T10:03:21.000Z</time>
        <extensions>
          <ns3:TrackPointExtension>
            <ns3:atemp>15.0</ns3:atemp>
            <ns3:hr>82</ns3:hr>
          </ns3:TrackPointExtension>
        </extensions>
      </trkpt>
      <trkpt lat="48.83658374659717082977294921875" lon="-3.48209931515157222747802734375">
        <ele>11.6000003814697265625</ele>
        <time>2026-05-09T10:03:23.000Z</time>
        <extensions>
          <ns3:TrackPointExtension>
            <ns3:atemp>15.0</ns3:atemp>
            <ns3:hr>83</ns3:hr>
          </ns3:TrackPointExtension>
        </extensions>
      </trkpt>
      <trkpt lat="48.8366021029651165008544921875" lon="-3.48211172036826610565185546875">
        <ele>12</ele>
        <time>2026-05-09T10:03:30.000Z</time>
        <extensions>
          <ns3:TrackPointExtension>
            <ns3:atemp>15.0</ns3:atemp>
            <ns3:hr>86</ns3:hr>
          </ns3:TrackPointExtension>
        </extensions>
      </trkpt>
      <trkpt lat="48.83660302497446537017822265625" lon="-3.482112474739551544189453125">
        <ele>12.19999980926513671875</ele>
        <time>2026-05-09T10:03:33.000Z</time>
        <extensions>
          <ns3:TrackPointExtension>
            <ns3:atemp>15.0</ns3:atemp>
            <ns3:hr>89</ns3:hr>
          </ns3:TrackPointExtension>
        </extensions>
      </trkpt>
      <trkpt lat="48.8366510532796382904052734375" lon="-3.48215145058929920196533203125">
        <ele>12.19999980926513671875</ele>
        <time>2026-05-09T10:03:36.000Z</time>
        <extensions>
          <ns3:TrackPointExtension>
            <ns3:atemp>15.0</ns3:atemp>
            <ns3:hr>91</ns3:hr>
          </ns3:TrackPointExtension>
        </extensions>
      </trkpt>
      <trkpt lat="48.836678378283977508544921875" lon="-3.48216301761567592620849609375">
        <ele>12.19999980926513671875</ele>
        <time>2026-05-09T10:03:38.000Z</time>
        <extensions>
          <ns3:TrackPointExtension>
            <ns3:atemp>15.0</ns3:atemp>
            <ns3:hr>92</ns3:hr>
          </ns3:TrackPointExtension>
        </extensions>
      </trkpt>
      <trkpt lat="48.8367244787514209747314453125" lon="-3.482212387025356292724609375">
        <ele>13</ele>
        <time>2026-05-09T10:03:43.000Z</time>
        <extensions>
          <ns3:TrackPointExtension>
            <ns3:atemp>15.0</ns3:atemp>
            <ns3:hr>94</ns3:hr>
          </ns3:TrackPointExtension>
        </extensions>
      </trkpt>
      <trkpt lat="48.83675423450767993927001953125" lon="-3.48225555382668972015380859375">
        <ele>13.19999980926513671875</ele>
        <time>2026-05-09T10:03:47.000Z</time>
        <extensions>
          <ns3:TrackPointExtension>
            <ns3:atemp>15.0</ns3:atemp>
            <ns3:hr>95</ns3:hr>
          </ns3:TrackPointExtension>
        </extensions>
      </trkpt>
      <trkpt lat="48.8367566652595996856689453125" lon="-3.4822745807468891143798828125">
        <ele>13.19999980926513671875</ele>
        <time>2026-05-09T10:03:49.000Z</time>
        <extensions>
          <ns3:TrackPointExtension>
            <ns3:atemp>15.0</ns3:atemp>
            <ns3:hr>95</ns3:hr>
          </ns3:TrackPointExtension>
        </extensions>
      </trkpt>
      <trkpt lat="48.83674241602420806884765625" lon="-3.4823989681899547576904296875">
        <ele>13.80000019073486328125</ele>
        <time>2026-05-09T10:03:57.000Z</time>
        <extensions>
          <ns3:TrackPointExtension>
            <ns3:atemp>15.0</ns3:atemp>
            <ns3:hr>97</ns3:hr>
          </ns3:TrackPointExtension>
        </extensions>
      </trkpt>
      <trkpt lat="48.8367144204676151275634765625" lon="-3.48245051689445972442626953125">
        <ele>14.3999996185302734375</ele>
        <time>2026-05-09T10:04:01.000Z</time>
        <extensions>
          <ns3:TrackPointExtension>
            <ns3:atemp>15.0</ns3:atemp>
            <ns3:hr>99</ns3:hr>
          </ns3:TrackPointExtension>
        </extensions>
      </trkpt>
      <trkpt lat="48.8366778753697872161865234375" lon="-3.4825332462787628173828125">
        <ele>15</ele>
        <time>2026-05-09T10:04:06.000Z</time>
        <extensions>
          <ns3:TrackPointExtension>
            <ns3:atemp>15.0</ns3:atemp>
            <ns3:hr>100</ns3:hr>
          </ns3:TrackPointExtension>
        </extensions>
      </trkpt>
      <trkpt lat="48.836661614477634429931640625" lon="-3.48257876001298427581787109375">
        <ele>15.6000003814697265625</ele>
        <time>2026-05-09T10:04:09.000Z</time>
        <extensions>
          <ns3:TrackPointExtension>
            <ns3:atemp>15.0</ns3:atemp>
            <ns3:hr>100</ns3:hr>
          </ns3:TrackPointExtension>
        </extensions>
      </trkpt>
      <trkpt lat="48.83663387037813663482666015625" lon="-3.48267029039561748504638671875">
        <ele>15.6000003814697265625</ele>
        <time>2026-05-09T10:04:14.000Z</time>
        <extensions>
          <ns3:TrackPointExtension>
            <ns3:atemp>15.0</ns3:atemp>
            <ns3:hr>102</ns3:hr>
          </ns3:TrackPointExtension>
        </extensions>
      </trkpt>
      <trkpt lat="48.83660268969833850860595703125" lon="-3.48274983465671539306640625">
        <ele>16.200000762939453125</ele>
        <time>2026-05-09T10:04:20.000Z</time>
        <extensions>
          <ns3:TrackPointExtension>
            <ns3:atemp>15.0</ns3:atemp>
            <ns3:hr>103</ns3:hr>
          </ns3:TrackPointExtension>
        </extensions>
      </trkpt>
      <trkpt lat="48.83657217957079410552978515625" lon="-3.48282133229076862335205078125">
        <ele>16.6000003814697265625</ele>
        <time>2026-05-09T10:04:25.000Z</time>
        <extensions>
          <ns3:TrackPointExtension>
            <ns3:atemp>15.0</ns3:atemp>
            <ns3:hr>104</ns3:hr>
          </ns3:TrackPointExtension>
        </extensions>
      </trkpt>
      <trkpt lat="48.83655893616378307342529296875" lon="-3.48284362815320491790771484375">
        <ele>16.799999237060546875</ele>
        <time>2026-05-09T10:04:27.000Z</time>
        <extensions>
          <ns3:TrackPointExtension>
            <ns3:atemp>15.0</ns3:atemp>
            <ns3:hr>105</ns3:hr>
          </ns3:TrackPointExtension>
        </extensions>
      </trkpt>
      <trkpt lat="48.83652641437947750091552734375" lon="-3.4829085879027843475341796875">
        <ele>17.6000003814697265625</ele>
        <time>2026-05-09T10:04:35.000Z</time>
        <extensions>
          <ns3:TrackPointExtension>
            <ns3:atemp>15.0</ns3:atemp>
            <ns3:hr>105</ns3:hr>
          </ns3:TrackPointExtension>
        </extensions>
      </trkpt>
      <trkpt lat="48.836567066609859466552734375" lon="-3.4829122759401798248291015625">
        <ele>17.200000762939453125</ele>
        <time>2026-05-09T10:04:43.000Z</time>
        <extensions>
          <ns3:TrackPointExtension>
            <ns3:atemp>15.0</ns3:atemp>
            <ns3:hr>105</ns3:hr>
          </ns3:TrackPointExtension>
        </extensions>
      </trkpt>
      <trkpt lat="48.8365742750465869903564453125" lon="-3.482917807996273040771484375">
        <ele>17.3999996185302734375</ele>
        <time>2026-05-09T10:04:50.000Z</time>
        <extensions>
          <ns3:TrackPointExtension>
            <ns3:atemp>15.0</ns3:atemp>
            <ns3:hr>105</ns3:hr>
          </ns3:TrackPointExtension>
        </extensions>
      </trkpt>
      <trkpt lat="48.8365365564823150634765625" lon="-3.48291889764368534088134765625">
        <ele>16.799999237060546875</ele>
        <time>2026-05-09T10:04:56.000Z</time>
        <extensions>
          <ns3:TrackPointExtension>
            <ns3:atemp>15.0</ns3:atemp>
            <ns3:hr>103</ns3:hr>
          </ns3:TrackPointExtension>
        </extensions>
      </trkpt>
      <trkpt lat="48.836522810161113739013671875" lon="-3.48292887210845947265625">
        <ele>17</ele>
        <time>2026-05-09T10:04:59.000Z</time>
        <extensions>
          <ns3:TrackPointExtension>
            <ns3:atemp>15.0</ns3:atemp>
            <ns3:hr>97</ns3:hr>
          </ns3:TrackPointExtension>
        </extensions>
      </trkpt>
      <trkpt lat="48.83651635609567165374755859375" lon="-3.48294035531580448150634765625">
        <ele>17.200000762939453125</ele>
        <time>2026-05-09T10:05:01.000Z</time>
        <extensions>
          <ns3:TrackPointExtension>
            <ns3:atemp>15.0</ns3:atemp>
            <ns3:hr>96</ns3:hr>
          </ns3:TrackPointExtension>
        </extensions>
      </trkpt>
      <trkpt lat="48.83647494949400424957275390625" lon="-3.48303104750812053680419921875">
        <ele>17.6000003814697265625</ele>
        <time>2026-05-09T10:05:08.000Z</time>
        <extensions>
          <ns3:TrackPointExtension>
            <ns3:atemp>15.0</ns3:atemp>
            <ns3:hr>94</ns3:hr>
          </ns3:TrackPointExtension>
        </extensions>
      </trkpt>
      <trkpt lat="48.836465813219547271728515625" lon="-3.4830534271895885467529296875">
        <ele>17.200000762939453125</ele>
        <time>2026-05-09T10:05:15.000Z</time>
        <extensions>
          <ns3:TrackPointExtension>
            <ns3:atemp>15.0</ns3:atemp>
            <ns3:hr>94</ns3:hr>
          </ns3:TrackPointExtension>
        </extensions>
      </trkpt>
      <trkpt lat="48.83644779212772846221923828125" lon="-3.4831064008176326751708984375">
        <ele>17</ele>
        <time>2026-05-09T10:05:22.000Z</time>
        <extensions>
          <ns3:TrackPointExtension>
            <ns3:atemp>15.0</ns3:atemp>
            <ns3:hr>92</ns3:hr>
          </ns3:TrackPointExtension>
        </extensions>
      </trkpt>
      <trkpt lat="48.83642331697046756744384765625" lon="-3.48316431976854801177978515625">
        <ele>16.799999237060546875</ele>
        <time>2026-05-09T10:05:27.000Z</time>
        <extensions>
          <ns3:TrackPointExtension>
            <ns3:atemp>15.0</ns3:atemp>
            <ns3:hr>90</ns3:hr>
          </ns3:TrackPointExtension>
        </extensions>
      </trkpt>
      <trkpt lat="48.83638970553874969482421875" lon="-3.483282588422298431396484375">
        <ele>16.200000762939453125</ele>
        <time>2026-05-09T10:05:33.000Z</time>
        <extensions>
          <ns3:TrackPointExtension>
            <ns3:atemp>15.0</ns3:atemp>
            <ns3:hr>88</ns3:hr>
          </ns3:TrackPointExtension>
        </extensions>
      </trkpt>
      <trkpt lat="48.83639666251838207244873046875" lon="-3.483299352228641510009765625">
        <ele>16</ele>
        <time>2026-05-09T10:05:35.000Z</time>
        <extensions>
          <ns3:TrackPointExtension>
            <ns3:atemp>15.0</ns3:atemp>
            <ns3:hr>88</ns3:hr>
          </ns3:TrackPointExtension>
        </extensions>
      </trkpt>
      <trkpt lat="48.836425244808197021484375" lon="-3.48335140384733676910400390625">
        <ele>15.6000003814697265625</ele>
        <time>2026-05-09T10:05:41.000Z</time>
        <extensions>
          <ns3:TrackPointExtension>
            <ns3:atemp>15.0</ns3:atemp>
            <ns3:hr>87</ns3:hr>
          </ns3:TrackPointExtension>
        </extensions>
      </trkpt>
      <trkpt lat="48.836461119353771209716796875" lon="-3.48341041244566440582275390625">
        <ele>14.80000019073486328125</ele>
        <time>2026-05-09T10:05:47.000Z</time>
        <extensions>
          <ns3:TrackPointExtension>
            <ns3:atemp>15.0</ns3:atemp>
            <ns3:hr>86</ns3:hr>
          </ns3:TrackPointExtension>
        </extensions>
      </trkpt>
      <trkpt lat="48.8364683277904987335205078125" lon="-3.4834218956530094146728515625">
        <ele>14.3999996185302734375</ele>
        <time>2026-05-09T10:05:48.000Z</time>
        <extensions>
          <ns3:TrackPointExtension>
            <ns3:atemp>15.0</ns3:atemp>
            <ns3:hr>86</ns3:hr>
          </ns3:TrackPointExtension>
        </extensions>
      </trkpt>
      <trkpt lat="48.83648433722555637359619140625" lon="-3.4834492206573486328125">
        <ele>13.80000019073486328125</ele>
        <time>2026-05-09T10:05:51.000Z</time>
        <extensions>
          <ns3:TrackPointExtension>
            <ns3:atemp>15.0</ns3:atemp>
            <ns3:hr>85</ns3:hr>
          </ns3:TrackPointExtension>
        </extensions>
      </trkpt>
      <trkpt lat="48.83649975992739200592041015625" lon="-3.48348048515617847442626953125">
        <ele>13.3999996185302734375</ele>
        <time>2026-05-09T10:05:54.000Z</time>
        <extensions>
          <ns3:TrackPointExtension>
            <ns3:atemp>15.0</ns3:atemp>
            <ns3:hr>85</ns3:hr>
          </ns3:TrackPointExtension>
        </extensions>
      </trkpt>
      <trkpt lat="48.83650864474475383758544921875" lon="-3.48352809436619281768798828125">
        <ele>12.6000003814697265625</ele>
        <time>2026-05-09T10:05:58.000Z</time>
        <extensions>
          <ns3:TrackPointExtension>
            <ns3:atemp>15.0</ns3:atemp>
            <ns3:hr>84</ns3:hr>
          </ns3:TrackPointExtension>
        </extensions>
      </trkpt>
      <trkpt lat="48.8365159370005130767822265625" lon="-3.48357620649039745330810546875">
        <ele>12</ele>
        <time>2026-05-09T10:06:02.000Z</time>
        <extensions>
          <ns3:TrackPointExtension>
            <ns3:atemp>15.0</ns3:atemp>
            <ns3:hr>84</ns3:hr>
          </ns3:TrackPointExtension>
        </extensions>
      </trkpt>
      <trkpt lat="48.83653362281620502471923828125" lon="-3.48360956646502017974853515625">
        <ele>11.3999996185302734375</ele>
        <time>2026-05-09T10:06:06.000Z</time>
        <extensions>
          <ns3:TrackPointExtension>
            <ns3:atemp>15.0</ns3:atemp>
            <ns3:hr>85</ns3:hr>
          </ns3:TrackPointExtension>
        </extensions>
      </trkpt>
      <trkpt lat="48.8365434296429157257080078125" lon="-3.48361593671143054962158203125">
        <ele>11.19999980926513671875</ele>
        <time>2026-05-09T10:06:07.000Z</time>
        <extensions>
          <ns3:TrackPointExtension>
            <ns3:atemp>15.0</ns3:atemp>
            <ns3:hr>85</ns3:hr>
          </ns3:TrackPointExtension>
        </extensions>
      </trkpt>
      <trkpt lat="48.83657469414174556732177734375" lon="-3.483613170683383941650390625">
        <ele>10.6000003814697265625</ele>
        <time>2026-05-09T10:06:11.000Z</time>
        <extensions>
          <ns3:TrackPointExtension>
            <ns3:atemp>15.0</ns3:atemp>
            <ns3:hr>88</ns3:hr>
          </ns3:TrackPointExtension>
        </extensions>
      </trkpt>
      <trkpt lat="48.8365793041884899139404296875" lon="-3.4836103208363056182861328125">
        <ele>10.3999996185302734375</ele>
        <time>2026-05-09T10:06:12.000Z</time>
        <extensions>
          <ns3:TrackPointExtension>
            <ns3:atemp>15.0</ns3:atemp>
            <ns3:hr>88</ns3:hr>
          </ns3:TrackPointExtension>
        </extensions>
      </trkpt>
      <trkpt lat="48.83658827282488346099853515625" lon="-3.483606465160846710205078125">
        <ele>10</ele>
        <time>2026-05-09T10:06:14.000Z</time>
        <extensions>
          <ns3:TrackPointExtension>
            <ns3:atemp>15.0</ns3:atemp>
            <ns3:hr>89</ns3:hr>
          </ns3:TrackPointExtension>
        </extensions>
      </trkpt>
      <trkpt lat="48.83660294115543365478515625" lon="-3.4835873544216156005859375">
        <ele>9.3999996185302734375</ele>
        <time>2026-05-09T10:06:16.000Z</time>
        <extensions>
          <ns3:TrackPointExtension>
            <ns3:atemp>15.0</ns3:atemp>
            <ns3:hr>90</ns3:hr>
          </ns3:TrackPointExtension>
        </extensions>
      </trkpt>
      <trkpt lat="48.83660704828798770904541015625" lon="-3.483565561473369598388671875">
        <ele>8.80000019073486328125</ele>
        <time>2026-05-09T10:06:20.000Z</time>
        <extensions>
          <ns3:TrackPointExtension>
            <ns3:atemp>15.0</ns3:atemp>
            <ns3:hr>92</ns3:hr>
          </ns3:TrackPointExtension>
        </extensions>
      </trkpt>
      <trkpt lat="48.836603276431560516357421875" lon="-3.48356078378856182098388671875">
        <ele>8.6000003814697265625</ele>
        <time>2026-05-09T10:06:27.000Z</time>
        <extensions>
          <ns3:TrackPointExtension>
            <ns3:atemp>15.0</ns3:atemp>
            <ns3:hr>85</ns3:hr>
          </ns3:TrackPointExtension>
        </extensions>
      </trkpt>
      <trkpt lat="48.836603276431560516357421875" lon="-3.48356078378856182098388671875">
        <ele>8.6000003814697265625</ele>
        <time>2026-05-09T10:06:28.000Z</time>
        <extensions>
          <ns3:TrackPointExtension>
            <ns3:atemp>15.0</ns3:atemp>
            <ns3:hr>77</ns3:hr>
          </ns3:TrackPointExtension>
        </extensions>
      </trkpt>
      <trkpt lat="48.836603276431560516357421875" lon="-3.48356078378856182098388671875">
        <ele>8.6000003814697265625</ele>
        <time>2026-05-09T10:06:29.000Z</time>
        <extensions>
          <ns3:TrackPointExtension>
            <ns3:atemp>15.0</ns3:atemp>
            <ns3:hr>77</ns3:hr>
          </ns3:TrackPointExtension>
        </extensions>
      </trkpt>
      <trkpt lat="48.836603276431560516357421875" lon="-3.48356078378856182098388671875">
        <ele>8.80000019073486328125</ele>
        <time>2026-05-09T10:06:31.000Z</time>
        <extensions>
          <ns3:TrackPointExtension>
            <ns3:atemp>15.0</ns3:atemp>
            <ns3:hr>73</ns3:hr>
          </ns3:TrackPointExtension>
        </extensions>
      </trkpt>
      <trkpt lat="48.836603276431560516357421875" lon="-3.48356078378856182098388671875">
        <ele>9</ele>
        <time>2026-05-09T10:06:34.000Z</time>
        <extensions>
          <ns3:TrackPointExtension>
            <ns3:atemp>15.0</ns3:atemp>
            <ns3:hr>77</ns3:hr>
          </ns3:TrackPointExtension>
        </extensions>
      </trkpt>
      <trkpt lat="48.836603276431560516357421875" lon="-3.48356078378856182098388671875">
        <ele>9</ele>
        <time>2026-05-09T10:06:35.000Z</time>
        <extensions>
          <ns3:TrackPointExtension>
            <ns3:atemp>15.0</ns3:atemp>
            <ns3:hr>80</ns3:hr>
          </ns3:TrackPointExtension>
        </extensions>
      </trkpt>
      <trkpt lat="48.836603276431560516357421875" lon="-3.48356078378856182098388671875">
        <ele>9.19999980926513671875</ele>
        <time>2026-05-09T10:06:40.000Z</time>
        <extensions>
          <ns3:TrackPointExtension>
            <ns3:atemp>15.0</ns3:atemp>
            <ns3:hr>81</ns3:hr>
          </ns3:TrackPointExtension>
        </extensions>
      </trkpt>
      <trkpt lat="48.836603276431560516357421875" lon="-3.48356078378856182098388671875">
        <ele>9</ele>
        <time>2026-05-09T10:06:42.000Z</time>
        <extensions>
          <ns3:TrackPointExtension>
            <ns3:atemp>15.0</ns3:atemp>
            <ns3:hr>86</ns3:hr>
          </ns3:TrackPointExtension>
        </extensions>
      </trkpt>
      <trkpt lat="48.836603276431560516357421875" lon="-3.48356078378856182098388671875">
        <ele>8.80000019073486328125</ele>
        <time>2026-05-09T10:06:50.000Z</time>
        <extensions>
          <ns3:TrackPointExtension>
            <ns3:atemp>15.0</ns3:atemp>
            <ns3:hr>87</ns3:hr>
          </ns3:TrackPointExtension>
        </extensions>
      </trkpt>
      <trkpt lat="48.836599923670291900634765625" lon="-3.483552820980548858642578125">
        <ele>8.6000003814697265625</ele>
        <time>2026-05-09T10:06:58.000Z</time>
        <extensions>
          <ns3:TrackPointExtension>
            <ns3:atemp>15.0</ns3:atemp>
            <ns3:hr>84</ns3:hr>
          </ns3:TrackPointExtension>
        </extensions>
      </trkpt>
      <trkpt lat="48.836603276431560516357421875" lon="-3.48356078378856182098388671875">
        <ele>8.80000019073486328125</ele>
        <time>2026-05-09T10:07:00.000Z</time>
        <extensions>
          <ns3:TrackPointExtension>
            <ns3:atemp>15.0</ns3:atemp>
            <ns3:hr>83</ns3:hr>
          </ns3:TrackPointExtension>
        </extensions>
      </trkpt>
      <trkpt lat="48.836603276431560516357421875" lon="-3.48356078378856182098388671875">
        <ele>8.80000019073486328125</ele>
        <time>2026-05-09T10:07:09.000Z</time>
        <extensions>
          <ns3:TrackPointExtension>
            <ns3:atemp>15.0</ns3:atemp>
            <ns3:hr>80</ns3:hr>
          </ns3:TrackPointExtension>
        </extensions>
      </trkpt>
      <trkpt lat="48.836603276431560516357421875" lon="-3.48356078378856182098388671875">
        <ele>8.80000019073486328125</ele>
        <time>2026-05-09T10:07:10.000Z</time>
        <extensions>
          <ns3:TrackPointExtension>
            <ns3:atemp>15.0</ns3:atemp>
            <ns3:hr>80</ns3:hr>
          </ns3:TrackPointExtension>
        </extensions>
      </trkpt>
      <trkpt lat="48.836603276431560516357421875" lon="-3.48356078378856182098388671875">
        <ele>9</ele>
        <time>2026-05-09T10:07:19.000Z</time>
        <extensions>
          <ns3:TrackPointExtension>
            <ns3:atemp>15.0</ns3:atemp>
            <ns3:hr>79</ns3:hr>
          </ns3:TrackPointExtension>
        </extensions>
      </trkpt>
      <trkpt lat="48.836603276431560516357421875" lon="-3.48356078378856182098388671875">
        <ele>8.80000019073486328125</ele>
        <time>2026-05-09T10:07:24.000Z</time>
        <extensions>
          <ns3:TrackPointExtension>
            <ns3:atemp>15.0</ns3:atemp>
            <ns3:hr>75</ns3:hr>
          </ns3:TrackPointExtension>
        </extensions>
      </trkpt>
      <trkpt lat="48.836603276431560516357421875" lon="-3.48356078378856182098388671875">
        <ele>8.80000019073486328125</ele>
        <time>2026-05-09T10:07:26.000Z</time>
        <extensions>
          <ns3:TrackPointExtension>
            <ns3:atemp>15.0</ns3:atemp>
            <ns3:hr>70</ns3:hr>
          </ns3:TrackPointExtension>
        </extensions>
      </trkpt>
      <trkpt lat="48.836603276431560516357421875" lon="-3.48356078378856182098388671875">
        <ele>8.6000003814697265625</ele>
        <time>2026-05-09T10:07:28.000Z</time>
        <extensions>
          <ns3:TrackPointExtension>
            <ns3:atemp>15.0</ns3:atemp>
            <ns3:hr>67</ns3:hr>
          </ns3:TrackPointExtension>
        </extensions>
      </trkpt>
      <trkpt lat="48.836603276431560516357421875" lon="-3.48356078378856182098388671875">
        <ele>8.6000003814697265625</ele>
        <time>2026-05-09T10:07:30.000Z</time>
        <extensions>
          <ns3:TrackPointExtension>
            <ns3:atemp>15.0</ns3:atemp>
            <ns3:hr>65</ns3:hr>
          </ns3:TrackPointExtension>
        </extensions>
      </trkpt>
      <trkpt lat="48.836603276431560516357421875" lon="-3.48356078378856182098388671875">
        <ele>9</ele>
        <time>2026-05-09T10:07:36.000Z</time>
        <extensions>
          <ns3:TrackPointExtension>
            <ns3:atemp>15.0</ns3:atemp>
            <ns3:hr>68</ns3:hr>
          </ns3:TrackPointExtension>
        </extensions>
      </trkpt>
      <trkpt lat="48.836603276431560516357421875" lon="-3.48356078378856182098388671875">
        <ele>8.6000003814697265625</ele>
        <time>2026-05-09T10:07:49.000Z</time>
        <extensions>
          <ns3:TrackPointExtension>
            <ns3:atemp>15.0</ns3:atemp>
            <ns3:hr>68</ns3:hr>
          </ns3:TrackPointExtension>
        </extensions>
      </trkpt>
      <trkpt lat="48.836603276431560516357421875" lon="-3.48356078378856182098388671875">
        <ele>8.6000003814697265625</ele>
        <time>2026-05-09T10:07:53.000Z</time>
        <extensions>
          <ns3:TrackPointExtension>
            <ns3:atemp>15.0</ns3:atemp>
            <ns3:hr>71</ns3:hr>
          </ns3:TrackPointExtension>
        </extensions>
      </trkpt>
      <trkpt lat="48.836603276431560516357421875" lon="-3.48356078378856182098388671875">
        <ele>9.19999980926513671875</ele>
        <time>2026-05-09T10:07:59.000Z</time>
        <extensions>
          <ns3:TrackPointExtension>
            <ns3:atemp>15.0</ns3:atemp>
            <ns3:hr>75</ns3:hr>
          </ns3:TrackPointExtension>
        </extensions>
      </trkpt>
      <trkpt lat="48.836603276431560516357421875" lon="-3.48356078378856182098388671875">
        <ele>9.19999980926513671875</ele>
        <time>2026-05-09T10:08:00.000Z</time>
        <extensions>
          <ns3:TrackPointExtension>
            <ns3:atemp>15.0</ns3:atemp>
            <ns3:hr>76</ns3:hr>
          </ns3:TrackPointExtension>
        </extensions>
      </trkpt>
      <trkpt lat="48.836603276431560516357421875" lon="-3.48356078378856182098388671875">
        <ele>9</ele>
        <time>2026-05-09T10:08:01.000Z</time>
        <extensions>
          <ns3:TrackPointExtension>
            <ns3:atemp>15.0</ns3:atemp>
            <ns3:hr>79</ns3:hr>
          </ns3:TrackPointExtension>
        </extensions>
      </trkpt>
      <trkpt lat="48.836603276431560516357421875" lon="-3.48356078378856182098388671875">
        <ele>8.6000003814697265625</ele>
        <time>2026-05-09T10:08:12.000Z</time>
        <extensions>
          <ns3:TrackPointExtension>
            <ns3:atemp>15.0</ns3:atemp>
            <ns3:hr>78</ns3:hr>
          </ns3:TrackPointExtension>
        </extensions>
      </trkpt>
      <trkpt lat="48.836603276431560516357421875" lon="-3.48356078378856182098388671875">
        <ele>8.80000019073486328125</ele>
        <time>2026-05-09T10:08:39.000Z</time>
        <extensions>
          <ns3:TrackPointExtension>
            <ns3:atemp>15.0</ns3:atemp>
            <ns3:hr>78</ns3:hr>
          </ns3:TrackPointExtension>
        </extensions>
      </trkpt>
      <trkpt lat="48.836603276431560516357421875" lon="-3.48356078378856182098388671875">
        <ele>8.80000019073486328125</ele>
        <time>2026-05-09T10:08:59.000Z</time>
        <extensions>
          <ns3:TrackPointExtension>
            <ns3:atemp>15.0</ns3:atemp>
            <ns3:hr>81</ns3:hr>
          </ns3:TrackPointExtension>
        </extensions>
      </trkpt>
      <trkpt lat="48.836603276431560516357421875" lon="-3.48356078378856182098388671875">
        <ele>9</ele>
        <time>2026-05-09T10:09:07.000Z</time>
        <extensions>
          <ns3:TrackPointExtension>
            <ns3:atemp>15.0</ns3:atemp>
            <ns3:hr>78</ns3:hr>
          </ns3:TrackPointExtension>
        </extensions>
      </trkpt>
      <trkpt lat="48.836603276431560516357421875" lon="-3.48356078378856182098388671875">
        <ele>9</ele>
        <time>2026-05-09T10:09:15.000Z</time>
        <extensions>
          <ns3:TrackPointExtension>
            <ns3:atemp>15.0</ns3:atemp>
            <ns3:hr>78</ns3:hr>
          </ns3:TrackPointExtension>
        </extensions>
      </trkpt>
      <trkpt lat="48.836603276431560516357421875" lon="-3.48356078378856182098388671875">
        <ele>8.6000003814697265625</ele>
        <time>2026-05-09T10:09:19.000Z</time>
        <extensions>
          <ns3:TrackPointExtension>
            <ns3:atemp>15.0</ns3:atemp>
            <ns3:hr>81</ns3:hr>
          </ns3:TrackPointExtension>
        </extensions>
      </trkpt>
      <trkpt lat="48.836603276431560516357421875" lon="-3.48356078378856182098388671875">
        <ele>9</ele>
        <time>2026-05-09T10:09:30.000Z</time>
        <extensions>
          <ns3:TrackPointExtension>
            <ns3:atemp>15.0</ns3:atemp>
            <ns3:hr>78</ns3:hr>
          </ns3:TrackPointExtension>
        </extensions>
      </trkpt>
      <trkpt lat="48.836603276431560516357421875" lon="-3.48356078378856182098388671875">
        <ele>9</ele>
        <time>2026-05-09T10:09:34.000Z</time>
        <extensions>
          <ns3:TrackPointExtension>
            <ns3:atemp>15.0</ns3:atemp>
            <ns3:hr>79</ns3:hr>
          </ns3:TrackPointExtension>
        </extensions>
      </trkpt>
      <trkpt lat="48.836603276431560516357421875" lon="-3.48356078378856182098388671875">
        <ele>9.3999996185302734375</ele>
        <time>2026-05-09T10:09:44.000Z</time>
        <extensions>
          <ns3:TrackPointExtension>
            <ns3:atemp>15.0</ns3:atemp>
            <ns3:hr>82</ns3:hr>
          </ns3:TrackPointExtension>
        </extensions>
      </trkpt>
      <trkpt lat="48.836603276431560516357421875" lon="-3.48356078378856182098388671875">
        <ele>9.6000003814697265625</ele>
        <time>2026-05-09T10:09:49.000Z</time>
        <extensions>
          <ns3:TrackPointExtension>
            <ns3:atemp>15.0</ns3:atemp>
            <ns3:hr>82</ns3:hr>
          </ns3:TrackPointExtension>
        </extensions>
      </trkpt>
      <trkpt lat="48.836603276431560516357421875" lon="-3.48356078378856182098388671875">
        <ele>9.3999996185302734375</ele>
        <time>2026-05-09T10:09:53.000Z</time>
        <extensions>
          <ns3:TrackPointExtension>
            <ns3:atemp>15.0</ns3:atemp>
            <ns3:hr>78</ns3:hr>
          </ns3:TrackPointExtension>
        </extensions>
      </trkpt>
      <trkpt lat="48.836603276431560516357421875" lon="-3.48356078378856182098388671875">
        <ele>9.3999996185302734375</ele>
        <time>2026-05-09T10:09:58.000Z</time>
        <extensions>
          <ns3:TrackPointExtension>
            <ns3:atemp>15.0</ns3:atemp>
            <ns3:hr>83</ns3:hr>
          </ns3:TrackPointExtension>
        </extensions>
      </trkpt>
      <trkpt lat="48.836603276431560516357421875" lon="-3.48356078378856182098388671875">
        <ele>9.6000003814697265625</ele>
        <time>2026-05-09T10:10:00.000Z</time>
        <extensions>
          <ns3:TrackPointExtension>
            <ns3:atemp>15.0</ns3:atemp>
            <ns3:hr>86</ns3:hr>
          </ns3:TrackPointExtension>
        </extensions>
      </trkpt>
      <trkpt lat="48.836603276431560516357421875" lon="-3.48356078378856182098388671875">
        <ele>9.3999996185302734375</ele>
        <time>2026-05-09T10:10:14.000Z</time>
        <extensions>
          <ns3:TrackPointExtension>
            <ns3:atemp>15.0</ns3:atemp>
            <ns3:hr>83</ns3:hr>
          </ns3:TrackPointExtension>
        </extensions>
      </trkpt>
      <trkpt lat="48.836603276431560516357421875" lon="-3.48356078378856182098388671875">
        <ele>9.19999980926513671875</ele>
        <time>2026-05-09T10:10:16.000Z</time>
        <extensions>
          <ns3:TrackPointExtension>
            <ns3:atemp>15.0</ns3:atemp>
            <ns3:hr>83</ns3:hr>
          </ns3:TrackPointExtension>
        </extensions>
      </trkpt>
      <trkpt lat="48.836603276431560516357421875" lon="-3.48356078378856182098388671875">
        <ele>9</ele>
        <time>2026-05-09T10:10:24.000Z</time>
        <extensions>
          <ns3:TrackPointExtension>
            <ns3:atemp>15.0</ns3:atemp>
            <ns3:hr>87</ns3:hr>
          </ns3:TrackPointExtension>
        </extensions>
      </trkpt>
      <trkpt lat="48.836603276431560516357421875" lon="-3.48356078378856182098388671875">
        <ele>9.6000003814697265625</ele>
        <time>2026-05-09T10:10:31.000Z</time>
        <extensions>
          <ns3:TrackPointExtension>
            <ns3:atemp>15.0</ns3:atemp>
            <ns3:hr>86</ns3:hr>
          </ns3:TrackPointExtension>
        </extensions>
      </trkpt>
      <trkpt lat="48.836603276431560516357421875" lon="-3.48356078378856182098388671875">
        <ele>9.6000003814697265625</ele>
        <time>2026-05-09T10:10:33.000Z</time>
        <extensions>
          <ns3:TrackPointExtension>
            <ns3:atemp>15.0</ns3:atemp>
            <ns3:hr>83</ns3:hr>
          </ns3:TrackPointExtension>
        </extensions>
      </trkpt>
      <trkpt lat="48.836603276431560516357421875" lon="-3.48356078378856182098388671875">
        <ele>9.80000019073486328125</ele>
        <time>2026-05-09T10:10:37.000Z</time>
        <extensions>
          <ns3:TrackPointExtension>
            <ns3:atemp>15.0</ns3:atemp>
            <ns3:hr>80</ns3:hr>
          </ns3:TrackPointExtension>
        </extensions>
      </trkpt>
      <trkpt lat="48.836603276431560516357421875" lon="-3.48356078378856182098388671875">
        <ele>9.19999980926513671875</ele>
        <time>2026-05-09T10:10:55.000Z</time>
        <extensions>
          <ns3:TrackPointExtension>
            <ns3:atemp>15.0</ns3:atemp>
            <ns3:hr>82</ns3:hr>
          </ns3:TrackPointExtension>
        </extensions>
      </trkpt>
      <trkpt lat="48.836603276431560516357421875" lon="-3.48356078378856182098388671875">
        <ele>8.80000019073486328125</ele>
        <time>2026-05-09T10:11:16.000Z</time>
        <extensions>
          <ns3:TrackPointExtension>
            <ns3:atemp>15.0</ns3:atemp>
            <ns3:hr>79</ns3:hr>
          </ns3:TrackPointExtension>
        </extensions>
      </trkpt>
      <trkpt lat="48.836603276431560516357421875" lon="-3.48356078378856182098388671875">
        <ele>8.6000003814697265625</ele>
        <time>2026-05-09T10:11:21.000Z</time>
        <extensions>
          <ns3:TrackPointExtension>
            <ns3:atemp>15.0</ns3:atemp>
            <ns3:hr>76</ns3:hr>
          </ns3:TrackPointExtension>
        </extensions>
      </trkpt>
      <trkpt lat="48.836603276431560516357421875" lon="-3.48356078378856182098388671875">
        <ele>9.6000003814697265625</ele>
        <time>2026-05-09T10:11:41.000Z</time>
        <extensions>
          <ns3:TrackPointExtension>
            <ns3:atemp>15.0</ns3:atemp>
            <ns3:hr>75</ns3:hr>
          </ns3:TrackPointExtension>
        </extensions>
      </trkpt>
      <trkpt lat="48.836603276431560516357421875" lon="-3.48356078378856182098388671875">
        <ele>9.19999980926513671875</ele>
        <time>2026-05-09T10:11:51.000Z</time>
        <extensions>
          <ns3:TrackPointExtension>
            <ns3:atemp>15.0</ns3:atemp>
            <ns3:hr>78</ns3:hr>
          </ns3:TrackPointExtension>
        </extensions>
      </trkpt>
      <trkpt lat="48.836603276431560516357421875" lon="-3.48356078378856182098388671875">
        <ele>9.19999980926513671875</ele>
        <time>2026-05-09T10:12:00.000Z</time>
        <extensions>
          <ns3:TrackPointExtension>
            <ns3:atemp>15.0</ns3:atemp>
            <ns3:hr>80</ns3:hr>
          </ns3:TrackPointExtension>
        </extensions>
      </trkpt>
      <trkpt lat="48.836599253118038177490234375" lon="-3.483575284481048583984375">
        <ele>9.19999980926513671875</ele>
        <time>2026-05-09T10:12:12.000Z</time>
        <extensions>
          <ns3:TrackPointExtension>
            <ns3:atemp>15.0</ns3:atemp>
            <ns3:hr>79</ns3:hr>
          </ns3:TrackPointExtension>
        </extensions>
      </trkpt>
      <trkpt lat="48.83660285733640193939208984375" lon="-3.48358626477420330047607421875">
        <ele>8.80000019073486328125</ele>
        <time>2026-05-09T10:12:17.000Z</time>
        <extensions>
          <ns3:TrackPointExtension>
            <ns3:atemp>15.0</ns3:atemp>
            <ns3:hr>79</ns3:hr>
          </ns3:TrackPointExtension>
        </extensions>
      </trkpt>
      <trkpt lat="48.83656396530568599700927734375" lon="-3.4836141765117645263671875">
        <ele>10</ele>
        <time>2026-05-09T10:12:23.000Z</time>
        <extensions>
          <ns3:TrackPointExtension>
            <ns3:atemp>15.0</ns3:atemp>
            <ns3:hr>80</ns3:hr>
          </ns3:TrackPointExtension>
        </extensions>
      </trkpt>
      <trkpt lat="48.836557008326053619384765625" lon="-3.48361627198755741119384765625">
        <ele>10.3999996185302734375</ele>
        <time>2026-05-09T10:12:24.000Z</time>
        <extensions>
          <ns3:TrackPointExtension>
            <ns3:atemp>15.0</ns3:atemp>
            <ns3:hr>79</ns3:hr>
          </ns3:TrackPointExtension>
        </extensions>
      </trkpt>
      <trkpt lat="48.83652876131236553192138671875" lon="-3.48359615541994571685791015625">
        <ele>11.19999980926513671875</ele>
        <time>2026-05-09T10:12:27.000Z</time>
        <extensions>
          <ns3:TrackPointExtension>
            <ns3:atemp>15.0</ns3:atemp>
            <ns3:hr>79</ns3:hr>
          </ns3:TrackPointExtension>
        </extensions>
      </trkpt>
      <trkpt lat="48.8365219719707965850830078125" lon="-3.4835846722126007080078125">
        <ele>11.3999996185302734375</ele>
        <time>2026-05-09T10:12:28.000Z</time>
        <extensions>
          <ns3:TrackPointExtension>
            <ns3:atemp>15.0</ns3:atemp>
            <ns3:hr>79</ns3:hr>
          </ns3:TrackPointExtension>
        </extensions>
      </trkpt>
      <trkpt lat="48.83651669137179851531982421875" lon="-3.48357067443430423736572265625">
        <ele>12</ele>
        <time>2026-05-09T10:12:30.000Z</time>
        <extensions>
          <ns3:TrackPointExtension>
            <ns3:atemp>15.0</ns3:atemp>
            <ns3:hr>80</ns3:hr>
          </ns3:TrackPointExtension>
        </extensions>
      </trkpt>
      <trkpt lat="48.836521469056606292724609375" lon="-3.48352105356752872467041015625">
        <ele>12.3999996185302734375</ele>
        <time>2026-05-09T10:12:34.000Z</time>
        <extensions>
          <ns3:TrackPointExtension>
            <ns3:atemp>15.0</ns3:atemp>
            <ns3:hr>81</ns3:hr>
          </ns3:TrackPointExtension>
        </extensions>
      </trkpt>
      <trkpt lat="48.83651887066662311553955078125" lon="-3.4835095703601837158203125">
        <ele>12.6000003814697265625</ele>
        <time>2026-05-09T10:12:35.000Z</time>
        <extensions>
          <ns3:TrackPointExtension>
            <ns3:atemp>15.0</ns3:atemp>
            <ns3:hr>81</ns3:hr>
          </ns3:TrackPointExtension>
        </extensions>
      </trkpt>
      <trkpt lat="48.836493305861949920654296875" lon="-3.48344142548739910125732421875">
        <ele>13.6000003814697265625</ele>
        <time>2026-05-09T10:12:40.000Z</time>
        <extensions>
          <ns3:TrackPointExtension>
            <ns3:atemp>15.0</ns3:atemp>
            <ns3:hr>84</ns3:hr>
          </ns3:TrackPointExtension>
        </extensions>
      </trkpt>
      <trkpt lat="48.83647880516946315765380859375" lon="-3.48341225646436214447021484375">
        <ele>14.19999980926513671875</ele>
        <time>2026-05-09T10:12:42.000Z</time>
        <extensions>
          <ns3:TrackPointExtension>
            <ns3:atemp>15.0</ns3:atemp>
            <ns3:hr>86</ns3:hr>
          </ns3:TrackPointExtension>
        </extensions>
      </trkpt>
      <trkpt lat="48.836462460458278656005859375" lon="-3.48338610492646694183349609375">
        <ele>14.6000003814697265625</ele>
        <time>2026-05-09T10:12:45.000Z</time>
        <extensions>
          <ns3:TrackPointExtension>
            <ns3:atemp>15.0</ns3:atemp>
            <ns3:hr>88</ns3:hr>
          </ns3:TrackPointExtension>
        </extensions>
      </trkpt>
      <trkpt lat="48.83644611574709415435791015625" lon="-3.48334888927638530731201171875">
        <ele>15.6000003814697265625</ele>
        <time>2026-05-09T10:12:48.000Z</time>
        <extensions>
          <ns3:TrackPointExtension>
            <ns3:atemp>15.0</ns3:atemp>
            <ns3:hr>90</ns3:hr>
          </ns3:TrackPointExtension>
        </extensions>
      </trkpt>
      <trkpt lat="48.83644192479550838470458984375" lon="-3.4833407588303089141845703125">
        <ele>15.80000019073486328125</ele>
        <time>2026-05-09T10:12:49.000Z</time>
        <extensions>
          <ns3:TrackPointExtension>
            <ns3:atemp>15.0</ns3:atemp>
            <ns3:hr>91</ns3:hr>
          </ns3:TrackPointExtension>
        </extensions>
      </trkpt>
      <trkpt lat="48.83641392923891544342041015625" lon="-3.48330614157021045684814453125">
        <ele>16</ele>
        <time>2026-05-09T10:12:53.000Z</time>
        <extensions>
          <ns3:TrackPointExtension>
            <ns3:atemp>15.0</ns3:atemp>
            <ns3:hr>94</ns3:hr>
          </ns3:TrackPointExtension>
        </extensions>
      </trkpt>
      <trkpt lat="48.83640068583190441131591796875" lon="-3.48330379463732242584228515625">
        <ele>16.200000762939453125</ele>
        <time>2026-05-09T10:12:54.000Z</time>
        <extensions>
          <ns3:TrackPointExtension>
            <ns3:atemp>15.0</ns3:atemp>
            <ns3:hr>95</ns3:hr>
          </ns3:TrackPointExtension>
        </extensions>
      </trkpt>
      <trkpt lat="48.83638023398816585540771484375" lon="-3.48332290537655353546142578125">
        <ele>16.3999996185302734375</ele>
        <time>2026-05-09T10:12:59.000Z</time>
        <extensions>
          <ns3:TrackPointExtension>
            <ns3:atemp>15.0</ns3:atemp>
            <ns3:hr>97</ns3:hr>
          </ns3:TrackPointExtension>
        </extensions>
      </trkpt>
      <trkpt lat="48.8363607041537761688232421875" lon="-3.48338610492646694183349609375">
        <ele>16.3999996185302734375</ele>
        <time>2026-05-09T10:13:02.000Z</time>
        <extensions>
          <ns3:TrackPointExtension>
            <ns3:atemp>15.0</ns3:atemp>
            <ns3:hr>100</ns3:hr>
          </ns3:TrackPointExtension>
        </extensions>
      </trkpt>
      <trkpt lat="48.83635190315544605255126953125" lon="-3.48342650569975376129150390625">
        <ele>16.3999996185302734375</ele>
        <time>2026-05-09T10:13:04.000Z</time>
        <extensions>
          <ns3:TrackPointExtension>
            <ns3:atemp>15.0</ns3:atemp>
            <ns3:hr>103</ns3:hr>
          </ns3:TrackPointExtension>
        </extensions>
      </trkpt>
      <trkpt lat="48.83634670637547969818115234375" lon="-3.483443520963191986083984375">
        <ele>16.3999996185302734375</ele>
        <time>2026-05-09T10:13:05.000Z</time>
        <extensions>
          <ns3:TrackPointExtension>
            <ns3:atemp>15.0</ns3:atemp>
            <ns3:hr>104</ns3:hr>
          </ns3:TrackPointExtension>
        </extensions>
      </trkpt>
      <trkpt lat="48.8363301940262317657470703125" lon="-3.4834934771060943603515625">
        <ele>16.6000003814697265625</ele>
        <time>2026-05-09T10:13:08.000Z</time>
        <extensions>
          <ns3:TrackPointExtension>
            <ns3:atemp>15.0</ns3:atemp>
            <ns3:hr>107</ns3:hr>
          </ns3:TrackPointExtension>
        </extensions>
      </trkpt>
      <trkpt lat="48.83631183765828609466552734375" lon="-3.48353262059390544891357421875">
        <ele>16.799999237060546875</ele>
        <time>2026-05-09T10:13:11.000Z</time>
        <extensions>
          <ns3:TrackPointExtension>
            <ns3:atemp>15.0</ns3:atemp>
            <ns3:hr>106</ns3:hr>
          </ns3:TrackPointExtension>
        </extensions>
      </trkpt>
      <trkpt lat="48.83629809133708477020263671875" lon="-3.48356229253113269805908203125">
        <ele>17</ele>
        <time>2026-05-09T10:13:13.000Z</time>
        <extensions>
          <ns3:TrackPointExtension>
            <ns3:atemp>15.0</ns3:atemp>
            <ns3:hr>105</ns3:hr>
          </ns3:TrackPointExtension>
        </extensions>
      </trkpt>
      <trkpt lat="48.83628736250102519989013671875" lon="-3.48358995281159877777099609375">
        <ele>17.200000762939453125</ele>
        <time>2026-05-09T10:13:15.000Z</time>
        <extensions>
          <ns3:TrackPointExtension>
            <ns3:atemp>15.0</ns3:atemp>
            <ns3:hr>102</ns3:hr>
          </ns3:TrackPointExtension>
        </extensions>
      </trkpt>
      <trkpt lat="48.83626523427665233612060546875" lon="-3.483674190938472747802734375">
        <ele>17.3999996185302734375</ele>
        <time>2026-05-09T10:13:21.000Z</time>
        <extensions>
          <ns3:TrackPointExtension>
            <ns3:atemp>15.0</ns3:atemp>
            <ns3:hr>102</ns3:hr>
          </ns3:TrackPointExtension>
        </extensions>
      </trkpt>
      <trkpt lat="48.8362597860395908355712890625" lon="-3.4837290085852146148681640625">
        <ele>17.799999237060546875</ele>
        <time>2026-05-09T10:13:25.000Z</time>
        <extensions>
          <ns3:TrackPointExtension>
            <ns3:atemp>15.0</ns3:atemp>
            <ns3:hr>103</ns3:hr>
          </ns3:TrackPointExtension>
        </extensions>
      </trkpt>
      <trkpt lat="48.83625098504126071929931640625" lon="-3.4837759472429752349853515625">
        <ele>18.200000762939453125</ele>
        <time>2026-05-09T10:13:29.000Z</time>
        <extensions>
          <ns3:TrackPointExtension>
            <ns3:atemp>15.0</ns3:atemp>
            <ns3:hr>106</ns3:hr>
          </ns3:TrackPointExtension>
        </extensions>
      </trkpt>
      <trkpt lat="48.8362490572035312652587890625" lon="-3.48383520729839801788330078125">
        <ele>18</ele>
        <time>2026-05-09T10:13:34.000Z</time>
        <extensions>
          <ns3:TrackPointExtension>
            <ns3:atemp>15.0</ns3:atemp>
            <ns3:hr>108</ns3:hr>
          </ns3:TrackPointExtension>
        </extensions>
      </trkpt>
      <trkpt lat="48.8362415134906768798828125" lon="-3.48385356366634368896484375">
        <ele>17.799999237060546875</ele>
        <time>2026-05-09T10:13:36.000Z</time>
        <extensions>
          <ns3:TrackPointExtension>
            <ns3:atemp>15.0</ns3:atemp>
            <ns3:hr>109</ns3:hr>
          </ns3:TrackPointExtension>
        </extensions>
      </trkpt>
      <trkpt lat="48.83623547852039337158203125" lon="-3.48385448567569255828857421875">
        <ele>17.6000003814697265625</ele>
        <time>2026-05-09T10:13:40.000Z</time>
        <extensions>
          <ns3:TrackPointExtension>
            <ns3:atemp>15.0</ns3:atemp>
            <ns3:hr>108</ns3:hr>
          </ns3:TrackPointExtension>
        </extensions>
      </trkpt>
      <trkpt lat="48.83627663366496562957763671875" lon="-3.483886085450649261474609375">
        <ele>17.200000762939453125</ele>
        <time>2026-05-09T10:13:49.000Z</time>
        <extensions>
          <ns3:TrackPointExtension>
            <ns3:atemp>15.0</ns3:atemp>
            <ns3:hr>107</ns3:hr>
          </ns3:TrackPointExtension>
        </extensions>
      </trkpt>
      <trkpt lat="48.83630060590803623199462890625" lon="-3.4838993288576602935791015625">
        <ele>16.799999237060546875</ele>
        <time>2026-05-09T10:13:51.000Z</time>
        <extensions>
          <ns3:TrackPointExtension>
            <ns3:atemp>15.0</ns3:atemp>
            <ns3:hr>104</ns3:hr>
          </ns3:TrackPointExtension>
        </extensions>
      </trkpt>
      <trkpt lat="48.8363114185631275177001953125" lon="-3.48390310071408748626708984375">
        <ele>16.799999237060546875</ele>
        <time>2026-05-09T10:13:52.000Z</time>
        <extensions>
          <ns3:TrackPointExtension>
            <ns3:atemp>15.0</ns3:atemp>
            <ns3:hr>102</ns3:hr>
          </ns3:TrackPointExtension>
        </extensions>
      </trkpt>
      <trkpt lat="48.836331032216548919677734375" lon="-3.4839056991040706634521484375">
        <ele>16.6000003814697265625</ele>
        <time>2026-05-09T10:13:54.000Z</time>
        <extensions>
          <ns3:TrackPointExtension>
            <ns3:atemp>15.0</ns3:atemp>
            <ns3:hr>99</ns3:hr>
          </ns3:TrackPointExtension>
        </extensions>
      </trkpt>
      <trkpt lat="48.83633530698716640472412109375" lon="-3.48390444181859493255615234375">
        <ele>16.799999237060546875</ele>
        <time>2026-05-09T10:13:56.000Z</time>
        <extensions>
          <ns3:TrackPointExtension>
            <ns3:atemp>15.0</ns3:atemp>
            <ns3:hr>96</ns3:hr>
          </ns3:TrackPointExtension>
        </extensions>
      </trkpt>
      <trkpt lat="48.8363338820636272430419921875" lon="-3.4839036874473094940185546875">
        <ele>16.799999237060546875</ele>
        <time>2026-05-09T10:13:57.000Z</time>
        <extensions>
          <ns3:TrackPointExtension>
            <ns3:atemp>15.0</ns3:atemp>
            <ns3:hr>95</ns3:hr>
          </ns3:TrackPointExtension>
        </extensions>
      </trkpt>
      <trkpt lat="48.8363338820636272430419921875" lon="-3.4839036874473094940185546875">
        <ele>16.6000003814697265625</ele>
        <time>2026-05-09T10:14:04.000Z</time>
        <extensions>
          <ns3:TrackPointExtension>
            <ns3:atemp>15.0</ns3:atemp>
            <ns3:hr>92</ns3:hr>
          </ns3:TrackPointExtension>
        </extensions>
      </trkpt>
      <trkpt lat="48.8363338820636272430419921875" lon="-3.4839036874473094940185546875">
        <ele>16.200000762939453125</ele>
        <time>2026-05-09T10:14:07.000Z</time>
        <extensions>
          <ns3:TrackPointExtension>
            <ns3:atemp>15.0</ns3:atemp>
            <ns3:hr>89</ns3:hr>
          </ns3:TrackPointExtension>
        </extensions>
      </trkpt>
      <trkpt lat="48.8363338820636272430419921875" lon="-3.4839036874473094940185546875">
        <ele>16.200000762939453125</ele>
        <time>2026-05-09T10:14:11.000Z</time>
        <extensions>
          <ns3:TrackPointExtension>
            <ns3:atemp>15.0</ns3:atemp>
            <ns3:hr>87</ns3:hr>
          </ns3:TrackPointExtension>
        </extensions>
      </trkpt>
      <trkpt lat="48.8363338820636272430419921875" lon="-3.4839036874473094940185546875">
        <ele>16.3999996185302734375</ele>
        <time>2026-05-09T10:14:14.000Z</time>
        <extensions>
          <ns3:TrackPointExtension>
            <ns3:atemp>15.0</ns3:atemp>
            <ns3:hr>84</ns3:hr>
          </ns3:TrackPointExtension>
        </extensions>
      </trkpt>
      <trkpt lat="48.8363338820636272430419921875" lon="-3.4839036874473094940185546875">
        <ele>16.6000003814697265625</ele>
        <time>2026-05-09T10:14:24.000Z</time>
        <extensions>
          <ns3:TrackPointExtension>
            <ns3:atemp>15.0</ns3:atemp>
            <ns3:hr>84</ns3:hr>
          </ns3:TrackPointExtension>
        </extensions>
      </trkpt>
      <trkpt lat="48.8363338820636272430419921875" lon="-3.4839036874473094940185546875">
        <ele>16.200000762939453125</ele>
        <time>2026-05-09T10:14:37.000Z</time>
        <extensions>
          <ns3:TrackPointExtension>
            <ns3:atemp>15.0</ns3:atemp>
            <ns3:hr>81</ns3:hr>
          </ns3:TrackPointExtension>
        </extensions>
      </trkpt>
      <trkpt lat="48.8363338820636272430419921875" lon="-3.4839036874473094940185546875">
        <ele>16.200000762939453125</ele>
        <time>2026-05-09T10:14:40.000Z</time>
        <extensions>
          <ns3:TrackPointExtension>
            <ns3:atemp>15.0</ns3:atemp>
            <ns3:hr>80</ns3:hr>
          </ns3:TrackPointExtension>
        </extensions>
      </trkpt>
      <trkpt lat="48.8363338820636272430419921875" lon="-3.4839036874473094940185546875">
        <ele>16</ele>
        <time>2026-05-09T10:14:58.000Z</time>
        <extensions>
          <ns3:TrackPointExtension>
            <ns3:atemp>15.0</ns3:atemp>
            <ns3:hr>79</ns3:hr>
          </ns3:TrackPointExtension>
        </extensions>
      </trkpt>
      <trkpt lat="48.8363338820636272430419921875" lon="-3.4839036874473094940185546875">
        <ele>15.80000019073486328125</ele>
        <time>2026-05-09T10:15:13.000Z</time>
        <extensions>
          <ns3:TrackPointExtension>
            <ns3:atemp>15.0</ns3:atemp>
            <ns3:hr>77</ns3:hr>
          </ns3:TrackPointExtension>
        </extensions>
      </trkpt>
      <trkpt lat="48.8363338820636272430419921875" lon="-3.4839036874473094940185546875">
        <ele>16</ele>
        <time>2026-05-09T10:15:17.000Z</time>
        <extensions>
          <ns3:TrackPointExtension>
            <ns3:atemp>15.0</ns3:atemp>
            <ns3:hr>74</ns3:hr>
          </ns3:TrackPointExtension>
        </extensions>
      </trkpt>
      <trkpt lat="48.8363338820636272430419921875" lon="-3.4839036874473094940185546875">
        <ele>16</ele>
        <time>2026-05-09T10:15:22.000Z</time>
        <extensions>
          <ns3:TrackPointExtension>
            <ns3:atemp>15.0</ns3:atemp>
            <ns3:hr>71</ns3:hr>
          </ns3:TrackPointExtension>
        </extensions>
      </trkpt>
      <trkpt lat="48.8363338820636272430419921875" lon="-3.4839036874473094940185546875">
        <ele>16</ele>
        <time>2026-05-09T10:15:23.000Z</time>
        <extensions>
          <ns3:TrackPointExtension>
            <ns3:atemp>15.0</ns3:atemp>
            <ns3:hr>72</ns3:hr>
          </ns3:TrackPointExtension>
        </extensions>
      </trkpt>
      <trkpt lat="48.8363338820636272430419921875" lon="-3.4839036874473094940185546875">
        <ele>16.200000762939453125</ele>
        <time>2026-05-09T10:15:35.000Z</time>
        <extensions>
          <ns3:TrackPointExtension>
            <ns3:atemp>15.0</ns3:atemp>
            <ns3:hr>75</ns3:hr>
          </ns3:TrackPointExtension>
        </extensions>
      </trkpt>
      <trkpt lat="48.8363338820636272430419921875" lon="-3.4839036874473094940185546875">
        <ele>16.200000762939453125</ele>
        <time>2026-05-09T10:15:37.000Z</time>
        <extensions>
          <ns3:TrackPointExtension>
            <ns3:atemp>15.0</ns3:atemp>
            <ns3:hr>80</ns3:hr>
          </ns3:TrackPointExtension>
        </extensions>
      </trkpt>
      <trkpt lat="48.8363338820636272430419921875" lon="-3.4839036874473094940185546875">
        <ele>16</ele>
        <time>2026-05-09T10:15:38.000Z</time>
        <extensions>
          <ns3:TrackPointExtension>
            <ns3:atemp>15.0</ns3:atemp>
            <ns3:hr>83</ns3:hr>
          </ns3:TrackPointExtension>
        </extensions>
      </trkpt>
      <trkpt lat="48.8363338820636272430419921875" lon="-3.4839036874473094940185546875">
        <ele>15.80000019073486328125</ele>
        <time>2026-05-09T10:15:42.000Z</time>
        <extensions>
          <ns3:TrackPointExtension>
            <ns3:atemp>15.0</ns3:atemp>
            <ns3:hr>86</ns3:hr>
          </ns3:TrackPointExtension>
        </extensions>
      </trkpt>
      <trkpt lat="48.8363338820636272430419921875" lon="-3.4839036874473094940185546875">
        <ele>15.80000019073486328125</ele>
        <time>2026-05-09T10:15:46.000Z</time>
        <extensions>
          <ns3:TrackPointExtension>
            <ns3:atemp>15.0</ns3:atemp>
            <ns3:hr>87</ns3:hr>
          </ns3:TrackPointExtension>
        </extensions>
      </trkpt>
      <trkpt lat="48.83633203804492950439453125" lon="-3.483911566436290740966796875">
        <ele>16</ele>
        <time>2026-05-09T10:16:04.000Z</time>
        <extensions>
          <ns3:TrackPointExtension>
            <ns3:atemp>15.0</ns3:atemp>
            <ns3:hr>86</ns3:hr>
          </ns3:TrackPointExtension>
        </extensions>
      </trkpt>
      <trkpt lat="48.8363338820636272430419921875" lon="-3.4839036874473094940185546875">
        <ele>15.6000003814697265625</ele>
        <time>2026-05-09T10:16:08.000Z</time>
        <extensions>
          <ns3:TrackPointExtension>
            <ns3:atemp>15.0</ns3:atemp>
            <ns3:hr>85</ns3:hr>
          </ns3:TrackPointExtension>
        </extensions>
      </trkpt>
      <trkpt lat="48.83632759563624858856201171875" lon="-3.48391684703528881072998046875">
        <ele>15.80000019073486328125</ele>
        <time>2026-05-09T10:16:12.000Z</time>
        <extensions>
          <ns3:TrackPointExtension>
            <ns3:atemp>15.0</ns3:atemp>
            <ns3:hr>86</ns3:hr>
          </ns3:TrackPointExtension>
        </extensions>
      </trkpt>
      <trkpt lat="48.8363338820636272430419921875" lon="-3.4839036874473094940185546875">
        <ele>17</ele>
        <time>2026-05-09T10:16:14.000Z</time>
        <extensions>
          <ns3:TrackPointExtension>
            <ns3:atemp>15.0</ns3:atemp>
            <ns3:hr>87</ns3:hr>
          </ns3:TrackPointExtension>
        </extensions>
      </trkpt>
      <trkpt lat="48.8363338820636272430419921875" lon="-3.4839036874473094940185546875">
        <ele>16.200000762939453125</ele>
        <time>2026-05-09T10:16:21.000Z</time>
        <extensions>
          <ns3:TrackPointExtension>
            <ns3:atemp>15.0</ns3:atemp>
            <ns3:hr>85</ns3:hr>
          </ns3:TrackPointExtension>
        </extensions>
      </trkpt>
      <trkpt lat="48.8363338820636272430419921875" lon="-3.4839036874473094940185546875">
        <ele>15.80000019073486328125</ele>
        <time>2026-05-09T10:16:24.000Z</time>
        <extensions>
          <ns3:TrackPointExtension>
            <ns3:atemp>15.0</ns3:atemp>
            <ns3:hr>83</ns3:hr>
          </ns3:TrackPointExtension>
        </extensions>
      </trkpt>
      <trkpt lat="48.8363338820636272430419921875" lon="-3.4839036874473094940185546875">
        <ele>15.80000019073486328125</ele>
        <time>2026-05-09T10:16:30.000Z</time>
        <extensions>
          <ns3:TrackPointExtension>
            <ns3:atemp>15.0</ns3:atemp>
            <ns3:hr>80</ns3:hr>
          </ns3:TrackPointExtension>
        </extensions>
      </trkpt>
      <trkpt lat="48.8363338820636272430419921875" lon="-3.4839036874473094940185546875">
        <ele>15.80000019073486328125</ele>
        <time>2026-05-09T10:16:32.000Z</time>
        <extensions>
          <ns3:TrackPointExtension>
            <ns3:atemp>15.0</ns3:atemp>
            <ns3:hr>77</ns3:hr>
          </ns3:TrackPointExtension>
        </extensions>
      </trkpt>
      <trkpt lat="48.8363338820636272430419921875" lon="-3.4839036874473094940185546875">
        <ele>16</ele>
        <time>2026-05-09T10:16:34.000Z</time>
        <extensions>
          <ns3:TrackPointExtension>
            <ns3:atemp>15.0</ns3:atemp>
            <ns3:hr>74</ns3:hr>
          </ns3:TrackPointExtension>
        </extensions>
      </trkpt>
      <trkpt lat="48.8363338820636272430419921875" lon="-3.4839036874473094940185546875">
        <ele>16.200000762939453125</ele>
        <time>2026-05-09T10:16:39.000Z</time>
        <extensions>
          <ns3:TrackPointExtension>
            <ns3:atemp>15.0</ns3:atemp>
            <ns3:hr>74</ns3:hr>
          </ns3:TrackPointExtension>
        </extensions>
      </trkpt>
      <trkpt lat="48.83631804026663303375244140625" lon="-3.48390662111341953277587890625">
        <ele>15.3999996185302734375</ele>
        <time>2026-05-09T10:16:49.000Z</time>
        <extensions>
          <ns3:TrackPointExtension>
            <ns3:atemp>15.0</ns3:atemp>
            <ns3:hr>74</ns3:hr>
          </ns3:TrackPointExtension>
        </extensions>
      </trkpt>
      <trkpt lat="48.836309574544429779052734375" lon="-3.483904860913753509521484375">
        <ele>15.80000019073486328125</ele>
        <time>2026-05-09T10:16:57.000Z</time>
        <extensions>
          <ns3:TrackPointExtension>
            <ns3:atemp>15.0</ns3:atemp>
            <ns3:hr>75</ns3:hr>
          </ns3:TrackPointExtension>
        </extensions>
      </trkpt>
      <trkpt lat="48.83628937415778636932373046875" lon="-3.48390326835215091705322265625">
        <ele>16</ele>
        <time>2026-05-09T10:17:04.000Z</time>
        <extensions>
          <ns3:TrackPointExtension>
            <ns3:atemp>15.0</ns3:atemp>
            <ns3:hr>78</ns3:hr>
          </ns3:TrackPointExtension>
        </extensions>
      </trkpt>
      <trkpt lat="48.836284093558788299560546875" lon="-3.48390125669538974761962890625">
        <ele>16.200000762939453125</ele>
        <time>2026-05-09T10:17:06.000Z</time>
        <extensions>
          <ns3:TrackPointExtension>
            <ns3:atemp>15.0</ns3:atemp>
            <ns3:hr>78</ns3:hr>
          </ns3:TrackPointExtension>
        </extensions>
      </trkpt>
      <trkpt lat="48.8362540863454341888427734375" lon="-3.483876697719097137451171875">
        <ele>16.200000762939453125</ele>
        <time>2026-05-09T10:17:15.000Z</time>
        <extensions>
          <ns3:TrackPointExtension>
            <ns3:atemp>15.0</ns3:atemp>
            <ns3:hr>80</ns3:hr>
          </ns3:TrackPointExtension>
        </extensions>
      </trkpt>
      <trkpt lat="48.83623405359685420989990234375" lon="-3.48389069549739360809326171875">
        <ele>17.200000762939453125</ele>
        <time>2026-05-09T10:17:20.000Z</time>
        <extensions>
          <ns3:TrackPointExtension>
            <ns3:atemp>15.0</ns3:atemp>
            <ns3:hr>80</ns3:hr>
          </ns3:TrackPointExtension>
        </extensions>
      </trkpt>
      <trkpt lat="48.8362269289791584014892578125" lon="-3.48391952924430370330810546875">
        <ele>17.3999996185302734375</ele>
        <time>2026-05-09T10:17:23.000Z</time>
        <extensions>
          <ns3:TrackPointExtension>
            <ns3:atemp>15.0</ns3:atemp>
            <ns3:hr>81</ns3:hr>
          </ns3:TrackPointExtension>
        </extensions>
      </trkpt>
      <trkpt lat="48.8362066447734832763671875" lon="-3.48400183953344821929931640625">
        <ele>16.3999996185302734375</ele>
        <time>2026-05-09T10:17:29.000Z</time>
        <extensions>
          <ns3:TrackPointExtension>
            <ns3:atemp>15.0</ns3:atemp>
            <ns3:hr>81</ns3:hr>
          </ns3:TrackPointExtension>
        </extensions>
      </trkpt>
      <trkpt lat="48.83620060980319976806640625" lon="-3.484031260013580322265625">
        <ele>16.3999996185302734375</ele>
        <time>2026-05-09T10:17:35.000Z</time>
        <extensions>
          <ns3:TrackPointExtension>
            <ns3:atemp>15.0</ns3:atemp>
            <ns3:hr>80</ns3:hr>
          </ns3:TrackPointExtension>
        </extensions>
      </trkpt>
      <trkpt lat="48.83619080297648906707763671875" lon="-3.48406956531107425689697265625">
        <ele>16</ele>
        <time>2026-05-09T10:17:38.000Z</time>
        <extensions>
          <ns3:TrackPointExtension>
            <ns3:atemp>15.0</ns3:atemp>
            <ns3:hr>81</ns3:hr>
          </ns3:TrackPointExtension>
        </extensions>
      </trkpt>
      <trkpt lat="48.83618610911071300506591796875" lon="-3.484103679656982421875">
        <ele>15.6000003814697265625</ele>
        <time>2026-05-09T10:17:40.000Z</time>
        <extensions>
          <ns3:TrackPointExtension>
            <ns3:atemp>15.0</ns3:atemp>
            <ns3:hr>80</ns3:hr>
          </ns3:TrackPointExtension>
        </extensions>
      </trkpt>
      <trkpt lat="48.83615425787866115570068359375" lon="-3.4841963835060596466064453125">
        <ele>15.80000019073486328125</ele>
        <time>2026-05-09T10:17:46.000Z</time>
        <extensions>
          <ns3:TrackPointExtension>
            <ns3:atemp>15.0</ns3:atemp>
            <ns3:hr>81</ns3:hr>
          </ns3:TrackPointExtension>
        </extensions>
      </trkpt>
      <trkpt lat="48.8361179642379283905029296875" lon="-3.4842473454773426055908203125">
        <ele>15.19999980926513671875</ele>
        <time>2026-05-09T10:17:51.000Z</time>
        <extensions>
          <ns3:TrackPointExtension>
            <ns3:atemp>15.0</ns3:atemp>
            <ns3:hr>80</ns3:hr>
          </ns3:TrackPointExtension>
        </extensions>
      </trkpt>
      <trkpt lat="48.83606054820120334625244140625" lon="-3.48432672210037708282470703125">
        <ele>15.6000003814697265625</ele>
        <time>2026-05-09T10:17:58.000Z</time>
        <extensions>
          <ns3:TrackPointExtension>
            <ns3:atemp>15.0</ns3:atemp>
            <ns3:hr>80</ns3:hr>
          </ns3:TrackPointExtension>
        </extensions>
      </trkpt>
      <trkpt lat="48.83602224290370941162109375" lon="-3.4843667037785053253173828125">
        <ele>16</ele>
        <time>2026-05-09T10:18:02.000Z</time>
        <extensions>
          <ns3:TrackPointExtension>
            <ns3:atemp>15.0</ns3:atemp>
            <ns3:hr>83</ns3:hr>
          </ns3:TrackPointExtension>
        </extensions>
      </trkpt>
      <trkpt lat="48.83600388653576374053955078125" lon="-3.484383635222911834716796875">
        <ele>16.200000762939453125</ele>
        <time>2026-05-09T10:18:04.000Z</time>
        <extensions>
          <ns3:TrackPointExtension>
            <ns3:atemp>15.0</ns3:atemp>
            <ns3:hr>83</ns3:hr>
          </ns3:TrackPointExtension>
        </extensions>
      </trkpt>
      <trkpt lat="48.83595828898251056671142578125" lon="-3.48444004543125629425048828125">
        <ele>16</ele>
        <time>2026-05-09T10:18:09.000Z</time>
        <extensions>
          <ns3:TrackPointExtension>
            <ns3:atemp>15.0</ns3:atemp>
            <ns3:hr>86</ns3:hr>
          </ns3:TrackPointExtension>
        </extensions>
      </trkpt>
      <trkpt lat="48.83595091290771961212158203125" lon="-3.4844495169818401336669921875">
        <ele>15.80000019073486328125</ele>
        <time>2026-05-09T10:18:10.000Z</time>
        <extensions>
          <ns3:TrackPointExtension>
            <ns3:atemp>15.0</ns3:atemp>
            <ns3:hr>86</ns3:hr>
          </ns3:TrackPointExtension>
        </extensions>
      </trkpt>
      <trkpt lat="48.83589810691773891448974609375" lon="-3.4845118783414363861083984375">
        <ele>15.19999980926513671875</ele>
        <time>2026-05-09T10:18:16.000Z</time>
        <extensions>
          <ns3:TrackPointExtension>
            <ns3:atemp>15.0</ns3:atemp>
            <ns3:hr>86</ns3:hr>
          </ns3:TrackPointExtension>
        </extensions>
      </trkpt>
      <trkpt lat="48.8358901441097259521484375" lon="-3.48454012535512447357177734375">
        <ele>14.80000019073486328125</ele>
        <time>2026-05-09T10:18:18.000Z</time>
        <extensions>
          <ns3:TrackPointExtension>
            <ns3:atemp>15.0</ns3:atemp>
            <ns3:hr>85</ns3:hr>
          </ns3:TrackPointExtension>
        </extensions>
      </trkpt>
      <trkpt lat="48.83588570170104503631591796875" lon="-3.484599553048610687255859375">
        <ele>14.6000003814697265625</ele>
        <time>2026-05-09T10:18:23.000Z</time>
        <extensions>
          <ns3:TrackPointExtension>
            <ns3:atemp>15.0</ns3:atemp>
            <ns3:hr>84</ns3:hr>
          </ns3:TrackPointExtension>
        </extensions>
      </trkpt>
      <trkpt lat="48.8358700275421142578125" lon="-3.4846174903213977813720703125">
        <ele>14</ele>
        <time>2026-05-09T10:18:26.000Z</time>
        <extensions>
          <ns3:TrackPointExtension>
            <ns3:atemp>15.0</ns3:atemp>
            <ns3:hr>83</ns3:hr>
          </ns3:TrackPointExtension>
        </extensions>
      </trkpt>
      <trkpt lat="48.83585452102124691009521484375" lon="-3.48463852889835834503173828125">
        <ele>13.80000019073486328125</ele>
        <time>2026-05-09T10:18:28.000Z</time>
        <extensions>
          <ns3:TrackPointExtension>
            <ns3:atemp>15.0</ns3:atemp>
            <ns3:hr>83</ns3:hr>
          </ns3:TrackPointExtension>
        </extensions>
      </trkpt>
      <trkpt lat="48.83581847883760929107666015625" lon="-3.48469921387732028961181640625">
        <ele>13</ele>
        <time>2026-05-09T10:18:33.000Z</time>
        <extensions>
          <ns3:TrackPointExtension>
            <ns3:atemp>15.0</ns3:atemp>
            <ns3:hr>83</ns3:hr>
          </ns3:TrackPointExtension>
        </extensions>
      </trkpt>
      <trkpt lat="48.8358001224696636199951171875" lon="-3.48472201265394687652587890625">
        <ele>12.80000019073486328125</ele>
        <time>2026-05-09T10:18:35.000Z</time>
        <extensions>
          <ns3:TrackPointExtension>
            <ns3:atemp>15.0</ns3:atemp>
            <ns3:hr>82</ns3:hr>
          </ns3:TrackPointExtension>
        </extensions>
      </trkpt>
      <trkpt lat="48.83579953573644161224365234375" lon="-3.48473475314676761627197265625">
        <ele>12.3999996185302734375</ele>
        <time>2026-05-09T10:18:38.000Z</time>
        <extensions>
          <ns3:TrackPointExtension>
            <ns3:atemp>15.0</ns3:atemp>
            <ns3:hr>82</ns3:hr>
          </ns3:TrackPointExtension>
        </extensions>
      </trkpt>
      <trkpt lat="48.8357676006853580474853515625" lon="-3.484797365963459014892578125">
        <ele>12</ele>
        <time>2026-05-09T10:18:44.000Z</time>
        <extensions>
          <ns3:TrackPointExtension>
            <ns3:atemp>15.0</ns3:atemp>
            <ns3:hr>81</ns3:hr>
          </ns3:TrackPointExtension>
        </extensions>
      </trkpt>
      <trkpt lat="48.83574672974646091461181640625" lon="-3.48484338261187076568603515625">
        <ele>11.6000003814697265625</ele>
        <time>2026-05-09T10:18:47.000Z</time>
        <extensions>
          <ns3:TrackPointExtension>
            <ns3:atemp>15.0</ns3:atemp>
            <ns3:hr>81</ns3:hr>
          </ns3:TrackPointExtension>
        </extensions>
      </trkpt>
      <trkpt lat="48.83572644554078578948974609375" lon="-3.48488763906061649322509765625">
        <ele>11.6000003814697265625</ele>
        <time>2026-05-09T10:18:50.000Z</time>
        <extensions>
          <ns3:TrackPointExtension>
            <ns3:atemp>15.0</ns3:atemp>
            <ns3:hr>82</ns3:hr>
          </ns3:TrackPointExtension>
        </extensions>
      </trkpt>
      <trkpt lat="48.8356770761311054229736328125" lon="-3.48499040119349956512451171875">
        <ele>11.6000003814697265625</ele>
        <time>2026-05-09T10:18:57.000Z</time>
        <extensions>
          <ns3:TrackPointExtension>
            <ns3:atemp>15.0</ns3:atemp>
            <ns3:hr>81</ns3:hr>
          </ns3:TrackPointExtension>
        </extensions>
      </trkpt>
      <trkpt lat="48.8356703706085681915283203125" lon="-3.48502761684358119964599609375">
        <ele>11.6000003814697265625</ele>
        <time>2026-05-09T10:18:59.000Z</time>
        <extensions>
          <ns3:TrackPointExtension>
            <ns3:atemp>15.0</ns3:atemp>
            <ns3:hr>80</ns3:hr>
          </ns3:TrackPointExtension>
        </extensions>
      </trkpt>
      <trkpt lat="48.83567850105464458465576171875" lon="-3.4850560314953327178955078125">
        <ele>11.6000003814697265625</ele>
        <time>2026-05-09T10:19:01.000Z</time>
        <extensions>
          <ns3:TrackPointExtension>
            <ns3:atemp>15.0</ns3:atemp>
            <ns3:hr>79</ns3:hr>
          </ns3:TrackPointExtension>
        </extensions>
      </trkpt>
      <trkpt lat="48.83568822406232357025146484375" lon="-3.4850707836449146270751953125">
        <ele>11.6000003814697265625</ele>
        <time>2026-05-09T10:19:02.000Z</time>
        <extensions>
          <ns3:TrackPointExtension>
            <ns3:atemp>15.0</ns3:atemp>
            <ns3:hr>79</ns3:hr>
          </ns3:TrackPointExtension>
        </extensions>
      </trkpt>
      <trkpt lat="48.83575226180255413055419921875" lon="-3.48513239063322544097900390625">
        <ele>11.3999996185302734375</ele>
        <time>2026-05-09T10:19:09.000Z</time>
        <extensions>
          <ns3:TrackPointExtension>
            <ns3:atemp>15.0</ns3:atemp>
            <ns3:hr>78</ns3:hr>
          </ns3:TrackPointExtension>
        </extensions>
      </trkpt>
      <trkpt lat="48.83577254600822925567626953125" lon="-3.485143370926380157470703125">
        <ele>11.3999996185302734375</ele>
        <time>2026-05-09T10:19:12.000Z</time>
        <extensions>
          <ns3:TrackPointExtension>
            <ns3:atemp>15.0</ns3:atemp>
            <ns3:hr>77</ns3:hr>
          </ns3:TrackPointExtension>
        </extensions>
      </trkpt>
      <trkpt lat="48.83577237837016582489013671875" lon="-3.48512652330100536346435546875">
        <ele>11.19999980926513671875</ele>
        <time>2026-05-09T10:19:14.000Z</time>
        <extensions>
          <ns3:TrackPointExtension>
            <ns3:atemp>15.0</ns3:atemp>
            <ns3:hr>77</ns3:hr>
          </ns3:TrackPointExtension>
        </extensions>
      </trkpt>
      <trkpt lat="48.83577950298786163330078125" lon="-3.48512166179716587066650390625">
        <ele>10.80000019073486328125</ele>
        <time>2026-05-09T10:19:16.000Z</time>
        <extensions>
          <ns3:TrackPointExtension>
            <ns3:atemp>15.0</ns3:atemp>
            <ns3:hr>78</ns3:hr>
          </ns3:TrackPointExtension>
        </extensions>
      </trkpt>
      <trkpt lat="48.83579450659453868865966796875" lon="-3.485111184418201446533203125">
        <ele>11</ele>
        <time>2026-05-09T10:19:21.000Z</time>
        <extensions>
          <ns3:TrackPointExtension>
            <ns3:atemp>15.0</ns3:atemp>
            <ns3:hr>77</ns3:hr>
          </ns3:TrackPointExtension>
        </extensions>
      </trkpt>
      <trkpt lat="48.83579735644161701202392578125" lon="-3.48510875366628170013427734375">
        <ele>12</ele>
        <time>2026-05-09T10:19:27.000Z</time>
        <extensions>
          <ns3:TrackPointExtension>
            <ns3:atemp>15.0</ns3:atemp>
            <ns3:hr>77</ns3:hr>
          </ns3:TrackPointExtension>
        </extensions>
      </trkpt>
      <trkpt lat="48.83579735644161701202392578125" lon="-3.48510875366628170013427734375">
        <ele>11</ele>
        <time>2026-05-09T10:19:38.000Z</time>
        <extensions>
          <ns3:TrackPointExtension>
            <ns3:atemp>15.0</ns3:atemp>
            <ns3:hr>77</ns3:hr>
          </ns3:TrackPointExtension>
        </extensions>
      </trkpt>
      <trkpt lat="48.83579735644161701202392578125" lon="-3.48510875366628170013427734375">
        <ele>11.19999980926513671875</ele>
        <time>2026-05-09T10:19:49.000Z</time>
        <extensions>
          <ns3:TrackPointExtension>
            <ns3:atemp>15.0</ns3:atemp>
            <ns3:hr>80</ns3:hr>
          </ns3:TrackPointExtension>
        </extensions>
      </trkpt>
      <trkpt lat="48.83579735644161701202392578125" lon="-3.48510875366628170013427734375">
        <ele>10.80000019073486328125</ele>
        <time>2026-05-09T10:19:55.000Z</time>
        <extensions>
          <ns3:TrackPointExtension>
            <ns3:atemp>15.0</ns3:atemp>
            <ns3:hr>82</ns3:hr>
          </ns3:TrackPointExtension>
        </extensions>
      </trkpt>
      <trkpt lat="48.83579735644161701202392578125" lon="-3.48510875366628170013427734375">
        <ele>10.80000019073486328125</ele>
        <time>2026-05-09T10:20:07.000Z</time>
        <extensions>
          <ns3:TrackPointExtension>
            <ns3:atemp>15.0</ns3:atemp>
            <ns3:hr>82</ns3:hr>
          </ns3:TrackPointExtension>
        </extensions>
      </trkpt>
      <trkpt lat="48.83579735644161701202392578125" lon="-3.48510875366628170013427734375">
        <ele>11</ele>
        <time>2026-05-09T10:20:14.000Z</time>
        <extensions>
          <ns3:TrackPointExtension>
            <ns3:atemp>15.0</ns3:atemp>
            <ns3:hr>85</ns3:hr>
          </ns3:TrackPointExtension>
        </extensions>
      </trkpt>
      <trkpt lat="48.835803978145122528076171875" lon="-3.48511227406561374664306640625">
        <ele>11</ele>
        <time>2026-05-09T10:20:17.000Z</time>
        <extensions>
          <ns3:TrackPointExtension>
            <ns3:atemp>15.0</ns3:atemp>
            <ns3:hr>85</ns3:hr>
          </ns3:TrackPointExtension>
        </extensions>
      </trkpt>
      <trkpt lat="48.83582300506532192230224609375" lon="-3.48513029515743255615234375">
        <ele>10.80000019073486328125</ele>
        <time>2026-05-09T10:20:22.000Z</time>
        <extensions>
          <ns3:TrackPointExtension>
            <ns3:atemp>15.0</ns3:atemp>
            <ns3:hr>81</ns3:hr>
          </ns3:TrackPointExtension>
        </extensions>
      </trkpt>
      <trkpt lat="48.835826776921749114990234375" lon="-3.48513792268931865692138671875">
        <ele>11</ele>
        <time>2026-05-09T10:20:26.000Z</time>
        <extensions>
          <ns3:TrackPointExtension>
            <ns3:atemp>15.0</ns3:atemp>
            <ns3:hr>79</ns3:hr>
          </ns3:TrackPointExtension>
        </extensions>
      </trkpt>
      <trkpt lat="48.835826776921749114990234375" lon="-3.48513792268931865692138671875">
        <ele>10.6000003814697265625</ele>
        <time>2026-05-09T10:20:39.000Z</time>
        <extensions>
          <ns3:TrackPointExtension>
            <ns3:atemp>15.0</ns3:atemp>
            <ns3:hr>77</ns3:hr>
          </ns3:TrackPointExtension>
        </extensions>
      </trkpt>
      <trkpt lat="48.835826776921749114990234375" lon="-3.48513792268931865692138671875">
        <ele>10.6000003814697265625</ele>
        <time>2026-05-09T10:20:40.000Z</time>
        <extensions>
          <ns3:TrackPointExtension>
            <ns3:atemp>15.0</ns3:atemp>
            <ns3:hr>76</ns3:hr>
          </ns3:TrackPointExtension>
        </extensions>
      </trkpt>
      <trkpt lat="48.835826776921749114990234375" lon="-3.48513792268931865692138671875">
        <ele>11</ele>
        <time>2026-05-09T10:20:44.000Z</time>
        <extensions>
          <ns3:TrackPointExtension>
            <ns3:atemp>15.0</ns3:atemp>
            <ns3:hr>73</ns3:hr>
          </ns3:TrackPointExtension>
        </extensions>
      </trkpt>
      <trkpt lat="48.835826776921749114990234375" lon="-3.48513792268931865692138671875">
        <ele>10.80000019073486328125</ele>
        <time>2026-05-09T10:20:47.000Z</time>
        <extensions>
          <ns3:TrackPointExtension>
            <ns3:atemp>15.0</ns3:atemp>
            <ns3:hr>73</ns3:hr>
          </ns3:TrackPointExtension>
        </extensions>
      </trkpt>
      <trkpt lat="48.835826776921749114990234375" lon="-3.48513792268931865692138671875">
        <ele>11</ele>
        <time>2026-05-09T10:20:53.000Z</time>
        <extensions>
          <ns3:TrackPointExtension>
            <ns3:atemp>15.0</ns3:atemp>
            <ns3:hr>76</ns3:hr>
          </ns3:TrackPointExtension>
        </extensions>
      </trkpt>
      <trkpt lat="48.835826776921749114990234375" lon="-3.48513792268931865692138671875">
        <ele>10.80000019073486328125</ele>
        <time>2026-05-09T10:20:57.000Z</time>
        <extensions>
          <ns3:TrackPointExtension>
            <ns3:atemp>15.0</ns3:atemp>
            <ns3:hr>71</ns3:hr>
          </ns3:TrackPointExtension>
        </extensions>
      </trkpt>
      <trkpt lat="48.835826776921749114990234375" lon="-3.48513792268931865692138671875">
        <ele>10.6000003814697265625</ele>
        <time>2026-05-09T10:20:59.000Z</time>
        <extensions>
          <ns3:TrackPointExtension>
            <ns3:atemp>15.0</ns3:atemp>
            <ns3:hr>68</ns3:hr>
          </ns3:TrackPointExtension>
        </extensions>
      </trkpt>
      <trkpt lat="48.83584597148001194000244140625" lon="-3.4851740486919879913330078125">
        <ele>10.6000003814697265625</ele>
        <time>2026-05-09T10:21:06.000Z</time>
        <extensions>
          <ns3:TrackPointExtension>
            <ns3:atemp>15.0</ns3:atemp>
            <ns3:hr>68</ns3:hr>
          </ns3:TrackPointExtension>
        </extensions>
      </trkpt>
      <trkpt lat="48.8358460552990436553955078125" lon="-3.4851743839681148529052734375">
        <ele>10.3999996185302734375</ele>
        <time>2026-05-09T10:21:07.000Z</time>
        <extensions>
          <ns3:TrackPointExtension>
            <ns3:atemp>15.0</ns3:atemp>
            <ns3:hr>69</ns3:hr>
          </ns3:TrackPointExtension>
        </extensions>
      </trkpt>
      <trkpt lat="48.83585284464061260223388671875" lon="-3.48524470813572406768798828125">
        <ele>10.19999980926513671875</ele>
        <time>2026-05-09T10:21:16.000Z</time>
        <extensions>
          <ns3:TrackPointExtension>
            <ns3:atemp>15.0</ns3:atemp>
            <ns3:hr>68</ns3:hr>
          </ns3:TrackPointExtension>
        </extensions>
      </trkpt>
      <trkpt lat="48.835846222937107086181640625" lon="-3.48523557186126708984375">
        <ele>10.19999980926513671875</ele>
        <time>2026-05-09T10:21:22.000Z</time>
        <extensions>
          <ns3:TrackPointExtension>
            <ns3:atemp>15.0</ns3:atemp>
            <ns3:hr>69</ns3:hr>
          </ns3:TrackPointExtension>
        </extensions>
      </trkpt>
      <trkpt lat="48.835846222937107086181640625" lon="-3.48523557186126708984375">
        <ele>9.80000019073486328125</ele>
        <time>2026-05-09T10:21:25.000Z</time>
        <extensions>
          <ns3:TrackPointExtension>
            <ns3:atemp>15.0</ns3:atemp>
            <ns3:hr>72</ns3:hr>
          </ns3:TrackPointExtension>
        </extensions>
      </trkpt>
      <trkpt lat="48.835846222937107086181640625" lon="-3.48523557186126708984375">
        <ele>10</ele>
        <time>2026-05-09T10:21:31.000Z</time>
        <extensions>
          <ns3:TrackPointExtension>
            <ns3:atemp>15.0</ns3:atemp>
            <ns3:hr>75</ns3:hr>
          </ns3:TrackPointExtension>
        </extensions>
      </trkpt>
      <trkpt lat="48.83584630675613880157470703125" lon="-3.48521939478814601898193359375">
        <ele>10.19999980926513671875</ele>
        <time>2026-05-09T10:21:36.000Z</time>
        <extensions>
          <ns3:TrackPointExtension>
            <ns3:atemp>15.0</ns3:atemp>
            <ns3:hr>75</ns3:hr>
          </ns3:TrackPointExtension>
        </extensions>
      </trkpt>
      <trkpt lat="48.835846222937107086181640625" lon="-3.48523557186126708984375">
        <ele>10.3999996185302734375</ele>
        <time>2026-05-09T10:21:45.000Z</time>
        <extensions>
          <ns3:TrackPointExtension>
            <ns3:atemp>15.0</ns3:atemp>
            <ns3:hr>75</ns3:hr>
          </ns3:TrackPointExtension>
        </extensions>
      </trkpt>
      <trkpt lat="48.835846222937107086181640625" lon="-3.48523557186126708984375">
        <ele>9.6000003814697265625</ele>
        <time>2026-05-09T10:21:50.000Z</time>
        <extensions>
          <ns3:TrackPointExtension>
            <ns3:atemp>15.0</ns3:atemp>
            <ns3:hr>77</ns3:hr>
          </ns3:TrackPointExtension>
        </extensions>
      </trkpt>
      <trkpt lat="48.83584748022258281707763671875" lon="-3.4852302074432373046875">
        <ele>9.80000019073486328125</ele>
        <time>2026-05-09T10:21:52.000Z</time>
        <extensions>
          <ns3:TrackPointExtension>
            <ns3:atemp>15.0</ns3:atemp>
            <ns3:hr>81</ns3:hr>
          </ns3:TrackPointExtension>
        </extensions>
      </trkpt>
      <trkpt lat="48.835846222937107086181640625" lon="-3.48523557186126708984375">
        <ele>10</ele>
        <time>2026-05-09T10:21:55.000Z</time>
        <extensions>
          <ns3:TrackPointExtension>
            <ns3:atemp>15.0</ns3:atemp>
            <ns3:hr>84</ns3:hr>
          </ns3:TrackPointExtension>
        </extensions>
      </trkpt>
      <trkpt lat="48.83584924042224884033203125" lon="-3.48524252884089946746826171875">
        <ele>10.19999980926513671875</ele>
        <time>2026-05-09T10:21:59.000Z</time>
        <extensions>
          <ns3:TrackPointExtension>
            <ns3:atemp>15.0</ns3:atemp>
            <ns3:hr>82</ns3:hr>
          </ns3:TrackPointExtension>
        </extensions>
      </trkpt>
      <trkpt lat="48.835882432758808135986328125" lon="-3.485291898250579833984375">
        <ele>10.19999980926513671875</ele>
        <time>2026-05-09T10:22:06.000Z</time>
        <extensions>
          <ns3:TrackPointExtension>
            <ns3:atemp>15.0</ns3:atemp>
            <ns3:hr>84</ns3:hr>
          </ns3:TrackPointExtension>
        </extensions>
      </trkpt>
      <trkpt lat="48.83591453544795513153076171875" lon="-3.48531058989465236663818359375">
        <ele>10.6000003814697265625</ele>
        <time>2026-05-09T10:22:10.000Z</time>
        <extensions>
          <ns3:TrackPointExtension>
            <ns3:atemp>15.0</ns3:atemp>
            <ns3:hr>87</ns3:hr>
          </ns3:TrackPointExtension>
        </extensions>
      </trkpt>
      <trkpt lat="48.8359483145177364349365234375" lon="-3.4853423573076725006103515625">
        <ele>10.80000019073486328125</ele>
        <time>2026-05-09T10:22:14.000Z</time>
        <extensions>
          <ns3:TrackPointExtension>
            <ns3:atemp>15.0</ns3:atemp>
            <ns3:hr>88</ns3:hr>
          </ns3:TrackPointExtension>
        </extensions>
      </trkpt>
      <trkpt lat="48.83599919266998767852783203125" lon="-3.48535065539181232452392578125">
        <ele>11.3999996185302734375</ele>
        <time>2026-05-09T10:22:20.000Z</time>
        <extensions>
          <ns3:TrackPointExtension>
            <ns3:atemp>16.0</ns3:atemp>
            <ns3:hr>87</ns3:hr>
          </ns3:TrackPointExtension>
        </extensions>
      </trkpt>
      <trkpt lat="48.8360076583921909332275390625" lon="-3.48534244112670421600341796875">
        <ele>11</ele>
        <time>2026-05-09T10:22:22.000Z</time>
        <extensions>
          <ns3:TrackPointExtension>
            <ns3:atemp>16.0</ns3:atemp>
            <ns3:hr>86</ns3:hr>
          </ns3:TrackPointExtension>
        </extensions>
      </trkpt>
      <trkpt lat="48.8360294513404369354248046875" lon="-3.48531746305525302886962890625">
        <ele>11</ele>
        <time>2026-05-09T10:22:26.000Z</time>
        <extensions>
          <ns3:TrackPointExtension>
            <ns3:atemp>16.0</ns3:atemp>
            <ns3:hr>85</ns3:hr>
          </ns3:TrackPointExtension>
        </extensions>
      </trkpt>
      <trkpt lat="48.836049735546112060546875" lon="-3.48530991934239864349365234375">
        <ele>10.80000019073486328125</ele>
        <time>2026-05-09T10:22:33.000Z</time>
        <extensions>
          <ns3:TrackPointExtension>
            <ns3:atemp>16.0</ns3:atemp>
            <ns3:hr>87</ns3:hr>
          </ns3:TrackPointExtension>
        </extensions>
      </trkpt>
      <trkpt lat="48.83604981936514377593994140625" lon="-3.48530991934239864349365234375">
        <ele>10</ele>
        <time>2026-05-09T10:22:43.000Z</time>
        <extensions>
          <ns3:TrackPointExtension>
            <ns3:atemp>16.0</ns3:atemp>
            <ns3:hr>87</ns3:hr>
          </ns3:TrackPointExtension>
        </extensions>
      </trkpt>
      <trkpt lat="48.83604981936514377593994140625" lon="-3.48530991934239864349365234375">
        <ele>10</ele>
        <time>2026-05-09T10:22:49.000Z</time>
        <extensions>
          <ns3:TrackPointExtension>
            <ns3:atemp>16.0</ns3:atemp>
            <ns3:hr>84</ns3:hr>
          </ns3:TrackPointExtension>
        </extensions>
      </trkpt>
      <trkpt lat="48.83604981936514377593994140625" lon="-3.48530991934239864349365234375">
        <ele>10.19999980926513671875</ele>
        <time>2026-05-09T10:22:54.000Z</time>
        <extensions>
          <ns3:TrackPointExtension>
            <ns3:atemp>16.0</ns3:atemp>
            <ns3:hr>81</ns3:hr>
          </ns3:TrackPointExtension>
        </extensions>
      </trkpt>
      <trkpt lat="48.83604981936514377593994140625" lon="-3.48530991934239864349365234375">
        <ele>10.19999980926513671875</ele>
        <time>2026-05-09T10:23:01.000Z</time>
        <extensions>
          <ns3:TrackPointExtension>
            <ns3:atemp>16.0</ns3:atemp>
            <ns3:hr>78</ns3:hr>
          </ns3:TrackPointExtension>
        </extensions>
      </trkpt>
      <trkpt lat="48.83604981936514377593994140625" lon="-3.48530991934239864349365234375">
        <ele>9.80000019073486328125</ele>
        <time>2026-05-09T10:23:09.000Z</time>
        <extensions>
          <ns3:TrackPointExtension>
            <ns3:atemp>16.0</ns3:atemp>
            <ns3:hr>78</ns3:hr>
          </ns3:TrackPointExtension>
        </extensions>
      </trkpt>
      <trkpt lat="48.83602869696915149688720703125" lon="-3.48531696014106273651123046875">
        <ele>10.3999996185302734375</ele>
        <time>2026-05-09T10:23:15.000Z</time>
        <extensions>
          <ns3:TrackPointExtension>
            <ns3:atemp>16.0</ns3:atemp>
            <ns3:hr>78</ns3:hr>
          </ns3:TrackPointExtension>
        </extensions>
      </trkpt>
      <trkpt lat="48.83603272028267383575439453125" lon="-3.48532249219715595245361328125">
        <ele>9.80000019073486328125</ele>
        <time>2026-05-09T10:23:21.000Z</time>
        <extensions>
          <ns3:TrackPointExtension>
            <ns3:atemp>15.0</ns3:atemp>
            <ns3:hr>77</ns3:hr>
          </ns3:TrackPointExtension>
        </extensions>
      </trkpt>
      <trkpt lat="48.83603272028267383575439453125" lon="-3.48532249219715595245361328125">
        <ele>9.6000003814697265625</ele>
        <time>2026-05-09T10:23:23.000Z</time>
        <extensions>
          <ns3:TrackPointExtension>
            <ns3:atemp>15.0</ns3:atemp>
            <ns3:hr>77</ns3:hr>
          </ns3:TrackPointExtension>
        </extensions>
      </trkpt>
      <trkpt lat="48.83603272028267383575439453125" lon="-3.48532249219715595245361328125">
        <ele>10.6000003814697265625</ele>
        <time>2026-05-09T10:23:27.000Z</time>
        <extensions>
          <ns3:TrackPointExtension>
            <ns3:atemp>15.0</ns3:atemp>
            <ns3:hr>77</ns3:hr>
          </ns3:TrackPointExtension>
        </extensions>
      </trkpt>
      <trkpt lat="48.83603272028267383575439453125" lon="-3.48532249219715595245361328125">
        <ele>10.80000019073486328125</ele>
        <time>2026-05-09T10:23:32.000Z</time>
        <extensions>
          <ns3:TrackPointExtension>
            <ns3:atemp>15.0</ns3:atemp>
            <ns3:hr>74</ns3:hr>
          </ns3:TrackPointExtension>
        </extensions>
      </trkpt>
      <trkpt lat="48.83602232672274112701416015625" lon="-3.4853227436542510986328125">
        <ele>10.6000003814697265625</ele>
        <time>2026-05-09T10:23:36.000Z</time>
        <extensions>
          <ns3:TrackPointExtension>
            <ns3:atemp>15.0</ns3:atemp>
            <ns3:hr>74</ns3:hr>
          </ns3:TrackPointExtension>
        </extensions>
      </trkpt>
      <trkpt lat="48.83599667809903621673583984375" lon="-3.4853165410459041595458984375">
        <ele>10.80000019073486328125</ele>
        <time>2026-05-09T10:23:42.000Z</time>
        <extensions>
          <ns3:TrackPointExtension>
            <ns3:atemp>15.0</ns3:atemp>
            <ns3:hr>74</ns3:hr>
          </ns3:TrackPointExtension>
        </extensions>
      </trkpt>
      <trkpt lat="48.8360079936683177947998046875" lon="-3.4853430278599262237548828125">
        <ele>10.6000003814697265625</ele>
        <time>2026-05-09T10:23:48.000Z</time>
        <extensions>
          <ns3:TrackPointExtension>
            <ns3:atemp>15.0</ns3:atemp>
            <ns3:hr>77</ns3:hr>
          </ns3:TrackPointExtension>
        </extensions>
      </trkpt>
      <trkpt lat="48.8360224105417728424072265625" lon="-3.48536222241818904876708984375">
        <ele>10.6000003814697265625</ele>
        <time>2026-05-09T10:23:50.000Z</time>
        <extensions>
          <ns3:TrackPointExtension>
            <ns3:atemp>15.0</ns3:atemp>
            <ns3:hr>79</ns3:hr>
          </ns3:TrackPointExtension>
        </extensions>
      </trkpt>
      <trkpt lat="48.83603841997683048248291015625" lon="-3.485398851335048675537109375">
        <ele>10.19999980926513671875</ele>
        <time>2026-05-09T10:23:55.000Z</time>
        <extensions>
          <ns3:TrackPointExtension>
            <ns3:atemp>15.0</ns3:atemp>
            <ns3:hr>82</ns3:hr>
          </ns3:TrackPointExtension>
        </extensions>
      </trkpt>
      <trkpt lat="48.83603858761489391326904296875" lon="-3.485412932932376861572265625">
        <ele>10.19999980926513671875</ele>
        <time>2026-05-09T10:23:58.000Z</time>
        <extensions>
          <ns3:TrackPointExtension>
            <ns3:atemp>15.0</ns3:atemp>
            <ns3:hr>84</ns3:hr>
          </ns3:TrackPointExtension>
        </extensions>
      </trkpt>
      <trkpt lat="48.83603674359619617462158203125" lon="-3.48546884022653102874755859375">
        <ele>9.3999996185302734375</ele>
        <time>2026-05-09T10:24:04.000Z</time>
        <extensions>
          <ns3:TrackPointExtension>
            <ns3:atemp>15.0</ns3:atemp>
            <ns3:hr>83</ns3:hr>
          </ns3:TrackPointExtension>
        </extensions>
      </trkpt>
      <trkpt lat="48.8360376656055450439453125" lon="-3.4854744561016559600830078125">
        <ele>9.3999996185302734375</ele>
        <time>2026-05-09T10:24:06.000Z</time>
        <extensions>
          <ns3:TrackPointExtension>
            <ns3:atemp>15.0</ns3:atemp>
            <ns3:hr>82</ns3:hr>
          </ns3:TrackPointExtension>
        </extensions>
      </trkpt>
      <trkpt lat="48.8360376656055450439453125" lon="-3.4854744561016559600830078125">
        <ele>9.6000003814697265625</ele>
        <time>2026-05-09T10:24:15.000Z</time>
        <extensions>
          <ns3:TrackPointExtension>
            <ns3:atemp>15.0</ns3:atemp>
            <ns3:hr>83</ns3:hr>
          </ns3:TrackPointExtension>
        </extensions>
      </trkpt>
      <trkpt lat="48.8360376656055450439453125" lon="-3.4854744561016559600830078125">
        <ele>9.3999996185302734375</ele>
        <time>2026-05-09T10:24:27.000Z</time>
        <extensions>
          <ns3:TrackPointExtension>
            <ns3:atemp>15.0</ns3:atemp>
            <ns3:hr>80</ns3:hr>
          </ns3:TrackPointExtension>
        </extensions>
      </trkpt>
      <trkpt lat="48.8360376656055450439453125" lon="-3.4854744561016559600830078125">
        <ele>9.3999996185302734375</ele>
        <time>2026-05-09T10:24:28.000Z</time>
        <extensions>
          <ns3:TrackPointExtension>
            <ns3:atemp>15.0</ns3:atemp>
            <ns3:hr>80</ns3:hr>
          </ns3:TrackPointExtension>
        </extensions>
      </trkpt>
      <trkpt lat="48.83604177273809909820556640625" lon="-3.4854224883019924163818359375">
        <ele>9.80000019073486328125</ele>
        <time>2026-05-09T10:24:35.000Z</time>
        <extensions>
          <ns3:TrackPointExtension>
            <ns3:atemp>15.0</ns3:atemp>
            <ns3:hr>80</ns3:hr>
          </ns3:TrackPointExtension>
        </extensions>
      </trkpt>
      <trkpt lat="48.83602635003626346588134765625" lon="-3.4853695146739482879638671875">
        <ele>10.19999980926513671875</ele>
        <time>2026-05-09T10:24:40.000Z</time>
        <extensions>
          <ns3:TrackPointExtension>
            <ns3:atemp>15.0</ns3:atemp>
            <ns3:hr>78</ns3:hr>
          </ns3:TrackPointExtension>
        </extensions>
      </trkpt>
      <trkpt lat="48.83600958622992038726806640625" lon="-3.48535685800015926361083984375">
        <ele>10.6000003814697265625</ele>
        <time>2026-05-09T10:24:42.000Z</time>
        <extensions>
          <ns3:TrackPointExtension>
            <ns3:atemp>15.0</ns3:atemp>
            <ns3:hr>78</ns3:hr>
          </ns3:TrackPointExtension>
        </extensions>
      </trkpt>
      <trkpt lat="48.835999108850955963134765625" lon="-3.48535149358212947845458984375">
        <ele>10.6000003814697265625</ele>
        <time>2026-05-09T10:24:43.000Z</time>
        <extensions>
          <ns3:TrackPointExtension>
            <ns3:atemp>15.0</ns3:atemp>
            <ns3:hr>77</ns3:hr>
          </ns3:TrackPointExtension>
        </extensions>
      </trkpt>
      <trkpt lat="48.83591470308601856231689453125" lon="-3.48529533483088016510009765625">
        <ele>9.6000003814697265625</ele>
        <time>2026-05-09T10:24:51.000Z</time>
        <extensions>
          <ns3:TrackPointExtension>
            <ns3:atemp>15.0</ns3:atemp>
            <ns3:hr>80</ns3:hr>
          </ns3:TrackPointExtension>
        </extensions>
      </trkpt>
      <trkpt lat="48.83590548299252986907958984375" lon="-3.48528779111802577972412109375">
        <ele>9.19999980926513671875</ele>
        <time>2026-05-09T10:24:52.000Z</time>
        <extensions>
          <ns3:TrackPointExtension>
            <ns3:atemp>15.0</ns3:atemp>
            <ns3:hr>80</ns3:hr>
          </ns3:TrackPointExtension>
        </extensions>
      </trkpt>
      <trkpt lat="48.83585183881223201751708984375" lon="-3.4852370806038379669189453125">
        <ele>10.80000019073486328125</ele>
        <time>2026-05-09T10:24:58.000Z</time>
        <extensions>
          <ns3:TrackPointExtension>
            <ns3:atemp>15.0</ns3:atemp>
            <ns3:hr>81</ns3:hr>
          </ns3:TrackPointExtension>
        </extensions>
      </trkpt>
      <trkpt lat="48.8358346559107303619384765625" lon="-3.48522040061652660369873046875">
        <ele>10.80000019073486328125</ele>
        <time>2026-05-09T10:25:00.000Z</time>
        <extensions>
          <ns3:TrackPointExtension>
            <ns3:atemp>15.0</ns3:atemp>
            <ns3:hr>83</ns3:hr>
          </ns3:TrackPointExtension>
        </extensions>
      </trkpt>
      <trkpt lat="48.8358074985444545745849609375" lon="-3.4851525910198688507080078125">
        <ele>11.3999996185302734375</ele>
        <time>2026-05-09T10:25:06.000Z</time>
        <extensions>
          <ns3:TrackPointExtension>
            <ns3:atemp>15.0</ns3:atemp>
            <ns3:hr>84</ns3:hr>
          </ns3:TrackPointExtension>
        </extensions>
      </trkpt>
      <trkpt lat="48.83575863204896450042724609375" lon="-3.48509140312671661376953125">
        <ele>11.6000003814697265625</ele>
        <time>2026-05-09T10:25:13.000Z</time>
        <extensions>
          <ns3:TrackPointExtension>
            <ns3:atemp>15.0</ns3:atemp>
            <ns3:hr>86</ns3:hr>
          </ns3:TrackPointExtension>
        </extensions>
      </trkpt>
      <trkpt lat="48.835742287337779998779296875" lon="-3.48508830182254314422607421875">
        <ele>11.80000019073486328125</ele>
        <time>2026-05-09T10:25:15.000Z</time>
        <extensions>
          <ns3:TrackPointExtension>
            <ns3:atemp>15.0</ns3:atemp>
            <ns3:hr>87</ns3:hr>
          </ns3:TrackPointExtension>
        </extensions>
      </trkpt>
      <trkpt lat="48.8357122801244258880615234375" lon="-3.4850732982158660888671875">
        <ele>12</ele>
        <time>2026-05-09T10:25:20.000Z</time>
        <extensions>
          <ns3:TrackPointExtension>
            <ns3:atemp>15.0</ns3:atemp>
            <ns3:hr>88</ns3:hr>
          </ns3:TrackPointExtension>
        </extensions>
      </trkpt>
      <trkpt lat="48.83568252436816692352294921875" lon="-3.48504924215376377105712890625">
        <ele>11.80000019073486328125</ele>
        <time>2026-05-09T10:25:24.000Z</time>
        <extensions>
          <ns3:TrackPointExtension>
            <ns3:atemp>15.0</ns3:atemp>
            <ns3:hr>92</ns3:hr>
          </ns3:TrackPointExtension>
        </extensions>
      </trkpt>
      <trkpt lat="48.83566643111407756805419921875" lon="-3.485040776431560516357421875">
        <ele>11.6000003814697265625</ele>
        <time>2026-05-09T10:25:26.000Z</time>
        <extensions>
          <ns3:TrackPointExtension>
            <ns3:atemp>15.0</ns3:atemp>
            <ns3:hr>94</ns3:hr>
          </ns3:TrackPointExtension>
        </extensions>
      </trkpt>
      <trkpt lat="48.83564748801290988922119140625" lon="-3.48505209200084209442138671875">
        <ele>12.19999980926513671875</ele>
        <time>2026-05-09T10:25:30.000Z</time>
        <extensions>
          <ns3:TrackPointExtension>
            <ns3:atemp>15.0</ns3:atemp>
            <ns3:hr>97</ns3:hr>
          </ns3:TrackPointExtension>
        </extensions>
      </trkpt>
      <trkpt lat="48.83564296178519725799560546875" lon="-3.4850620664656162261962890625">
        <ele>12.19999980926513671875</ele>
        <time>2026-05-09T10:25:32.000Z</time>
        <extensions>
          <ns3:TrackPointExtension>
            <ns3:atemp>15.0</ns3:atemp>
            <ns3:hr>98</ns3:hr>
          </ns3:TrackPointExtension>
        </extensions>
      </trkpt>
      <trkpt lat="48.835636340081691741943359375" lon="-3.4850898943841457366943359375">
        <ele>12.19999980926513671875</ele>
        <time>2026-05-09T10:25:34.000Z</time>
        <extensions>
          <ns3:TrackPointExtension>
            <ns3:atemp>15.0</ns3:atemp>
            <ns3:hr>98</ns3:hr>
          </ns3:TrackPointExtension>
        </extensions>
      </trkpt>
      <trkpt lat="48.83561647497117519378662109375" lon="-3.48513993434607982635498046875">
        <ele>12.19999980926513671875</ele>
        <time>2026-05-09T10:25:38.000Z</time>
        <extensions>
          <ns3:TrackPointExtension>
            <ns3:atemp>15.0</ns3:atemp>
            <ns3:hr>98</ns3:hr>
          </ns3:TrackPointExtension>
        </extensions>
      </trkpt>
      <trkpt lat="48.8355682790279388427734375" lon="-3.48524487577378749847412109375">
        <ele>12.19999980926513671875</ele>
        <time>2026-05-09T10:25:45.000Z</time>
        <extensions>
          <ns3:TrackPointExtension>
            <ns3:atemp>15.0</ns3:atemp>
            <ns3:hr>98</ns3:hr>
          </ns3:TrackPointExtension>
        </extensions>
      </trkpt>
      <trkpt lat="48.83554003201425075531005859375" lon="-3.4853416867554187774658203125">
        <ele>12.80000019073486328125</ele>
        <time>2026-05-09T10:25:51.000Z</time>
        <extensions>
          <ns3:TrackPointExtension>
            <ns3:atemp>15.0</ns3:atemp>
            <ns3:hr>98</ns3:hr>
          </ns3:TrackPointExtension>
        </extensions>
      </trkpt>
      <trkpt lat="48.83554707281291484832763671875" lon="-3.4853524155914783477783203125">
        <ele>13</ele>
        <time>2026-05-09T10:25:52.000Z</time>
        <extensions>
          <ns3:TrackPointExtension>
            <ns3:atemp>15.0</ns3:atemp>
            <ns3:hr>99</ns3:hr>
          </ns3:TrackPointExtension>
        </extensions>
      </trkpt>
      <trkpt lat="48.8355781696736812591552734375" lon="-3.48539474420249462127685546875">
        <ele>13</ele>
        <time>2026-05-09T10:25:55.000Z</time>
        <extensions>
          <ns3:TrackPointExtension>
            <ns3:atemp>15.0</ns3:atemp>
            <ns3:hr>101</ns3:hr>
          </ns3:TrackPointExtension>
        </extensions>
      </trkpt>
      <trkpt lat="48.8355815224349498748779296875" lon="-3.485479652881622314453125">
        <ele>13.3999996185302734375</ele>
        <time>2026-05-09T10:26:00.000Z</time>
        <extensions>
          <ns3:TrackPointExtension>
            <ns3:atemp>15.0</ns3:atemp>
            <ns3:hr>101</ns3:hr>
          </ns3:TrackPointExtension>
        </extensions>
      </trkpt>
      <trkpt lat="48.835573308169841766357421875" lon="-3.485530950129032135009765625">
        <ele>13.80000019073486328125</ele>
        <time>2026-05-09T10:26:03.000Z</time>
        <extensions>
          <ns3:TrackPointExtension>
            <ns3:atemp>15.0</ns3:atemp>
            <ns3:hr>102</ns3:hr>
          </ns3:TrackPointExtension>
        </extensions>
      </trkpt>
      <trkpt lat="48.8355704583227634429931640625" lon="-3.485581576824188232421875">
        <ele>13.80000019073486328125</ele>
        <time>2026-05-09T10:26:06.000Z</time>
        <extensions>
          <ns3:TrackPointExtension>
            <ns3:atemp>15.0</ns3:atemp>
            <ns3:hr>103</ns3:hr>
          </ns3:TrackPointExtension>
        </extensions>
      </trkpt>
      <trkpt lat="48.83555713109672069549560546875" lon="-3.48573588766157627105712890625">
        <ele>13.19999980926513671875</ele>
        <time>2026-05-09T10:26:14.000Z</time>
        <extensions>
          <ns3:TrackPointExtension>
            <ns3:atemp>15.0</ns3:atemp>
            <ns3:hr>103</ns3:hr>
          </ns3:TrackPointExtension>
        </extensions>
      </trkpt>
      <trkpt lat="48.83554791100323200225830078125" lon="-3.485754244029521942138671875">
        <ele>12.6000003814697265625</ele>
        <time>2026-05-09T10:26:18.000Z</time>
        <extensions>
          <ns3:TrackPointExtension>
            <ns3:atemp>15.0</ns3:atemp>
            <ns3:hr>101</ns3:hr>
          </ns3:TrackPointExtension>
        </extensions>
      </trkpt>
      <trkpt lat="48.83554740808904170989990234375" lon="-3.48575466312468051910400390625">
        <ele>12.19999980926513671875</ele>
        <time>2026-05-09T10:26:20.000Z</time>
        <extensions>
          <ns3:TrackPointExtension>
            <ns3:atemp>15.0</ns3:atemp>
            <ns3:hr>98</ns3:hr>
          </ns3:TrackPointExtension>
        </extensions>
      </trkpt>
      <trkpt lat="48.83554740808904170989990234375" lon="-3.48575466312468051910400390625">
        <ele>12.3999996185302734375</ele>
        <time>2026-05-09T10:26:22.000Z</time>
        <extensions>
          <ns3:TrackPointExtension>
            <ns3:atemp>15.0</ns3:atemp>
            <ns3:hr>95</ns3:hr>
          </ns3:TrackPointExtension>
        </extensions>
      </trkpt>
      <trkpt lat="48.83554740808904170989990234375" lon="-3.48575466312468051910400390625">
        <ele>13.19999980926513671875</ele>
        <time>2026-05-09T10:26:31.000Z</time>
        <extensions>
          <ns3:TrackPointExtension>
            <ns3:atemp>15.0</ns3:atemp>
            <ns3:hr>95</ns3:hr>
          </ns3:TrackPointExtension>
        </extensions>
      </trkpt>
      <trkpt lat="48.83554740808904170989990234375" lon="-3.48575466312468051910400390625">
        <ele>12.80000019073486328125</ele>
        <time>2026-05-09T10:26:34.000Z</time>
        <extensions>
          <ns3:TrackPointExtension>
            <ns3:atemp>15.0</ns3:atemp>
            <ns3:hr>92</ns3:hr>
          </ns3:TrackPointExtension>
        </extensions>
      </trkpt>
      <trkpt lat="48.83554740808904170989990234375" lon="-3.48575466312468051910400390625">
        <ele>12.6000003814697265625</ele>
        <time>2026-05-09T10:26:38.000Z</time>
        <extensions>
          <ns3:TrackPointExtension>
            <ns3:atemp>15.0</ns3:atemp>
            <ns3:hr>95</ns3:hr>
          </ns3:TrackPointExtension>
        </extensions>
      </trkpt>
      <trkpt lat="48.83555956184864044189453125" lon="-3.48569096066057682037353515625">
        <ele>12.3999996185302734375</ele>
        <time>2026-05-09T10:26:43.000Z</time>
        <extensions>
          <ns3:TrackPointExtension>
            <ns3:atemp>15.0</ns3:atemp>
            <ns3:hr>95</ns3:hr>
          </ns3:TrackPointExtension>
        </extensions>
      </trkpt>
      <trkpt lat="48.835571967065334320068359375" lon="-3.4856025315821170806884765625">
        <ele>13.3999996185302734375</ele>
        <time>2026-05-09T10:26:49.000Z</time>
        <extensions>
          <ns3:TrackPointExtension>
            <ns3:atemp>15.0</ns3:atemp>
            <ns3:hr>94</ns3:hr>
          </ns3:TrackPointExtension>
        </extensions>
      </trkpt>
      <trkpt lat="48.8355791755020618438720703125" lon="-3.485527597367763519287109375">
        <ele>13</ele>
        <time>2026-05-09T10:26:57.000Z</time>
        <extensions>
          <ns3:TrackPointExtension>
            <ns3:atemp>15.0</ns3:atemp>
            <ns3:hr>92</ns3:hr>
          </ns3:TrackPointExtension>
        </extensions>
      </trkpt>
      <trkpt lat="48.83557138033211231231689453125" lon="-3.48543615080416202545166015625">
        <ele>12.6000003814697265625</ele>
        <time>2026-05-09T10:27:04.000Z</time>
        <extensions>
          <ns3:TrackPointExtension>
            <ns3:atemp>15.0</ns3:atemp>
            <ns3:hr>89</ns3:hr>
          </ns3:TrackPointExtension>
        </extensions>
      </trkpt>
      <trkpt lat="48.83557724766433238983154296875" lon="-3.48538242280483245849609375">
        <ele>13.6000003814697265625</ele>
        <time>2026-05-09T10:27:11.000Z</time>
        <extensions>
          <ns3:TrackPointExtension>
            <ns3:atemp>15.0</ns3:atemp>
            <ns3:hr>88</ns3:hr>
          </ns3:TrackPointExtension>
        </extensions>
      </trkpt>
      <trkpt lat="48.83555796928703784942626953125" lon="-3.48535551689565181732177734375">
        <ele>13.19999980926513671875</ele>
        <time>2026-05-09T10:27:18.000Z</time>
        <extensions>
          <ns3:TrackPointExtension>
            <ns3:atemp>15.0</ns3:atemp>
            <ns3:hr>88</ns3:hr>
          </ns3:TrackPointExtension>
        </extensions>
      </trkpt>
      <trkpt lat="48.8354983739554882049560546875" lon="-3.48531670868396759033203125">
        <ele>13.19999980926513671875</ele>
        <time>2026-05-09T10:27:23.000Z</time>
        <extensions>
          <ns3:TrackPointExtension>
            <ns3:atemp>15.0</ns3:atemp>
            <ns3:hr>86</ns3:hr>
          </ns3:TrackPointExtension>
        </extensions>
      </trkpt>
      <trkpt lat="48.83543324656784534454345703125" lon="-3.4852913953363895416259765625">
        <ele>13.3999996185302734375</ele>
        <time>2026-05-09T10:27:29.000Z</time>
        <extensions>
          <ns3:TrackPointExtension>
            <ns3:atemp>15.0</ns3:atemp>
            <ns3:hr>87</ns3:hr>
          </ns3:TrackPointExtension>
        </extensions>
      </trkpt>
      <trkpt lat="48.83542167954146862030029296875" lon="-3.4852853603661060333251953125">
        <ele>13.19999980926513671875</ele>
        <time>2026-05-09T10:27:34.000Z</time>
        <extensions>
          <ns3:TrackPointExtension>
            <ns3:atemp>15.0</ns3:atemp>
            <ns3:hr>88</ns3:hr>
          </ns3:TrackPointExtension>
        </extensions>
      </trkpt>
      <trkpt lat="48.83542167954146862030029296875" lon="-3.4852853603661060333251953125">
        <ele>13.19999980926513671875</ele>
        <time>2026-05-09T10:27:45.000Z</time>
        <extensions>
          <ns3:TrackPointExtension>
            <ns3:atemp>15.0</ns3:atemp>
            <ns3:hr>88</ns3:hr>
          </ns3:TrackPointExtension>
        </extensions>
      </trkpt>
      <trkpt lat="48.83537222631275653839111328125" lon="-3.48526775836944580078125">
        <ele>13.3999996185302734375</ele>
        <time>2026-05-09T10:27:53.000Z</time>
        <extensions>
          <ns3:TrackPointExtension>
            <ns3:atemp>15.0</ns3:atemp>
            <ns3:hr>89</ns3:hr>
          </ns3:TrackPointExtension>
        </extensions>
      </trkpt>
      <trkpt lat="48.835344649851322174072265625" lon="-3.48525946028530597686767578125">
        <ele>13.80000019073486328125</ele>
        <time>2026-05-09T10:27:56.000Z</time>
        <extensions>
          <ns3:TrackPointExtension>
            <ns3:atemp>15.0</ns3:atemp>
            <ns3:hr>89</ns3:hr>
          </ns3:TrackPointExtension>
        </extensions>
      </trkpt>
      <trkpt lat="48.83531992323696613311767578125" lon="-3.4852531738579273223876953125">
        <ele>13.80000019073486328125</ele>
        <time>2026-05-09T10:27:59.000Z</time>
        <extensions>
          <ns3:TrackPointExtension>
            <ns3:atemp>15.0</ns3:atemp>
            <ns3:hr>90</ns3:hr>
          </ns3:TrackPointExtension>
        </extensions>
      </trkpt>
      <trkpt lat="48.83525957353413105010986328125" lon="-3.48523666150867938995361328125">
        <ele>14.19999980926513671875</ele>
        <time>2026-05-09T10:28:05.000Z</time>
        <extensions>
          <ns3:TrackPointExtension>
            <ns3:atemp>15.0</ns3:atemp>
            <ns3:hr>93</ns3:hr>
          </ns3:TrackPointExtension>
        </extensions>
      </trkpt>
      <trkpt lat="48.83522168733179569244384765625" lon="-3.48522710613906383514404296875">
        <ele>14.3999996185302734375</ele>
        <time>2026-05-09T10:28:09.000Z</time>
        <extensions>
          <ns3:TrackPointExtension>
            <ns3:atemp>15.0</ns3:atemp>
            <ns3:hr>94</ns3:hr>
          </ns3:TrackPointExtension>
        </extensions>
      </trkpt>
      <trkpt lat="48.83515798486769199371337890625" lon="-3.48521218635141849517822265625">
        <ele>14.80000019073486328125</ele>
        <time>2026-05-09T10:28:16.000Z</time>
        <extensions>
          <ns3:TrackPointExtension>
            <ns3:atemp>15.0</ns3:atemp>
            <ns3:hr>95</ns3:hr>
          </ns3:TrackPointExtension>
        </extensions>
      </trkpt>
      <trkpt lat="48.8351178355515003204345703125" lon="-3.48519659601151943206787109375">
        <ele>15.19999980926513671875</ele>
        <time>2026-05-09T10:28:20.000Z</time>
        <extensions>
          <ns3:TrackPointExtension>
            <ns3:atemp>15.0</ns3:atemp>
            <ns3:hr>96</ns3:hr>
          </ns3:TrackPointExtension>
        </extensions>
      </trkpt>
      <trkpt lat="48.835035525262355804443359375" lon="-3.4852028824388980865478515625">
        <ele>15.3999996185302734375</ele>
        <time>2026-05-09T10:28:26.000Z</time>
        <extensions>
          <ns3:TrackPointExtension>
            <ns3:atemp>15.0</ns3:atemp>
            <ns3:hr>96</ns3:hr>
          </ns3:TrackPointExtension>
        </extensions>
      </trkpt>
      <trkpt lat="48.83494072593748569488525390625" lon="-3.4852397628128528594970703125">
        <ele>15.80000019073486328125</ele>
        <time>2026-05-09T10:28:33.000Z</time>
        <extensions>
          <ns3:TrackPointExtension>
            <ns3:atemp>15.0</ns3:atemp>
            <ns3:hr>98</ns3:hr>
          </ns3:TrackPointExtension>
        </extensions>
      </trkpt>
      <trkpt lat="48.8348647020757198333740234375" lon="-3.485261388123035430908203125">
        <ele>16.200000762939453125</ele>
        <time>2026-05-09T10:28:39.000Z</time>
        <extensions>
          <ns3:TrackPointExtension>
            <ns3:atemp>15.0</ns3:atemp>
            <ns3:hr>96</ns3:hr>
          </ns3:TrackPointExtension>
        </extensions>
      </trkpt>
      <trkpt lat="48.83485506288707256317138671875" lon="-3.4852739609777927398681640625">
        <ele>16.200000762939453125</ele>
        <time>2026-05-09T10:28:40.000Z</time>
        <extensions>
          <ns3:TrackPointExtension>
            <ns3:atemp>15.0</ns3:atemp>
            <ns3:hr>95</ns3:hr>
          </ns3:TrackPointExtension>
        </extensions>
      </trkpt>
      <trkpt lat="48.83478448726236820220947265625" lon="-3.48533070646226406097412109375">
        <ele>16.6000003814697265625</ele>
        <time>2026-05-09T10:28:47.000Z</time>
        <extensions>
          <ns3:TrackPointExtension>
            <ns3:atemp>15.0</ns3:atemp>
            <ns3:hr>95</ns3:hr>
          </ns3:TrackPointExtension>
        </extensions>
      </trkpt>
      <trkpt lat="48.8347647897899150848388671875" lon="-3.48533682525157928466796875">
        <ele>16.799999237060546875</ele>
        <time>2026-05-09T10:28:49.000Z</time>
        <extensions>
          <ns3:TrackPointExtension>
            <ns3:atemp>15.0</ns3:atemp>
            <ns3:hr>96</ns3:hr>
          </ns3:TrackPointExtension>
        </extensions>
      </trkpt>
      <trkpt lat="48.83471039123833179473876953125" lon="-3.4853581152856349945068359375">
        <ele>16.799999237060546875</ele>
        <time>2026-05-09T10:28:53.000Z</time>
        <extensions>
          <ns3:TrackPointExtension>
            <ns3:atemp>15.0</ns3:atemp>
            <ns3:hr>98</ns3:hr>
          </ns3:TrackPointExtension>
        </extensions>
      </trkpt>
      <trkpt lat="48.8346538133919239044189453125" lon="-3.48535803146660327911376953125">
        <ele>16.6000003814697265625</ele>
        <time>2026-05-09T10:28:59.000Z</time>
        <extensions>
          <ns3:TrackPointExtension>
            <ns3:atemp>15.0</ns3:atemp>
            <ns3:hr>99</ns3:hr>
          </ns3:TrackPointExtension>
        </extensions>
      </trkpt>
      <trkpt lat="48.83458600379526615142822265625" lon="-3.4853120148181915283203125">
        <ele>16.799999237060546875</ele>
        <time>2026-05-09T10:29:05.000Z</time>
        <extensions>
          <ns3:TrackPointExtension>
            <ns3:atemp>15.0</ns3:atemp>
            <ns3:hr>100</ns3:hr>
          </ns3:TrackPointExtension>
        </extensions>
      </trkpt>
      <trkpt lat="48.8344865106046199798583984375" lon="-3.48526817746460437774658203125">
        <ele>17.200000762939453125</ele>
        <time>2026-05-09T10:29:13.000Z</time>
        <extensions>
          <ns3:TrackPointExtension>
            <ns3:atemp>15.0</ns3:atemp>
            <ns3:hr>100</ns3:hr>
          </ns3:TrackPointExtension>
        </extensions>
      </trkpt>
      <trkpt lat="48.8343966566026210784912109375" lon="-3.48526935093104839324951171875">
        <ele>16.799999237060546875</ele>
        <time>2026-05-09T10:29:21.000Z</time>
        <extensions>
          <ns3:TrackPointExtension>
            <ns3:atemp>15.0</ns3:atemp>
            <ns3:hr>100</ns3:hr>
          </ns3:TrackPointExtension>
        </extensions>
      </trkpt>
      <trkpt lat="48.834342174232006072998046875" lon="-3.4852917306125164031982421875">
        <ele>16.799999237060546875</ele>
        <time>2026-05-09T10:29:26.000Z</time>
        <extensions>
          <ns3:TrackPointExtension>
            <ns3:atemp>15.0</ns3:atemp>
            <ns3:hr>97</ns3:hr>
          </ns3:TrackPointExtension>
        </extensions>
      </trkpt>
      <trkpt lat="48.83432934992015361785888671875" lon="-3.4852981008589267730712890625">
        <ele>16.799999237060546875</ele>
        <time>2026-05-09T10:29:27.000Z</time>
        <extensions>
          <ns3:TrackPointExtension>
            <ns3:atemp>15.0</ns3:atemp>
            <ns3:hr>97</ns3:hr>
          </ns3:TrackPointExtension>
        </extensions>
      </trkpt>
      <trkpt lat="48.83426983840763568878173828125" lon="-3.485368676483631134033203125">
        <ele>16.3999996185302734375</ele>
        <time>2026-05-09T10:29:33.000Z</time>
        <extensions>
          <ns3:TrackPointExtension>
            <ns3:atemp>15.0</ns3:atemp>
            <ns3:hr>97</ns3:hr>
          </ns3:TrackPointExtension>
        </extensions>
      </trkpt>
      <trkpt lat="48.834209404885768890380859375" lon="-3.48545962013304233551025390625">
        <ele>16</ele>
        <time>2026-05-09T10:29:39.000Z</time>
        <extensions>
          <ns3:TrackPointExtension>
            <ns3:atemp>15.0</ns3:atemp>
            <ns3:hr>97</ns3:hr>
          </ns3:TrackPointExtension>
        </extensions>
      </trkpt>
      <trkpt lat="48.83416741155087947845458984375" lon="-3.485514856874942779541015625">
        <ele>15.80000019073486328125</ele>
        <time>2026-05-09T10:29:44.000Z</time>
        <extensions>
          <ns3:TrackPointExtension>
            <ns3:atemp>15.0</ns3:atemp>
            <ns3:hr>97</ns3:hr>
          </ns3:TrackPointExtension>
        </extensions>
      </trkpt>
      <trkpt lat="48.834150731563568115234375" lon="-3.48554695956408977508544921875">
        <ele>15.6000003814697265625</ele>
        <time>2026-05-09T10:29:46.000Z</time>
        <extensions>
          <ns3:TrackPointExtension>
            <ns3:atemp>15.0</ns3:atemp>
            <ns3:hr>96</ns3:hr>
          </ns3:TrackPointExtension>
        </extensions>
      </trkpt>
      <trkpt lat="48.834095411002635955810546875" lon="-3.48563681356608867645263671875">
        <ele>15.3999996185302734375</ele>
        <time>2026-05-09T10:29:53.000Z</time>
        <extensions>
          <ns3:TrackPointExtension>
            <ns3:atemp>15.0</ns3:atemp>
            <ns3:hr>95</ns3:hr>
          </ns3:TrackPointExtension>
        </extensions>
      </trkpt>
      <trkpt lat="48.83404788561165332794189453125" lon="-3.485730774700641632080078125">
        <ele>14.80000019073486328125</ele>
        <time>2026-05-09T10:30:00.000Z</time>
        <extensions>
          <ns3:TrackPointExtension>
            <ns3:atemp>15.0</ns3:atemp>
            <ns3:hr>94</ns3:hr>
          </ns3:TrackPointExtension>
        </extensions>
      </trkpt>
      <trkpt lat="48.83404185064136981964111328125" lon="-3.48575248382985591888427734375">
        <ele>14.80000019073486328125</ele>
        <time>2026-05-09T10:30:01.000Z</time>
        <extensions>
          <ns3:TrackPointExtension>
            <ns3:atemp>15.0</ns3:atemp>
            <ns3:hr>94</ns3:hr>
          </ns3:TrackPointExtension>
        </extensions>
      </trkpt>
      <trkpt lat="48.83401318453252315521240234375" lon="-3.48584082908928394317626953125">
        <ele>14.19999980926513671875</ele>
        <time>2026-05-09T10:30:07.000Z</time>
        <extensions>
          <ns3:TrackPointExtension>
            <ns3:atemp>15.0</ns3:atemp>
            <ns3:hr>93</ns3:hr>
          </ns3:TrackPointExtension>
        </extensions>
      </trkpt>
      <trkpt lat="48.8339799083769321441650390625" lon="-3.48595784045755863189697265625">
        <ele>13.80000019073486328125</ele>
        <time>2026-05-09T10:30:14.000Z</time>
        <extensions>
          <ns3:TrackPointExtension>
            <ns3:atemp>15.0</ns3:atemp>
            <ns3:hr>92</ns3:hr>
          </ns3:TrackPointExtension>
        </extensions>
      </trkpt>
      <trkpt lat="48.83396306075155735015869140625" lon="-3.486005701124668121337890625">
        <ele>13.6000003814697265625</ele>
        <time>2026-05-09T10:30:18.000Z</time>
        <extensions>
          <ns3:TrackPointExtension>
            <ns3:atemp>15.0</ns3:atemp>
            <ns3:hr>92</ns3:hr>
          </ns3:TrackPointExtension>
        </extensions>
      </trkpt>
      <trkpt lat="48.833958618342876434326171875" lon="-3.4860226325690746307373046875">
        <ele>13.6000003814697265625</ele>
        <time>2026-05-09T10:30:19.000Z</time>
        <extensions>
          <ns3:TrackPointExtension>
            <ns3:atemp>15.0</ns3:atemp>
            <ns3:hr>92</ns3:hr>
          </ns3:TrackPointExtension>
        </extensions>
      </trkpt>
      <trkpt lat="48.83394797332584857940673828125" lon="-3.48608859814703464508056640625">
        <ele>13</ele>
        <time>2026-05-09T10:30:26.000Z</time>
        <extensions>
          <ns3:TrackPointExtension>
            <ns3:atemp>15.0</ns3:atemp>
            <ns3:hr>91</ns3:hr>
          </ns3:TrackPointExtension>
        </extensions>
      </trkpt>
      <trkpt lat="48.833925090730190277099609375" lon="-3.48611600697040557861328125">
        <ele>12.6000003814697265625</ele>
        <time>2026-05-09T10:30:29.000Z</time>
        <extensions>
          <ns3:TrackPointExtension>
            <ns3:atemp>15.0</ns3:atemp>
            <ns3:hr>91</ns3:hr>
          </ns3:TrackPointExtension>
        </extensions>
      </trkpt>
      <trkpt lat="48.83389248512685298919677734375" lon="-3.48617828451097011566162109375">
        <ele>12</ele>
        <time>2026-05-09T10:30:33.000Z</time>
        <extensions>
          <ns3:TrackPointExtension>
            <ns3:atemp>15.0</ns3:atemp>
            <ns3:hr>90</ns3:hr>
          </ns3:TrackPointExtension>
        </extensions>
      </trkpt>
      <trkpt lat="48.8338776491582393646240234375" lon="-3.48620644770562648773193359375">
        <ele>11.6000003814697265625</ele>
        <time>2026-05-09T10:30:35.000Z</time>
        <extensions>
          <ns3:TrackPointExtension>
            <ns3:atemp>15.0</ns3:atemp>
            <ns3:hr>90</ns3:hr>
          </ns3:TrackPointExtension>
        </extensions>
      </trkpt>
      <trkpt lat="48.83384688757359981536865234375" lon="-3.48626210354268550872802734375">
        <ele>11.19999980926513671875</ele>
        <time>2026-05-09T10:30:39.000Z</time>
        <extensions>
          <ns3:TrackPointExtension>
            <ns3:atemp>15.0</ns3:atemp>
            <ns3:hr>90</ns3:hr>
          </ns3:TrackPointExtension>
        </extensions>
      </trkpt>
      <trkpt lat="48.83381168358027935028076171875" lon="-3.48630644381046295166015625">
        <ele>10.3999996185302734375</ele>
        <time>2026-05-09T10:30:43.000Z</time>
        <extensions>
          <ns3:TrackPointExtension>
            <ns3:atemp>15.0</ns3:atemp>
            <ns3:hr>89</ns3:hr>
          </ns3:TrackPointExtension>
        </extensions>
      </trkpt>
      <trkpt lat="48.8338055647909641265869140625" lon="-3.4863227047026157379150390625">
        <ele>10</ele>
        <time>2026-05-09T10:30:45.000Z</time>
        <extensions>
          <ns3:TrackPointExtension>
            <ns3:atemp>15.0</ns3:atemp>
            <ns3:hr>89</ns3:hr>
          </ns3:TrackPointExtension>
        </extensions>
      </trkpt>
      <trkpt lat="48.83375619538128376007080078125" lon="-3.48640794865787029266357421875">
        <ele>9.80000019073486328125</ele>
        <time>2026-05-09T10:30:53.000Z</time>
        <extensions>
          <ns3:TrackPointExtension>
            <ns3:atemp>15.0</ns3:atemp>
            <ns3:hr>87</ns3:hr>
          </ns3:TrackPointExtension>
        </extensions>
      </trkpt>
      <trkpt lat="48.83375602774322032928466796875" lon="-3.48642504774034023284912109375">
        <ele>9.6000003814697265625</ele>
        <time>2026-05-09T10:30:54.000Z</time>
        <extensions>
          <ns3:TrackPointExtension>
            <ns3:atemp>15.0</ns3:atemp>
            <ns3:hr>87</ns3:hr>
          </ns3:TrackPointExtension>
        </extensions>
      </trkpt>
      <trkpt lat="48.83375845849514007568359375" lon="-3.486495204269886016845703125">
        <ele>9.3999996185302734375</ele>
        <time>2026-05-09T10:30:57.000Z</time>
        <extensions>
          <ns3:TrackPointExtension>
            <ns3:atemp>15.0</ns3:atemp>
            <ns3:hr>87</ns3:hr>
          </ns3:TrackPointExtension>
        </extensions>
      </trkpt>
      <trkpt lat="48.83376709185540676116943359375" lon="-3.486558906733989715576171875">
        <ele>9.19999980926513671875</ele>
        <time>2026-05-09T10:31:02.000Z</time>
        <extensions>
          <ns3:TrackPointExtension>
            <ns3:atemp>15.0</ns3:atemp>
            <ns3:hr>84</ns3:hr>
          </ns3:TrackPointExtension>
        </extensions>
      </trkpt>
      <trkpt lat="48.83376642130315303802490234375" lon="-3.48656720481812953948974609375">
        <ele>9.19999980926513671875</ele>
        <time>2026-05-09T10:31:04.000Z</time>
        <extensions>
          <ns3:TrackPointExtension>
            <ns3:atemp>15.0</ns3:atemp>
            <ns3:hr>84</ns3:hr>
          </ns3:TrackPointExtension>
        </extensions>
      </trkpt>
      <trkpt lat="48.83376642130315303802490234375" lon="-3.48656720481812953948974609375">
        <ele>9.19999980926513671875</ele>
        <time>2026-05-09T10:31:09.000Z</time>
        <extensions>
          <ns3:TrackPointExtension>
            <ns3:atemp>15.0</ns3:atemp>
            <ns3:hr>81</ns3:hr>
          </ns3:TrackPointExtension>
        </extensions>
      </trkpt>
      <trkpt lat="48.83376642130315303802490234375" lon="-3.48656720481812953948974609375">
        <ele>9.19999980926513671875</ele>
        <time>2026-05-09T10:31:16.000Z</time>
        <extensions>
          <ns3:TrackPointExtension>
            <ns3:atemp>15.0</ns3:atemp>
            <ns3:hr>83</ns3:hr>
          </ns3:TrackPointExtension>
        </extensions>
      </trkpt>
      <trkpt lat="48.83376642130315303802490234375" lon="-3.48656720481812953948974609375">
        <ele>9.19999980926513671875</ele>
        <time>2026-05-09T10:31:34.000Z</time>
        <extensions>
          <ns3:TrackPointExtension>
            <ns3:atemp>15.0</ns3:atemp>
            <ns3:hr>85</ns3:hr>
          </ns3:TrackPointExtension>
        </extensions>
      </trkpt>
      <trkpt lat="48.83376642130315303802490234375" lon="-3.48656720481812953948974609375">
        <ele>9.19999980926513671875</ele>
        <time>2026-05-09T10:31:36.000Z</time>
        <extensions>
          <ns3:TrackPointExtension>
            <ns3:atemp>15.0</ns3:atemp>
            <ns3:hr>88</ns3:hr>
          </ns3:TrackPointExtension>
        </extensions>
      </trkpt>
      <trkpt lat="48.83376642130315303802490234375" lon="-3.48656720481812953948974609375">
        <ele>9.19999980926513671875</ele>
        <time>2026-05-09T10:31:53.000Z</time>
        <extensions>
          <ns3:TrackPointExtension>
            <ns3:atemp>15.0</ns3:atemp>
            <ns3:hr>88</ns3:hr>
          </ns3:TrackPointExtension>
        </extensions>
      </trkpt>
      <trkpt lat="48.83375200442969799041748046875" lon="-3.48654205910861492156982421875">
        <ele>9.19999980926513671875</ele>
        <time>2026-05-09T10:32:01.000Z</time>
        <extensions>
          <ns3:TrackPointExtension>
            <ns3:atemp>15.0</ns3:atemp>
            <ns3:hr>87</ns3:hr>
          </ns3:TrackPointExtension>
        </extensions>
      </trkpt>
      <trkpt lat="48.833715207874774932861328125" lon="-3.4865994751453399658203125">
        <ele>9.3999996185302734375</ele>
        <time>2026-05-09T10:32:06.000Z</time>
        <extensions>
          <ns3:TrackPointExtension>
            <ns3:atemp>15.0</ns3:atemp>
            <ns3:hr>87</ns3:hr>
          </ns3:TrackPointExtension>
        </extensions>
      </trkpt>
      <trkpt lat="48.83371294476091861724853515625" lon="-3.4866034984588623046875">
        <ele>9.19999980926513671875</ele>
        <time>2026-05-09T10:32:11.000Z</time>
        <extensions>
          <ns3:TrackPointExtension>
            <ns3:atemp>15.0</ns3:atemp>
            <ns3:hr>84</ns3:hr>
          </ns3:TrackPointExtension>
        </extensions>
      </trkpt>
      <trkpt lat="48.83371294476091861724853515625" lon="-3.4866034984588623046875">
        <ele>9</ele>
        <time>2026-05-09T10:32:13.000Z</time>
        <extensions>
          <ns3:TrackPointExtension>
            <ns3:atemp>15.0</ns3:atemp>
            <ns3:hr>84</ns3:hr>
          </ns3:TrackPointExtension>
        </extensions>
      </trkpt>
      <trkpt lat="48.83371294476091861724853515625" lon="-3.4866034984588623046875">
        <ele>8.80000019073486328125</ele>
        <time>2026-05-09T10:32:19.000Z</time>
        <extensions>
          <ns3:TrackPointExtension>
            <ns3:atemp>15.0</ns3:atemp>
            <ns3:hr>84</ns3:hr>
          </ns3:TrackPointExtension>
        </extensions>
      </trkpt>
      <trkpt lat="48.83371294476091861724853515625" lon="-3.4866034984588623046875">
        <ele>8.80000019073486328125</ele>
        <time>2026-05-09T10:32:21.000Z</time>
        <extensions>
          <ns3:TrackPointExtension>
            <ns3:atemp>15.0</ns3:atemp>
            <ns3:hr>85</ns3:hr>
          </ns3:TrackPointExtension>
        </extensions>
      </trkpt>
      <trkpt lat="48.8337190635502338409423828125" lon="-3.48656795918941497802734375">
        <ele>9</ele>
        <time>2026-05-09T10:32:30.000Z</time>
        <extensions>
          <ns3:TrackPointExtension>
            <ns3:atemp>15.0</ns3:atemp>
            <ns3:hr>83</ns3:hr>
          </ns3:TrackPointExtension>
        </extensions>
      </trkpt>
      <trkpt lat="48.83374446071684360504150390625" lon="-3.4864625148475170135498046875">
        <ele>9.3999996185302734375</ele>
        <time>2026-05-09T10:32:38.000Z</time>
        <extensions>
          <ns3:TrackPointExtension>
            <ns3:atemp>15.0</ns3:atemp>
            <ns3:hr>83</ns3:hr>
          </ns3:TrackPointExtension>
        </extensions>
      </trkpt>
      <trkpt lat="48.8337470591068267822265625" lon="-3.48640375770628452301025390625">
        <ele>9.3999996185302734375</ele>
        <time>2026-05-09T10:32:42.000Z</time>
        <extensions>
          <ns3:TrackPointExtension>
            <ns3:atemp>15.0</ns3:atemp>
            <ns3:hr>83</ns3:hr>
          </ns3:TrackPointExtension>
        </extensions>
      </trkpt>
      <trkpt lat="48.8337261043488979339599609375" lon="-3.4863768517971038818359375">
        <ele>9.19999980926513671875</ele>
        <time>2026-05-09T10:32:44.000Z</time>
        <extensions>
          <ns3:TrackPointExtension>
            <ns3:atemp>15.0</ns3:atemp>
            <ns3:hr>83</ns3:hr>
          </ns3:TrackPointExtension>
        </extensions>
      </trkpt>
      <trkpt lat="48.83366114459931850433349609375" lon="-3.48631340079009532928466796875">
        <ele>9</ele>
        <time>2026-05-09T10:32:50.000Z</time>
        <extensions>
          <ns3:TrackPointExtension>
            <ns3:atemp>15.0</ns3:atemp>
            <ns3:hr>83</ns3:hr>
          </ns3:TrackPointExtension>
        </extensions>
      </trkpt>
      <trkpt lat="48.83362342603504657745361328125" lon="-3.48629211075603961944580078125">
        <ele>8.80000019073486328125</ele>
        <time>2026-05-09T10:32:57.000Z</time>
        <extensions>
          <ns3:TrackPointExtension>
            <ns3:atemp>15.0</ns3:atemp>
            <ns3:hr>83</ns3:hr>
          </ns3:TrackPointExtension>
        </extensions>
      </trkpt>
      <trkpt lat="48.8335648365318775177001953125" lon="-3.486251123249530792236328125">
        <ele>8.80000019073486328125</ele>
        <time>2026-05-09T10:33:03.000Z</time>
        <extensions>
          <ns3:TrackPointExtension>
            <ns3:atemp>15.0</ns3:atemp>
            <ns3:hr>81</ns3:hr>
          </ns3:TrackPointExtension>
        </extensions>
      </trkpt>
      <trkpt lat="48.83349484764039516448974609375" lon="-3.48621013574302196502685546875">
        <ele>8.6000003814697265625</ele>
        <time>2026-05-09T10:33:09.000Z</time>
        <extensions>
          <ns3:TrackPointExtension>
            <ns3:atemp>15.0</ns3:atemp>
            <ns3:hr>81</ns3:hr>
          </ns3:TrackPointExtension>
        </extensions>
      </trkpt>
      <trkpt lat="48.833444975316524505615234375" lon="-3.48616939969360828399658203125">
        <ele>8.3999996185302734375</ele>
        <time>2026-05-09T10:33:14.000Z</time>
        <extensions>
          <ns3:TrackPointExtension>
            <ns3:atemp>15.0</ns3:atemp>
            <ns3:hr>80</ns3:hr>
          </ns3:TrackPointExtension>
        </extensions>
      </trkpt>
      <trkpt lat="48.8334327377378940582275390625" lon="-3.486163951456546783447265625">
        <ele>8.19999980926513671875</ele>
        <time>2026-05-09T10:33:15.000Z</time>
        <extensions>
          <ns3:TrackPointExtension>
            <ns3:atemp>15.0</ns3:atemp>
            <ns3:hr>80</ns3:hr>
          </ns3:TrackPointExtension>
        </extensions>
      </trkpt>
      <trkpt lat="48.8333821110427379608154296875" lon="-3.4861295856535434722900390625">
        <ele>8</ele>
        <time>2026-05-09T10:33:20.000Z</time>
        <extensions>
          <ns3:TrackPointExtension>
            <ns3:atemp>15.0</ns3:atemp>
            <ns3:hr>80</ns3:hr>
          </ns3:TrackPointExtension>
        </extensions>
      </trkpt>
      <trkpt lat="48.8333232700824737548828125" lon="-3.486117012798786163330078125">
        <ele>7.400000095367431640625</ele>
        <time>2026-05-09T10:33:26.000Z</time>
        <extensions>
          <ns3:TrackPointExtension>
            <ns3:atemp>15.0</ns3:atemp>
            <ns3:hr>80</ns3:hr>
          </ns3:TrackPointExtension>
        </extensions>
      </trkpt>
      <trkpt lat="48.83328831754624843597412109375" lon="-3.4861269034445285797119140625">
        <ele>7.19999980926513671875</ele>
        <time>2026-05-09T10:33:30.000Z</time>
        <extensions>
          <ns3:TrackPointExtension>
            <ns3:atemp>15.0</ns3:atemp>
            <ns3:hr>79</ns3:hr>
          </ns3:TrackPointExtension>
        </extensions>
      </trkpt>
      <trkpt lat="48.83327792398631572723388671875" lon="-3.48613344132900238037109375">
        <ele>7.19999980926513671875</ele>
        <time>2026-05-09T10:33:32.000Z</time>
        <extensions>
          <ns3:TrackPointExtension>
            <ns3:atemp>15.0</ns3:atemp>
            <ns3:hr>79</ns3:hr>
          </ns3:TrackPointExtension>
        </extensions>
      </trkpt>
      <trkpt lat="48.833273313939571380615234375" lon="-3.48613989539444446563720703125">
        <ele>7</ele>
        <time>2026-05-09T10:33:40.000Z</time>
        <extensions>
          <ns3:TrackPointExtension>
            <ns3:atemp>15.0</ns3:atemp>
            <ns3:hr>76</ns3:hr>
          </ns3:TrackPointExtension>
        </extensions>
      </trkpt>
      <trkpt lat="48.8332687877118587493896484375" lon="-3.48616428673267364501953125">
        <ele>6.80000019073486328125</ele>
        <time>2026-05-09T10:33:49.000Z</time>
        <extensions>
          <ns3:TrackPointExtension>
            <ns3:atemp>15.0</ns3:atemp>
            <ns3:hr>78</ns3:hr>
          </ns3:TrackPointExtension>
        </extensions>
      </trkpt>
      <trkpt lat="48.8332687877118587493896484375" lon="-3.48616428673267364501953125">
        <ele>6.400000095367431640625</ele>
        <time>2026-05-09T10:34:00.000Z</time>
        <extensions>
          <ns3:TrackPointExtension>
            <ns3:atemp>15.0</ns3:atemp>
            <ns3:hr>75</ns3:hr>
          </ns3:TrackPointExtension>
        </extensions>
      </trkpt>
      <trkpt lat="48.8332687877118587493896484375" lon="-3.48616428673267364501953125">
        <ele>6.599999904632568359375</ele>
        <time>2026-05-09T10:34:05.000Z</time>
        <extensions>
          <ns3:TrackPointExtension>
            <ns3:atemp>15.0</ns3:atemp>
            <ns3:hr>78</ns3:hr>
          </ns3:TrackPointExtension>
        </extensions>
      </trkpt>
      <trkpt lat="48.8332687877118587493896484375" lon="-3.48616428673267364501953125">
        <ele>6.599999904632568359375</ele>
        <time>2026-05-09T10:34:07.000Z</time>
        <extensions>
          <ns3:TrackPointExtension>
            <ns3:atemp>15.0</ns3:atemp>
            <ns3:hr>79</ns3:hr>
          </ns3:TrackPointExtension>
        </extensions>
      </trkpt>
      <trkpt lat="48.83326300419867038726806640625" lon="-3.48614819347858428955078125">
        <ele>6.19999980926513671875</ele>
        <time>2026-05-09T10:34:14.000Z</time>
        <extensions>
          <ns3:TrackPointExtension>
            <ns3:atemp>15.0</ns3:atemp>
            <ns3:hr>80</ns3:hr>
          </ns3:TrackPointExtension>
        </extensions>
      </trkpt>
      <trkpt lat="48.8332401216030120849609375" lon="-3.486123383045196533203125">
        <ele>6.400000095367431640625</ele>
        <time>2026-05-09T10:34:17.000Z</time>
        <extensions>
          <ns3:TrackPointExtension>
            <ns3:atemp>15.0</ns3:atemp>
            <ns3:hr>81</ns3:hr>
          </ns3:TrackPointExtension>
        </extensions>
      </trkpt>
      <trkpt lat="48.8331742398440837860107421875" lon="-3.4861165098845958709716796875">
        <ele>6.19999980926513671875</ele>
        <time>2026-05-09T10:34:24.000Z</time>
        <extensions>
          <ns3:TrackPointExtension>
            <ns3:atemp>16.0</ns3:atemp>
            <ns3:hr>80</ns3:hr>
          </ns3:TrackPointExtension>
        </extensions>
      </trkpt>
      <trkpt lat="48.83310156874358654022216796875" lon="-3.48612765781581401824951171875">
        <ele>6.400000095367431640625</ele>
        <time>2026-05-09T10:34:30.000Z</time>
        <extensions>
          <ns3:TrackPointExtension>
            <ns3:atemp>16.0</ns3:atemp>
            <ns3:hr>80</ns3:hr>
          </ns3:TrackPointExtension>
        </extensions>
      </trkpt>
      <trkpt lat="48.8330250419676303863525390625" lon="-3.48611533641815185546875">
        <ele>7</ele>
        <time>2026-05-09T10:34:37.000Z</time>
        <extensions>
          <ns3:TrackPointExtension>
            <ns3:atemp>16.0</ns3:atemp>
            <ns3:hr>81</ns3:hr>
          </ns3:TrackPointExtension>
        </extensions>
      </trkpt>
      <trkpt lat="48.83298489265143871307373046875" lon="-3.4861131571233272552490234375">
        <ele>7.19999980926513671875</ele>
        <time>2026-05-09T10:34:41.000Z</time>
        <extensions>
          <ns3:TrackPointExtension>
            <ns3:atemp>16.0</ns3:atemp>
            <ns3:hr>83</ns3:hr>
          </ns3:TrackPointExtension>
        </extensions>
      </trkpt>
      <trkpt lat="48.832959495484828948974609375" lon="-3.4861081279814243316650390625">
        <ele>7.599999904632568359375</ele>
        <time>2026-05-09T10:34:44.000Z</time>
        <extensions>
          <ns3:TrackPointExtension>
            <ns3:atemp>16.0</ns3:atemp>
            <ns3:hr>82</ns3:hr>
          </ns3:TrackPointExtension>
        </extensions>
      </trkpt>
      <trkpt lat="48.83294046856462955474853515625" lon="-3.4861225448548793792724609375">
        <ele>7.599999904632568359375</ele>
        <time>2026-05-09T10:34:46.000Z</time>
        <extensions>
          <ns3:TrackPointExtension>
            <ns3:atemp>16.0</ns3:atemp>
            <ns3:hr>82</ns3:hr>
          </ns3:TrackPointExtension>
        </extensions>
      </trkpt>
      <trkpt lat="48.832909874618053436279296875" lon="-3.48612933419644832611083984375">
        <ele>7.599999904632568359375</ele>
        <time>2026-05-09T10:34:49.000Z</time>
        <extensions>
          <ns3:TrackPointExtension>
            <ns3:atemp>16.0</ns3:atemp>
            <ns3:hr>83</ns3:hr>
          </ns3:TrackPointExtension>
        </extensions>
      </trkpt>
      <trkpt lat="48.8329013250768184661865234375" lon="-3.48613050766289234161376953125">
        <ele>7.400000095367431640625</ele>
        <time>2026-05-09T10:34:50.000Z</time>
        <extensions>
          <ns3:TrackPointExtension>
            <ns3:atemp>16.0</ns3:atemp>
            <ns3:hr>83</ns3:hr>
          </ns3:TrackPointExtension>
        </extensions>
      </trkpt>
      <trkpt lat="48.83282580412924289703369140625" lon="-3.48614810965955257415771484375">
        <ele>7.19999980926513671875</ele>
        <time>2026-05-09T10:34:57.000Z</time>
        <extensions>
          <ns3:TrackPointExtension>
            <ns3:atemp>16.0</ns3:atemp>
            <ns3:hr>84</ns3:hr>
          </ns3:TrackPointExtension>
        </extensions>
      </trkpt>
      <trkpt lat="48.8327538035809993743896484375" lon="-3.4861818887293338775634765625">
        <ele>7</ele>
        <time>2026-05-09T10:35:04.000Z</time>
        <extensions>
          <ns3:TrackPointExtension>
            <ns3:atemp>16.0</ns3:atemp>
            <ns3:hr>84</ns3:hr>
          </ns3:TrackPointExtension>
        </extensions>
      </trkpt>
      <trkpt lat="48.8326978124678134918212890625" lon="-3.48619990982115268707275390625">
        <ele>7</ele>
        <time>2026-05-09T10:35:11.000Z</time>
        <extensions>
          <ns3:TrackPointExtension>
            <ns3:atemp>16.0</ns3:atemp>
            <ns3:hr>84</ns3:hr>
          </ns3:TrackPointExtension>
        </extensions>
      </trkpt>
      <trkpt lat="48.83265347220003604888916015625" lon="-3.4862150810658931732177734375">
        <ele>7</ele>
        <time>2026-05-09T10:35:17.000Z</time>
        <extensions>
          <ns3:TrackPointExtension>
            <ns3:atemp>16.0</ns3:atemp>
            <ns3:hr>83</ns3:hr>
          </ns3:TrackPointExtension>
        </extensions>
      </trkpt>
      <trkpt lat="48.83259429596364498138427734375" lon="-3.486249446868896484375">
        <ele>6.80000019073486328125</ele>
        <time>2026-05-09T10:35:24.000Z</time>
        <extensions>
          <ns3:TrackPointExtension>
            <ns3:atemp>16.0</ns3:atemp>
            <ns3:hr>84</ns3:hr>
          </ns3:TrackPointExtension>
        </extensions>
      </trkpt>
      <trkpt lat="48.8325103931128978729248046875" lon="-3.4862630255520343780517578125">
        <ele>6.599999904632568359375</ele>
        <time>2026-05-09T10:35:33.000Z</time>
        <extensions>
          <ns3:TrackPointExtension>
            <ns3:atemp>16.0</ns3:atemp>
            <ns3:hr>82</ns3:hr>
          </ns3:TrackPointExtension>
        </extensions>
      </trkpt>
      <trkpt lat="48.832463286817073822021484375" lon="-3.486239053308963775634765625">
        <ele>6.80000019073486328125</ele>
        <time>2026-05-09T10:35:41.000Z</time>
        <extensions>
          <ns3:TrackPointExtension>
            <ns3:atemp>16.0</ns3:atemp>
            <ns3:hr>82</ns3:hr>
          </ns3:TrackPointExtension>
        </extensions>
      </trkpt>
      <trkpt lat="48.83242615498602390289306640625" lon="-3.486208878457546234130859375">
        <ele>6.80000019073486328125</ele>
        <time>2026-05-09T10:35:47.000Z</time>
        <extensions>
          <ns3:TrackPointExtension>
            <ns3:atemp>16.0</ns3:atemp>
            <ns3:hr>81</ns3:hr>
          </ns3:TrackPointExtension>
        </extensions>
      </trkpt>
      <trkpt lat="48.8323937170207500457763671875" lon="-3.48618599586188793182373046875">
        <ele>6.80000019073486328125</ele>
        <time>2026-05-09T10:35:51.000Z</time>
        <extensions>
          <ns3:TrackPointExtension>
            <ns3:atemp>16.0</ns3:atemp>
            <ns3:hr>80</ns3:hr>
          </ns3:TrackPointExtension>
        </extensions>
      </trkpt>
      <trkpt lat="48.8323684036731719970703125" lon="-3.4861743450164794921875">
        <ele>6.80000019073486328125</ele>
        <time>2026-05-09T10:35:54.000Z</time>
        <extensions>
          <ns3:TrackPointExtension>
            <ns3:atemp>16.0</ns3:atemp>
            <ns3:hr>80</ns3:hr>
          </ns3:TrackPointExtension>
        </extensions>
      </trkpt>
      <trkpt lat="48.83230579085648059844970703125" lon="-3.4862025082111358642578125">
        <ele>7.19999980926513671875</ele>
        <time>2026-05-09T10:36:01.000Z</time>
        <extensions>
          <ns3:TrackPointExtension>
            <ns3:atemp>16.0</ns3:atemp>
            <ns3:hr>80</ns3:hr>
          </ns3:TrackPointExtension>
        </extensions>
      </trkpt>
      <trkpt lat="48.8322904519736766815185546875" lon="-3.486208207905292510986328125">
        <ele>7.400000095367431640625</ele>
        <time>2026-05-09T10:36:07.000Z</time>
        <extensions>
          <ns3:TrackPointExtension>
            <ns3:atemp>16.0</ns3:atemp>
            <ns3:hr>80</ns3:hr>
          </ns3:TrackPointExtension>
        </extensions>
      </trkpt>
      <trkpt lat="48.8322874344885349273681640625" lon="-3.48624768666923046112060546875">
        <ele>7.19999980926513671875</ele>
        <time>2026-05-09T10:36:10.000Z</time>
        <extensions>
          <ns3:TrackPointExtension>
            <ns3:atemp>16.0</ns3:atemp>
            <ns3:hr>83</ns3:hr>
          </ns3:TrackPointExtension>
        </extensions>
      </trkpt>
      <trkpt lat="48.83228735066950321197509765625" lon="-3.48624835722148418426513671875">
        <ele>7</ele>
        <time>2026-05-09T10:36:12.000Z</time>
        <extensions>
          <ns3:TrackPointExtension>
            <ns3:atemp>16.0</ns3:atemp>
            <ns3:hr>84</ns3:hr>
          </ns3:TrackPointExtension>
        </extensions>
      </trkpt>
      <trkpt lat="48.83228533901274204254150390625" lon="-3.48624735139310359954833984375">
        <ele>7</ele>
        <time>2026-05-09T10:36:23.000Z</time>
        <extensions>
          <ns3:TrackPointExtension>
            <ns3:atemp>16.0</ns3:atemp>
            <ns3:hr>85</ns3:hr>
          </ns3:TrackPointExtension>
        </extensions>
      </trkpt>
      <trkpt lat="48.83228533901274204254150390625" lon="-3.48624735139310359954833984375">
        <ele>7</ele>
        <time>2026-05-09T10:36:28.000Z</time>
        <extensions>
          <ns3:TrackPointExtension>
            <ns3:atemp>16.0</ns3:atemp>
            <ns3:hr>82</ns3:hr>
          </ns3:TrackPointExtension>
        </extensions>
      </trkpt>
      <trkpt lat="48.83228533901274204254150390625" lon="-3.48624735139310359954833984375">
        <ele>7</ele>
        <time>2026-05-09T10:36:43.000Z</time>
        <extensions>
          <ns3:TrackPointExtension>
            <ns3:atemp>16.0</ns3:atemp>
            <ns3:hr>82</ns3:hr>
          </ns3:TrackPointExtension>
        </extensions>
      </trkpt>
      <trkpt lat="48.8322723470628261566162109375" lon="-3.48622287623584270477294921875">
        <ele>7</ele>
        <time>2026-05-09T10:36:54.000Z</time>
        <extensions>
          <ns3:TrackPointExtension>
            <ns3:atemp>16.0</ns3:atemp>
            <ns3:hr>81</ns3:hr>
          </ns3:TrackPointExtension>
        </extensions>
      </trkpt>
      <trkpt lat="48.83228181861340999603271484375" lon="-3.48617409355938434600830078125">
        <ele>7.400000095367431640625</ele>
        <time>2026-05-09T10:37:00.000Z</time>
        <extensions>
          <ns3:TrackPointExtension>
            <ns3:atemp>16.0</ns3:atemp>
            <ns3:hr>81</ns3:hr>
          </ns3:TrackPointExtension>
        </extensions>
      </trkpt>
      <trkpt lat="48.8322931341826915740966796875" lon="-3.48616839386522769927978515625">
        <ele>7.599999904632568359375</ele>
        <time>2026-05-09T10:37:06.000Z</time>
        <extensions>
          <ns3:TrackPointExtension>
            <ns3:atemp>16.0</ns3:atemp>
            <ns3:hr>80</ns3:hr>
          </ns3:TrackPointExtension>
        </extensions>
      </trkpt>
      <trkpt lat="48.83228383027017116546630859375" lon="-3.48622036166489124298095703125">
        <ele>7.599999904632568359375</ele>
        <time>2026-05-09T10:37:12.000Z</time>
        <extensions>
          <ns3:TrackPointExtension>
            <ns3:atemp>16.0</ns3:atemp>
            <ns3:hr>81</ns3:hr>
          </ns3:TrackPointExtension>
        </extensions>
      </trkpt>
      <trkpt lat="48.83224569261074066162109375" lon="-3.4863500297069549560546875">
        <ele>7.599999904632568359375</ele>
        <time>2026-05-09T10:37:24.000Z</time>
        <extensions>
          <ns3:TrackPointExtension>
            <ns3:atemp>16.0</ns3:atemp>
            <ns3:hr>81</ns3:hr>
          </ns3:TrackPointExtension>
        </extensions>
      </trkpt>
      <trkpt lat="48.83221358992159366607666015625" lon="-3.48629412241280078887939453125">
        <ele>7.599999904632568359375</ele>
        <time>2026-05-09T10:37:32.000Z</time>
        <extensions>
          <ns3:TrackPointExtension>
            <ns3:atemp>16.0</ns3:atemp>
            <ns3:hr>80</ns3:hr>
          </ns3:TrackPointExtension>
        </extensions>
      </trkpt>
      <trkpt lat="48.83214200846850872039794921875" lon="-3.48617023788392543792724609375">
        <ele>7.599999904632568359375</ele>
        <time>2026-05-09T10:37:41.000Z</time>
        <extensions>
          <ns3:TrackPointExtension>
            <ns3:atemp>16.0</ns3:atemp>
            <ns3:hr>79</ns3:hr>
          </ns3:TrackPointExtension>
        </extensions>
      </trkpt>
      <trkpt lat="48.832167573273181915283203125" lon="-3.48608004860579967498779296875">
        <ele>7.80000019073486328125</ele>
        <time>2026-05-09T10:37:48.000Z</time>
        <extensions>
          <ns3:TrackPointExtension>
            <ns3:atemp>16.0</ns3:atemp>
            <ns3:hr>80</ns3:hr>
          </ns3:TrackPointExtension>
        </extensions>
      </trkpt>
      <trkpt lat="48.83218274451792240142822265625" lon="-3.48606127314269542694091796875">
        <ele>8</ele>
        <time>2026-05-09T10:37:52.000Z</time>
        <extensions>
          <ns3:TrackPointExtension>
            <ns3:atemp>16.0</ns3:atemp>
            <ns3:hr>79</ns3:hr>
          </ns3:TrackPointExtension>
        </extensions>
      </trkpt>
      <trkpt lat="48.8321948982775211334228515625" lon="-3.48606906831264495849609375">
        <ele>7.80000019073486328125</ele>
        <time>2026-05-09T10:37:55.000Z</time>
        <extensions>
          <ns3:TrackPointExtension>
            <ns3:atemp>16.0</ns3:atemp>
            <ns3:hr>79</ns3:hr>
          </ns3:TrackPointExtension>
        </extensions>
      </trkpt>
      <trkpt lat="48.832214511930942535400390625" lon="-3.48600645549595355987548828125">
        <ele>7.80000019073486328125</ele>
        <time>2026-05-09T10:38:01.000Z</time>
        <extensions>
          <ns3:TrackPointExtension>
            <ns3:atemp>16.0</ns3:atemp>
            <ns3:hr>79</ns3:hr>
          </ns3:TrackPointExtension>
        </extensions>
      </trkpt>
      <trkpt lat="48.83222197182476520538330078125" lon="-3.48596504889428615570068359375">
        <ele>8</ele>
        <time>2026-05-09T10:38:08.000Z</time>
        <extensions>
          <ns3:TrackPointExtension>
            <ns3:atemp>16.0</ns3:atemp>
            <ns3:hr>79</ns3:hr>
          </ns3:TrackPointExtension>
        </extensions>
      </trkpt>
      <trkpt lat="48.83220889605581760406494140625" lon="-3.48596203140914440155029296875">
        <ele>7.80000019073486328125</ele>
        <time>2026-05-09T10:38:14.000Z</time>
        <extensions>
          <ns3:TrackPointExtension>
            <ns3:atemp>16.0</ns3:atemp>
            <ns3:hr>81</ns3:hr>
          </ns3:TrackPointExtension>
        </extensions>
      </trkpt>
      <trkpt lat="48.83221074007451534271240234375" lon="-3.48596253432333469390869140625">
        <ele>7.599999904632568359375</ele>
        <time>2026-05-09T10:38:18.000Z</time>
        <extensions>
          <ns3:TrackPointExtension>
            <ns3:atemp>16.0</ns3:atemp>
            <ns3:hr>84</ns3:hr>
          </ns3:TrackPointExtension>
        </extensions>
      </trkpt>
      <trkpt lat="48.83219665847718715667724609375" lon="-3.48595499061048030853271484375">
        <ele>7.80000019073486328125</ele>
        <time>2026-05-09T10:38:23.000Z</time>
        <extensions>
          <ns3:TrackPointExtension>
            <ns3:atemp>16.0</ns3:atemp>
            <ns3:hr>85</ns3:hr>
          </ns3:TrackPointExtension>
        </extensions>
      </trkpt>
      <trkpt lat="48.83217503316700458526611328125" lon="-3.485964797437191009521484375">
        <ele>7.80000019073486328125</ele>
        <time>2026-05-09T10:38:31.000Z</time>
        <extensions>
          <ns3:TrackPointExtension>
            <ns3:atemp>16.0</ns3:atemp>
            <ns3:hr>86</ns3:hr>
          </ns3:TrackPointExtension>
        </extensions>
      </trkpt>
      <trkpt lat="48.832193724811077117919921875" lon="-3.48599664866924285888671875">
        <ele>7.80000019073486328125</ele>
        <time>2026-05-09T10:38:36.000Z</time>
        <extensions>
          <ns3:TrackPointExtension>
            <ns3:atemp>16.0</ns3:atemp>
            <ns3:hr>84</ns3:hr>
          </ns3:TrackPointExtension>
        </extensions>
      </trkpt>
      <trkpt lat="48.83220755495131015777587890625" lon="-3.486026823520660400390625">
        <ele>7.80000019073486328125</ele>
        <time>2026-05-09T10:38:43.000Z</time>
        <extensions>
          <ns3:TrackPointExtension>
            <ns3:atemp>16.0</ns3:atemp>
            <ns3:hr>85</ns3:hr>
          </ns3:TrackPointExtension>
        </extensions>
      </trkpt>
      <trkpt lat="48.8321979157626628875732421875" lon="-3.48602606914937496185302734375">
        <ele>8</ele>
        <time>2026-05-09T10:38:54.000Z</time>
        <extensions>
          <ns3:TrackPointExtension>
            <ns3:atemp>16.0</ns3:atemp>
            <ns3:hr>84</ns3:hr>
          </ns3:TrackPointExtension>
        </extensions>
      </trkpt>
      <trkpt lat="48.83220411837100982666015625" lon="-3.485986925661563873291015625">
        <ele>8</ele>
        <time>2026-05-09T10:39:02.000Z</time>
        <extensions>
          <ns3:TrackPointExtension>
            <ns3:atemp>16.0</ns3:atemp>
            <ns3:hr>85</ns3:hr>
          </ns3:TrackPointExtension>
        </extensions>
      </trkpt>
      <trkpt lat="48.83222498930990695953369140625" lon="-3.48591626621782779693603515625">
        <ele>8</ele>
        <time>2026-05-09T10:39:09.000Z</time>
        <extensions>
          <ns3:TrackPointExtension>
            <ns3:atemp>16.0</ns3:atemp>
            <ns3:hr>85</ns3:hr>
          </ns3:TrackPointExtension>
        </extensions>
      </trkpt>
      <trkpt lat="48.8322438485920429229736328125" lon="-3.48584703169763088226318359375">
        <ele>8</ele>
        <time>2026-05-09T10:39:14.000Z</time>
        <extensions>
          <ns3:TrackPointExtension>
            <ns3:atemp>16.0</ns3:atemp>
            <ns3:hr>86</ns3:hr>
          </ns3:TrackPointExtension>
        </extensions>
      </trkpt>
      <trkpt lat="48.83226287551224231719970703125" lon="-3.48577343858778476715087890625">
        <ele>8.19999980926513671875</ele>
        <time>2026-05-09T10:39:20.000Z</time>
        <extensions>
          <ns3:TrackPointExtension>
            <ns3:atemp>16.0</ns3:atemp>
            <ns3:hr>86</ns3:hr>
          </ns3:TrackPointExtension>
        </extensions>
      </trkpt>
      <trkpt lat="48.8322931341826915740966796875" lon="-3.48580394871532917022705078125">
        <ele>8</ele>
        <time>2026-05-09T10:39:26.000Z</time>
        <extensions>
          <ns3:TrackPointExtension>
            <ns3:atemp>16.0</ns3:atemp>
            <ns3:hr>87</ns3:hr>
          </ns3:TrackPointExtension>
        </extensions>
      </trkpt>
      <trkpt lat="48.83230336010456085205078125" lon="-3.4858093969523906707763671875">
        <ele>7.80000019073486328125</ele>
        <time>2026-05-09T10:39:35.000Z</time>
        <extensions>
          <ns3:TrackPointExtension>
            <ns3:atemp>16.0</ns3:atemp>
            <ns3:hr>88</ns3:hr>
          </ns3:TrackPointExtension>
        </extensions>
      </trkpt>
      <trkpt lat="48.832292966544628143310546875" lon="-3.4858264960348606109619140625">
        <ele>7.80000019073486328125</ele>
        <time>2026-05-09T10:39:43.000Z</time>
        <extensions>
          <ns3:TrackPointExtension>
            <ns3:atemp>16.0</ns3:atemp>
            <ns3:hr>88</ns3:hr>
          </ns3:TrackPointExtension>
        </extensions>
      </trkpt>
      <trkpt lat="48.8322834111750125885009765625" lon="-3.4858117438852787017822265625">
        <ele>8.19999980926513671875</ele>
        <time>2026-05-09T10:39:53.000Z</time>
        <extensions>
          <ns3:TrackPointExtension>
            <ns3:atemp>16.0</ns3:atemp>
            <ns3:hr>85</ns3:hr>
          </ns3:TrackPointExtension>
        </extensions>
      </trkpt>
      <trkpt lat="48.83227695710957050323486328125" lon="-3.48580352962017059326171875">
        <ele>8</ele>
        <time>2026-05-09T10:39:57.000Z</time>
        <extensions>
          <ns3:TrackPointExtension>
            <ns3:atemp>16.0</ns3:atemp>
            <ns3:hr>82</ns3:hr>
          </ns3:TrackPointExtension>
        </extensions>
      </trkpt>
      <trkpt lat="48.83227712474763393402099609375" lon="-3.4858023561537265777587890625">
        <ele>7.80000019073486328125</ele>
        <time>2026-05-09T10:39:59.000Z</time>
        <extensions>
          <ns3:TrackPointExtension>
            <ns3:atemp>16.0</ns3:atemp>
            <ns3:hr>79</ns3:hr>
          </ns3:TrackPointExtension>
        </extensions>
      </trkpt>
      <trkpt lat="48.83227712474763393402099609375" lon="-3.4858023561537265777587890625">
        <ele>8</ele>
        <time>2026-05-09T10:40:05.000Z</time>
        <extensions>
          <ns3:TrackPointExtension>
            <ns3:atemp>16.0</ns3:atemp>
            <ns3:hr>76</ns3:hr>
          </ns3:TrackPointExtension>
        </extensions>
      </trkpt>
      <trkpt lat="48.83227695710957050323486328125" lon="-3.48580059595406055450439453125">
        <ele>8</ele>
        <time>2026-05-09T10:40:07.000Z</time>
        <extensions>
          <ns3:TrackPointExtension>
            <ns3:atemp>16.0</ns3:atemp>
            <ns3:hr>73</ns3:hr>
          </ns3:TrackPointExtension>
        </extensions>
      </trkpt>
      <trkpt lat="48.832275532186031341552734375" lon="-3.485799171030521392822265625">
        <ele>8</ele>
        <time>2026-05-09T10:40:09.000Z</time>
        <extensions>
          <ns3:TrackPointExtension>
            <ns3:atemp>16.0</ns3:atemp>
            <ns3:hr>72</ns3:hr>
          </ns3:TrackPointExtension>
        </extensions>
      </trkpt>
      <trkpt lat="48.83228718303143978118896484375" lon="-3.48579489625990390777587890625">
        <ele>7.80000019073486328125</ele>
        <time>2026-05-09T10:40:22.000Z</time>
        <extensions>
          <ns3:TrackPointExtension>
            <ns3:atemp>16.0</ns3:atemp>
            <ns3:hr>73</ns3:hr>
          </ns3:TrackPointExtension>
        </extensions>
      </trkpt>
      <trkpt lat="48.83229036815464496612548828125" lon="-3.4858047030866146087646484375">
        <ele>8</ele>
        <time>2026-05-09T10:40:29.000Z</time>
        <extensions>
          <ns3:TrackPointExtension>
            <ns3:atemp>16.0</ns3:atemp>
            <ns3:hr>76</ns3:hr>
          </ns3:TrackPointExtension>
        </extensions>
      </trkpt>
      <trkpt lat="48.83228584192693233489990234375" lon="-3.48580746911466121673583984375">
        <ele>7.80000019073486328125</ele>
        <time>2026-05-09T10:40:33.000Z</time>
        <extensions>
          <ns3:TrackPointExtension>
            <ns3:atemp>16.0</ns3:atemp>
            <ns3:hr>78</ns3:hr>
          </ns3:TrackPointExtension>
        </extensions>
      </trkpt>
      <trkpt lat="48.83230109699070453643798828125" lon="-3.4858164377510547637939453125">
        <ele>8</ele>
        <time>2026-05-09T10:40:46.000Z</time>
        <extensions>
          <ns3:TrackPointExtension>
            <ns3:atemp>16.0</ns3:atemp>
            <ns3:hr>77</ns3:hr>
          </ns3:TrackPointExtension>
        </extensions>
      </trkpt>
      <trkpt lat="48.83231383748352527618408203125" lon="-3.48583571612834930419921875">
        <ele>7.80000019073486328125</ele>
        <time>2026-05-09T10:40:58.000Z</time>
        <extensions>
          <ns3:TrackPointExtension>
            <ns3:atemp>16.0</ns3:atemp>
            <ns3:hr>78</ns3:hr>
          </ns3:TrackPointExtension>
        </extensions>
      </trkpt>
      <trkpt lat="48.8322991691529750823974609375" lon="-3.48582037724554538726806640625">
        <ele>7.80000019073486328125</ele>
        <time>2026-05-09T10:41:08.000Z</time>
        <extensions>
          <ns3:TrackPointExtension>
            <ns3:atemp>16.0</ns3:atemp>
            <ns3:hr>76</ns3:hr>
          </ns3:TrackPointExtension>
        </extensions>
      </trkpt>
      <trkpt lat="48.83229422383010387420654296875" lon="-3.48579606972634792327880859375">
        <ele>7.599999904632568359375</ele>
        <time>2026-05-09T10:41:18.000Z</time>
        <extensions>
          <ns3:TrackPointExtension>
            <ns3:atemp>16.0</ns3:atemp>
            <ns3:hr>74</ns3:hr>
          </ns3:TrackPointExtension>
        </extensions>
      </trkpt>
      <trkpt lat="48.83228592574596405029296875" lon="-3.485782407224178314208984375">
        <ele>7.599999904632568359375</ele>
        <time>2026-05-09T10:41:24.000Z</time>
        <extensions>
          <ns3:TrackPointExtension>
            <ns3:atemp>16.0</ns3:atemp>
            <ns3:hr>74</ns3:hr>
          </ns3:TrackPointExtension>
        </extensions>
      </trkpt>
      <trkpt lat="48.832295648753643035888671875" lon="-3.48578073084354400634765625">
        <ele>7.599999904632568359375</ele>
        <time>2026-05-09T10:41:33.000Z</time>
        <extensions>
          <ns3:TrackPointExtension>
            <ns3:atemp>16.0</ns3:atemp>
            <ns3:hr>72</ns3:hr>
          </ns3:TrackPointExtension>
        </extensions>
      </trkpt>
      <trkpt lat="48.832297660410404205322265625" lon="-3.4857855923473834991455078125">
        <ele>7.80000019073486328125</ele>
        <time>2026-05-09T10:41:35.000Z</time>
        <extensions>
          <ns3:TrackPointExtension>
            <ns3:atemp>16.0</ns3:atemp>
            <ns3:hr>69</ns3:hr>
          </ns3:TrackPointExtension>
        </extensions>
      </trkpt>
      <trkpt lat="48.83229657076299190521240234375" lon="-3.48577662371098995208740234375">
        <ele>7.599999904632568359375</ele>
        <time>2026-05-09T10:41:39.000Z</time>
        <extensions>
          <ns3:TrackPointExtension>
            <ns3:atemp>16.0</ns3:atemp>
            <ns3:hr>69</ns3:hr>
          </ns3:TrackPointExtension>
        </extensions>
      </trkpt>
      <trkpt lat="48.83230746723711490631103515625" lon="-3.48574829287827014923095703125">
        <ele>7.599999904632568359375</ele>
        <time>2026-05-09T10:41:48.000Z</time>
        <extensions>
          <ns3:TrackPointExtension>
            <ns3:atemp>16.0</ns3:atemp>
            <ns3:hr>68</ns3:hr>
          </ns3:TrackPointExtension>
        </extensions>
      </trkpt>
      <trkpt lat="48.83230713196098804473876953125" lon="-3.48577394150197505950927734375">
        <ele>7.19999980926513671875</ele>
        <time>2026-05-09T10:41:54.000Z</time>
        <extensions>
          <ns3:TrackPointExtension>
            <ns3:atemp>16.0</ns3:atemp>
            <ns3:hr>72</ns3:hr>
          </ns3:TrackPointExtension>
        </extensions>
      </trkpt>
      <trkpt lat="48.8323035277426242828369140625" lon="-3.48578114993870258331298828125">
        <ele>7.400000095367431640625</ele>
        <time>2026-05-09T10:41:56.000Z</time>
        <extensions>
          <ns3:TrackPointExtension>
            <ns3:atemp>16.0</ns3:atemp>
            <ns3:hr>71</ns3:hr>
          </ns3:TrackPointExtension>
        </extensions>
      </trkpt>
      <trkpt lat="48.83228383027017116546630859375" lon="-3.48579925484955310821533203125">
        <ele>7.400000095367431640625</ele>
        <time>2026-05-09T10:42:04.000Z</time>
        <extensions>
          <ns3:TrackPointExtension>
            <ns3:atemp>16.0</ns3:atemp>
            <ns3:hr>71</ns3:hr>
          </ns3:TrackPointExtension>
        </extensions>
      </trkpt>
      <trkpt lat="48.83227787911891937255859375" lon="-3.48577947355806827545166015625">
        <ele>7.80000019073486328125</ele>
        <time>2026-05-09T10:42:12.000Z</time>
        <extensions>
          <ns3:TrackPointExtension>
            <ns3:atemp>16.0</ns3:atemp>
            <ns3:hr>72</ns3:hr>
          </ns3:TrackPointExtension>
        </extensions>
      </trkpt>
      <trkpt lat="48.83227787911891937255859375" lon="-3.48577947355806827545166015625">
        <ele>7.80000019073486328125</ele>
        <time>2026-05-09T10:42:18.000Z</time>
        <extensions>
          <ns3:TrackPointExtension>
            <ns3:atemp>16.0</ns3:atemp>
            <ns3:hr>74</ns3:hr>
          </ns3:TrackPointExtension>
        </extensions>
      </trkpt>
      <trkpt lat="48.8322503864765167236328125" lon="-3.485764972865581512451171875">
        <ele>7.80000019073486328125</ele>
        <time>2026-05-09T10:42:24.000Z</time>
        <extensions>
          <ns3:TrackPointExtension>
            <ns3:atemp>16.0</ns3:atemp>
            <ns3:hr>77</ns3:hr>
          </ns3:TrackPointExtension>
        </extensions>
      </trkpt>
      <trkpt lat="48.83223353885114192962646484375" lon="-3.4857617877423763275146484375">
        <ele>7.80000019073486328125</ele>
        <time>2026-05-09T10:42:26.000Z</time>
        <extensions>
          <ns3:TrackPointExtension>
            <ns3:atemp>16.0</ns3:atemp>
            <ns3:hr>79</ns3:hr>
          </ns3:TrackPointExtension>
        </extensions>
      </trkpt>
      <trkpt lat="48.83222482167184352874755859375" lon="-3.485766984522342681884765625">
        <ele>7.80000019073486328125</ele>
        <time>2026-05-09T10:42:27.000Z</time>
        <extensions>
          <ns3:TrackPointExtension>
            <ns3:atemp>16.0</ns3:atemp>
            <ns3:hr>80</ns3:hr>
          </ns3:TrackPointExtension>
        </extensions>
      </trkpt>
      <trkpt lat="48.832216523587703704833984375" lon="-3.48578232340514659881591796875">
        <ele>7.599999904632568359375</ele>
        <time>2026-05-09T10:42:32.000Z</time>
        <extensions>
          <ns3:TrackPointExtension>
            <ns3:atemp>16.0</ns3:atemp>
            <ns3:hr>81</ns3:hr>
          </ns3:TrackPointExtension>
        </extensions>
      </trkpt>
      <trkpt lat="48.832165896892547607421875" lon="-3.48579757846891880035400390625">
        <ele>7.599999904632568359375</ele>
        <time>2026-05-09T10:42:37.000Z</time>
        <extensions>
          <ns3:TrackPointExtension>
            <ns3:atemp>16.0</ns3:atemp>
            <ns3:hr>82</ns3:hr>
          </ns3:TrackPointExtension>
        </extensions>
      </trkpt>
      <trkpt lat="48.83211619220674037933349609375" lon="-3.48584351129829883575439453125">
        <ele>7.80000019073486328125</ele>
        <time>2026-05-09T10:42:42.000Z</time>
        <extensions>
          <ns3:TrackPointExtension>
            <ns3:atemp>16.0</ns3:atemp>
            <ns3:hr>82</ns3:hr>
          </ns3:TrackPointExtension>
        </extensions>
      </trkpt>
      <trkpt lat="48.8320976682007312774658203125" lon="-3.4858442656695842742919921875">
        <ele>7.80000019073486328125</ele>
        <time>2026-05-09T10:42:44.000Z</time>
        <extensions>
          <ns3:TrackPointExtension>
            <ns3:atemp>16.0</ns3:atemp>
            <ns3:hr>83</ns3:hr>
          </ns3:TrackPointExtension>
        </extensions>
      </trkpt>
      <trkpt lat="48.832077719271183013916015625" lon="-3.48583429120481014251708984375">
        <ele>7.80000019073486328125</ele>
        <time>2026-05-09T10:42:47.000Z</time>
        <extensions>
          <ns3:TrackPointExtension>
            <ns3:atemp>16.0</ns3:atemp>
            <ns3:hr>82</ns3:hr>
          </ns3:TrackPointExtension>
        </extensions>
      </trkpt>
      <trkpt lat="48.83206623606383800506591796875" lon="-3.48583848215639591217041015625">
        <ele>7.80000019073486328125</ele>
        <time>2026-05-09T10:42:54.000Z</time>
        <extensions>
          <ns3:TrackPointExtension>
            <ns3:atemp>16.0</ns3:atemp>
            <ns3:hr>82</ns3:hr>
          </ns3:TrackPointExtension>
        </extensions>
      </trkpt>
      <trkpt lat="48.83206053636968135833740234375" lon="-3.48584510385990142822265625">
        <ele>7.80000019073486328125</ele>
        <time>2026-05-09T10:43:01.000Z</time>
        <extensions>
          <ns3:TrackPointExtension>
            <ns3:atemp>16.0</ns3:atemp>
            <ns3:hr>85</ns3:hr>
          </ns3:TrackPointExtension>
        </extensions>
      </trkpt>
      <trkpt lat="48.8320611231029033660888671875" lon="-3.4858422540128231048583984375">
        <ele>7.599999904632568359375</ele>
        <time>2026-05-09T10:43:02.000Z</time>
        <extensions>
          <ns3:TrackPointExtension>
            <ns3:atemp>16.0</ns3:atemp>
            <ns3:hr>85</ns3:hr>
          </ns3:TrackPointExtension>
        </extensions>
      </trkpt>
      <trkpt lat="48.83207545615732669830322265625" lon="-3.48583663813769817352294921875">
        <ele>7.80000019073486328125</ele>
        <time>2026-05-09T10:43:07.000Z</time>
        <extensions>
          <ns3:TrackPointExtension>
            <ns3:atemp>16.0</ns3:atemp>
            <ns3:hr>88</ns3:hr>
          </ns3:TrackPointExtension>
        </extensions>
      </trkpt>
      <trkpt lat="48.83209255523979663848876953125" lon="-3.48584334366023540496826171875">
        <ele>7.80000019073486328125</ele>
        <time>2026-05-09T10:43:10.000Z</time>
        <extensions>
          <ns3:TrackPointExtension>
            <ns3:atemp>16.0</ns3:atemp>
            <ns3:hr>87</ns3:hr>
          </ns3:TrackPointExtension>
        </extensions>
      </trkpt>
      <trkpt lat="48.83210680447518825531005859375" lon="-3.4858647175133228302001953125">
        <ele>8</ele>
        <time>2026-05-09T10:43:20.000Z</time>
        <extensions>
          <ns3:TrackPointExtension>
            <ns3:atemp>16.0</ns3:atemp>
            <ns3:hr>84</ns3:hr>
          </ns3:TrackPointExtension>
        </extensions>
      </trkpt>
      <trkpt lat="48.8321037031710147857666015625" lon="-3.4858657233417034149169921875">
        <ele>8.19999980926513671875</ele>
        <time>2026-05-09T10:43:22.000Z</time>
        <extensions>
          <ns3:TrackPointExtension>
            <ns3:atemp>16.0</ns3:atemp>
            <ns3:hr>82</ns3:hr>
          </ns3:TrackPointExtension>
        </extensions>
      </trkpt>
      <trkpt lat="48.83209691382944583892822265625" lon="-3.48585507832467555999755859375">
        <ele>7.599999904632568359375</ele>
        <time>2026-05-09T10:43:31.000Z</time>
        <extensions>
          <ns3:TrackPointExtension>
            <ns3:atemp>16.0</ns3:atemp>
            <ns3:hr>79</ns3:hr>
          </ns3:TrackPointExtension>
        </extensions>
      </trkpt>
      <trkpt lat="48.83209473453462123870849609375" lon="-3.48585105501115322113037109375">
        <ele>7.599999904632568359375</ele>
        <time>2026-05-09T10:43:32.000Z</time>
        <extensions>
          <ns3:TrackPointExtension>
            <ns3:atemp>16.0</ns3:atemp>
            <ns3:hr>79</ns3:hr>
          </ns3:TrackPointExtension>
        </extensions>
      </trkpt>
      <trkpt lat="48.8320827484130859375" lon="-3.48584468476474285125732421875">
        <ele>8</ele>
        <time>2026-05-09T10:43:44.000Z</time>
        <extensions>
          <ns3:TrackPointExtension>
            <ns3:atemp>16.0</ns3:atemp>
            <ns3:hr>78</ns3:hr>
          </ns3:TrackPointExtension>
        </extensions>
      </trkpt>
      <trkpt lat="48.83209791965782642364501953125" lon="-3.485912494361400604248046875">
        <ele>8</ele>
        <time>2026-05-09T10:43:53.000Z</time>
        <extensions>
          <ns3:TrackPointExtension>
            <ns3:atemp>16.0</ns3:atemp>
            <ns3:hr>77</ns3:hr>
          </ns3:TrackPointExtension>
        </extensions>
      </trkpt>
      <trkpt lat="48.83209423162043094635009765625" lon="-3.4859183616936206817626953125">
        <ele>7.80000019073486328125</ele>
        <time>2026-05-09T10:43:54.000Z</time>
        <extensions>
          <ns3:TrackPointExtension>
            <ns3:atemp>16.0</ns3:atemp>
            <ns3:hr>77</ns3:hr>
          </ns3:TrackPointExtension>
        </extensions>
      </trkpt>
      <trkpt lat="48.83206657133996486663818359375" lon="-3.48590235225856304168701171875">
        <ele>7.599999904632568359375</ele>
        <time>2026-05-09T10:44:01.000Z</time>
        <extensions>
          <ns3:TrackPointExtension>
            <ns3:atemp>16.0</ns3:atemp>
            <ns3:hr>78</ns3:hr>
          </ns3:TrackPointExtension>
        </extensions>
      </trkpt>
      <trkpt lat="48.8320691697299480438232421875" lon="-3.48589246161282062530517578125">
        <ele>7.400000095367431640625</ele>
        <time>2026-05-09T10:44:15.000Z</time>
        <extensions>
          <ns3:TrackPointExtension>
            <ns3:atemp>16.0</ns3:atemp>
            <ns3:hr>75</ns3:hr>
          </ns3:TrackPointExtension>
        </extensions>
      </trkpt>
      <trkpt lat="48.83206925354897975921630859375" lon="-3.485892713069915771484375">
        <ele>7.599999904632568359375</ele>
        <time>2026-05-09T10:44:17.000Z</time>
        <extensions>
          <ns3:TrackPointExtension>
            <ns3:atemp>15.0</ns3:atemp>
            <ns3:hr>75</ns3:hr>
          </ns3:TrackPointExtension>
        </extensions>
      </trkpt>
      <trkpt lat="48.83206305094063282012939453125" lon="-3.485895060002803802490234375">
        <ele>7.400000095367431640625</ele>
        <time>2026-05-09T10:44:27.000Z</time>
        <extensions>
          <ns3:TrackPointExtension>
            <ns3:atemp>15.0</ns3:atemp>
            <ns3:hr>72</ns3:hr>
          </ns3:TrackPointExtension>
        </extensions>
      </trkpt>
      <trkpt lat="48.83206305094063282012939453125" lon="-3.485895060002803802490234375">
        <ele>7.400000095367431640625</ele>
        <time>2026-05-09T10:44:28.000Z</time>
        <extensions>
          <ns3:TrackPointExtension>
            <ns3:atemp>15.0</ns3:atemp>
            <ns3:hr>66</ns3:hr>
          </ns3:TrackPointExtension>
        </extensions>
      </trkpt>
      <trkpt lat="48.83206305094063282012939453125" lon="-3.485895060002803802490234375">
        <ele>7.400000095367431640625</ele>
        <time>2026-05-09T10:44:31.000Z</time>
        <extensions>
          <ns3:TrackPointExtension>
            <ns3:atemp>15.0</ns3:atemp>
            <ns3:hr>63</ns3:hr>
          </ns3:TrackPointExtension>
        </extensions>
      </trkpt>
      <trkpt lat="48.83205483667552471160888671875" lon="-3.48589338362216949462890625">
        <ele>7.400000095367431640625</ele>
        <time>2026-05-09T10:44:35.000Z</time>
        <extensions>
          <ns3:TrackPointExtension>
            <ns3:atemp>15.0</ns3:atemp>
            <ns3:hr>63</ns3:hr>
          </ns3:TrackPointExtension>
        </extensions>
      </trkpt>
      <trkpt lat="48.83206271566450595855712890625" lon="-3.48589967004954814910888671875">
        <ele>7.19999980926513671875</ele>
        <time>2026-05-09T10:44:54.000Z</time>
        <extensions>
          <ns3:TrackPointExtension>
            <ns3:atemp>15.0</ns3:atemp>
            <ns3:hr>64</ns3:hr>
          </ns3:TrackPointExtension>
        </extensions>
      </trkpt>
      <trkpt lat="48.83206305094063282012939453125" lon="-3.485895060002803802490234375">
        <ele>7.599999904632568359375</ele>
        <time>2026-05-09T10:45:08.000Z</time>
        <extensions>
          <ns3:TrackPointExtension>
            <ns3:atemp>15.0</ns3:atemp>
            <ns3:hr>67</ns3:hr>
          </ns3:TrackPointExtension>
        </extensions>
      </trkpt>
      <trkpt lat="48.8320698402822017669677734375" lon="-3.48589598201215267181396484375">
        <ele>7.19999980926513671875</ele>
        <time>2026-05-09T10:45:16.000Z</time>
        <extensions>
          <ns3:TrackPointExtension>
            <ns3:atemp>15.0</ns3:atemp>
            <ns3:hr>69</ns3:hr>
          </ns3:TrackPointExtension>
        </extensions>
      </trkpt>
      <trkpt lat="48.83206305094063282012939453125" lon="-3.485895060002803802490234375">
        <ele>7.400000095367431640625</ele>
        <time>2026-05-09T10:45:23.000Z</time>
        <extensions>
          <ns3:TrackPointExtension>
            <ns3:atemp>15.0</ns3:atemp>
            <ns3:hr>66</ns3:hr>
          </ns3:TrackPointExtension>
        </extensions>
      </trkpt>
      <trkpt lat="48.83206305094063282012939453125" lon="-3.485895060002803802490234375">
        <ele>7.400000095367431640625</ele>
        <time>2026-05-09T10:45:24.000Z</time>
        <extensions>
          <ns3:TrackPointExtension>
            <ns3:atemp>15.0</ns3:atemp>
            <ns3:hr>62</ns3:hr>
          </ns3:TrackPointExtension>
        </extensions>
      </trkpt>
      <trkpt lat="48.83206305094063282012939453125" lon="-3.485895060002803802490234375">
        <ele>7.19999980926513671875</ele>
        <time>2026-05-09T10:45:32.000Z</time>
        <extensions>
          <ns3:TrackPointExtension>
            <ns3:atemp>15.0</ns3:atemp>
            <ns3:hr>59</ns3:hr>
          </ns3:TrackPointExtension>
        </extensions>
      </trkpt>
      <trkpt lat="48.83206305094063282012939453125" lon="-3.485895060002803802490234375">
        <ele>7.19999980926513671875</ele>
        <time>2026-05-09T10:45:37.000Z</time>
        <extensions>
          <ns3:TrackPointExtension>
            <ns3:atemp>15.0</ns3:atemp>
            <ns3:hr>61</ns3:hr>
          </ns3:TrackPointExtension>
        </extensions>
      </trkpt>
      <trkpt lat="48.83206305094063282012939453125" lon="-3.485895060002803802490234375">
        <ele>7</ele>
        <time>2026-05-09T10:45:46.000Z</time>
        <extensions>
          <ns3:TrackPointExtension>
            <ns3:atemp>15.0</ns3:atemp>
            <ns3:hr>64</ns3:hr>
          </ns3:TrackPointExtension>
        </extensions>
      </trkpt>
      <trkpt lat="48.83206305094063282012939453125" lon="-3.485895060002803802490234375">
        <ele>7</ele>
        <time>2026-05-09T10:45:54.000Z</time>
        <extensions>
          <ns3:TrackPointExtension>
            <ns3:atemp>15.0</ns3:atemp>
            <ns3:hr>61</ns3:hr>
          </ns3:TrackPointExtension>
        </extensions>
      </trkpt>
      <trkpt lat="48.83206305094063282012939453125" lon="-3.485895060002803802490234375">
        <ele>7.19999980926513671875</ele>
        <time>2026-05-09T10:45:57.000Z</time>
        <extensions>
          <ns3:TrackPointExtension>
            <ns3:atemp>15.0</ns3:atemp>
            <ns3:hr>64</ns3:hr>
          </ns3:TrackPointExtension>
        </extensions>
      </trkpt>
      <trkpt lat="48.83206305094063282012939453125" lon="-3.485895060002803802490234375">
        <ele>7.19999980926513671875</ele>
        <time>2026-05-09T10:45:59.000Z</time>
        <extensions>
          <ns3:TrackPointExtension>
            <ns3:atemp>15.0</ns3:atemp>
            <ns3:hr>67</ns3:hr>
          </ns3:TrackPointExtension>
        </extensions>
      </trkpt>
      <trkpt lat="48.83206305094063282012939453125" lon="-3.485895060002803802490234375">
        <ele>7</ele>
        <time>2026-05-09T10:46:01.000Z</time>
        <extensions>
          <ns3:TrackPointExtension>
            <ns3:atemp>15.0</ns3:atemp>
            <ns3:hr>70</ns3:hr>
          </ns3:TrackPointExtension>
        </extensions>
      </trkpt>
      <trkpt lat="48.83206305094063282012939453125" lon="-3.485895060002803802490234375">
        <ele>7</ele>
        <time>2026-05-09T10:46:02.000Z</time>
        <extensions>
          <ns3:TrackPointExtension>
            <ns3:atemp>15.0</ns3:atemp>
            <ns3:hr>71</ns3:hr>
          </ns3:TrackPointExtension>
        </extensions>
      </trkpt>
      <trkpt lat="48.83206305094063282012939453125" lon="-3.485895060002803802490234375">
        <ele>7.19999980926513671875</ele>
        <time>2026-05-09T10:46:30.000Z</time>
        <extensions>
          <ns3:TrackPointExtension>
            <ns3:atemp>15.0</ns3:atemp>
            <ns3:hr>71</ns3:hr>
          </ns3:TrackPointExtension>
        </extensions>
      </trkpt>
      <trkpt lat="48.83206305094063282012939453125" lon="-3.485895060002803802490234375">
        <ele>7.19999980926513671875</ele>
        <time>2026-05-09T10:46:57.000Z</time>
        <extensions>
          <ns3:TrackPointExtension>
            <ns3:atemp>15.0</ns3:atemp>
            <ns3:hr>69</ns3:hr>
          </ns3:TrackPointExtension>
        </extensions>
      </trkpt>
      <trkpt lat="48.83206305094063282012939453125" lon="-3.485895060002803802490234375">
        <ele>7.19999980926513671875</ele>
        <time>2026-05-09T10:47:10.000Z</time>
        <extensions>
          <ns3:TrackPointExtension>
            <ns3:atemp>15.0</ns3:atemp>
            <ns3:hr>66</ns3:hr>
          </ns3:TrackPointExtension>
        </extensions>
      </trkpt>
      <trkpt lat="48.83206305094063282012939453125" lon="-3.485895060002803802490234375">
        <ele>7.19999980926513671875</ele>
        <time>2026-05-09T10:47:14.000Z</time>
        <extensions>
          <ns3:TrackPointExtension>
            <ns3:atemp>15.0</ns3:atemp>
            <ns3:hr>63</ns3:hr>
          </ns3:TrackPointExtension>
        </extensions>
      </trkpt>
      <trkpt lat="48.83206305094063282012939453125" lon="-3.485895060002803802490234375">
        <ele>7</ele>
        <time>2026-05-09T10:47:17.000Z</time>
        <extensions>
          <ns3:TrackPointExtension>
            <ns3:atemp>15.0</ns3:atemp>
            <ns3:hr>59</ns3:hr>
          </ns3:TrackPointExtension>
        </extensions>
      </trkpt>
      <trkpt lat="48.83206305094063282012939453125" lon="-3.485895060002803802490234375">
        <ele>7</ele>
        <time>2026-05-09T10:47:18.000Z</time>
        <extensions>
          <ns3:TrackPointExtension>
            <ns3:atemp>15.0</ns3:atemp>
            <ns3:hr>58</ns3:hr>
          </ns3:TrackPointExtension>
        </extensions>
      </trkpt>
      <trkpt lat="48.83206305094063282012939453125" lon="-3.485895060002803802490234375">
        <ele>7.19999980926513671875</ele>
        <time>2026-05-09T10:47:38.000Z</time>
        <extensions>
          <ns3:TrackPointExtension>
            <ns3:atemp>15.0</ns3:atemp>
            <ns3:hr>61</ns3:hr>
          </ns3:TrackPointExtension>
        </extensions>
      </trkpt>
      <trkpt lat="48.83206305094063282012939453125" lon="-3.485895060002803802490234375">
        <ele>6.80000019073486328125</ele>
        <time>2026-05-09T10:47:46.000Z</time>
        <extensions>
          <ns3:TrackPointExtension>
            <ns3:atemp>15.0</ns3:atemp>
            <ns3:hr>61</ns3:hr>
          </ns3:TrackPointExtension>
        </extensions>
      </trkpt>
      <trkpt lat="48.83206305094063282012939453125" lon="-3.485895060002803802490234375">
        <ele>7</ele>
        <time>2026-05-09T10:48:12.000Z</time>
        <extensions>
          <ns3:TrackPointExtension>
            <ns3:atemp>15.0</ns3:atemp>
            <ns3:hr>63</ns3:hr>
          </ns3:TrackPointExtension>
        </extensions>
      </trkpt>
      <trkpt lat="48.83206305094063282012939453125" lon="-3.485895060002803802490234375">
        <ele>7</ele>
        <time>2026-05-09T10:48:19.000Z</time>
        <extensions>
          <ns3:TrackPointExtension>
            <ns3:atemp>15.0</ns3:atemp>
            <ns3:hr>64</ns3:hr>
          </ns3:TrackPointExtension>
        </extensions>
      </trkpt>
      <trkpt lat="48.83206305094063282012939453125" lon="-3.485895060002803802490234375">
        <ele>6.80000019073486328125</ele>
        <time>2026-05-09T10:48:30.000Z</time>
        <extensions>
          <ns3:TrackPointExtension>
            <ns3:atemp>15.0</ns3:atemp>
            <ns3:hr>65</ns3:hr>
          </ns3:TrackPointExtension>
        </extensions>
      </trkpt>
      <trkpt lat="48.83206305094063282012939453125" lon="-3.485895060002803802490234375">
        <ele>7.19999980926513671875</ele>
        <time>2026-05-09T10:48:48.000Z</time>
        <extensions>
          <ns3:TrackPointExtension>
            <ns3:atemp>15.0</ns3:atemp>
            <ns3:hr>64</ns3:hr>
          </ns3:TrackPointExtension>
        </extensions>
      </trkpt>
      <trkpt lat="48.8320651464164257049560546875" lon="-3.48589899949729442596435546875">
        <ele>7</ele>
        <time>2026-05-09T10:48:53.000Z</time>
        <extensions>
          <ns3:TrackPointExtension>
            <ns3:atemp>15.0</ns3:atemp>
            <ns3:hr>62</ns3:hr>
          </ns3:TrackPointExtension>
        </extensions>
      </trkpt>
      <trkpt lat="48.83206305094063282012939453125" lon="-3.48590117879211902618408203125">
        <ele>6.80000019073486328125</ele>
        <time>2026-05-09T10:48:55.000Z</time>
        <extensions>
          <ns3:TrackPointExtension>
            <ns3:atemp>15.0</ns3:atemp>
            <ns3:hr>59</ns3:hr>
          </ns3:TrackPointExtension>
        </extensions>
      </trkpt>
      <trkpt lat="48.8320520706474781036376953125" lon="-3.4859056212007999420166015625">
        <ele>7.19999980926513671875</ele>
        <time>2026-05-09T10:49:05.000Z</time>
        <extensions>
          <ns3:TrackPointExtension>
            <ns3:atemp>15.0</ns3:atemp>
            <ns3:hr>58</ns3:hr>
          </ns3:TrackPointExtension>
        </extensions>
      </trkpt>
      <trkpt lat="48.832053244113922119140625" lon="-3.48590034060180187225341796875">
        <ele>7</ele>
        <time>2026-05-09T10:49:18.000Z</time>
        <extensions>
          <ns3:TrackPointExtension>
            <ns3:atemp>15.0</ns3:atemp>
            <ns3:hr>58</ns3:hr>
          </ns3:TrackPointExtension>
        </extensions>
      </trkpt>
      <trkpt lat="48.832052908837795257568359375" lon="-3.48589472472667694091796875">
        <ele>7.19999980926513671875</ele>
        <time>2026-05-09T10:49:20.000Z</time>
        <extensions>
          <ns3:TrackPointExtension>
            <ns3:atemp>15.0</ns3:atemp>
            <ns3:hr>63</ns3:hr>
          </ns3:TrackPointExtension>
        </extensions>
      </trkpt>
      <trkpt lat="48.83204989135265350341796875" lon="-3.485889025032520294189453125">
        <ele>7.19999980926513671875</ele>
        <time>2026-05-09T10:49:31.000Z</time>
        <extensions>
          <ns3:TrackPointExtension>
            <ns3:atemp>15.0</ns3:atemp>
            <ns3:hr>66</ns3:hr>
          </ns3:TrackPointExtension>
        </extensions>
      </trkpt>
      <trkpt lat="48.83204947225749492645263671875" lon="-3.4858901984989643096923828125">
        <ele>7.19999980926513671875</ele>
        <time>2026-05-09T10:49:32.000Z</time>
        <extensions>
          <ns3:TrackPointExtension>
            <ns3:atemp>15.0</ns3:atemp>
            <ns3:hr>66</ns3:hr>
          </ns3:TrackPointExtension>
        </extensions>
      </trkpt>
      <trkpt lat="48.83206305094063282012939453125" lon="-3.485895060002803802490234375">
        <ele>7.19999980926513671875</ele>
        <time>2026-05-09T10:49:38.000Z</time>
        <extensions>
          <ns3:TrackPointExtension>
            <ns3:atemp>15.0</ns3:atemp>
            <ns3:hr>70</ns3:hr>
          </ns3:TrackPointExtension>
        </extensions>
      </trkpt>
      <trkpt lat="48.83206305094063282012939453125" lon="-3.485895060002803802490234375">
        <ele>7.19999980926513671875</ele>
        <time>2026-05-09T10:49:39.000Z</time>
        <extensions>
          <ns3:TrackPointExtension>
            <ns3:atemp>15.0</ns3:atemp>
            <ns3:hr>73</ns3:hr>
          </ns3:TrackPointExtension>
        </extensions>
      </trkpt>
      <trkpt lat="48.83206305094063282012939453125" lon="-3.485895060002803802490234375">
        <ele>7.19999980926513671875</ele>
        <time>2026-05-09T10:49:43.000Z</time>
        <extensions>
          <ns3:TrackPointExtension>
            <ns3:atemp>15.0</ns3:atemp>
            <ns3:hr>76</ns3:hr>
          </ns3:TrackPointExtension>
        </extensions>
      </trkpt>
      <trkpt lat="48.83204963989555835723876953125" lon="-3.48589204251766204833984375">
        <ele>7.19999980926513671875</ele>
        <time>2026-05-09T10:49:47.000Z</time>
        <extensions>
          <ns3:TrackPointExtension>
            <ns3:atemp>15.0</ns3:atemp>
            <ns3:hr>75</ns3:hr>
          </ns3:TrackPointExtension>
        </extensions>
      </trkpt>
      <trkpt lat="48.83204963989555835723876953125" lon="-3.48589204251766204833984375">
        <ele>7.19999980926513671875</ele>
        <time>2026-05-09T10:49:59.000Z</time>
        <extensions>
          <ns3:TrackPointExtension>
            <ns3:atemp>15.0</ns3:atemp>
            <ns3:hr>75</ns3:hr>
          </ns3:TrackPointExtension>
        </extensions>
      </trkpt>
      <trkpt lat="48.83204963989555835723876953125" lon="-3.48589204251766204833984375">
        <ele>7.400000095367431640625</ele>
        <time>2026-05-09T10:50:05.000Z</time>
        <extensions>
          <ns3:TrackPointExtension>
            <ns3:atemp>15.0</ns3:atemp>
            <ns3:hr>79</ns3:hr>
          </ns3:TrackPointExtension>
        </extensions>
      </trkpt>
      <trkpt lat="48.83204963989555835723876953125" lon="-3.48589204251766204833984375">
        <ele>7.400000095367431640625</ele>
        <time>2026-05-09T10:50:13.000Z</time>
        <extensions>
          <ns3:TrackPointExtension>
            <ns3:atemp>15.0</ns3:atemp>
            <ns3:hr>80</ns3:hr>
          </ns3:TrackPointExtension>
        </extensions>
      </trkpt>
      <trkpt lat="48.83204963989555835723876953125" lon="-3.48589204251766204833984375">
        <ele>7.400000095367431640625</ele>
        <time>2026-05-09T10:50:22.000Z</time>
        <extensions>
          <ns3:TrackPointExtension>
            <ns3:atemp>15.0</ns3:atemp>
            <ns3:hr>77</ns3:hr>
          </ns3:TrackPointExtension>
        </extensions>
      </trkpt>
      <trkpt lat="48.83204963989555835723876953125" lon="-3.48589204251766204833984375">
        <ele>7.599999904632568359375</ele>
        <time>2026-05-09T10:50:26.000Z</time>
        <extensions>
          <ns3:TrackPointExtension>
            <ns3:atemp>15.0</ns3:atemp>
            <ns3:hr>76</ns3:hr>
          </ns3:TrackPointExtension>
        </extensions>
      </trkpt>
      <trkpt lat="48.83204963989555835723876953125" lon="-3.48589204251766204833984375">
        <ele>7.80000019073486328125</ele>
        <time>2026-05-09T10:50:43.000Z</time>
        <extensions>
          <ns3:TrackPointExtension>
            <ns3:atemp>15.0</ns3:atemp>
            <ns3:hr>76</ns3:hr>
          </ns3:TrackPointExtension>
        </extensions>
      </trkpt>
      <trkpt lat="48.83203706704080104827880859375" lon="-3.48588726483285427093505859375">
        <ele>7.80000019073486328125</ele>
        <time>2026-05-09T10:50:52.000Z</time>
        <extensions>
          <ns3:TrackPointExtension>
            <ns3:atemp>15.0</ns3:atemp>
            <ns3:hr>76</ns3:hr>
          </ns3:TrackPointExtension>
        </extensions>
      </trkpt>
      <trkpt lat="48.8320423476397991180419921875" lon="-3.4858940541744232177734375">
        <ele>7.599999904632568359375</ele>
        <time>2026-05-09T10:51:05.000Z</time>
        <extensions>
          <ns3:TrackPointExtension>
            <ns3:atemp>15.0</ns3:atemp>
            <ns3:hr>79</ns3:hr>
          </ns3:TrackPointExtension>
        </extensions>
      </trkpt>
      <trkpt lat="48.83204461075365543365478515625" lon="-3.48589413799345493316650390625">
        <ele>7.599999904632568359375</ele>
        <time>2026-05-09T10:51:06.000Z</time>
        <extensions>
          <ns3:TrackPointExtension>
            <ns3:atemp>15.0</ns3:atemp>
            <ns3:hr>78</ns3:hr>
          </ns3:TrackPointExtension>
        </extensions>
      </trkpt>
      <trkpt lat="48.83205416612327098846435546875" lon="-3.48590277135372161865234375">
        <ele>7.400000095367431640625</ele>
        <time>2026-05-09T10:51:17.000Z</time>
        <extensions>
          <ns3:TrackPointExtension>
            <ns3:atemp>15.0</ns3:atemp>
            <ns3:hr>76</ns3:hr>
          </ns3:TrackPointExtension>
        </extensions>
      </trkpt>
      <trkpt lat="48.832063972949981689453125" lon="-3.4859052859246730804443359375">
        <ele>7.599999904632568359375</ele>
        <time>2026-05-09T10:51:21.000Z</time>
        <extensions>
          <ns3:TrackPointExtension>
            <ns3:atemp>15.0</ns3:atemp>
            <ns3:hr>73</ns3:hr>
          </ns3:TrackPointExtension>
        </extensions>
      </trkpt>
      <trkpt lat="48.83207009173929691314697265625" lon="-3.48590386100113391876220703125">
        <ele>8</ele>
        <time>2026-05-09T10:51:29.000Z</time>
        <extensions>
          <ns3:TrackPointExtension>
            <ns3:atemp>15.0</ns3:atemp>
            <ns3:hr>71</ns3:hr>
          </ns3:TrackPointExtension>
        </extensions>
      </trkpt>
      <trkpt lat="48.83207000792026519775390625" lon="-3.48590386100113391876220703125">
        <ele>8</ele>
        <time>2026-05-09T10:51:39.000Z</time>
        <extensions>
          <ns3:TrackPointExtension>
            <ns3:atemp>15.0</ns3:atemp>
            <ns3:hr>74</ns3:hr>
          </ns3:TrackPointExtension>
        </extensions>
      </trkpt>
      <trkpt lat="48.83207000792026519775390625" lon="-3.48590386100113391876220703125">
        <ele>8.19999980926513671875</ele>
        <time>2026-05-09T10:51:43.000Z</time>
        <extensions>
          <ns3:TrackPointExtension>
            <ns3:atemp>15.0</ns3:atemp>
            <ns3:hr>77</ns3:hr>
          </ns3:TrackPointExtension>
        </extensions>
      </trkpt>
      <trkpt lat="48.83207000792026519775390625" lon="-3.48590386100113391876220703125">
        <ele>8</ele>
        <time>2026-05-09T10:51:47.000Z</time>
        <extensions>
          <ns3:TrackPointExtension>
            <ns3:atemp>15.0</ns3:atemp>
            <ns3:hr>80</ns3:hr>
          </ns3:TrackPointExtension>
        </extensions>
      </trkpt>
      <trkpt lat="48.83207000792026519775390625" lon="-3.48590386100113391876220703125">
        <ele>8</ele>
        <time>2026-05-09T10:51:54.000Z</time>
        <extensions>
          <ns3:TrackPointExtension>
            <ns3:atemp>15.0</ns3:atemp>
            <ns3:hr>80</ns3:hr>
          </ns3:TrackPointExtension>
        </extensions>
      </trkpt>
      <trkpt lat="48.83207000792026519775390625" lon="-3.48590386100113391876220703125">
        <ele>8</ele>
        <time>2026-05-09T10:52:02.000Z</time>
        <extensions>
          <ns3:TrackPointExtension>
            <ns3:atemp>15.0</ns3:atemp>
            <ns3:hr>76</ns3:hr>
          </ns3:TrackPointExtension>
        </extensions>
      </trkpt>
      <trkpt lat="48.832063972949981689453125" lon="-3.48590436391532421112060546875">
        <ele>8.19999980926513671875</ele>
        <time>2026-05-09T10:52:04.000Z</time>
        <extensions>
          <ns3:TrackPointExtension>
            <ns3:atemp>15.0</ns3:atemp>
            <ns3:hr>73</ns3:hr>
          </ns3:TrackPointExtension>
        </extensions>
      </trkpt>
      <trkpt lat="48.83205567486584186553955078125" lon="-3.48591207526624202728271484375">
        <ele>8.3999996185302734375</ele>
        <time>2026-05-09T10:52:06.000Z</time>
        <extensions>
          <ns3:TrackPointExtension>
            <ns3:atemp>15.0</ns3:atemp>
            <ns3:hr>73</ns3:hr>
          </ns3:TrackPointExtension>
        </extensions>
      </trkpt>
      <trkpt lat="48.83205198682844638824462890625" lon="-3.48591458983719348907470703125">
        <ele>8.19999980926513671875</ele>
        <time>2026-05-09T10:52:10.000Z</time>
        <extensions>
          <ns3:TrackPointExtension>
            <ns3:atemp>15.0</ns3:atemp>
            <ns3:hr>73</ns3:hr>
          </ns3:TrackPointExtension>
        </extensions>
      </trkpt>
      <trkpt lat="48.83204528130590915679931640625" lon="-3.4859156794846057891845703125">
        <ele>8.19999980926513671875</ele>
        <time>2026-05-09T10:52:19.000Z</time>
        <extensions>
          <ns3:TrackPointExtension>
            <ns3:atemp>15.0</ns3:atemp>
            <ns3:hr>72</ns3:hr>
          </ns3:TrackPointExtension>
        </extensions>
      </trkpt>
      <trkpt lat="48.83203857578337192535400390625" lon="-3.485925234854221343994140625">
        <ele>8.19999980926513671875</ele>
        <time>2026-05-09T10:52:38.000Z</time>
        <extensions>
          <ns3:TrackPointExtension>
            <ns3:atemp>15.0</ns3:atemp>
            <ns3:hr>69</ns3:hr>
          </ns3:TrackPointExtension>
        </extensions>
      </trkpt>
      <trkpt lat="48.83203857578337192535400390625" lon="-3.485925234854221343994140625">
        <ele>8.6000003814697265625</ele>
        <time>2026-05-09T10:52:48.000Z</time>
        <extensions>
          <ns3:TrackPointExtension>
            <ns3:atemp>15.0</ns3:atemp>
            <ns3:hr>72</ns3:hr>
          </ns3:TrackPointExtension>
        </extensions>
      </trkpt>
      <trkpt lat="48.83203857578337192535400390625" lon="-3.485925234854221343994140625">
        <ele>8.6000003814697265625</ele>
        <time>2026-05-09T10:52:52.000Z</time>
        <extensions>
          <ns3:TrackPointExtension>
            <ns3:atemp>15.0</ns3:atemp>
            <ns3:hr>75</ns3:hr>
          </ns3:TrackPointExtension>
        </extensions>
      </trkpt>
      <trkpt lat="48.83203857578337192535400390625" lon="-3.485925234854221343994140625">
        <ele>8.3999996185302734375</ele>
        <time>2026-05-09T10:52:54.000Z</time>
        <extensions>
          <ns3:TrackPointExtension>
            <ns3:atemp>15.0</ns3:atemp>
            <ns3:hr>76</ns3:hr>
          </ns3:TrackPointExtension>
        </extensions>
      </trkpt>
      <trkpt lat="48.83203857578337192535400390625" lon="-3.485925234854221343994140625">
        <ele>8.3999996185302734375</ele>
        <time>2026-05-09T10:53:04.000Z</time>
        <extensions>
          <ns3:TrackPointExtension>
            <ns3:atemp>15.0</ns3:atemp>
            <ns3:hr>74</ns3:hr>
          </ns3:TrackPointExtension>
        </extensions>
      </trkpt>
      <trkpt lat="48.83203857578337192535400390625" lon="-3.485925234854221343994140625">
        <ele>8.6000003814697265625</ele>
        <time>2026-05-09T10:53:20.000Z</time>
        <extensions>
          <ns3:TrackPointExtension>
            <ns3:atemp>15.0</ns3:atemp>
            <ns3:hr>71</ns3:hr>
          </ns3:TrackPointExtension>
        </extensions>
      </trkpt>
      <trkpt lat="48.83203857578337192535400390625" lon="-3.485925234854221343994140625">
        <ele>8.3999996185302734375</ele>
        <time>2026-05-09T10:53:29.000Z</time>
        <extensions>
          <ns3:TrackPointExtension>
            <ns3:atemp>15.0</ns3:atemp>
            <ns3:hr>74</ns3:hr>
          </ns3:TrackPointExtension>
        </extensions>
      </trkpt>
      <trkpt lat="48.83203857578337192535400390625" lon="-3.485925234854221343994140625">
        <ele>8.3999996185302734375</ele>
        <time>2026-05-09T10:53:30.000Z</time>
        <extensions>
          <ns3:TrackPointExtension>
            <ns3:atemp>15.0</ns3:atemp>
            <ns3:hr>74</ns3:hr>
          </ns3:TrackPointExtension>
        </extensions>
      </trkpt>
      <trkpt lat="48.83203857578337192535400390625" lon="-3.485925234854221343994140625">
        <ele>8.6000003814697265625</ele>
        <time>2026-05-09T10:53:42.000Z</time>
        <extensions>
          <ns3:TrackPointExtension>
            <ns3:atemp>15.0</ns3:atemp>
            <ns3:hr>77</ns3:hr>
          </ns3:TrackPointExtension>
        </extensions>
      </trkpt>
      <trkpt lat="48.83203857578337192535400390625" lon="-3.485925234854221343994140625">
        <ele>8.6000003814697265625</ele>
        <time>2026-05-09T10:53:51.000Z</time>
        <extensions>
          <ns3:TrackPointExtension>
            <ns3:atemp>15.0</ns3:atemp>
            <ns3:hr>73</ns3:hr>
          </ns3:TrackPointExtension>
        </extensions>
      </trkpt>
      <trkpt lat="48.83203857578337192535400390625" lon="-3.485925234854221343994140625">
        <ele>8.6000003814697265625</ele>
        <time>2026-05-09T10:53:53.000Z</time>
        <extensions>
          <ns3:TrackPointExtension>
            <ns3:atemp>15.0</ns3:atemp>
            <ns3:hr>71</ns3:hr>
          </ns3:TrackPointExtension>
        </extensions>
      </trkpt>
      <trkpt lat="48.83203857578337192535400390625" lon="-3.485925234854221343994140625">
        <ele>8.6000003814697265625</ele>
        <time>2026-05-09T10:53:54.000Z</time>
        <extensions>
          <ns3:TrackPointExtension>
            <ns3:atemp>15.0</ns3:atemp>
            <ns3:hr>67</ns3:hr>
          </ns3:TrackPointExtension>
        </extensions>
      </trkpt>
      <trkpt lat="48.83203857578337192535400390625" lon="-3.485925234854221343994140625">
        <ele>8.6000003814697265625</ele>
        <time>2026-05-09T10:54:10.000Z</time>
        <extensions>
          <ns3:TrackPointExtension>
            <ns3:atemp>15.0</ns3:atemp>
            <ns3:hr>70</ns3:hr>
          </ns3:TrackPointExtension>
        </extensions>
      </trkpt>
      <trkpt lat="48.83203857578337192535400390625" lon="-3.485925234854221343994140625">
        <ele>8.6000003814697265625</ele>
        <time>2026-05-09T10:54:16.000Z</time>
        <extensions>
          <ns3:TrackPointExtension>
            <ns3:atemp>15.0</ns3:atemp>
            <ns3:hr>73</ns3:hr>
          </ns3:TrackPointExtension>
        </extensions>
      </trkpt>
      <trkpt lat="48.83203857578337192535400390625" lon="-3.485925234854221343994140625">
        <ele>8.6000003814697265625</ele>
        <time>2026-05-09T10:54:23.000Z</time>
        <extensions>
          <ns3:TrackPointExtension>
            <ns3:atemp>15.0</ns3:atemp>
            <ns3:hr>74</ns3:hr>
          </ns3:TrackPointExtension>
        </extensions>
      </trkpt>
      <trkpt lat="48.83203857578337192535400390625" lon="-3.485925234854221343994140625">
        <ele>8.19999980926513671875</ele>
        <time>2026-05-09T10:54:35.000Z</time>
        <extensions>
          <ns3:TrackPointExtension>
            <ns3:atemp>15.0</ns3:atemp>
            <ns3:hr>74</ns3:hr>
          </ns3:TrackPointExtension>
        </extensions>
      </trkpt>
      <trkpt lat="48.8320252485573291778564453125" lon="-3.4858912043273448944091796875">
        <ele>8.19999980926513671875</ele>
        <time>2026-05-09T10:54:45.000Z</time>
        <extensions>
          <ns3:TrackPointExtension>
            <ns3:atemp>15.0</ns3:atemp>
            <ns3:hr>73</ns3:hr>
          </ns3:TrackPointExtension>
        </extensions>
      </trkpt>
      <trkpt lat="48.83202784694731235504150390625" lon="-3.48590151406824588775634765625">
        <ele>8.3999996185302734375</ele>
        <time>2026-05-09T10:54:50.000Z</time>
        <extensions>
          <ns3:TrackPointExtension>
            <ns3:atemp>15.0</ns3:atemp>
            <ns3:hr>70</ns3:hr>
          </ns3:TrackPointExtension>
        </extensions>
      </trkpt>
      <trkpt lat="48.83202843368053436279296875" lon="-3.48590277135372161865234375">
        <ele>8.3999996185302734375</ele>
        <time>2026-05-09T10:54:51.000Z</time>
        <extensions>
          <ns3:TrackPointExtension>
            <ns3:atemp>15.0</ns3:atemp>
            <ns3:hr>63</ns3:hr>
          </ns3:TrackPointExtension>
        </extensions>
      </trkpt>
      <trkpt lat="48.8320302776992321014404296875" lon="-3.4859019331634044647216796875">
        <ele>8.3999996185302734375</ele>
        <time>2026-05-09T10:54:52.000Z</time>
        <extensions>
          <ns3:TrackPointExtension>
            <ns3:atemp>15.0</ns3:atemp>
            <ns3:hr>58</ns3:hr>
          </ns3:TrackPointExtension>
        </extensions>
      </trkpt>
      <trkpt lat="48.83203321136534214019775390625" lon="-3.48590101115405559539794921875">
        <ele>8.6000003814697265625</ele>
        <time>2026-05-09T10:55:03.000Z</time>
        <extensions>
          <ns3:TrackPointExtension>
            <ns3:atemp>15.0</ns3:atemp>
            <ns3:hr>56</ns3:hr>
          </ns3:TrackPointExtension>
        </extensions>
      </trkpt>
      <trkpt lat="48.8320411741733551025390625" lon="-3.4858940541744232177734375">
        <ele>8.80000019073486328125</ele>
        <time>2026-05-09T10:55:15.000Z</time>
        <extensions>
          <ns3:TrackPointExtension>
            <ns3:atemp>15.0</ns3:atemp>
            <ns3:hr>60</ns3:hr>
          </ns3:TrackPointExtension>
        </extensions>
      </trkpt>
      <trkpt lat="48.83203740231692790985107421875" lon="-3.48589044995605945587158203125">
        <ele>8.6000003814697265625</ele>
        <time>2026-05-09T10:55:18.000Z</time>
        <extensions>
          <ns3:TrackPointExtension>
            <ns3:atemp>15.0</ns3:atemp>
            <ns3:hr>63</ns3:hr>
          </ns3:TrackPointExtension>
        </extensions>
      </trkpt>
      <trkpt lat="48.83203639648854732513427734375" lon="-3.485889695584774017333984375">
        <ele>8.6000003814697265625</ele>
        <time>2026-05-09T10:55:20.000Z</time>
        <extensions>
          <ns3:TrackPointExtension>
            <ns3:atemp>15.0</ns3:atemp>
            <ns3:hr>67</ns3:hr>
          </ns3:TrackPointExtension>
        </extensions>
      </trkpt>
      <trkpt lat="48.8320492208003997802734375" lon="-3.48589338362216949462890625">
        <ele>8.80000019073486328125</ele>
        <time>2026-05-09T10:55:42.000Z</time>
        <extensions>
          <ns3:TrackPointExtension>
            <ns3:atemp>15.0</ns3:atemp>
            <ns3:hr>66</ns3:hr>
          </ns3:TrackPointExtension>
        </extensions>
      </trkpt>
      <trkpt lat="48.832064978778362274169921875" lon="-3.48590989597141742706298828125">
        <ele>8.6000003814697265625</ele>
        <time>2026-05-09T10:55:56.000Z</time>
        <extensions>
          <ns3:TrackPointExtension>
            <ns3:atemp>15.0</ns3:atemp>
            <ns3:hr>65</ns3:hr>
          </ns3:TrackPointExtension>
        </extensions>
      </trkpt>
      <trkpt lat="48.8320731930434703826904296875" lon="-3.4859394840896129608154296875">
        <ele>8.19999980926513671875</ele>
        <time>2026-05-09T10:56:09.000Z</time>
        <extensions>
          <ns3:TrackPointExtension>
            <ns3:atemp>15.0</ns3:atemp>
            <ns3:hr>69</ns3:hr>
          </ns3:TrackPointExtension>
        </extensions>
      </trkpt>
      <trkpt lat="48.83207025937736034393310546875" lon="-3.48593235947191715240478515625">
        <ele>8.3999996185302734375</ele>
        <time>2026-05-09T10:56:12.000Z</time>
        <extensions>
          <ns3:TrackPointExtension>
            <ns3:atemp>15.0</ns3:atemp>
            <ns3:hr>72</ns3:hr>
          </ns3:TrackPointExtension>
        </extensions>
      </trkpt>
      <trkpt lat="48.83206665515899658203125" lon="-3.485922552645206451416015625">
        <ele>8.3999996185302734375</ele>
        <time>2026-05-09T10:56:14.000Z</time>
        <extensions>
          <ns3:TrackPointExtension>
            <ns3:atemp>15.0</ns3:atemp>
            <ns3:hr>73</ns3:hr>
          </ns3:TrackPointExtension>
        </extensions>
      </trkpt>
      <trkpt lat="48.83205550722777843475341796875" lon="-3.4859021008014678955078125">
        <ele>8.3999996185302734375</ele>
        <time>2026-05-09T10:56:25.000Z</time>
        <extensions>
          <ns3:TrackPointExtension>
            <ns3:atemp>15.0</ns3:atemp>
            <ns3:hr>70</ns3:hr>
          </ns3:TrackPointExtension>
        </extensions>
      </trkpt>
      <trkpt lat="48.8320557586848735809326171875" lon="-3.48590319044888019561767578125">
        <ele>8.3999996185302734375</ele>
        <time>2026-05-09T10:56:26.000Z</time>
        <extensions>
          <ns3:TrackPointExtension>
            <ns3:atemp>15.0</ns3:atemp>
            <ns3:hr>66</ns3:hr>
          </ns3:TrackPointExtension>
        </extensions>
      </trkpt>
      <trkpt lat="48.83205483667552471160888671875" lon="-3.48590411245822906494140625">
        <ele>8.80000019073486328125</ele>
        <time>2026-05-09T10:56:31.000Z</time>
        <extensions>
          <ns3:TrackPointExtension>
            <ns3:atemp>15.0</ns3:atemp>
            <ns3:hr>64</ns3:hr>
          </ns3:TrackPointExtension>
        </extensions>
      </trkpt>
      <trkpt lat="48.8320664875209331512451171875" lon="-3.48590117879211902618408203125">
        <ele>8.80000019073486328125</ele>
        <time>2026-05-09T10:56:47.000Z</time>
        <extensions>
          <ns3:TrackPointExtension>
            <ns3:atemp>15.0</ns3:atemp>
            <ns3:hr>66</ns3:hr>
          </ns3:TrackPointExtension>
        </extensions>
      </trkpt>
      <trkpt lat="48.83206070400774478912353515625" lon="-3.4859072975814342498779296875">
        <ele>8.80000019073486328125</ele>
        <time>2026-05-09T10:56:57.000Z</time>
        <extensions>
          <ns3:TrackPointExtension>
            <ns3:atemp>15.0</ns3:atemp>
            <ns3:hr>65</ns3:hr>
          </ns3:TrackPointExtension>
        </extensions>
      </trkpt>
      <trkpt lat="48.8320537470281124114990234375" lon="-3.4859150089323520660400390625">
        <ele>8.80000019073486328125</ele>
        <time>2026-05-09T10:57:06.000Z</time>
        <extensions>
          <ns3:TrackPointExtension>
            <ns3:atemp>15.0</ns3:atemp>
            <ns3:hr>62</ns3:hr>
          </ns3:TrackPointExtension>
        </extensions>
      </trkpt>
      <trkpt lat="48.832060284912586212158203125" lon="-3.4859163500368595123291015625">
        <ele>8.6000003814697265625</ele>
        <time>2026-05-09T10:57:17.000Z</time>
        <extensions>
          <ns3:TrackPointExtension>
            <ns3:atemp>15.0</ns3:atemp>
            <ns3:hr>60</ns3:hr>
          </ns3:TrackPointExtension>
        </extensions>
      </trkpt>
      <trkpt lat="48.8320544175803661346435546875" lon="-3.48590469919145107269287109375">
        <ele>8.3999996185302734375</ele>
        <time>2026-05-09T10:57:29.000Z</time>
        <extensions>
          <ns3:TrackPointExtension>
            <ns3:atemp>15.0</ns3:atemp>
            <ns3:hr>60</ns3:hr>
          </ns3:TrackPointExtension>
        </extensions>
      </trkpt>
      <trkpt lat="48.83205969817936420440673828125" lon="-3.48592825233936309814453125">
        <ele>8</ele>
        <time>2026-05-09T10:57:42.000Z</time>
        <extensions>
          <ns3:TrackPointExtension>
            <ns3:atemp>15.0</ns3:atemp>
            <ns3:hr>60</ns3:hr>
          </ns3:TrackPointExtension>
        </extensions>
      </trkpt>
      <trkpt lat="48.8320594467222690582275390625" lon="-3.48592682741582393646240234375">
        <ele>7.80000019073486328125</ele>
        <time>2026-05-09T10:57:44.000Z</time>
        <extensions>
          <ns3:TrackPointExtension>
            <ns3:atemp>15.0</ns3:atemp>
            <ns3:hr>63</ns3:hr>
          </ns3:TrackPointExtension>
        </extensions>
      </trkpt>
      <trkpt lat="48.83205953054130077362060546875" lon="-3.48592682741582393646240234375">
        <ele>8.3999996185302734375</ele>
        <time>2026-05-09T10:57:47.000Z</time>
        <extensions>
          <ns3:TrackPointExtension>
            <ns3:atemp>15.0</ns3:atemp>
            <ns3:hr>66</ns3:hr>
          </ns3:TrackPointExtension>
        </extensions>
      </trkpt>
      <trkpt lat="48.8320607878267765045166015625" lon="-3.4859140031039714813232421875">
        <ele>8.80000019073486328125</ele>
        <time>2026-05-09T10:57:59.000Z</time>
        <extensions>
          <ns3:TrackPointExtension>
            <ns3:atemp>15.0</ns3:atemp>
            <ns3:hr>64</ns3:hr>
          </ns3:TrackPointExtension>
        </extensions>
      </trkpt>
      <trkpt lat="48.83206053636968135833740234375" lon="-3.485899083316326141357421875">
        <ele>8.80000019073486328125</ele>
        <time>2026-05-09T10:58:12.000Z</time>
        <extensions>
          <ns3:TrackPointExtension>
            <ns3:atemp>15.0</ns3:atemp>
            <ns3:hr>64</ns3:hr>
          </ns3:TrackPointExtension>
        </extensions>
      </trkpt>
      <trkpt lat="48.83206020109355449676513671875" lon="-3.48590352572500705718994140625">
        <ele>8.6000003814697265625</ele>
        <time>2026-05-09T10:58:17.000Z</time>
        <extensions>
          <ns3:TrackPointExtension>
            <ns3:atemp>16.0</ns3:atemp>
            <ns3:hr>66</ns3:hr>
          </ns3:TrackPointExtension>
        </extensions>
      </trkpt>
      <trkpt lat="48.83206523023545742034912109375" lon="-3.48590721376240253448486328125">
        <ele>8.6000003814697265625</ele>
        <time>2026-05-09T10:58:21.000Z</time>
        <extensions>
          <ns3:TrackPointExtension>
            <ns3:atemp>16.0</ns3:atemp>
            <ns3:hr>67</ns3:hr>
          </ns3:TrackPointExtension>
        </extensions>
      </trkpt>
      <trkpt lat="48.83207713253796100616455078125" lon="-3.48591743968427181243896484375">
        <ele>8.6000003814697265625</ele>
        <time>2026-05-09T10:58:33.000Z</time>
        <extensions>
          <ns3:TrackPointExtension>
            <ns3:atemp>16.0</ns3:atemp>
            <ns3:hr>71</ns3:hr>
          </ns3:TrackPointExtension>
        </extensions>
      </trkpt>
      <trkpt lat="48.8320775516331195831298828125" lon="-3.48592179827392101287841796875">
        <ele>8.6000003814697265625</ele>
        <time>2026-05-09T10:58:34.000Z</time>
        <extensions>
          <ns3:TrackPointExtension>
            <ns3:atemp>16.0</ns3:atemp>
            <ns3:hr>74</ns3:hr>
          </ns3:TrackPointExtension>
        </extensions>
      </trkpt>
      <trkpt lat="48.83208031766116619110107421875" lon="-3.4859270788729190826416015625">
        <ele>8.6000003814697265625</ele>
        <time>2026-05-09T10:58:35.000Z</time>
        <extensions>
          <ns3:TrackPointExtension>
            <ns3:atemp>16.0</ns3:atemp>
            <ns3:hr>74</ns3:hr>
          </ns3:TrackPointExtension>
        </extensions>
      </trkpt>
      <trkpt lat="48.83208015002310276031494140625" lon="-3.48592716269195079803466796875">
        <ele>8.80000019073486328125</ele>
        <time>2026-05-09T10:58:37.000Z</time>
        <extensions>
          <ns3:TrackPointExtension>
            <ns3:atemp>16.0</ns3:atemp>
            <ns3:hr>74</ns3:hr>
          </ns3:TrackPointExtension>
        </extensions>
      </trkpt>
      <trkpt lat="48.8320604525506496429443359375" lon="-3.48591106943786144256591796875">
        <ele>8.6000003814697265625</ele>
        <time>2026-05-09T10:58:52.000Z</time>
        <extensions>
          <ns3:TrackPointExtension>
            <ns3:atemp>16.0</ns3:atemp>
            <ns3:hr>74</ns3:hr>
          </ns3:TrackPointExtension>
        </extensions>
      </trkpt>
      <trkpt lat="48.83205366320908069610595703125" lon="-3.48591140471398830413818359375">
        <ele>8.3999996185302734375</ele>
        <time>2026-05-09T10:59:08.000Z</time>
        <extensions>
          <ns3:TrackPointExtension>
            <ns3:atemp>16.0</ns3:atemp>
            <ns3:hr>77</ns3:hr>
          </ns3:TrackPointExtension>
        </extensions>
      </trkpt>
      <trkpt lat="48.832060955464839935302734375" lon="-3.4859160147607326507568359375">
        <ele>8.80000019073486328125</ele>
        <time>2026-05-09T10:59:12.000Z</time>
        <extensions>
          <ns3:TrackPointExtension>
            <ns3:atemp>16.0</ns3:atemp>
            <ns3:hr>76</ns3:hr>
          </ns3:TrackPointExtension>
        </extensions>
      </trkpt>
      <trkpt lat="48.83205735124647617340087890625" lon="-3.485902436077594757080078125">
        <ele>8.19999980926513671875</ele>
        <time>2026-05-09T10:59:22.000Z</time>
        <extensions>
          <ns3:TrackPointExtension>
            <ns3:atemp>15.0</ns3:atemp>
            <ns3:hr>73</ns3:hr>
          </ns3:TrackPointExtension>
        </extensions>
      </trkpt>
      <trkpt lat="48.8320607878267765045166015625" lon="-3.485911153256893157958984375">
        <ele>8.3999996185302734375</ele>
        <time>2026-05-09T10:59:26.000Z</time>
        <extensions>
          <ns3:TrackPointExtension>
            <ns3:atemp>15.0</ns3:atemp>
            <ns3:hr>73</ns3:hr>
          </ns3:TrackPointExtension>
        </extensions>
      </trkpt>
      <trkpt lat="48.83206506259739398956298828125" lon="-3.4859074652194976806640625">
        <ele>8.6000003814697265625</ele>
        <time>2026-05-09T10:59:31.000Z</time>
        <extensions>
          <ns3:TrackPointExtension>
            <ns3:atemp>15.0</ns3:atemp>
            <ns3:hr>70</ns3:hr>
          </ns3:TrackPointExtension>
        </extensions>
      </trkpt>
      <trkpt lat="48.8320634700357913970947265625" lon="-3.48591609857976436614990234375">
        <ele>8.6000003814697265625</ele>
        <time>2026-05-09T10:59:40.000Z</time>
        <extensions>
          <ns3:TrackPointExtension>
            <ns3:atemp>15.0</ns3:atemp>
            <ns3:hr>68</ns3:hr>
          </ns3:TrackPointExtension>
        </extensions>
      </trkpt>
      <trkpt lat="48.8320706784725189208984375" lon="-3.485903106629848480224609375">
        <ele>8.6000003814697265625</ele>
        <time>2026-05-09T10:59:55.000Z</time>
        <extensions>
          <ns3:TrackPointExtension>
            <ns3:atemp>15.0</ns3:atemp>
            <ns3:hr>70</ns3:hr>
          </ns3:TrackPointExtension>
        </extensions>
      </trkpt>
      <trkpt lat="48.83205651305615901947021484375" lon="-3.48592380993068218231201171875">
        <ele>8.19999980926513671875</ele>
        <time>2026-05-09T11:00:17.000Z</time>
        <extensions>
          <ns3:TrackPointExtension>
            <ns3:atemp>15.0</ns3:atemp>
            <ns3:hr>70</ns3:hr>
          </ns3:TrackPointExtension>
        </extensions>
      </trkpt>
      <trkpt lat="48.8320614583790302276611328125" lon="-3.48593185655772686004638671875">
        <ele>8.3999996185302734375</ele>
        <time>2026-05-09T11:00:30.000Z</time>
        <extensions>
          <ns3:TrackPointExtension>
            <ns3:atemp>15.0</ns3:atemp>
            <ns3:hr>70</ns3:hr>
          </ns3:TrackPointExtension>
        </extensions>
      </trkpt>
      <trkpt lat="48.832056261599063873291015625" lon="-3.48590855486690998077392578125">
        <ele>8.19999980926513671875</ele>
        <time>2026-05-09T11:00:44.000Z</time>
        <extensions>
          <ns3:TrackPointExtension>
            <ns3:atemp>15.0</ns3:atemp>
            <ns3:hr>72</ns3:hr>
          </ns3:TrackPointExtension>
        </extensions>
      </trkpt>
      <trkpt lat="48.8320510648190975189208984375" lon="-3.48590654321014881134033203125">
        <ele>8.19999980926513671875</ele>
        <time>2026-05-09T11:01:03.000Z</time>
        <extensions>
          <ns3:TrackPointExtension>
            <ns3:atemp>15.0</ns3:atemp>
            <ns3:hr>71</ns3:hr>
          </ns3:TrackPointExtension>
        </extensions>
      </trkpt>
      <trkpt lat="48.8320463709533214569091796875" lon="-3.48589816130697727203369140625">
        <ele>8.3999996185302734375</ele>
        <time>2026-05-09T11:01:10.000Z</time>
        <extensions>
          <ns3:TrackPointExtension>
            <ns3:atemp>15.0</ns3:atemp>
            <ns3:hr>75</ns3:hr>
          </ns3:TrackPointExtension>
        </extensions>
      </trkpt>
      <trkpt lat="48.83204645477235317230224609375" lon="-3.48589916713535785675048828125">
        <ele>8.3999996185302734375</ele>
        <time>2026-05-09T11:01:11.000Z</time>
        <extensions>
          <ns3:TrackPointExtension>
            <ns3:atemp>15.0</ns3:atemp>
            <ns3:hr>78</ns3:hr>
          </ns3:TrackPointExtension>
        </extensions>
      </trkpt>
      <trkpt lat="48.83206036873161792755126953125" lon="-3.48591023124754428863525390625">
        <ele>8.3999996185302734375</ele>
        <time>2026-05-09T11:01:19.000Z</time>
        <extensions>
          <ns3:TrackPointExtension>
            <ns3:atemp>15.0</ns3:atemp>
            <ns3:hr>80</ns3:hr>
          </ns3:TrackPointExtension>
        </extensions>
      </trkpt>
      <trkpt lat="48.83205123245716094970703125" lon="-3.4859022684395313262939453125">
        <ele>8.3999996185302734375</ele>
        <time>2026-05-09T11:01:33.000Z</time>
        <extensions>
          <ns3:TrackPointExtension>
            <ns3:atemp>15.0</ns3:atemp>
            <ns3:hr>79</ns3:hr>
          </ns3:TrackPointExtension>
        </extensions>
      </trkpt>
      <trkpt lat="48.83205701597034931182861328125" lon="-3.48591559566557407379150390625">
        <ele>8.19999980926513671875</ele>
        <time>2026-05-09T11:01:43.000Z</time>
        <extensions>
          <ns3:TrackPointExtension>
            <ns3:atemp>15.0</ns3:atemp>
            <ns3:hr>80</ns3:hr>
          </ns3:TrackPointExtension>
        </extensions>
      </trkpt>
      <trkpt lat="48.83206539787352085113525390625" lon="-3.48591727204620838165283203125">
        <ele>8.19999980926513671875</ele>
        <time>2026-05-09T11:01:54.000Z</time>
        <extensions>
          <ns3:TrackPointExtension>
            <ns3:atemp>15.0</ns3:atemp>
            <ns3:hr>77</ns3:hr>
          </ns3:TrackPointExtension>
        </extensions>
      </trkpt>
      <trkpt lat="48.8320641405880451202392578125" lon="-3.485914506018161773681640625">
        <ele>8.3999996185302734375</ele>
        <time>2026-05-09T11:01:58.000Z</time>
        <extensions>
          <ns3:TrackPointExtension>
            <ns3:atemp>15.0</ns3:atemp>
            <ns3:hr>75</ns3:hr>
          </ns3:TrackPointExtension>
        </extensions>
      </trkpt>
      <trkpt lat="48.83207176811993122100830078125" lon="-3.48590788431465625762939453125">
        <ele>8.3999996185302734375</ele>
        <time>2026-05-09T11:02:08.000Z</time>
        <extensions>
          <ns3:TrackPointExtension>
            <ns3:atemp>15.0</ns3:atemp>
            <ns3:hr>71</ns3:hr>
          </ns3:TrackPointExtension>
        </extensions>
      </trkpt>
      <trkpt lat="48.832069672644138336181640625" lon="-3.48590436391532421112060546875">
        <ele>8.3999996185302734375</ele>
        <time>2026-05-09T11:02:09.000Z</time>
        <extensions>
          <ns3:TrackPointExtension>
            <ns3:atemp>15.0</ns3:atemp>
            <ns3:hr>68</ns3:hr>
          </ns3:TrackPointExtension>
        </extensions>
      </trkpt>
      <trkpt lat="48.8320671580731868743896484375" lon="-3.48589983768761157989501953125">
        <ele>8.3999996185302734375</ele>
        <time>2026-05-09T11:02:10.000Z</time>
        <extensions>
          <ns3:TrackPointExtension>
            <ns3:atemp>15.0</ns3:atemp>
            <ns3:hr>65</ns3:hr>
          </ns3:TrackPointExtension>
        </extensions>
      </trkpt>
      <trkpt lat="48.8320591114461421966552734375" lon="-3.4858969040215015411376953125">
        <ele>8.3999996185302734375</ele>
        <time>2026-05-09T11:02:12.000Z</time>
        <extensions>
          <ns3:TrackPointExtension>
            <ns3:atemp>15.0</ns3:atemp>
            <ns3:hr>62</ns3:hr>
          </ns3:TrackPointExtension>
        </extensions>
      </trkpt>
      <trkpt lat="48.83205969817936420440673828125" lon="-3.48590419627726078033447265625">
        <ele>8.3999996185302734375</ele>
        <time>2026-05-09T11:02:19.000Z</time>
        <extensions>
          <ns3:TrackPointExtension>
            <ns3:atemp>15.0</ns3:atemp>
            <ns3:hr>62</ns3:hr>
          </ns3:TrackPointExtension>
        </extensions>
      </trkpt>
      <trkpt lat="48.83204913698136806488037109375" lon="-3.485894389450550079345703125">
        <ele>8.19999980926513671875</ele>
        <time>2026-05-09T11:02:30.000Z</time>
        <extensions>
          <ns3:TrackPointExtension>
            <ns3:atemp>15.0</ns3:atemp>
            <ns3:hr>65</ns3:hr>
          </ns3:TrackPointExtension>
        </extensions>
      </trkpt>
      <trkpt lat="48.8320480473339557647705078125" lon="-3.485894389450550079345703125">
        <ele>8.19999980926513671875</ele>
        <time>2026-05-09T11:02:31.000Z</time>
        <extensions>
          <ns3:TrackPointExtension>
            <ns3:atemp>15.0</ns3:atemp>
            <ns3:hr>65</ns3:hr>
          </ns3:TrackPointExtension>
        </extensions>
      </trkpt>
      <trkpt lat="48.8320654816925525665283203125" lon="-3.4858982451260089874267578125">
        <ele>8.3999996185302734375</ele>
        <time>2026-05-09T11:02:37.000Z</time>
        <extensions>
          <ns3:TrackPointExtension>
            <ns3:atemp>15.0</ns3:atemp>
            <ns3:hr>68</ns3:hr>
          </ns3:TrackPointExtension>
        </extensions>
      </trkpt>
      <trkpt lat="48.8320644758641719818115234375" lon="-3.485905118286609649658203125">
        <ele>8.19999980926513671875</ele>
        <time>2026-05-09T11:02:44.000Z</time>
        <extensions>
          <ns3:TrackPointExtension>
            <ns3:atemp>15.0</ns3:atemp>
            <ns3:hr>70</ns3:hr>
          </ns3:TrackPointExtension>
        </extensions>
      </trkpt>
      <trkpt lat="48.8320644758641719818115234375" lon="-3.485905118286609649658203125">
        <ele>8</ele>
        <time>2026-05-09T11:02:57.000Z</time>
        <extensions>
          <ns3:TrackPointExtension>
            <ns3:atemp>15.0</ns3:atemp>
            <ns3:hr>70</ns3:hr>
          </ns3:TrackPointExtension>
        </extensions>
      </trkpt>
      <trkpt lat="48.8320644758641719818115234375" lon="-3.485905118286609649658203125">
        <ele>8.19999980926513671875</ele>
        <time>2026-05-09T11:03:14.000Z</time>
        <extensions>
          <ns3:TrackPointExtension>
            <ns3:atemp>15.0</ns3:atemp>
            <ns3:hr>69</ns3:hr>
          </ns3:TrackPointExtension>
        </extensions>
      </trkpt>
      <trkpt lat="48.8320728577673435211181640625" lon="-3.4859103150665760040283203125">
        <ele>8.3999996185302734375</ele>
        <time>2026-05-09T11:03:36.000Z</time>
        <extensions>
          <ns3:TrackPointExtension>
            <ns3:atemp>15.0</ns3:atemp>
            <ns3:hr>69</ns3:hr>
          </ns3:TrackPointExtension>
        </extensions>
      </trkpt>
      <trkpt lat="48.83207528851926326751708984375" lon="-3.48591475747525691986083984375">
        <ele>8.19999980926513671875</ele>
        <time>2026-05-09T11:03:40.000Z</time>
        <extensions>
          <ns3:TrackPointExtension>
            <ns3:atemp>15.0</ns3:atemp>
            <ns3:hr>72</ns3:hr>
          </ns3:TrackPointExtension>
        </extensions>
      </trkpt>
      <trkpt lat="48.83206958882510662078857421875" lon="-3.48591291345655918121337890625">
        <ele>8.19999980926513671875</ele>
        <time>2026-05-09T11:03:52.000Z</time>
        <extensions>
          <ns3:TrackPointExtension>
            <ns3:atemp>15.0</ns3:atemp>
            <ns3:hr>71</ns3:hr>
          </ns3:TrackPointExtension>
        </extensions>
      </trkpt>
      <trkpt lat="48.8320760428905487060546875" lon="-3.48591794259846210479736328125">
        <ele>8.3999996185302734375</ele>
        <time>2026-05-09T11:03:58.000Z</time>
        <extensions>
          <ns3:TrackPointExtension>
            <ns3:atemp>15.0</ns3:atemp>
            <ns3:hr>68</ns3:hr>
          </ns3:TrackPointExtension>
        </extensions>
      </trkpt>
      <trkpt lat="48.83207847364246845245361328125" lon="-3.4859193675220012664794921875">
        <ele>8.6000003814697265625</ele>
        <time>2026-05-09T11:04:08.000Z</time>
        <extensions>
          <ns3:TrackPointExtension>
            <ns3:atemp>15.0</ns3:atemp>
            <ns3:hr>66</ns3:hr>
          </ns3:TrackPointExtension>
        </extensions>
      </trkpt>
      <trkpt lat="48.8320760428905487060546875" lon="-3.48591794259846210479736328125">
        <ele>8.19999980926513671875</ele>
        <time>2026-05-09T11:04:18.000Z</time>
        <extensions>
          <ns3:TrackPointExtension>
            <ns3:atemp>15.0</ns3:atemp>
            <ns3:hr>67</ns3:hr>
          </ns3:TrackPointExtension>
        </extensions>
      </trkpt>
      <trkpt lat="48.8320760428905487060546875" lon="-3.48591794259846210479736328125">
        <ele>8.19999980926513671875</ele>
        <time>2026-05-09T11:04:26.000Z</time>
        <extensions>
          <ns3:TrackPointExtension>
            <ns3:atemp>15.0</ns3:atemp>
            <ns3:hr>70</ns3:hr>
          </ns3:TrackPointExtension>
        </extensions>
      </trkpt>
      <trkpt lat="48.83205232210457324981689453125" lon="-3.48590143024921417236328125">
        <ele>8.3999996185302734375</ele>
        <time>2026-05-09T11:04:35.000Z</time>
        <extensions>
          <ns3:TrackPointExtension>
            <ns3:atemp>15.0</ns3:atemp>
            <ns3:hr>72</ns3:hr>
          </ns3:TrackPointExtension>
        </extensions>
      </trkpt>
      <trkpt lat="48.832054249942302703857421875" lon="-3.48589547909796237945556640625">
        <ele>8.6000003814697265625</ele>
        <time>2026-05-09T11:04:43.000Z</time>
        <extensions>
          <ns3:TrackPointExtension>
            <ns3:atemp>15.0</ns3:atemp>
            <ns3:hr>73</ns3:hr>
          </ns3:TrackPointExtension>
        </extensions>
      </trkpt>
      <trkpt lat="48.8320745341479778289794921875" lon="-3.485913835465908050537109375">
        <ele>8.19999980926513671875</ele>
        <time>2026-05-09T11:04:53.000Z</time>
        <extensions>
          <ns3:TrackPointExtension>
            <ns3:atemp>15.0</ns3:atemp>
            <ns3:hr>71</ns3:hr>
          </ns3:TrackPointExtension>
        </extensions>
      </trkpt>
      <trkpt lat="48.8320420123636722564697265625" lon="-3.48588072694838047027587890625">
        <ele>8.3999996185302734375</ele>
        <time>2026-05-09T11:05:10.000Z</time>
        <extensions>
          <ns3:TrackPointExtension>
            <ns3:atemp>15.0</ns3:atemp>
            <ns3:hr>69</ns3:hr>
          </ns3:TrackPointExtension>
        </extensions>
      </trkpt>
      <trkpt lat="48.8320510648190975189208984375" lon="-3.4859076328575611114501953125">
        <ele>8.3999996185302734375</ele>
        <time>2026-05-09T11:05:26.000Z</time>
        <extensions>
          <ns3:TrackPointExtension>
            <ns3:atemp>16.0</ns3:atemp>
            <ns3:hr>72</ns3:hr>
          </ns3:TrackPointExtension>
        </extensions>
      </trkpt>
      <trkpt lat="48.83205282501876354217529296875" lon="-3.48590369336307048797607421875">
        <ele>8.6000003814697265625</ele>
        <time>2026-05-09T11:05:27.000Z</time>
        <extensions>
          <ns3:TrackPointExtension>
            <ns3:atemp>16.0</ns3:atemp>
            <ns3:hr>72</ns3:hr>
          </ns3:TrackPointExtension>
        </extensions>
      </trkpt>
      <trkpt lat="48.8320695050060749053955078125" lon="-3.4858838282525539398193359375">
        <ele>8.6000003814697265625</ele>
        <time>2026-05-09T11:05:33.000Z</time>
        <extensions>
          <ns3:TrackPointExtension>
            <ns3:atemp>16.0</ns3:atemp>
            <ns3:hr>73</ns3:hr>
          </ns3:TrackPointExtension>
        </extensions>
      </trkpt>
      <trkpt lat="48.8320859335362911224365234375" lon="-3.48586446605622768402099609375">
        <ele>8.19999980926513671875</ele>
        <time>2026-05-09T11:05:38.000Z</time>
        <extensions>
          <ns3:TrackPointExtension>
            <ns3:atemp>16.0</ns3:atemp>
            <ns3:hr>72</ns3:hr>
          </ns3:TrackPointExtension>
        </extensions>
      </trkpt>
      <trkpt lat="48.832143433392047882080078125" lon="-3.48586882464587688446044921875">
        <ele>9</ele>
        <time>2026-05-09T11:05:46.000Z</time>
        <extensions>
          <ns3:TrackPointExtension>
            <ns3:atemp>16.0</ns3:atemp>
            <ns3:hr>72</ns3:hr>
          </ns3:TrackPointExtension>
        </extensions>
      </trkpt>
      <trkpt lat="48.8321886956691741943359375" lon="-3.4858269989490509033203125">
        <ele>8.80000019073486328125</ele>
        <time>2026-05-09T11:05:51.000Z</time>
        <extensions>
          <ns3:TrackPointExtension>
            <ns3:atemp>16.0</ns3:atemp>
            <ns3:hr>72</ns3:hr>
          </ns3:TrackPointExtension>
        </extensions>
      </trkpt>
      <trkpt lat="48.83222934789955615997314453125" lon="-3.48573102615773677825927734375">
        <ele>8.80000019073486328125</ele>
        <time>2026-05-09T11:05:58.000Z</time>
        <extensions>
          <ns3:TrackPointExtension>
            <ns3:atemp>16.0</ns3:atemp>
            <ns3:hr>74</ns3:hr>
          </ns3:TrackPointExtension>
        </extensions>
      </trkpt>
      <trkpt lat="48.83224108256399631500244140625" lon="-3.48566849716007709503173828125">
        <ele>9.3999996185302734375</ele>
        <time>2026-05-09T11:06:03.000Z</time>
        <extensions>
          <ns3:TrackPointExtension>
            <ns3:atemp>16.0</ns3:atemp>
            <ns3:hr>74</ns3:hr>
          </ns3:TrackPointExtension>
        </extensions>
      </trkpt>
      <trkpt lat="48.83223630487918853759765625" lon="-3.48565575666725635528564453125">
        <ele>9.3999996185302734375</ele>
        <time>2026-05-09T11:06:04.000Z</time>
        <extensions>
          <ns3:TrackPointExtension>
            <ns3:atemp>16.0</ns3:atemp>
            <ns3:hr>74</ns3:hr>
          </ns3:TrackPointExtension>
        </extensions>
      </trkpt>
      <trkpt lat="48.83223085664212703704833984375" lon="-3.485642261803150177001953125">
        <ele>9.6000003814697265625</ele>
        <time>2026-05-09T11:06:05.000Z</time>
        <extensions>
          <ns3:TrackPointExtension>
            <ns3:atemp>16.0</ns3:atemp>
            <ns3:hr>74</ns3:hr>
          </ns3:TrackPointExtension>
        </extensions>
      </trkpt>
      <trkpt lat="48.83219875395298004150390625" lon="-3.48558417521417140960693359375">
        <ele>10</ele>
        <time>2026-05-09T11:06:10.000Z</time>
        <extensions>
          <ns3:TrackPointExtension>
            <ns3:atemp>16.0</ns3:atemp>
            <ns3:hr>72</ns3:hr>
          </ns3:TrackPointExtension>
        </extensions>
      </trkpt>
      <trkpt lat="48.832174949347972869873046875" lon="-3.485528267920017242431640625">
        <ele>9.80000019073486328125</ele>
        <time>2026-05-09T11:06:15.000Z</time>
        <extensions>
          <ns3:TrackPointExtension>
            <ns3:atemp>16.0</ns3:atemp>
            <ns3:hr>72</ns3:hr>
          </ns3:TrackPointExtension>
        </extensions>
      </trkpt>
      <trkpt lat="48.83215977810323238372802734375" lon="-3.4854568541049957275390625">
        <ele>9.6000003814697265625</ele>
        <time>2026-05-09T11:06:21.000Z</time>
        <extensions>
          <ns3:TrackPointExtension>
            <ns3:atemp>16.0</ns3:atemp>
            <ns3:hr>73</ns3:hr>
          </ns3:TrackPointExtension>
        </extensions>
      </trkpt>
      <trkpt lat="48.8321563415229320526123046875" lon="-3.48544587381184101104736328125">
        <ele>9.80000019073486328125</ele>
        <time>2026-05-09T11:06:26.000Z</time>
        <extensions>
          <ns3:TrackPointExtension>
            <ns3:atemp>16.0</ns3:atemp>
            <ns3:hr>75</ns3:hr>
          </ns3:TrackPointExtension>
        </extensions>
      </trkpt>
      <trkpt lat="48.8321218080818653106689453125" lon="-3.48541326820850372314453125">
        <ele>9.80000019073486328125</ele>
        <time>2026-05-09T11:06:32.000Z</time>
        <extensions>
          <ns3:TrackPointExtension>
            <ns3:atemp>16.0</ns3:atemp>
            <ns3:hr>77</ns3:hr>
          </ns3:TrackPointExtension>
        </extensions>
      </trkpt>
      <trkpt lat="48.83208266459405422210693359375" lon="-3.48535166122019290924072265625">
        <ele>10</ele>
        <time>2026-05-09T11:06:39.000Z</time>
        <extensions>
          <ns3:TrackPointExtension>
            <ns3:atemp>16.0</ns3:atemp>
            <ns3:hr>74</ns3:hr>
          </ns3:TrackPointExtension>
        </extensions>
      </trkpt>
      <trkpt lat="48.8320242427289485931396484375" lon="-3.4853011183440685272216796875">
        <ele>10.3999996185302734375</ele>
        <time>2026-05-09T11:06:46.000Z</time>
        <extensions>
          <ns3:TrackPointExtension>
            <ns3:atemp>16.0</ns3:atemp>
            <ns3:hr>73</ns3:hr>
          </ns3:TrackPointExtension>
        </extensions>
      </trkpt>
      <trkpt lat="48.8319913856685161590576171875" lon="-3.48524034954607486724853515625">
        <ele>10</ele>
        <time>2026-05-09T11:06:53.000Z</time>
        <extensions>
          <ns3:TrackPointExtension>
            <ns3:atemp>16.0</ns3:atemp>
            <ns3:hr>74</ns3:hr>
          </ns3:TrackPointExtension>
        </extensions>
      </trkpt>
      <trkpt lat="48.83197990246117115020751953125" lon="-3.48513339646160602569580078125">
        <ele>9.6000003814697265625</ele>
        <time>2026-05-09T11:07:01.000Z</time>
        <extensions>
          <ns3:TrackPointExtension>
            <ns3:atemp>16.0</ns3:atemp>
            <ns3:hr>75</ns3:hr>
          </ns3:TrackPointExtension>
        </extensions>
      </trkpt>
      <trkpt lat="48.83199281059205532073974609375" lon="-3.48508176393806934356689453125">
        <ele>10</ele>
        <time>2026-05-09T11:07:09.000Z</time>
        <extensions>
          <ns3:TrackPointExtension>
            <ns3:atemp>16.0</ns3:atemp>
            <ns3:hr>74</ns3:hr>
          </ns3:TrackPointExtension>
        </extensions>
      </trkpt>
      <trkpt lat="48.83199783973395824432373046875" lon="-3.48509198985993862152099609375">
        <ele>9.3999996185302734375</ele>
        <time>2026-05-09T11:07:15.000Z</time>
        <extensions>
          <ns3:TrackPointExtension>
            <ns3:atemp>16.0</ns3:atemp>
            <ns3:hr>74</ns3:hr>
          </ns3:TrackPointExtension>
        </extensions>
      </trkpt>
      <trkpt lat="48.83199783973395824432373046875" lon="-3.48509198985993862152099609375">
        <ele>9.3999996185302734375</ele>
        <time>2026-05-09T11:07:16.000Z</time>
        <extensions>
          <ns3:TrackPointExtension>
            <ns3:atemp>16.0</ns3:atemp>
            <ns3:hr>74</ns3:hr>
          </ns3:TrackPointExtension>
        </extensions>
      </trkpt>
      <trkpt lat="48.83199783973395824432373046875" lon="-3.48509198985993862152099609375">
        <ele>9.6000003814697265625</ele>
        <time>2026-05-09T11:07:30.000Z</time>
        <extensions>
          <ns3:TrackPointExtension>
            <ns3:atemp>16.0</ns3:atemp>
            <ns3:hr>75</ns3:hr>
          </ns3:TrackPointExtension>
        </extensions>
      </trkpt>
      <trkpt lat="48.83199783973395824432373046875" lon="-3.48509198985993862152099609375">
        <ele>9.80000019073486328125</ele>
        <time>2026-05-09T11:07:32.000Z</time>
        <extensions>
          <ns3:TrackPointExtension>
            <ns3:atemp>16.0</ns3:atemp>
            <ns3:hr>68</ns3:hr>
          </ns3:TrackPointExtension>
        </extensions>
      </trkpt>
      <trkpt lat="48.83199783973395824432373046875" lon="-3.48509198985993862152099609375">
        <ele>9.80000019073486328125</ele>
        <time>2026-05-09T11:07:34.000Z</time>
        <extensions>
          <ns3:TrackPointExtension>
            <ns3:atemp>16.0</ns3:atemp>
            <ns3:hr>65</ns3:hr>
          </ns3:TrackPointExtension>
        </extensions>
      </trkpt>
      <trkpt lat="48.83198996074497699737548828125" lon="-3.485075645148754119873046875">
        <ele>10.19999980926513671875</ele>
        <time>2026-05-09T11:07:40.000Z</time>
        <extensions>
          <ns3:TrackPointExtension>
            <ns3:atemp>16.0</ns3:atemp>
            <ns3:hr>63</ns3:hr>
          </ns3:TrackPointExtension>
        </extensions>
      </trkpt>
      <trkpt lat="48.8319821655750274658203125" lon="-3.48507589660584926605224609375">
        <ele>10.19999980926513671875</ele>
        <time>2026-05-09T11:07:49.000Z</time>
        <extensions>
          <ns3:TrackPointExtension>
            <ns3:atemp>16.0</ns3:atemp>
            <ns3:hr>66</ns3:hr>
          </ns3:TrackPointExtension>
        </extensions>
      </trkpt>
      <trkpt lat="48.83198157884180545806884765625" lon="-3.48506994545459747314453125">
        <ele>10.19999980926513671875</ele>
        <time>2026-05-09T11:07:50.000Z</time>
        <extensions>
          <ns3:TrackPointExtension>
            <ns3:atemp>16.0</ns3:atemp>
            <ns3:hr>66</ns3:hr>
          </ns3:TrackPointExtension>
        </extensions>
      </trkpt>
      <trkpt lat="48.8319741189479827880859375" lon="-3.48506198264658451080322265625">
        <ele>10</ele>
        <time>2026-05-09T11:07:55.000Z</time>
        <extensions>
          <ns3:TrackPointExtension>
            <ns3:atemp>16.0</ns3:atemp>
            <ns3:hr>69</ns3:hr>
          </ns3:TrackPointExtension>
        </extensions>
      </trkpt>
      <trkpt lat="48.83197353221476078033447265625" lon="-3.4850572049617767333984375">
        <ele>10.19999980926513671875</ele>
        <time>2026-05-09T11:08:02.000Z</time>
        <extensions>
          <ns3:TrackPointExtension>
            <ns3:atemp>16.0</ns3:atemp>
            <ns3:hr>70</ns3:hr>
          </ns3:TrackPointExtension>
        </extensions>
      </trkpt>
      <trkpt lat="48.83197353221476078033447265625" lon="-3.4850572049617767333984375">
        <ele>10.3999996185302734375</ele>
        <time>2026-05-09T11:08:07.000Z</time>
        <extensions>
          <ns3:TrackPointExtension>
            <ns3:atemp>16.0</ns3:atemp>
            <ns3:hr>71</ns3:hr>
          </ns3:TrackPointExtension>
        </extensions>
      </trkpt>
      <trkpt lat="48.8319749571382999420166015625" lon="-3.48504236899316310882568359375">
        <ele>10.6000003814697265625</ele>
        <time>2026-05-09T11:08:17.000Z</time>
        <extensions>
          <ns3:TrackPointExtension>
            <ns3:atemp>16.0</ns3:atemp>
            <ns3:hr>68</ns3:hr>
          </ns3:TrackPointExtension>
        </extensions>
      </trkpt>
      <trkpt lat="48.8319756276905536651611328125" lon="-3.485040105879306793212890625">
        <ele>10.6000003814697265625</ele>
        <time>2026-05-09T11:08:18.000Z</time>
        <extensions>
          <ns3:TrackPointExtension>
            <ns3:atemp>16.0</ns3:atemp>
            <ns3:hr>67</ns3:hr>
          </ns3:TrackPointExtension>
        </extensions>
      </trkpt>
      <trkpt lat="48.83197654969990253448486328125" lon="-3.48504337482154369354248046875">
        <ele>10.6000003814697265625</ele>
        <time>2026-05-09T11:08:19.000Z</time>
        <extensions>
          <ns3:TrackPointExtension>
            <ns3:atemp>17.0</ns3:atemp>
            <ns3:hr>67</ns3:hr>
          </ns3:TrackPointExtension>
        </extensions>
      </trkpt>
      <trkpt lat="48.83197353221476078033447265625" lon="-3.4850572049617767333984375">
        <ele>10.19999980926513671875</ele>
        <time>2026-05-09T11:08:27.000Z</time>
        <extensions>
          <ns3:TrackPointExtension>
            <ns3:atemp>17.0</ns3:atemp>
            <ns3:hr>66</ns3:hr>
          </ns3:TrackPointExtension>
        </extensions>
      </trkpt>
      <trkpt lat="48.831959702074527740478515625" lon="-3.48502191714942455291748046875">
        <ele>10.3999996185302734375</ele>
        <time>2026-05-09T11:08:44.000Z</time>
        <extensions>
          <ns3:TrackPointExtension>
            <ns3:atemp>17.0</ns3:atemp>
            <ns3:hr>65</ns3:hr>
          </ns3:TrackPointExtension>
        </extensions>
      </trkpt>
      <trkpt lat="48.8319545052945613861083984375" lon="-3.48501269705593585968017578125">
        <ele>10</ele>
        <time>2026-05-09T11:08:59.000Z</time>
        <extensions>
          <ns3:TrackPointExtension>
            <ns3:atemp>17.0</ns3:atemp>
            <ns3:hr>68</ns3:hr>
          </ns3:TrackPointExtension>
        </extensions>
      </trkpt>
      <trkpt lat="48.8319545052945613861083984375" lon="-3.48501269705593585968017578125">
        <ele>10.19999980926513671875</ele>
        <time>2026-05-09T11:09:08.000Z</time>
        <extensions>
          <ns3:TrackPointExtension>
            <ns3:atemp>17.0</ns3:atemp>
            <ns3:hr>66</ns3:hr>
          </ns3:TrackPointExtension>
        </extensions>
      </trkpt>
      <trkpt lat="48.8319545052945613861083984375" lon="-3.48501269705593585968017578125">
        <ele>10.19999980926513671875</ele>
        <time>2026-05-09T11:09:20.000Z</time>
        <extensions>
          <ns3:TrackPointExtension>
            <ns3:atemp>16.0</ns3:atemp>
            <ns3:hr>66</ns3:hr>
          </ns3:TrackPointExtension>
        </extensions>
      </trkpt>
      <trkpt lat="48.83195224218070507049560546875" lon="-3.48507153801620006561279296875">
        <ele>10</ele>
        <time>2026-05-09T11:09:24.000Z</time>
        <extensions>
          <ns3:TrackPointExtension>
            <ns3:atemp>16.0</ns3:atemp>
            <ns3:hr>65</ns3:hr>
          </ns3:TrackPointExtension>
        </extensions>
      </trkpt>
      <trkpt lat="48.8319581933319568634033203125" lon="-3.48509098403155803680419921875">
        <ele>10</ele>
        <time>2026-05-09T11:09:26.000Z</time>
        <extensions>
          <ns3:TrackPointExtension>
            <ns3:atemp>16.0</ns3:atemp>
            <ns3:hr>66</ns3:hr>
          </ns3:TrackPointExtension>
        </extensions>
      </trkpt>
      <trkpt lat="48.8319588638842105865478515625" lon="-3.48509601317346096038818359375">
        <ele>9.80000019073486328125</ele>
        <time>2026-05-09T11:09:35.000Z</time>
        <extensions>
          <ns3:TrackPointExtension>
            <ns3:atemp>16.0</ns3:atemp>
            <ns3:hr>66</ns3:hr>
          </ns3:TrackPointExtension>
        </extensions>
      </trkpt>
      <trkpt lat="48.831944949924945831298828125" lon="-3.4850567020475864410400390625">
        <ele>9.6000003814697265625</ele>
        <time>2026-05-09T11:09:39.000Z</time>
        <extensions>
          <ns3:TrackPointExtension>
            <ns3:atemp>16.0</ns3:atemp>
            <ns3:hr>66</ns3:hr>
          </ns3:TrackPointExtension>
        </extensions>
      </trkpt>
      <trkpt lat="48.83193011395633220672607421875" lon="-3.4850339032709598541259765625">
        <ele>9.80000019073486328125</ele>
        <time>2026-05-09T11:09:41.000Z</time>
        <extensions>
          <ns3:TrackPointExtension>
            <ns3:atemp>16.0</ns3:atemp>
            <ns3:hr>66</ns3:hr>
          </ns3:TrackPointExtension>
        </extensions>
      </trkpt>
      <trkpt lat="48.83193313144147396087646484375" lon="-3.48496735095977783203125">
        <ele>10.19999980926513671875</ele>
        <time>2026-05-09T11:09:46.000Z</time>
        <extensions>
          <ns3:TrackPointExtension>
            <ns3:atemp>16.0</ns3:atemp>
            <ns3:hr>67</ns3:hr>
          </ns3:TrackPointExtension>
        </extensions>
      </trkpt>
      <trkpt lat="48.83194402791559696197509765625" lon="-3.48490708507597446441650390625">
        <ele>10.3999996185302734375</ele>
        <time>2026-05-09T11:09:51.000Z</time>
        <extensions>
          <ns3:TrackPointExtension>
            <ns3:atemp>16.0</ns3:atemp>
            <ns3:hr>67</ns3:hr>
          </ns3:TrackPointExtension>
        </extensions>
      </trkpt>
      <trkpt lat="48.83195257745683193206787109375" lon="-3.4848666004836559295654296875">
        <ele>10.3999996185302734375</ele>
        <time>2026-05-09T11:09:56.000Z</time>
        <extensions>
          <ns3:TrackPointExtension>
            <ns3:atemp>16.0</ns3:atemp>
            <ns3:hr>70</ns3:hr>
          </ns3:TrackPointExtension>
        </extensions>
      </trkpt>
      <trkpt lat="48.83195190690457820892333984375" lon="-3.4848464839160442352294921875">
        <ele>10.3999996185302734375</ele>
        <time>2026-05-09T11:09:58.000Z</time>
        <extensions>
          <ns3:TrackPointExtension>
            <ns3:atemp>16.0</ns3:atemp>
            <ns3:hr>71</ns3:hr>
          </ns3:TrackPointExtension>
        </extensions>
      </trkpt>
      <trkpt lat="48.8319568522274494171142578125" lon="-3.484873473644256591796875">
        <ele>10.19999980926513671875</ele>
        <time>2026-05-09T11:10:05.000Z</time>
        <extensions>
          <ns3:TrackPointExtension>
            <ns3:atemp>16.0</ns3:atemp>
            <ns3:hr>72</ns3:hr>
          </ns3:TrackPointExtension>
        </extensions>
      </trkpt>
      <trkpt lat="48.83195023052394390106201171875" lon="-3.48487280309200286865234375">
        <ele>10.6000003814697265625</ele>
        <time>2026-05-09T11:10:11.000Z</time>
        <extensions>
          <ns3:TrackPointExtension>
            <ns3:atemp>16.0</ns3:atemp>
            <ns3:hr>71</ns3:hr>
          </ns3:TrackPointExtension>
        </extensions>
      </trkpt>
      <trkpt lat="48.831963054835796356201171875" lon="-3.48487255163490772247314453125">
        <ele>10.3999996185302734375</ele>
        <time>2026-05-09T11:10:21.000Z</time>
        <extensions>
          <ns3:TrackPointExtension>
            <ns3:atemp>16.0</ns3:atemp>
            <ns3:hr>73</ns3:hr>
          </ns3:TrackPointExtension>
        </extensions>
      </trkpt>
      <trkpt lat="48.83195358328521251678466796875" lon="-3.484863750636577606201171875">
        <ele>10.6000003814697265625</ele>
        <time>2026-05-09T11:10:26.000Z</time>
        <extensions>
          <ns3:TrackPointExtension>
            <ns3:atemp>16.0</ns3:atemp>
            <ns3:hr>76</ns3:hr>
          </ns3:TrackPointExtension>
        </extensions>
      </trkpt>
      <trkpt lat="48.83192072622478008270263671875" lon="-3.4848505072295665740966796875">
        <ele>10.3999996185302734375</ele>
        <time>2026-05-09T11:10:30.000Z</time>
        <extensions>
          <ns3:TrackPointExtension>
            <ns3:atemp>16.0</ns3:atemp>
            <ns3:hr>77</ns3:hr>
          </ns3:TrackPointExtension>
        </extensions>
      </trkpt>
      <trkpt lat="48.83189423941075801849365234375" lon="-3.4848790057003498077392578125">
        <ele>10.6000003814697265625</ele>
        <time>2026-05-09T11:10:38.000Z</time>
        <extensions>
          <ns3:TrackPointExtension>
            <ns3:atemp>16.0</ns3:atemp>
            <ns3:hr>78</ns3:hr>
          </ns3:TrackPointExtension>
        </extensions>
      </trkpt>
      <trkpt lat="48.83190865628421306610107421875" lon="-3.48496693186461925506591796875">
        <ele>10.3999996185302734375</ele>
        <time>2026-05-09T11:10:44.000Z</time>
        <extensions>
          <ns3:TrackPointExtension>
            <ns3:atemp>16.0</ns3:atemp>
            <ns3:hr>77</ns3:hr>
          </ns3:TrackPointExtension>
        </extensions>
      </trkpt>
      <trkpt lat="48.8319285213947296142578125" lon="-3.48504848778247833251953125">
        <ele>10</ele>
        <time>2026-05-09T11:10:50.000Z</time>
        <extensions>
          <ns3:TrackPointExtension>
            <ns3:atemp>16.0</ns3:atemp>
            <ns3:hr>77</ns3:hr>
          </ns3:TrackPointExtension>
        </extensions>
      </trkpt>
      <trkpt lat="48.8319605402648448944091796875" lon="-3.4851411916315555572509765625">
        <ele>10.3999996185302734375</ele>
        <time>2026-05-09T11:10:58.000Z</time>
        <extensions>
          <ns3:TrackPointExtension>
            <ns3:atemp>16.0</ns3:atemp>
            <ns3:hr>76</ns3:hr>
          </ns3:TrackPointExtension>
        </extensions>
      </trkpt>
      <trkpt lat="48.83198878727853298187255859375" lon="-3.48523615859448909759521484375">
        <ele>10.3999996185302734375</ele>
        <time>2026-05-09T11:11:05.000Z</time>
        <extensions>
          <ns3:TrackPointExtension>
            <ns3:atemp>16.0</ns3:atemp>
            <ns3:hr>76</ns3:hr>
          </ns3:TrackPointExtension>
        </extensions>
      </trkpt>
      <trkpt lat="48.832018375396728515625" lon="-3.48535015247762203216552734375">
        <ele>9.80000019073486328125</ele>
        <time>2026-05-09T11:11:11.000Z</time>
        <extensions>
          <ns3:TrackPointExtension>
            <ns3:atemp>16.0</ns3:atemp>
            <ns3:hr>75</ns3:hr>
          </ns3:TrackPointExtension>
        </extensions>
      </trkpt>
      <trkpt lat="48.83207193575799465179443359375" lon="-3.48540212027728557586669921875">
        <ele>9.80000019073486328125</ele>
        <time>2026-05-09T11:11:17.000Z</time>
        <extensions>
          <ns3:TrackPointExtension>
            <ns3:atemp>16.0</ns3:atemp>
            <ns3:hr>76</ns3:hr>
          </ns3:TrackPointExtension>
        </extensions>
      </trkpt>
      <trkpt lat="48.8321301899850368499755859375" lon="-3.4854622185230255126953125">
        <ele>10</ele>
        <time>2026-05-09T11:11:23.000Z</time>
        <extensions>
          <ns3:TrackPointExtension>
            <ns3:atemp>16.0</ns3:atemp>
            <ns3:hr>76</ns3:hr>
          </ns3:TrackPointExtension>
        </extensions>
      </trkpt>
      <trkpt lat="48.83216966874897480010986328125" lon="-3.485546372830867767333984375">
        <ele>9.80000019073486328125</ele>
        <time>2026-05-09T11:11:30.000Z</time>
        <extensions>
          <ns3:TrackPointExtension>
            <ns3:atemp>16.0</ns3:atemp>
            <ns3:hr>75</ns3:hr>
          </ns3:TrackPointExtension>
        </extensions>
      </trkpt>
      <trkpt lat="48.83220420219004154205322265625" lon="-3.48563044331967830657958984375">
        <ele>9.3999996185302734375</ele>
        <time>2026-05-09T11:11:36.000Z</time>
        <extensions>
          <ns3:TrackPointExtension>
            <ns3:atemp>16.0</ns3:atemp>
            <ns3:hr>75</ns3:hr>
          </ns3:TrackPointExtension>
        </extensions>
      </trkpt>
      <trkpt lat="48.83221342228353023529052734375" lon="-3.48571275360882282257080078125">
        <ele>9.19999980926513671875</ele>
        <time>2026-05-09T11:11:41.000Z</time>
        <extensions>
          <ns3:TrackPointExtension>
            <ns3:atemp>16.0</ns3:atemp>
            <ns3:hr>74</ns3:hr>
          </ns3:TrackPointExtension>
        </extensions>
      </trkpt>
      <trkpt lat="48.83223370648920536041259765625" lon="-3.4857933036983013153076171875">
        <ele>8.80000019073486328125</ele>
        <time>2026-05-09T11:11:48.000Z</time>
        <extensions>
          <ns3:TrackPointExtension>
            <ns3:atemp>16.0</ns3:atemp>
            <ns3:hr>74</ns3:hr>
          </ns3:TrackPointExtension>
        </extensions>
      </trkpt>
      <trkpt lat="48.83225281722843647003173828125" lon="-3.4858010150492191314697265625">
        <ele>8.6000003814697265625</ele>
        <time>2026-05-09T11:11:56.000Z</time>
        <extensions>
          <ns3:TrackPointExtension>
            <ns3:atemp>16.0</ns3:atemp>
            <ns3:hr>73</ns3:hr>
          </ns3:TrackPointExtension>
        </extensions>
      </trkpt>
      <trkpt lat="48.8322549127042293548583984375" lon="-3.485800512135028839111328125">
        <ele>8.80000019073486328125</ele>
        <time>2026-05-09T11:12:02.000Z</time>
        <extensions>
          <ns3:TrackPointExtension>
            <ns3:atemp>16.0</ns3:atemp>
            <ns3:hr>73</ns3:hr>
          </ns3:TrackPointExtension>
        </extensions>
      </trkpt>
      <trkpt lat="48.83222515694797039031982421875" lon="-3.48583563230931758880615234375">
        <ele>8.80000019073486328125</ele>
        <time>2026-05-09T11:12:07.000Z</time>
        <extensions>
          <ns3:TrackPointExtension>
            <ns3:atemp>16.0</ns3:atemp>
            <ns3:hr>75</ns3:hr>
          </ns3:TrackPointExtension>
        </extensions>
      </trkpt>
      <trkpt lat="48.83220545947551727294921875" lon="-3.4859190322458744049072265625">
        <ele>8.80000019073486328125</ele>
        <time>2026-05-09T11:12:13.000Z</time>
        <extensions>
          <ns3:TrackPointExtension>
            <ns3:atemp>16.0</ns3:atemp>
            <ns3:hr>75</ns3:hr>
          </ns3:TrackPointExtension>
        </extensions>
      </trkpt>
      <trkpt lat="48.83220403455197811126708984375" lon="-3.48598985932767391204833984375">
        <ele>8.80000019073486328125</ele>
        <time>2026-05-09T11:12:20.000Z</time>
        <extensions>
          <ns3:TrackPointExtension>
            <ns3:atemp>17.0</ns3:atemp>
            <ns3:hr>73</ns3:hr>
          </ns3:TrackPointExtension>
        </extensions>
      </trkpt>
      <trkpt lat="48.8321781344711780548095703125" lon="-3.4860380552709102630615234375">
        <ele>8.6000003814697265625</ele>
        <time>2026-05-09T11:12:27.000Z</time>
        <extensions>
          <ns3:TrackPointExtension>
            <ns3:atemp>17.0</ns3:atemp>
            <ns3:hr>71</ns3:hr>
          </ns3:TrackPointExtension>
        </extensions>
      </trkpt>
      <trkpt lat="48.8321764580905437469482421875" lon="-3.48613503389060497283935546875">
        <ele>8.80000019073486328125</ele>
        <time>2026-05-09T11:12:34.000Z</time>
        <extensions>
          <ns3:TrackPointExtension>
            <ns3:atemp>17.0</ns3:atemp>
            <ns3:hr>69</ns3:hr>
          </ns3:TrackPointExtension>
        </extensions>
      </trkpt>
      <trkpt lat="48.83219632320106029510498046875" lon="-3.4861517138779163360595703125">
        <ele>8.80000019073486328125</ele>
        <time>2026-05-09T11:12:36.000Z</time>
        <extensions>
          <ns3:TrackPointExtension>
            <ns3:atemp>17.0</ns3:atemp>
            <ns3:hr>69</ns3:hr>
          </ns3:TrackPointExtension>
        </extensions>
      </trkpt>
      <trkpt lat="48.83222381584346294403076171875" lon="-3.48618767224252223968505859375">
        <ele>8.80000019073486328125</ele>
        <time>2026-05-09T11:12:39.000Z</time>
        <extensions>
          <ns3:TrackPointExtension>
            <ns3:atemp>17.0</ns3:atemp>
            <ns3:hr>69</ns3:hr>
          </ns3:TrackPointExtension>
        </extensions>
      </trkpt>
      <trkpt lat="48.83224996738135814666748046875" lon="-3.48625053651630878448486328125">
        <ele>8.6000003814697265625</ele>
        <time>2026-05-09T11:12:45.000Z</time>
        <extensions>
          <ns3:TrackPointExtension>
            <ns3:atemp>17.0</ns3:atemp>
            <ns3:hr>69</ns3:hr>
          </ns3:TrackPointExtension>
        </extensions>
      </trkpt>
      <trkpt lat="48.83225315250456333160400390625" lon="-3.48627568222582340240478515625">
        <ele>8.3999996185302734375</ele>
        <time>2026-05-09T11:12:47.000Z</time>
        <extensions>
          <ns3:TrackPointExtension>
            <ns3:atemp>17.0</ns3:atemp>
            <ns3:hr>69</ns3:hr>
          </ns3:TrackPointExtension>
        </extensions>
      </trkpt>
      <trkpt lat="48.832246027886867523193359375" lon="-3.48630644381046295166015625">
        <ele>8.3999996185302734375</ele>
        <time>2026-05-09T11:12:49.000Z</time>
        <extensions>
          <ns3:TrackPointExtension>
            <ns3:atemp>17.0</ns3:atemp>
            <ns3:hr>68</ns3:hr>
          </ns3:TrackPointExtension>
        </extensions>
      </trkpt>
      <trkpt lat="48.8322398252785205841064453125" lon="-3.48637442104518413543701171875">
        <ele>8.3999996185302734375</ele>
        <time>2026-05-09T11:12:52.000Z</time>
        <extensions>
          <ns3:TrackPointExtension>
            <ns3:atemp>17.0</ns3:atemp>
            <ns3:hr>68</ns3:hr>
          </ns3:TrackPointExtension>
        </extensions>
      </trkpt>
      <trkpt lat="48.83224778808653354644775390625" lon="-3.486379198729991912841796875">
        <ele>8.3999996185302734375</ele>
        <time>2026-05-09T11:12:54.000Z</time>
        <extensions>
          <ns3:TrackPointExtension>
            <ns3:atemp>17.0</ns3:atemp>
            <ns3:hr>67</ns3:hr>
          </ns3:TrackPointExtension>
        </extensions>
      </trkpt>
      <trkpt lat="48.83224611170589923858642578125" lon="-3.48637693561613559722900390625">
        <ele>8.3999996185302734375</ele>
        <time>2026-05-09T11:13:02.000Z</time>
        <extensions>
          <ns3:TrackPointExtension>
            <ns3:atemp>17.0</ns3:atemp>
            <ns3:hr>70</ns3:hr>
          </ns3:TrackPointExtension>
        </extensions>
      </trkpt>
      <trkpt lat="48.832245357334613800048828125" lon="-3.48637727089226245880126953125">
        <ele>8.3999996185302734375</ele>
        <time>2026-05-09T11:13:03.000Z</time>
        <extensions>
          <ns3:TrackPointExtension>
            <ns3:atemp>17.0</ns3:atemp>
            <ns3:hr>70</ns3:hr>
          </ns3:TrackPointExtension>
        </extensions>
      </trkpt>
      <trkpt lat="48.832276873290538787841796875" lon="-3.48637710325419902801513671875">
        <ele>8.6000003814697265625</ele>
        <time>2026-05-09T11:13:17.000Z</time>
        <extensions>
          <ns3:TrackPointExtension>
            <ns3:atemp>17.0</ns3:atemp>
            <ns3:hr>68</ns3:hr>
          </ns3:TrackPointExtension>
        </extensions>
      </trkpt>
      <trkpt lat="48.83229933679103851318359375" lon="-3.48635648377239704132080078125">
        <ele>8.3999996185302734375</ele>
        <time>2026-05-09T11:13:24.000Z</time>
        <extensions>
          <ns3:TrackPointExtension>
            <ns3:atemp>17.0</ns3:atemp>
            <ns3:hr>65</ns3:hr>
          </ns3:TrackPointExtension>
        </extensions>
      </trkpt>
      <trkpt lat="48.83229623548686504364013671875" lon="-3.48635413683950901031494140625">
        <ele>8.3999996185302734375</ele>
        <time>2026-05-09T11:13:26.000Z</time>
        <extensions>
          <ns3:TrackPointExtension>
            <ns3:atemp>17.0</ns3:atemp>
            <ns3:hr>62</ns3:hr>
          </ns3:TrackPointExtension>
        </extensions>
      </trkpt>
      <trkpt lat="48.83229539729654788970947265625" lon="-3.48635380156338214874267578125">
        <ele>8.3999996185302734375</ele>
        <time>2026-05-09T11:13:27.000Z</time>
        <extensions>
          <ns3:TrackPointExtension>
            <ns3:atemp>17.0</ns3:atemp>
            <ns3:hr>62</ns3:hr>
          </ns3:TrackPointExtension>
        </extensions>
      </trkpt>
      <trkpt lat="48.83230126462876796722412109375" lon="-3.48630803637206554412841796875">
        <ele>8.3999996185302734375</ele>
        <time>2026-05-09T11:13:38.000Z</time>
        <extensions>
          <ns3:TrackPointExtension>
            <ns3:atemp>17.0</ns3:atemp>
            <ns3:hr>62</ns3:hr>
          </ns3:TrackPointExtension>
        </extensions>
      </trkpt>
      <trkpt lat="48.832278214395046234130859375" lon="-3.48624131642282009124755859375">
        <ele>8.3999996185302734375</ele>
        <time>2026-05-09T11:13:49.000Z</time>
        <extensions>
          <ns3:TrackPointExtension>
            <ns3:atemp>17.0</ns3:atemp>
            <ns3:hr>62</ns3:hr>
          </ns3:TrackPointExtension>
        </extensions>
      </trkpt>
      <trkpt lat="48.832319118082523345947265625" lon="-3.48624500446021556854248046875">
        <ele>8.19999980926513671875</ele>
        <time>2026-05-09T11:13:56.000Z</time>
        <extensions>
          <ns3:TrackPointExtension>
            <ns3:atemp>17.0</ns3:atemp>
            <ns3:hr>63</ns3:hr>
          </ns3:TrackPointExtension>
        </extensions>
      </trkpt>
      <trkpt lat="48.83234091103076934814453125" lon="-3.4862536378204822540283203125">
        <ele>8.3999996185302734375</ele>
        <time>2026-05-09T11:13:58.000Z</time>
        <extensions>
          <ns3:TrackPointExtension>
            <ns3:atemp>17.0</ns3:atemp>
            <ns3:hr>64</ns3:hr>
          </ns3:TrackPointExtension>
        </extensions>
      </trkpt>
      <trkpt lat="48.83238114416599273681640625" lon="-3.48625774495303630828857421875">
        <ele>8</ele>
        <time>2026-05-09T11:14:02.000Z</time>
        <extensions>
          <ns3:TrackPointExtension>
            <ns3:atemp>17.0</ns3:atemp>
            <ns3:hr>65</ns3:hr>
          </ns3:TrackPointExtension>
        </extensions>
      </trkpt>
      <trkpt lat="48.83238726295530796051025390625" lon="-3.48625372163951396942138671875">
        <ele>8.19999980926513671875</ele>
        <time>2026-05-09T11:14:06.000Z</time>
        <extensions>
          <ns3:TrackPointExtension>
            <ns3:atemp>17.0</ns3:atemp>
            <ns3:hr>65</ns3:hr>
          </ns3:TrackPointExtension>
        </extensions>
      </trkpt>
      <trkpt lat="48.8323871791362762451171875" lon="-3.48625439219176769256591796875">
        <ele>8.19999980926513671875</ele>
        <time>2026-05-09T11:14:08.000Z</time>
        <extensions>
          <ns3:TrackPointExtension>
            <ns3:atemp>17.0</ns3:atemp>
            <ns3:hr>65</ns3:hr>
          </ns3:TrackPointExtension>
        </extensions>
      </trkpt>
      <trkpt lat="48.83242665790021419525146484375" lon="-3.4862740896642208099365234375">
        <ele>8.19999980926513671875</ele>
        <time>2026-05-09T11:14:13.000Z</time>
        <extensions>
          <ns3:TrackPointExtension>
            <ns3:atemp>17.0</ns3:atemp>
            <ns3:hr>66</ns3:hr>
          </ns3:TrackPointExtension>
        </extensions>
      </trkpt>
      <trkpt lat="48.83248197846114635467529296875" lon="-3.486300073564052581787109375">
        <ele>8.19999980926513671875</ele>
        <time>2026-05-09T11:14:19.000Z</time>
        <extensions>
          <ns3:TrackPointExtension>
            <ns3:atemp>17.0</ns3:atemp>
            <ns3:hr>66</ns3:hr>
          </ns3:TrackPointExtension>
        </extensions>
      </trkpt>
      <trkpt lat="48.8325462676584720611572265625" lon="-3.4862972237169742584228515625">
        <ele>8</ele>
        <time>2026-05-09T11:14:26.000Z</time>
        <extensions>
          <ns3:TrackPointExtension>
            <ns3:atemp>17.0</ns3:atemp>
            <ns3:hr>65</ns3:hr>
          </ns3:TrackPointExtension>
        </extensions>
      </trkpt>
      <trkpt lat="48.8326344452798366546630859375" lon="-3.486262857913970947265625">
        <ele>8.19999980926513671875</ele>
        <time>2026-05-09T11:14:33.000Z</time>
        <extensions>
          <ns3:TrackPointExtension>
            <ns3:atemp>17.0</ns3:atemp>
            <ns3:hr>65</ns3:hr>
          </ns3:TrackPointExtension>
        </extensions>
      </trkpt>
      <trkpt lat="48.8327192701399326324462890625" lon="-3.48624031059443950653076171875">
        <ele>8</ele>
        <time>2026-05-09T11:14:41.000Z</time>
        <extensions>
          <ns3:TrackPointExtension>
            <ns3:atemp>17.0</ns3:atemp>
            <ns3:hr>66</ns3:hr>
          </ns3:TrackPointExtension>
        </extensions>
      </trkpt>
      <trkpt lat="48.8327492773532867431640625" lon="-3.48622790537774562835693359375">
        <ele>7.80000019073486328125</ele>
        <time>2026-05-09T11:14:47.000Z</time>
        <extensions>
          <ns3:TrackPointExtension>
            <ns3:atemp>17.0</ns3:atemp>
            <ns3:hr>67</ns3:hr>
          </ns3:TrackPointExtension>
        </extensions>
      </trkpt>
      <trkpt lat="48.832753635942935943603515625" lon="-3.48622019402682781219482421875">
        <ele>8.19999980926513671875</ele>
        <time>2026-05-09T11:14:58.000Z</time>
        <extensions>
          <ns3:TrackPointExtension>
            <ns3:atemp>17.0</ns3:atemp>
            <ns3:hr>69</ns3:hr>
          </ns3:TrackPointExtension>
        </extensions>
      </trkpt>
      <trkpt lat="48.8327685557305812835693359375" lon="-3.48621030338108539581298828125">
        <ele>7.80000019073486328125</ele>
        <time>2026-05-09T11:15:05.000Z</time>
        <extensions>
          <ns3:TrackPointExtension>
            <ns3:atemp>17.0</ns3:atemp>
            <ns3:hr>69</ns3:hr>
          </ns3:TrackPointExtension>
        </extensions>
      </trkpt>
      <trkpt lat="48.83286151103675365447998046875" lon="-3.48618146963417530059814453125">
        <ele>7.599999904632568359375</ele>
        <time>2026-05-09T11:15:14.000Z</time>
        <extensions>
          <ns3:TrackPointExtension>
            <ns3:atemp>17.0</ns3:atemp>
            <ns3:hr>69</ns3:hr>
          </ns3:TrackPointExtension>
        </extensions>
      </trkpt>
      <trkpt lat="48.83290073834359645843505859375" lon="-3.48618297837674617767333984375">
        <ele>7.80000019073486328125</ele>
        <time>2026-05-09T11:15:18.000Z</time>
        <extensions>
          <ns3:TrackPointExtension>
            <ns3:atemp>17.0</ns3:atemp>
            <ns3:hr>72</ns3:hr>
          </ns3:TrackPointExtension>
        </extensions>
      </trkpt>
      <trkpt lat="48.83290995843708515167236328125" lon="-3.48618037998676300048828125">
        <ele>8</ele>
        <time>2026-05-09T11:15:19.000Z</time>
        <extensions>
          <ns3:TrackPointExtension>
            <ns3:atemp>17.0</ns3:atemp>
            <ns3:hr>75</ns3:hr>
          </ns3:TrackPointExtension>
        </extensions>
      </trkpt>
      <trkpt lat="48.83292965590953826904296875" lon="-3.48617459647357463836669921875">
        <ele>8.19999980926513671875</ele>
        <time>2026-05-09T11:15:21.000Z</time>
        <extensions>
          <ns3:TrackPointExtension>
            <ns3:atemp>17.0</ns3:atemp>
            <ns3:hr>76</ns3:hr>
          </ns3:TrackPointExtension>
        </extensions>
      </trkpt>
      <trkpt lat="48.833000399172306060791015625" lon="-3.4861570782959461212158203125">
        <ele>8.3999996185302734375</ele>
        <time>2026-05-09T11:15:28.000Z</time>
        <extensions>
          <ns3:TrackPointExtension>
            <ns3:atemp>17.0</ns3:atemp>
            <ns3:hr>76</ns3:hr>
          </ns3:TrackPointExtension>
        </extensions>
      </trkpt>
      <trkpt lat="48.833075501024723052978515625" lon="-3.4861627779901027679443359375">
        <ele>7.599999904632568359375</ele>
        <time>2026-05-09T11:15:35.000Z</time>
        <extensions>
          <ns3:TrackPointExtension>
            <ns3:atemp>17.0</ns3:atemp>
            <ns3:hr>77</ns3:hr>
          </ns3:TrackPointExtension>
        </extensions>
      </trkpt>
      <trkpt lat="48.83311875164508819580078125" lon="-3.48616302944719791412353515625">
        <ele>7.400000095367431640625</ele>
        <time>2026-05-09T11:15:38.000Z</time>
        <extensions>
          <ns3:TrackPointExtension>
            <ns3:atemp>17.0</ns3:atemp>
            <ns3:hr>76</ns3:hr>
          </ns3:TrackPointExtension>
        </extensions>
      </trkpt>
      <trkpt lat="48.8331366889178752899169921875" lon="-3.486170656979084014892578125">
        <ele>6.80000019073486328125</ele>
        <time>2026-05-09T11:15:41.000Z</time>
        <extensions>
          <ns3:TrackPointExtension>
            <ns3:atemp>17.0</ns3:atemp>
            <ns3:hr>74</ns3:hr>
          </ns3:TrackPointExtension>
        </extensions>
      </trkpt>
      <trkpt lat="48.833151943981647491455078125" lon="-3.486168645322322845458984375">
        <ele>6.80000019073486328125</ele>
        <time>2026-05-09T11:15:48.000Z</time>
        <extensions>
          <ns3:TrackPointExtension>
            <ns3:atemp>17.0</ns3:atemp>
            <ns3:hr>72</ns3:hr>
          </ns3:TrackPointExtension>
        </extensions>
      </trkpt>
      <trkpt lat="48.83318454958498477935791015625" lon="-3.48614961840212345123291015625">
        <ele>6.80000019073486328125</ele>
        <time>2026-05-09T11:15:56.000Z</time>
        <extensions>
          <ns3:TrackPointExtension>
            <ns3:atemp>17.0</ns3:atemp>
            <ns3:hr>74</ns3:hr>
          </ns3:TrackPointExtension>
        </extensions>
      </trkpt>
      <trkpt lat="48.833286724984645843505859375" lon="-3.48614542745053768157958984375">
        <ele>7.80000019073486328125</ele>
        <time>2026-05-09T11:16:06.000Z</time>
        <extensions>
          <ns3:TrackPointExtension>
            <ns3:atemp>17.0</ns3:atemp>
            <ns3:hr>75</ns3:hr>
          </ns3:TrackPointExtension>
        </extensions>
      </trkpt>
      <trkpt lat="48.83332335390150547027587890625" lon="-3.4861379675567150115966796875">
        <ele>8.19999980926513671875</ele>
        <time>2026-05-09T11:16:11.000Z</time>
        <extensions>
          <ns3:TrackPointExtension>
            <ns3:atemp>17.0</ns3:atemp>
            <ns3:hr>71</ns3:hr>
          </ns3:TrackPointExtension>
        </extensions>
      </trkpt>
      <trkpt lat="48.83332687430083751678466796875" lon="-3.486131764948368072509765625">
        <ele>8.19999980926513671875</ele>
        <time>2026-05-09T11:16:12.000Z</time>
        <extensions>
          <ns3:TrackPointExtension>
            <ns3:atemp>17.0</ns3:atemp>
            <ns3:hr>70</ns3:hr>
          </ns3:TrackPointExtension>
        </extensions>
      </trkpt>
      <trkpt lat="48.8333328254520893096923828125" lon="-3.486129082739353179931640625">
        <ele>8.19999980926513671875</ele>
        <time>2026-05-09T11:16:13.000Z</time>
        <extensions>
          <ns3:TrackPointExtension>
            <ns3:atemp>17.0</ns3:atemp>
            <ns3:hr>69</ns3:hr>
          </ns3:TrackPointExtension>
        </extensions>
      </trkpt>
      <trkpt lat="48.8333499245345592498779296875" lon="-3.48612313158810138702392578125">
        <ele>8.19999980926513671875</ele>
        <time>2026-05-09T11:16:17.000Z</time>
        <extensions>
          <ns3:TrackPointExtension>
            <ns3:atemp>18.0</ns3:atemp>
            <ns3:hr>67</ns3:hr>
          </ns3:TrackPointExtension>
        </extensions>
      </trkpt>
      <trkpt lat="48.83335621096193790435791015625" lon="-3.48612547852098941802978515625">
        <ele>8.19999980926513671875</ele>
        <time>2026-05-09T11:16:19.000Z</time>
        <extensions>
          <ns3:TrackPointExtension>
            <ns3:atemp>18.0</ns3:atemp>
            <ns3:hr>67</ns3:hr>
          </ns3:TrackPointExtension>
        </extensions>
      </trkpt>
      <trkpt lat="48.83343600668013095855712890625" lon="-3.4861798770725727081298828125">
        <ele>8.3999996185302734375</ele>
        <time>2026-05-09T11:16:26.000Z</time>
        <extensions>
          <ns3:TrackPointExtension>
            <ns3:atemp>18.0</ns3:atemp>
            <ns3:hr>67</ns3:hr>
          </ns3:TrackPointExtension>
        </extensions>
      </trkpt>
      <trkpt lat="48.83347573690116405487060546875" lon="-3.48622388206422328948974609375">
        <ele>8.6000003814697265625</ele>
        <time>2026-05-09T11:16:32.000Z</time>
        <extensions>
          <ns3:TrackPointExtension>
            <ns3:atemp>18.0</ns3:atemp>
            <ns3:hr>67</ns3:hr>
          </ns3:TrackPointExtension>
        </extensions>
      </trkpt>
      <trkpt lat="48.83357606828212738037109375" lon="-3.486290685832500457763671875">
        <ele>9.3999996185302734375</ele>
        <time>2026-05-09T11:16:41.000Z</time>
        <extensions>
          <ns3:TrackPointExtension>
            <ns3:atemp>18.0</ns3:atemp>
            <ns3:hr>69</ns3:hr>
          </ns3:TrackPointExtension>
        </extensions>
      </trkpt>
      <trkpt lat="48.83358671329915523529052734375" lon="-3.48629848100244998931884765625">
        <ele>9.6000003814697265625</ele>
        <time>2026-05-09T11:16:42.000Z</time>
        <extensions>
          <ns3:TrackPointExtension>
            <ns3:atemp>18.0</ns3:atemp>
            <ns3:hr>70</ns3:hr>
          </ns3:TrackPointExtension>
        </extensions>
      </trkpt>
      <trkpt lat="48.83363633416593074798583984375" lon="-3.48634240217506885528564453125">
        <ele>9.80000019073486328125</ele>
        <time>2026-05-09T11:16:47.000Z</time>
        <extensions>
          <ns3:TrackPointExtension>
            <ns3:atemp>18.0</ns3:atemp>
            <ns3:hr>73</ns3:hr>
          </ns3:TrackPointExtension>
        </extensions>
      </trkpt>
      <trkpt lat="48.83371965028345584869384765625" lon="-3.4864038415253162384033203125">
        <ele>10</ele>
        <time>2026-05-09T11:16:55.000Z</time>
        <extensions>
          <ns3:TrackPointExtension>
            <ns3:atemp>18.0</ns3:atemp>
            <ns3:hr>74</ns3:hr>
          </ns3:TrackPointExtension>
        </extensions>
      </trkpt>
      <trkpt lat="48.8337945006787776947021484375" lon="-3.48640241660177707672119140625">
        <ele>10.6000003814697265625</ele>
        <time>2026-05-09T11:17:02.000Z</time>
        <extensions>
          <ns3:TrackPointExtension>
            <ns3:atemp>18.0</ns3:atemp>
            <ns3:hr>73</ns3:hr>
          </ns3:TrackPointExtension>
        </extensions>
      </trkpt>
      <trkpt lat="48.83380212821066379547119140625" lon="-3.48638959228992462158203125">
        <ele>10.6000003814697265625</ele>
        <time>2026-05-09T11:17:03.000Z</time>
        <extensions>
          <ns3:TrackPointExtension>
            <ns3:atemp>18.0</ns3:atemp>
            <ns3:hr>73</ns3:hr>
          </ns3:TrackPointExtension>
        </extensions>
      </trkpt>
      <trkpt lat="48.8338007032871246337890625" lon="-3.48638288676738739013671875">
        <ele>10.80000019073486328125</ele>
        <time>2026-05-09T11:17:09.000Z</time>
        <extensions>
          <ns3:TrackPointExtension>
            <ns3:atemp>18.0</ns3:atemp>
            <ns3:hr>75</ns3:hr>
          </ns3:TrackPointExtension>
        </extensions>
      </trkpt>
      <trkpt lat="48.83379240520298480987548828125" lon="-3.48635631613433361053466796875">
        <ele>10.80000019073486328125</ele>
        <time>2026-05-09T11:17:17.000Z</time>
        <extensions>
          <ns3:TrackPointExtension>
            <ns3:atemp>18.0</ns3:atemp>
            <ns3:hr>75</ns3:hr>
          </ns3:TrackPointExtension>
        </extensions>
      </trkpt>
      <trkpt lat="48.83380447514355182647705078125" lon="-3.48635531030595302581787109375">
        <ele>11</ele>
        <time>2026-05-09T11:17:25.000Z</time>
        <extensions>
          <ns3:TrackPointExtension>
            <ns3:atemp>18.0</ns3:atemp>
            <ns3:hr>74</ns3:hr>
          </ns3:TrackPointExtension>
        </extensions>
      </trkpt>
      <trkpt lat="48.8338421098887920379638671875" lon="-3.486302755773067474365234375">
        <ele>11.6000003814697265625</ele>
        <time>2026-05-09T11:17:30.000Z</time>
        <extensions>
          <ns3:TrackPointExtension>
            <ns3:atemp>18.0</ns3:atemp>
            <ns3:hr>74</ns3:hr>
          </ns3:TrackPointExtension>
        </extensions>
      </trkpt>
      <trkpt lat="48.83385795168578624725341796875" lon="-3.48627769388258457183837890625">
        <ele>11.80000019073486328125</ele>
        <time>2026-05-09T11:17:32.000Z</time>
        <extensions>
          <ns3:TrackPointExtension>
            <ns3:atemp>18.0</ns3:atemp>
            <ns3:hr>73</ns3:hr>
          </ns3:TrackPointExtension>
        </extensions>
      </trkpt>
      <trkpt lat="48.833903633058071136474609375" lon="-3.48616671748459339141845703125">
        <ele>12.80000019073486328125</ele>
        <time>2026-05-09T11:17:40.000Z</time>
        <extensions>
          <ns3:TrackPointExtension>
            <ns3:atemp>18.0</ns3:atemp>
            <ns3:hr>71</ns3:hr>
          </ns3:TrackPointExtension>
        </extensions>
      </trkpt>
      <trkpt lat="48.83391444571316242218017578125" lon="-3.48614685237407684326171875">
        <ele>13.19999980926513671875</ele>
        <time>2026-05-09T11:17:42.000Z</time>
        <extensions>
          <ns3:TrackPointExtension>
            <ns3:atemp>18.0</ns3:atemp>
            <ns3:hr>72</ns3:hr>
          </ns3:TrackPointExtension>
        </extensions>
      </trkpt>
      <trkpt lat="48.83393154479563236236572265625" lon="-3.48611600697040557861328125">
        <ele>13.80000019073486328125</ele>
        <time>2026-05-09T11:17:46.000Z</time>
        <extensions>
          <ns3:TrackPointExtension>
            <ns3:atemp>18.0</ns3:atemp>
            <ns3:hr>71</ns3:hr>
          </ns3:TrackPointExtension>
        </extensions>
      </trkpt>
      <trkpt lat="48.83394596166908740997314453125" lon="-3.48607736639678478240966796875">
        <ele>14.19999980926513671875</ele>
        <time>2026-05-09T11:17:49.000Z</time>
        <extensions>
          <ns3:TrackPointExtension>
            <ns3:atemp>18.0</ns3:atemp>
            <ns3:hr>71</ns3:hr>
          </ns3:TrackPointExtension>
        </extensions>
      </trkpt>
      <trkpt lat="48.83397638797760009765625" lon="-3.4859959781169891357421875">
        <ele>14.80000019073486328125</ele>
        <time>2026-05-09T11:17:54.000Z</time>
        <extensions>
          <ns3:TrackPointExtension>
            <ns3:atemp>18.0</ns3:atemp>
            <ns3:hr>70</ns3:hr>
          </ns3:TrackPointExtension>
        </extensions>
      </trkpt>
      <trkpt lat="48.83400161750614643096923828125" lon="-3.4859267435967922210693359375">
        <ele>15.3999996185302734375</ele>
        <time>2026-05-09T11:17:58.000Z</time>
        <extensions>
          <ns3:TrackPointExtension>
            <ns3:atemp>18.0</ns3:atemp>
            <ns3:hr>70</ns3:hr>
          </ns3:TrackPointExtension>
        </extensions>
      </trkpt>
      <trkpt lat="48.834045119583606719970703125" lon="-3.4858063794672489166259765625">
        <ele>16</ele>
        <time>2026-05-09T11:18:05.000Z</time>
        <extensions>
          <ns3:TrackPointExtension>
            <ns3:atemp>18.0</ns3:atemp>
            <ns3:hr>72</ns3:hr>
          </ns3:TrackPointExtension>
        </extensions>
      </trkpt>
      <trkpt lat="48.83406079374253749847412109375" lon="-3.4857591055333614349365234375">
        <ele>16</ele>
        <time>2026-05-09T11:18:08.000Z</time>
        <extensions>
          <ns3:TrackPointExtension>
            <ns3:atemp>18.0</ns3:atemp>
            <ns3:hr>74</ns3:hr>
          </ns3:TrackPointExtension>
        </extensions>
      </trkpt>
      <trkpt lat="48.83410622365772724151611328125" lon="-3.485639579594135284423828125">
        <ele>16.3999996185302734375</ele>
        <time>2026-05-09T11:18:17.000Z</time>
        <extensions>
          <ns3:TrackPointExtension>
            <ns3:atemp>18.0</ns3:atemp>
            <ns3:hr>77</ns3:hr>
          </ns3:TrackPointExtension>
        </extensions>
      </trkpt>
      <trkpt lat="48.834112845361232757568359375" lon="-3.48562809638679027557373046875">
        <ele>16.6000003814697265625</ele>
        <time>2026-05-09T11:18:18.000Z</time>
        <extensions>
          <ns3:TrackPointExtension>
            <ns3:atemp>18.0</ns3:atemp>
            <ns3:hr>77</ns3:hr>
          </ns3:TrackPointExtension>
        </extensions>
      </trkpt>
      <trkpt lat="48.8341532461345195770263671875" lon="-3.4855549223721027374267578125">
        <ele>17</ele>
        <time>2026-05-09T11:18:24.000Z</time>
        <extensions>
          <ns3:TrackPointExtension>
            <ns3:atemp>18.0</ns3:atemp>
            <ns3:hr>80</ns3:hr>
          </ns3:TrackPointExtension>
        </extensions>
      </trkpt>
      <trkpt lat="48.8341847620904445648193359375" lon="-3.48551728762686252593994140625">
        <ele>17.200000762939453125</ele>
        <time>2026-05-09T11:18:27.000Z</time>
        <extensions>
          <ns3:TrackPointExtension>
            <ns3:atemp>18.0</ns3:atemp>
            <ns3:hr>81</ns3:hr>
          </ns3:TrackPointExtension>
        </extensions>
      </trkpt>
      <trkpt lat="48.83425391279160976409912109375" lon="-3.485453836619853973388671875">
        <ele>17.799999237060546875</ele>
        <time>2026-05-09T11:18:33.000Z</time>
        <extensions>
          <ns3:TrackPointExtension>
            <ns3:atemp>18.0</ns3:atemp>
            <ns3:hr>84</ns3:hr>
          </ns3:TrackPointExtension>
        </extensions>
      </trkpt>
      <trkpt lat="48.83428894914686679840087890625" lon="-3.4854204766452312469482421875">
        <ele>18</ele>
        <time>2026-05-09T11:18:37.000Z</time>
        <extensions>
          <ns3:TrackPointExtension>
            <ns3:atemp>18.0</ns3:atemp>
            <ns3:hr>86</ns3:hr>
          </ns3:TrackPointExtension>
        </extensions>
      </trkpt>
      <trkpt lat="48.83433647453784942626953125" lon="-3.48535635508596897125244140625">
        <ele>18</ele>
        <time>2026-05-09T11:18:43.000Z</time>
        <extensions>
          <ns3:TrackPointExtension>
            <ns3:atemp>18.0</ns3:atemp>
            <ns3:hr>87</ns3:hr>
          </ns3:TrackPointExtension>
        </extensions>
      </trkpt>
      <trkpt lat="48.83435348980128765106201171875" lon="-3.48533489741384983062744140625">
        <ele>18.3999996185302734375</ele>
        <time>2026-05-09T11:18:45.000Z</time>
        <extensions>
          <ns3:TrackPointExtension>
            <ns3:atemp>18.0</ns3:atemp>
            <ns3:hr>88</ns3:hr>
          </ns3:TrackPointExtension>
        </extensions>
      </trkpt>
      <trkpt lat="48.83446027524769306182861328125" lon="-3.48529818467795848846435546875">
        <ele>19</ele>
        <time>2026-05-09T11:18:54.000Z</time>
        <extensions>
          <ns3:TrackPointExtension>
            <ns3:atemp>18.0</ns3:atemp>
            <ns3:hr>89</ns3:hr>
          </ns3:TrackPointExtension>
        </extensions>
      </trkpt>
      <trkpt lat="48.83455239236354827880859375" lon="-3.48534218966960906982421875">
        <ele>18.6000003814697265625</ele>
        <time>2026-05-09T11:19:03.000Z</time>
        <extensions>
          <ns3:TrackPointExtension>
            <ns3:atemp>18.0</ns3:atemp>
            <ns3:hr>88</ns3:hr>
          </ns3:TrackPointExtension>
        </extensions>
      </trkpt>
      <trkpt lat="48.83462942205369472503662109375" lon="-3.48537839949131011962890625">
        <ele>19.200000762939453125</ele>
        <time>2026-05-09T11:19:09.000Z</time>
        <extensions>
          <ns3:TrackPointExtension>
            <ns3:atemp>18.0</ns3:atemp>
            <ns3:hr>86</ns3:hr>
          </ns3:TrackPointExtension>
        </extensions>
      </trkpt>
      <trkpt lat="48.83466563187539577484130859375" lon="-3.4853869490325450897216796875">
        <ele>19.3999996185302734375</ele>
        <time>2026-05-09T11:19:12.000Z</time>
        <extensions>
          <ns3:TrackPointExtension>
            <ns3:atemp>18.0</ns3:atemp>
            <ns3:hr>86</ns3:hr>
          </ns3:TrackPointExtension>
        </extensions>
      </trkpt>
      <trkpt lat="48.83479203097522258758544921875" lon="-3.4853557683527469635009765625">
        <ele>19.200000762939453125</ele>
        <time>2026-05-09T11:19:22.000Z</time>
        <extensions>
          <ns3:TrackPointExtension>
            <ns3:atemp>18.0</ns3:atemp>
            <ns3:hr>87</ns3:hr>
          </ns3:TrackPointExtension>
        </extensions>
      </trkpt>
      <trkpt lat="48.8349119760096073150634765625" lon="-3.4852924011647701263427734375">
        <ele>18.3999996185302734375</ele>
        <time>2026-05-09T11:19:32.000Z</time>
        <extensions>
          <ns3:TrackPointExtension>
            <ns3:atemp>18.0</ns3:atemp>
            <ns3:hr>86</ns3:hr>
          </ns3:TrackPointExtension>
        </extensions>
      </trkpt>
      <trkpt lat="48.83498766459524631500244140625" lon="-3.48525309003889560699462890625">
        <ele>18.6000003814697265625</ele>
        <time>2026-05-09T11:19:38.000Z</time>
        <extensions>
          <ns3:TrackPointExtension>
            <ns3:atemp>18.0</ns3:atemp>
            <ns3:hr>83</ns3:hr>
          </ns3:TrackPointExtension>
        </extensions>
      </trkpt>
      <trkpt lat="48.8350326754152774810791015625" lon="-3.48522484302520751953125">
        <ele>18.3999996185302734375</ele>
        <time>2026-05-09T11:19:42.000Z</time>
        <extensions>
          <ns3:TrackPointExtension>
            <ns3:atemp>18.0</ns3:atemp>
            <ns3:hr>82</ns3:hr>
          </ns3:TrackPointExtension>
        </extensions>
      </trkpt>
      <trkpt lat="48.83508891798555850982666015625" lon="-3.485209755599498748779296875">
        <ele>18</ele>
        <time>2026-05-09T11:19:47.000Z</time>
        <extensions>
          <ns3:TrackPointExtension>
            <ns3:atemp>18.0</ns3:atemp>
            <ns3:hr>82</ns3:hr>
          </ns3:TrackPointExtension>
        </extensions>
      </trkpt>
      <trkpt lat="48.83509445004165172576904296875" lon="-3.48521352745592594146728515625">
        <ele>17.6000003814697265625</ele>
        <time>2026-05-09T11:19:50.000Z</time>
        <extensions>
          <ns3:TrackPointExtension>
            <ns3:atemp>18.0</ns3:atemp>
            <ns3:hr>82</ns3:hr>
          </ns3:TrackPointExtension>
        </extensions>
      </trkpt>
      <trkpt lat="48.8351040892302989959716796875" lon="-3.48524135537445545196533203125">
        <ele>17.3999996185302734375</ele>
        <time>2026-05-09T11:20:00.000Z</time>
        <extensions>
          <ns3:TrackPointExtension>
            <ns3:atemp>18.0</ns3:atemp>
            <ns3:hr>80</ns3:hr>
          </ns3:TrackPointExtension>
        </extensions>
      </trkpt>
      <trkpt lat="48.83510350249707698822021484375" lon="-3.48521612584590911865234375">
        <ele>17.6000003814697265625</ele>
        <time>2026-05-09T11:20:10.000Z</time>
        <extensions>
          <ns3:TrackPointExtension>
            <ns3:atemp>18.0</ns3:atemp>
            <ns3:hr>78</ns3:hr>
          </ns3:TrackPointExtension>
        </extensions>
      </trkpt>
      <trkpt lat="48.83510090410709381103515625" lon="-3.4852250106632709503173828125">
        <ele>17.3999996185302734375</ele>
        <time>2026-05-09T11:20:19.000Z</time>
        <extensions>
          <ns3:TrackPointExtension>
            <ns3:atemp>17.0</ns3:atemp>
            <ns3:hr>77</ns3:hr>
          </ns3:TrackPointExtension>
        </extensions>
      </trkpt>
      <trkpt lat="48.8351230323314666748046875" lon="-3.48522643558681011199951171875">
        <ele>17.3999996185302734375</ele>
        <time>2026-05-09T11:20:28.000Z</time>
        <extensions>
          <ns3:TrackPointExtension>
            <ns3:atemp>17.0</ns3:atemp>
            <ns3:hr>76</ns3:hr>
          </ns3:TrackPointExtension>
        </extensions>
      </trkpt>
      <trkpt lat="48.83520727045834064483642578125" lon="-3.485220484435558319091796875">
        <ele>17.200000762939453125</ele>
        <time>2026-05-09T11:20:36.000Z</time>
        <extensions>
          <ns3:TrackPointExtension>
            <ns3:atemp>17.0</ns3:atemp>
            <ns3:hr>75</ns3:hr>
          </ns3:TrackPointExtension>
        </extensions>
      </trkpt>
      <trkpt lat="48.8353054225444793701171875" lon="-3.48526130430400371551513671875">
        <ele>17.3999996185302734375</ele>
        <time>2026-05-09T11:20:44.000Z</time>
        <extensions>
          <ns3:TrackPointExtension>
            <ns3:atemp>17.0</ns3:atemp>
            <ns3:hr>76</ns3:hr>
          </ns3:TrackPointExtension>
        </extensions>
      </trkpt>
      <trkpt lat="48.835329227149486541748046875" lon="-3.48527111113071441650390625">
        <ele>17</ele>
        <time>2026-05-09T11:20:46.000Z</time>
        <extensions>
          <ns3:TrackPointExtension>
            <ns3:atemp>17.0</ns3:atemp>
            <ns3:hr>77</ns3:hr>
          </ns3:TrackPointExtension>
        </extensions>
      </trkpt>
      <trkpt lat="48.83543492294847965240478515625" lon="-3.48531126044690608978271484375">
        <ele>16.799999237060546875</ele>
        <time>2026-05-09T11:20:55.000Z</time>
        <extensions>
          <ns3:TrackPointExtension>
            <ns3:atemp>17.0</ns3:atemp>
            <ns3:hr>78</ns3:hr>
          </ns3:TrackPointExtension>
        </extensions>
      </trkpt>
      <trkpt lat="48.8355307281017303466796875" lon="-3.4853185527026653289794921875">
        <ele>16</ele>
        <time>2026-05-09T11:21:05.000Z</time>
        <extensions>
          <ns3:TrackPointExtension>
            <ns3:atemp>17.0</ns3:atemp>
            <ns3:hr>76</ns3:hr>
          </ns3:TrackPointExtension>
        </extensions>
      </trkpt>
      <trkpt lat="48.8355365954339504241943359375" lon="-3.4853071533143520355224609375">
        <ele>15.80000019073486328125</ele>
        <time>2026-05-09T11:21:06.000Z</time>
        <extensions>
          <ns3:TrackPointExtension>
            <ns3:atemp>17.0</ns3:atemp>
            <ns3:hr>76</ns3:hr>
          </ns3:TrackPointExtension>
        </extensions>
      </trkpt>
      <trkpt lat="48.8355831988155841827392578125" lon="-3.4852052293717861175537109375">
        <ele>15.19999980926513671875</ele>
        <time>2026-05-09T11:21:14.000Z</time>
        <extensions>
          <ns3:TrackPointExtension>
            <ns3:atemp>17.0</ns3:atemp>
            <ns3:hr>75</ns3:hr>
          </ns3:TrackPointExtension>
        </extensions>
      </trkpt>
      <trkpt lat="48.83563173003494739532470703125" lon="-3.48510657437145709991455078125">
        <ele>14.80000019073486328125</ele>
        <time>2026-05-09T11:21:21.000Z</time>
        <extensions>
          <ns3:TrackPointExtension>
            <ns3:atemp>17.0</ns3:atemp>
            <ns3:hr>75</ns3:hr>
          </ns3:TrackPointExtension>
        </extensions>
      </trkpt>
      <trkpt lat="48.835665844380855560302734375" lon="-3.4850437939167022705078125">
        <ele>15</ele>
        <time>2026-05-09T11:21:26.000Z</time>
        <extensions>
          <ns3:TrackPointExtension>
            <ns3:atemp>17.0</ns3:atemp>
            <ns3:hr>74</ns3:hr>
          </ns3:TrackPointExtension>
        </extensions>
      </trkpt>
      <trkpt lat="48.8357055746018886566162109375" lon="-3.484938181936740875244140625">
        <ele>14.80000019073486328125</ele>
        <time>2026-05-09T11:21:34.000Z</time>
        <extensions>
          <ns3:TrackPointExtension>
            <ns3:atemp>17.0</ns3:atemp>
            <ns3:hr>75</ns3:hr>
          </ns3:TrackPointExtension>
        </extensions>
      </trkpt>
      <trkpt lat="48.83572191931307315826416015625" lon="-3.48489023745059967041015625">
        <ele>14.6000003814697265625</ele>
        <time>2026-05-09T11:21:41.000Z</time>
        <extensions>
          <ns3:TrackPointExtension>
            <ns3:atemp>17.0</ns3:atemp>
            <ns3:hr>74</ns3:hr>
          </ns3:TrackPointExtension>
        </extensions>
      </trkpt>
      <trkpt lat="48.83575444109737873077392578125" lon="-3.48482477478682994842529296875">
        <ele>14.6000003814697265625</ele>
        <time>2026-05-09T11:21:46.000Z</time>
        <extensions>
          <ns3:TrackPointExtension>
            <ns3:atemp>17.0</ns3:atemp>
            <ns3:hr>73</ns3:hr>
          </ns3:TrackPointExtension>
        </extensions>
      </trkpt>
      <trkpt lat="48.83583993650972843170166015625" lon="-3.48467339761555194854736328125">
        <ele>15.6000003814697265625</ele>
        <time>2026-05-09T11:21:56.000Z</time>
        <extensions>
          <ns3:TrackPointExtension>
            <ns3:atemp>17.0</ns3:atemp>
            <ns3:hr>75</ns3:hr>
          </ns3:TrackPointExtension>
        </extensions>
      </trkpt>
      <trkpt lat="48.83586265146732330322265625" lon="-3.4846253693103790283203125">
        <ele>16</ele>
        <time>2026-05-09T11:22:00.000Z</time>
        <extensions>
          <ns3:TrackPointExtension>
            <ns3:atemp>17.0</ns3:atemp>
            <ns3:hr>74</ns3:hr>
          </ns3:TrackPointExtension>
        </extensions>
      </trkpt>
      <trkpt lat="48.8358762301504611968994140625" lon="-3.4845722280442714691162109375">
        <ele>17.200000762939453125</ele>
        <time>2026-05-09T11:22:04.000Z</time>
        <extensions>
          <ns3:TrackPointExtension>
            <ns3:atemp>17.0</ns3:atemp>
            <ns3:hr>76</ns3:hr>
          </ns3:TrackPointExtension>
        </extensions>
      </trkpt>
      <trkpt lat="48.83587782271206378936767578125" lon="-3.4845588169991970062255859375">
        <ele>17.3999996185302734375</ele>
        <time>2026-05-09T11:22:05.000Z</time>
        <extensions>
          <ns3:TrackPointExtension>
            <ns3:atemp>17.0</ns3:atemp>
            <ns3:hr>77</ns3:hr>
          </ns3:TrackPointExtension>
        </extensions>
      </trkpt>
      <trkpt lat="48.83590531535446643829345703125" lon="-3.48448455333709716796875">
        <ele>18.3999996185302734375</ele>
        <time>2026-05-09T11:22:11.000Z</time>
        <extensions>
          <ns3:TrackPointExtension>
            <ns3:atemp>17.0</ns3:atemp>
            <ns3:hr>78</ns3:hr>
          </ns3:TrackPointExtension>
        </extensions>
      </trkpt>
      <trkpt lat="48.8359124399721622467041015625" lon="-3.4844753332436084747314453125">
        <ele>18.3999996185302734375</ele>
        <time>2026-05-09T11:22:12.000Z</time>
        <extensions>
          <ns3:TrackPointExtension>
            <ns3:atemp>17.0</ns3:atemp>
            <ns3:hr>79</ns3:hr>
          </ns3:TrackPointExtension>
        </extensions>
      </trkpt>
      <trkpt lat="48.8359573669731616973876953125" lon="-3.4844226948916912078857421875">
        <ele>18.3999996185302734375</ele>
        <time>2026-05-09T11:22:18.000Z</time>
        <extensions>
          <ns3:TrackPointExtension>
            <ns3:atemp>17.0</ns3:atemp>
            <ns3:hr>82</ns3:hr>
          </ns3:TrackPointExtension>
        </extensions>
      </trkpt>
      <trkpt lat="48.83598444052040576934814453125" lon="-3.48439763300120830535888671875">
        <ele>19</ele>
        <time>2026-05-09T11:22:21.000Z</time>
        <extensions>
          <ns3:TrackPointExtension>
            <ns3:atemp>18.0</ns3:atemp>
            <ns3:hr>83</ns3:hr>
          </ns3:TrackPointExtension>
        </extensions>
      </trkpt>
      <trkpt lat="48.83601981215178966522216796875" lon="-3.48436159081757068634033203125">
        <ele>19.3999996185302734375</ele>
        <time>2026-05-09T11:22:25.000Z</time>
        <extensions>
          <ns3:TrackPointExtension>
            <ns3:atemp>18.0</ns3:atemp>
            <ns3:hr>84</ns3:hr>
          </ns3:TrackPointExtension>
        </extensions>
      </trkpt>
      <trkpt lat="48.83606038056313991546630859375" lon="-3.48432160913944244384765625">
        <ele>18.799999237060546875</ele>
        <time>2026-05-09T11:22:30.000Z</time>
        <extensions>
          <ns3:TrackPointExtension>
            <ns3:atemp>18.0</ns3:atemp>
            <ns3:hr>84</ns3:hr>
          </ns3:TrackPointExtension>
        </extensions>
      </trkpt>
      <trkpt lat="48.83608083240687847137451171875" lon="-3.48428984172642230987548828125">
        <ele>18.3999996185302734375</ele>
        <time>2026-05-09T11:22:33.000Z</time>
        <extensions>
          <ns3:TrackPointExtension>
            <ns3:atemp>18.0</ns3:atemp>
            <ns3:hr>83</ns3:hr>
          </ns3:TrackPointExtension>
        </extensions>
      </trkpt>
      <trkpt lat="48.836082927882671356201171875" lon="-3.484279029071331024169921875">
        <ele>18.200000762939453125</ele>
        <time>2026-05-09T11:22:37.000Z</time>
        <extensions>
          <ns3:TrackPointExtension>
            <ns3:atemp>18.0</ns3:atemp>
            <ns3:hr>82</ns3:hr>
          </ns3:TrackPointExtension>
        </extensions>
      </trkpt>
      <trkpt lat="48.8360841013491153717041015625" lon="-3.48427911289036273956298828125">
        <ele>17.799999237060546875</ele>
        <time>2026-05-09T11:22:46.000Z</time>
        <extensions>
          <ns3:TrackPointExtension>
            <ns3:atemp>18.0</ns3:atemp>
            <ns3:hr>81</ns3:hr>
          </ns3:TrackPointExtension>
        </extensions>
      </trkpt>
      <trkpt lat="48.8361189700663089752197265625" lon="-3.48424525000154972076416015625">
        <ele>18.200000762939453125</ele>
        <time>2026-05-09T11:22:54.000Z</time>
        <extensions>
          <ns3:TrackPointExtension>
            <ns3:atemp>18.0</ns3:atemp>
            <ns3:hr>80</ns3:hr>
          </ns3:TrackPointExtension>
        </extensions>
      </trkpt>
      <trkpt lat="48.83616515435278415679931640625" lon="-3.48416478373110294342041015625">
        <ele>17.799999237060546875</ele>
        <time>2026-05-09T11:23:02.000Z</time>
        <extensions>
          <ns3:TrackPointExtension>
            <ns3:atemp>18.0</ns3:atemp>
            <ns3:hr>79</ns3:hr>
          </ns3:TrackPointExtension>
        </extensions>
      </trkpt>
      <trkpt lat="48.83616515435278415679931640625" lon="-3.48416478373110294342041015625">
        <ele>17.3999996185302734375</ele>
        <time>2026-05-09T11:23:08.000Z</time>
        <extensions>
          <ns3:TrackPointExtension>
            <ns3:atemp>18.0</ns3:atemp>
            <ns3:hr>79</ns3:hr>
          </ns3:TrackPointExtension>
        </extensions>
      </trkpt>
      <trkpt lat="48.83616196922957897186279296875" lon="-3.4841667115688323974609375">
        <ele>17.200000762939453125</ele>
        <time>2026-05-09T11:23:10.000Z</time>
        <extensions>
          <ns3:TrackPointExtension>
            <ns3:atemp>18.0</ns3:atemp>
            <ns3:hr>80</ns3:hr>
          </ns3:TrackPointExtension>
        </extensions>
      </trkpt>
      <trkpt lat="48.83614151738584041595458984375" lon="-3.484172411262989044189453125">
        <ele>17</ele>
        <time>2026-05-09T11:23:13.000Z</time>
        <extensions>
          <ns3:TrackPointExtension>
            <ns3:atemp>18.0</ns3:atemp>
            <ns3:hr>83</ns3:hr>
          </ns3:TrackPointExtension>
        </extensions>
      </trkpt>
      <trkpt lat="48.836137242615222930908203125" lon="-3.484176099300384521484375">
        <ele>17.799999237060546875</ele>
        <time>2026-05-09T11:23:17.000Z</time>
        <extensions>
          <ns3:TrackPointExtension>
            <ns3:atemp>18.0</ns3:atemp>
            <ns3:hr>83</ns3:hr>
          </ns3:TrackPointExtension>
        </extensions>
      </trkpt>
      <trkpt lat="48.836137242615222930908203125" lon="-3.484176099300384521484375">
        <ele>18</ele>
        <time>2026-05-09T11:23:21.000Z</time>
        <extensions>
          <ns3:TrackPointExtension>
            <ns3:atemp>17.0</ns3:atemp>
            <ns3:hr>79</ns3:hr>
          </ns3:TrackPointExtension>
        </extensions>
      </trkpt>
      <trkpt lat="48.836145959794521331787109375" lon="-3.48417676985263824462890625">
        <ele>17.6000003814697265625</ele>
        <time>2026-05-09T11:23:23.000Z</time>
        <extensions>
          <ns3:TrackPointExtension>
            <ns3:atemp>17.0</ns3:atemp>
            <ns3:hr>75</ns3:hr>
          </ns3:TrackPointExtension>
        </extensions>
      </trkpt>
      <trkpt lat="48.83615794591605663299560546875" lon="-3.48415506072342395782470703125">
        <ele>17.3999996185302734375</ele>
        <time>2026-05-09T11:23:25.000Z</time>
        <extensions>
          <ns3:TrackPointExtension>
            <ns3:atemp>17.0</ns3:atemp>
            <ns3:hr>74</ns3:hr>
          </ns3:TrackPointExtension>
        </extensions>
      </trkpt>
      <trkpt lat="48.8361739553511142730712890625" lon="-3.4841196052730083465576171875">
        <ele>17</ele>
        <time>2026-05-09T11:23:30.000Z</time>
        <extensions>
          <ns3:TrackPointExtension>
            <ns3:atemp>17.0</ns3:atemp>
            <ns3:hr>76</ns3:hr>
          </ns3:TrackPointExtension>
        </extensions>
      </trkpt>
      <trkpt lat="48.83618074469268321990966796875" lon="-3.484097979962825775146484375">
        <ele>17.6000003814697265625</ele>
        <time>2026-05-09T11:23:32.000Z</time>
        <extensions>
          <ns3:TrackPointExtension>
            <ns3:atemp>17.0</ns3:atemp>
            <ns3:hr>81</ns3:hr>
          </ns3:TrackPointExtension>
        </extensions>
      </trkpt>
      <trkpt lat="48.83618694730103015899658203125" lon="-3.48407358862459659576416015625">
        <ele>18.200000762939453125</ele>
        <time>2026-05-09T11:23:34.000Z</time>
        <extensions>
          <ns3:TrackPointExtension>
            <ns3:atemp>17.0</ns3:atemp>
            <ns3:hr>84</ns3:hr>
          </ns3:TrackPointExtension>
        </extensions>
      </trkpt>
      <trkpt lat="48.83619231171905994415283203125" lon="-3.48406420089304447174072265625">
        <ele>18.3999996185302734375</ele>
        <time>2026-05-09T11:23:35.000Z</time>
        <extensions>
          <ns3:TrackPointExtension>
            <ns3:atemp>17.0</ns3:atemp>
            <ns3:hr>85</ns3:hr>
          </ns3:TrackPointExtension>
        </extensions>
      </trkpt>
      <trkpt lat="48.83619566448032855987548828125" lon="-3.48405162803828716278076171875">
        <ele>18.3999996185302734375</ele>
        <time>2026-05-09T11:23:36.000Z</time>
        <extensions>
          <ns3:TrackPointExtension>
            <ns3:atemp>17.0</ns3:atemp>
            <ns3:hr>85</ns3:hr>
          </ns3:TrackPointExtension>
        </extensions>
      </trkpt>
      <trkpt lat="48.8361897133290767669677734375" lon="-3.4840438328683376312255859375">
        <ele>17.799999237060546875</ele>
        <time>2026-05-09T11:23:41.000Z</time>
        <extensions>
          <ns3:TrackPointExtension>
            <ns3:atemp>17.0</ns3:atemp>
            <ns3:hr>85</ns3:hr>
          </ns3:TrackPointExtension>
        </extensions>
      </trkpt>
      <trkpt lat="48.83618812076747417449951171875" lon="-3.48407023586332798004150390625">
        <ele>18</ele>
        <time>2026-05-09T11:23:49.000Z</time>
        <extensions>
          <ns3:TrackPointExtension>
            <ns3:atemp>17.0</ns3:atemp>
            <ns3:hr>85</ns3:hr>
          </ns3:TrackPointExtension>
        </extensions>
      </trkpt>
      <trkpt lat="48.836184851825237274169921875" lon="-3.48412572406232357025146484375">
        <ele>17.799999237060546875</ele>
        <time>2026-05-09T11:23:55.000Z</time>
        <extensions>
          <ns3:TrackPointExtension>
            <ns3:atemp>17.0</ns3:atemp>
            <ns3:hr>85</ns3:hr>
          </ns3:TrackPointExtension>
        </extensions>
      </trkpt>
      <trkpt lat="48.83618585765361785888671875" lon="-3.48412304185330867767333984375">
        <ele>17.799999237060546875</ele>
        <time>2026-05-09T11:24:03.000Z</time>
        <extensions>
          <ns3:TrackPointExtension>
            <ns3:atemp>17.0</ns3:atemp>
            <ns3:hr>81</ns3:hr>
          </ns3:TrackPointExtension>
        </extensions>
      </trkpt>
      <trkpt lat="48.83619113825261592864990234375" lon="-3.48408783785998821258544921875">
        <ele>18</ele>
        <time>2026-05-09T11:24:05.000Z</time>
        <extensions>
          <ns3:TrackPointExtension>
            <ns3:atemp>17.0</ns3:atemp>
            <ns3:hr>77</ns3:hr>
          </ns3:TrackPointExtension>
        </extensions>
      </trkpt>
      <trkpt lat="48.8361923955380916595458984375" lon="-3.4840756841003894805908203125">
        <ele>18.200000762939453125</ele>
        <time>2026-05-09T11:24:06.000Z</time>
        <extensions>
          <ns3:TrackPointExtension>
            <ns3:atemp>17.0</ns3:atemp>
            <ns3:hr>76</ns3:hr>
          </ns3:TrackPointExtension>
        </extensions>
      </trkpt>
      <trkpt lat="48.8361893780529499053955078125" lon="-3.48403234966099262237548828125">
        <ele>17.6000003814697265625</ele>
        <time>2026-05-09T11:24:13.000Z</time>
        <extensions>
          <ns3:TrackPointExtension>
            <ns3:atemp>17.0</ns3:atemp>
            <ns3:hr>74</ns3:hr>
          </ns3:TrackPointExtension>
        </extensions>
      </trkpt>
      <trkpt lat="48.8361890427768230438232421875" lon="-3.4840344451367855072021484375">
        <ele>17.6000003814697265625</ele>
        <time>2026-05-09T11:24:19.000Z</time>
        <extensions>
          <ns3:TrackPointExtension>
            <ns3:atemp>17.0</ns3:atemp>
            <ns3:hr>79</ns3:hr>
          </ns3:TrackPointExtension>
        </extensions>
      </trkpt>
      <trkpt lat="48.83618862368166446685791015625" lon="-3.48403033800423145294189453125">
        <ele>17.799999237060546875</ele>
        <time>2026-05-09T11:24:20.000Z</time>
        <extensions>
          <ns3:TrackPointExtension>
            <ns3:atemp>17.0</ns3:atemp>
            <ns3:hr>83</ns3:hr>
          </ns3:TrackPointExtension>
        </extensions>
      </trkpt>
      <trkpt lat="48.8361900486052036285400390625" lon="-3.48403100855648517608642578125">
        <ele>17.799999237060546875</ele>
        <time>2026-05-09T11:24:21.000Z</time>
        <extensions>
          <ns3:TrackPointExtension>
            <ns3:atemp>17.0</ns3:atemp>
            <ns3:hr>88</ns3:hr>
          </ns3:TrackPointExtension>
        </extensions>
      </trkpt>
      <trkpt lat="48.83618996478617191314697265625" lon="-3.4840317629277706146240234375">
        <ele>18</ele>
        <time>2026-05-09T11:24:29.000Z</time>
        <extensions>
          <ns3:TrackPointExtension>
            <ns3:atemp>17.0</ns3:atemp>
            <ns3:hr>89</ns3:hr>
          </ns3:TrackPointExtension>
        </extensions>
      </trkpt>
      <trkpt lat="48.83618996478617191314697265625" lon="-3.4840317629277706146240234375">
        <ele>17.200000762939453125</ele>
        <time>2026-05-09T11:24:33.000Z</time>
        <extensions>
          <ns3:TrackPointExtension>
            <ns3:atemp>17.0</ns3:atemp>
            <ns3:hr>87</ns3:hr>
          </ns3:TrackPointExtension>
        </extensions>
      </trkpt>
      <trkpt lat="48.8361960835754871368408203125" lon="-3.4840280748903751373291015625">
        <ele>17</ele>
        <time>2026-05-09T11:24:36.000Z</time>
        <extensions>
          <ns3:TrackPointExtension>
            <ns3:atemp>17.0</ns3:atemp>
            <ns3:hr>88</ns3:hr>
          </ns3:TrackPointExtension>
        </extensions>
      </trkpt>
      <trkpt lat="48.83621930144727230072021484375" lon="-3.48394283093512058258056640625">
        <ele>17.6000003814697265625</ele>
        <time>2026-05-09T11:24:43.000Z</time>
        <extensions>
          <ns3:TrackPointExtension>
            <ns3:atemp>17.0</ns3:atemp>
            <ns3:hr>88</ns3:hr>
          </ns3:TrackPointExtension>
        </extensions>
      </trkpt>
      <trkpt lat="48.83623640052974224090576171875" lon="-3.4838859178125858306884765625">
        <ele>18</ele>
        <time>2026-05-09T11:24:51.000Z</time>
        <extensions>
          <ns3:TrackPointExtension>
            <ns3:atemp>17.0</ns3:atemp>
            <ns3:hr>87</ns3:hr>
          </ns3:TrackPointExtension>
        </extensions>
      </trkpt>
      <trkpt lat="48.83623958565294742584228515625" lon="-3.48387527279555797576904296875">
        <ele>18.200000762939453125</ele>
        <time>2026-05-09T11:24:53.000Z</time>
        <extensions>
          <ns3:TrackPointExtension>
            <ns3:atemp>17.0</ns3:atemp>
            <ns3:hr>87</ns3:hr>
          </ns3:TrackPointExtension>
        </extensions>
      </trkpt>
      <trkpt lat="48.83624293841421604156494140625" lon="-3.48385415039956569671630859375">
        <ele>19</ele>
        <time>2026-05-09T11:24:58.000Z</time>
        <extensions>
          <ns3:TrackPointExtension>
            <ns3:atemp>17.0</ns3:atemp>
            <ns3:hr>86</ns3:hr>
          </ns3:TrackPointExtension>
        </extensions>
      </trkpt>
      <trkpt lat="48.83624528534710407257080078125" lon="-3.483837805688381195068359375">
        <ele>19.3999996185302734375</ele>
        <time>2026-05-09T11:25:00.000Z</time>
        <extensions>
          <ns3:TrackPointExtension>
            <ns3:atemp>17.0</ns3:atemp>
            <ns3:hr>86</ns3:hr>
          </ns3:TrackPointExtension>
        </extensions>
      </trkpt>
      <trkpt lat="48.83624763227999210357666015625" lon="-3.48381509073078632354736328125">
        <ele>19.799999237060546875</ele>
        <time>2026-05-09T11:25:04.000Z</time>
        <extensions>
          <ns3:TrackPointExtension>
            <ns3:atemp>17.0</ns3:atemp>
            <ns3:hr>87</ns3:hr>
          </ns3:TrackPointExtension>
        </extensions>
      </trkpt>
      <trkpt lat="48.83626372553408145904541015625" lon="-3.48375256173312664031982421875">
        <ele>19.799999237060546875</ele>
        <time>2026-05-09T11:25:11.000Z</time>
        <extensions>
          <ns3:TrackPointExtension>
            <ns3:atemp>17.0</ns3:atemp>
            <ns3:hr>88</ns3:hr>
          </ns3:TrackPointExtension>
        </extensions>
      </trkpt>
      <trkpt lat="48.8362671621143817901611328125" lon="-3.483668826520442962646484375">
        <ele>19.6000003814697265625</ele>
        <time>2026-05-09T11:25:17.000Z</time>
        <extensions>
          <ns3:TrackPointExtension>
            <ns3:atemp>17.0</ns3:atemp>
            <ns3:hr>89</ns3:hr>
          </ns3:TrackPointExtension>
        </extensions>
      </trkpt>
      <trkpt lat="48.83629255928099155426025390625" lon="-3.483596742153167724609375">
        <ele>19.200000762939453125</ele>
        <time>2026-05-09T11:25:22.000Z</time>
        <extensions>
          <ns3:TrackPointExtension>
            <ns3:atemp>17.0</ns3:atemp>
            <ns3:hr>89</ns3:hr>
          </ns3:TrackPointExtension>
        </extensions>
      </trkpt>
      <trkpt lat="48.83630831725895404815673828125" lon="-3.48353974521160125732421875">
        <ele>18.200000762939453125</ele>
        <time>2026-05-09T11:25:26.000Z</time>
        <extensions>
          <ns3:TrackPointExtension>
            <ns3:atemp>17.0</ns3:atemp>
            <ns3:hr>89</ns3:hr>
          </ns3:TrackPointExtension>
        </extensions>
      </trkpt>
      <trkpt lat="48.83632373996078968048095703125" lon="-3.48350076936185359954833984375">
        <ele>17.3999996185302734375</ele>
        <time>2026-05-09T11:25:29.000Z</time>
        <extensions>
          <ns3:TrackPointExtension>
            <ns3:atemp>17.0</ns3:atemp>
            <ns3:hr>88</ns3:hr>
          </ns3:TrackPointExtension>
        </extensions>
      </trkpt>
      <trkpt lat="48.83632935583591461181640625" lon="-3.4834882803261280059814453125">
        <ele>17</ele>
        <time>2026-05-09T11:25:30.000Z</time>
        <extensions>
          <ns3:TrackPointExtension>
            <ns3:atemp>17.0</ns3:atemp>
            <ns3:hr>88</ns3:hr>
          </ns3:TrackPointExtension>
        </extensions>
      </trkpt>
      <trkpt lat="48.8363446108996868133544921875" lon="-3.4834621287882328033447265625">
        <ele>16.799999237060546875</ele>
        <time>2026-05-09T11:25:33.000Z</time>
        <extensions>
          <ns3:TrackPointExtension>
            <ns3:atemp>17.0</ns3:atemp>
            <ns3:hr>87</ns3:hr>
          </ns3:TrackPointExtension>
        </extensions>
      </trkpt>
      <trkpt lat="48.8363523222506046295166015625" lon="-3.483418039977550506591796875">
        <ele>16.6000003814697265625</ele>
        <time>2026-05-09T11:25:37.000Z</time>
        <extensions>
          <ns3:TrackPointExtension>
            <ns3:atemp>17.0</ns3:atemp>
            <ns3:hr>86</ns3:hr>
          </ns3:TrackPointExtension>
        </extensions>
      </trkpt>
      <trkpt lat="48.8363878615200519561767578125" lon="-3.48327848128974437713623046875">
        <ele>17</ele>
        <time>2026-05-09T11:25:47.000Z</time>
        <extensions>
          <ns3:TrackPointExtension>
            <ns3:atemp>17.0</ns3:atemp>
            <ns3:hr>84</ns3:hr>
          </ns3:TrackPointExtension>
        </extensions>
      </trkpt>
      <trkpt lat="48.83642231114208698272705078125" lon="-3.4831742942333221435546875">
        <ele>17.200000762939453125</ele>
        <time>2026-05-09T11:25:55.000Z</time>
        <extensions>
          <ns3:TrackPointExtension>
            <ns3:atemp>17.0</ns3:atemp>
            <ns3:hr>83</ns3:hr>
          </ns3:TrackPointExtension>
        </extensions>
      </trkpt>
      <trkpt lat="48.836447037756443023681640625" lon="-3.4831090830266475677490234375">
        <ele>18.799999237060546875</ele>
        <time>2026-05-09T11:25:59.000Z</time>
        <extensions>
          <ns3:TrackPointExtension>
            <ns3:atemp>17.0</ns3:atemp>
            <ns3:hr>83</ns3:hr>
          </ns3:TrackPointExtension>
        </extensions>
      </trkpt>
      <trkpt lat="48.83645835332572460174560546875" lon="-3.48306767642498016357421875">
        <ele>19.6000003814697265625</ele>
        <time>2026-05-09T11:26:01.000Z</time>
        <extensions>
          <ns3:TrackPointExtension>
            <ns3:atemp>17.0</ns3:atemp>
            <ns3:hr>84</ns3:hr>
          </ns3:TrackPointExtension>
        </extensions>
      </trkpt>
      <trkpt lat="48.83648584596812725067138671875" lon="-3.48299014382064342498779296875">
        <ele>19.3999996185302734375</ele>
        <time>2026-05-09T11:26:06.000Z</time>
        <extensions>
          <ns3:TrackPointExtension>
            <ns3:atemp>17.0</ns3:atemp>
            <ns3:hr>86</ns3:hr>
          </ns3:TrackPointExtension>
        </extensions>
      </trkpt>
      <trkpt lat="48.83650529198348522186279296875" lon="-3.48293867893517017364501953125">
        <ele>18.799999237060546875</ele>
        <time>2026-05-09T11:26:11.000Z</time>
        <extensions>
          <ns3:TrackPointExtension>
            <ns3:atemp>17.0</ns3:atemp>
            <ns3:hr>87</ns3:hr>
          </ns3:TrackPointExtension>
        </extensions>
      </trkpt>
      <trkpt lat="48.836538903415203094482421875" lon="-3.48292820155620574951171875">
        <ele>18.200000762939453125</ele>
        <time>2026-05-09T11:26:17.000Z</time>
        <extensions>
          <ns3:TrackPointExtension>
            <ns3:atemp>17.0</ns3:atemp>
            <ns3:hr>87</ns3:hr>
          </ns3:TrackPointExtension>
        </extensions>
      </trkpt>
      <trkpt lat="48.83656882680952548980712890625" lon="-3.48293079994618892669677734375">
        <ele>18.6000003814697265625</ele>
        <time>2026-05-09T11:26:23.000Z</time>
        <extensions>
          <ns3:TrackPointExtension>
            <ns3:atemp>17.0</ns3:atemp>
            <ns3:hr>86</ns3:hr>
          </ns3:TrackPointExtension>
        </extensions>
      </trkpt>
      <trkpt lat="48.83655793033540248870849609375" lon="-3.48291822709143161773681640625">
        <ele>18.3999996185302734375</ele>
        <time>2026-05-09T11:26:32.000Z</time>
        <extensions>
          <ns3:TrackPointExtension>
            <ns3:atemp>17.0</ns3:atemp>
            <ns3:hr>88</ns3:hr>
          </ns3:TrackPointExtension>
        </extensions>
      </trkpt>
      <trkpt lat="48.83653161115944385528564453125" lon="-3.48289794288575649261474609375">
        <ele>18</ele>
        <time>2026-05-09T11:26:37.000Z</time>
        <extensions>
          <ns3:TrackPointExtension>
            <ns3:atemp>17.0</ns3:atemp>
            <ns3:hr>89</ns3:hr>
          </ns3:TrackPointExtension>
        </extensions>
      </trkpt>
      <trkpt lat="48.83652239106595516204833984375" lon="-3.48287313245236873626708984375">
        <ele>17.6000003814697265625</ele>
        <time>2026-05-09T11:26:40.000Z</time>
        <extensions>
          <ns3:TrackPointExtension>
            <ns3:atemp>17.0</ns3:atemp>
            <ns3:hr>90</ns3:hr>
          </ns3:TrackPointExtension>
        </extensions>
      </trkpt>
      <trkpt lat="48.83653898723423480987548828125" lon="-3.48285309970378875732421875">
        <ele>17.3999996185302734375</ele>
        <time>2026-05-09T11:26:43.000Z</time>
        <extensions>
          <ns3:TrackPointExtension>
            <ns3:atemp>17.0</ns3:atemp>
            <ns3:hr>90</ns3:hr>
          </ns3:TrackPointExtension>
        </extensions>
      </trkpt>
      <trkpt lat="48.83656731806695461273193359375" lon="-3.48280859179794788360595703125">
        <ele>17</ele>
        <time>2026-05-09T11:26:49.000Z</time>
        <extensions>
          <ns3:TrackPointExtension>
            <ns3:atemp>17.0</ns3:atemp>
            <ns3:hr>90</ns3:hr>
          </ns3:TrackPointExtension>
        </extensions>
      </trkpt>
      <trkpt lat="48.83657637052237987518310546875" lon="-3.48278612829744815826416015625">
        <ele>16.6000003814697265625</ele>
        <time>2026-05-09T11:26:51.000Z</time>
        <extensions>
          <ns3:TrackPointExtension>
            <ns3:atemp>17.0</ns3:atemp>
            <ns3:hr>89</ns3:hr>
          </ns3:TrackPointExtension>
        </extensions>
      </trkpt>
      <trkpt lat="48.8366425037384033203125" lon="-3.48263919353485107421875">
        <ele>16</ele>
        <time>2026-05-09T11:27:03.000Z</time>
        <extensions>
          <ns3:TrackPointExtension>
            <ns3:atemp>17.0</ns3:atemp>
            <ns3:hr>87</ns3:hr>
          </ns3:TrackPointExtension>
        </extensions>
      </trkpt>
      <trkpt lat="48.836676366627216339111328125" lon="-3.4825910814106464385986328125">
        <ele>16.200000762939453125</ele>
        <time>2026-05-09T11:27:08.000Z</time>
        <extensions>
          <ns3:TrackPointExtension>
            <ns3:atemp>17.0</ns3:atemp>
            <ns3:hr>87</ns3:hr>
          </ns3:TrackPointExtension>
        </extensions>
      </trkpt>
      <trkpt lat="48.83671182207763195037841796875" lon="-3.48251958377659320831298828125">
        <ele>15.80000019073486328125</ele>
        <time>2026-05-09T11:27:13.000Z</time>
        <extensions>
          <ns3:TrackPointExtension>
            <ns3:atemp>17.0</ns3:atemp>
            <ns3:hr>84</ns3:hr>
          </ns3:TrackPointExtension>
        </extensions>
      </trkpt>
      <trkpt lat="48.836720623075962066650390625" lon="-3.4825022332370281219482421875">
        <ele>15.80000019073486328125</ele>
        <time>2026-05-09T11:27:14.000Z</time>
        <extensions>
          <ns3:TrackPointExtension>
            <ns3:atemp>17.0</ns3:atemp>
            <ns3:hr>84</ns3:hr>
          </ns3:TrackPointExtension>
        </extensions>
      </trkpt>
      <trkpt lat="48.83674384094774723052978515625" lon="-3.4824452362954616546630859375">
        <ele>15.3999996185302734375</ele>
        <time>2026-05-09T11:27:18.000Z</time>
        <extensions>
          <ns3:TrackPointExtension>
            <ns3:atemp>17.0</ns3:atemp>
            <ns3:hr>83</ns3:hr>
          </ns3:TrackPointExtension>
        </extensions>
      </trkpt>
      <trkpt lat="48.836754821240901947021484375" lon="-3.48242822103202342987060546875">
        <ele>15</ele>
        <time>2026-05-09T11:27:20.000Z</time>
        <extensions>
          <ns3:TrackPointExtension>
            <ns3:atemp>17.0</ns3:atemp>
            <ns3:hr>82</ns3:hr>
          </ns3:TrackPointExtension>
        </extensions>
      </trkpt>
      <trkpt lat="48.83676228113472461700439453125" lon="-3.48237239755690097808837890625">
        <ele>14.3999996185302734375</ele>
        <time>2026-05-09T11:27:23.000Z</time>
        <extensions>
          <ns3:TrackPointExtension>
            <ns3:atemp>17.0</ns3:atemp>
            <ns3:hr>81</ns3:hr>
          </ns3:TrackPointExtension>
        </extensions>
      </trkpt>
      <trkpt lat="48.83676311932504177093505859375" lon="-3.48232042975723743438720703125">
        <ele>14.3999996185302734375</ele>
        <time>2026-05-09T11:27:26.000Z</time>
        <extensions>
          <ns3:TrackPointExtension>
            <ns3:atemp>17.0</ns3:atemp>
            <ns3:hr>79</ns3:hr>
          </ns3:TrackPointExtension>
        </extensions>
      </trkpt>
      <trkpt lat="48.83674870245158672332763671875" lon="-3.48226594738662242889404296875">
        <ele>13.3999996185302734375</ele>
        <time>2026-05-09T11:27:30.000Z</time>
        <extensions>
          <ns3:TrackPointExtension>
            <ns3:atemp>17.0</ns3:atemp>
            <ns3:hr>78</ns3:hr>
          </ns3:TrackPointExtension>
        </extensions>
      </trkpt>
      <trkpt lat="48.83674853481352329254150390625" lon="-3.482246585190296173095703125">
        <ele>12.80000019073486328125</ele>
        <time>2026-05-09T11:27:32.000Z</time>
        <extensions>
          <ns3:TrackPointExtension>
            <ns3:atemp>17.0</ns3:atemp>
            <ns3:hr>78</ns3:hr>
          </ns3:TrackPointExtension>
        </extensions>
      </trkpt>
      <trkpt lat="48.836741410195827484130859375" lon="-3.482236526906490325927734375">
        <ele>12.3999996185302734375</ele>
        <time>2026-05-09T11:27:33.000Z</time>
        <extensions>
          <ns3:TrackPointExtension>
            <ns3:atemp>17.0</ns3:atemp>
            <ns3:hr>78</ns3:hr>
          </ns3:TrackPointExtension>
        </extensions>
      </trkpt>
      <trkpt lat="48.83670310489833354949951171875" lon="-3.482202999293804168701171875">
        <ele>12.19999980926513671875</ele>
        <time>2026-05-09T11:27:37.000Z</time>
        <extensions>
          <ns3:TrackPointExtension>
            <ns3:atemp>17.0</ns3:atemp>
            <ns3:hr>76</ns3:hr>
          </ns3:TrackPointExtension>
        </extensions>
      </trkpt>
      <trkpt lat="48.83669354952871799468994140625" lon="-3.48219336010515689849853515625">
        <ele>11.80000019073486328125</ele>
        <time>2026-05-09T11:27:38.000Z</time>
        <extensions>
          <ns3:TrackPointExtension>
            <ns3:atemp>17.0</ns3:atemp>
            <ns3:hr>75</ns3:hr>
          </ns3:TrackPointExtension>
        </extensions>
      </trkpt>
      <trkpt lat="48.83669078350067138671875" lon="-3.4821619279682636260986328125">
        <ele>11.6000003814697265625</ele>
        <time>2026-05-09T11:27:41.000Z</time>
        <extensions>
          <ns3:TrackPointExtension>
            <ns3:atemp>17.0</ns3:atemp>
            <ns3:hr>74</ns3:hr>
          </ns3:TrackPointExtension>
        </extensions>
      </trkpt>
      <trkpt lat="48.83669304661452770233154296875" lon="-3.482154048979282379150390625">
        <ele>12</ele>
        <time>2026-05-09T11:27:43.000Z</time>
        <extensions>
          <ns3:TrackPointExtension>
            <ns3:atemp>17.0</ns3:atemp>
            <ns3:hr>73</ns3:hr>
          </ns3:TrackPointExtension>
        </extensions>
      </trkpt>
      <trkpt lat="48.83665214292705059051513671875" lon="-3.48215614445507526397705078125">
        <ele>12.6000003814697265625</ele>
        <time>2026-05-09T11:27:52.000Z</time>
        <extensions>
          <ns3:TrackPointExtension>
            <ns3:atemp>17.0</ns3:atemp>
            <ns3:hr>75</ns3:hr>
          </ns3:TrackPointExtension>
        </extensions>
      </trkpt>
      <trkpt lat="48.836573772132396697998046875" lon="-3.4821163304150104522705078125">
        <ele>12.19999980926513671875</ele>
        <time>2026-05-09T11:28:00.000Z</time>
        <extensions>
          <ns3:TrackPointExtension>
            <ns3:atemp>17.0</ns3:atemp>
            <ns3:hr>74</ns3:hr>
          </ns3:TrackPointExtension>
        </extensions>
      </trkpt>
      <trkpt lat="48.836539573967456817626953125" lon="-3.48206897266209125518798828125">
        <ele>11.3999996185302734375</ele>
        <time>2026-05-09T11:28:06.000Z</time>
        <extensions>
          <ns3:TrackPointExtension>
            <ns3:atemp>17.0</ns3:atemp>
            <ns3:hr>74</ns3:hr>
          </ns3:TrackPointExtension>
        </extensions>
      </trkpt>
      <trkpt lat="48.836524486541748046875" lon="-3.48205036483705043792724609375">
        <ele>11</ele>
        <time>2026-05-09T11:28:08.000Z</time>
        <extensions>
          <ns3:TrackPointExtension>
            <ns3:atemp>17.0</ns3:atemp>
            <ns3:hr>73</ns3:hr>
          </ns3:TrackPointExtension>
        </extensions>
      </trkpt>
      <trkpt lat="48.83649439550936222076416015625" lon="-3.48198029212653636932373046875">
        <ele>10.80000019073486328125</ele>
        <time>2026-05-09T11:28:14.000Z</time>
        <extensions>
          <ns3:TrackPointExtension>
            <ns3:atemp>17.0</ns3:atemp>
            <ns3:hr>73</ns3:hr>
          </ns3:TrackPointExtension>
        </extensions>
      </trkpt>
      <trkpt lat="48.8364783860743045806884765625" lon="-3.48192547447979450225830078125">
        <ele>10</ele>
        <time>2026-05-09T11:28:18.000Z</time>
        <extensions>
          <ns3:TrackPointExtension>
            <ns3:atemp>16.0</ns3:atemp>
            <ns3:hr>72</ns3:hr>
          </ns3:TrackPointExtension>
        </extensions>
      </trkpt>
      <trkpt lat="48.83647209964692592620849609375" lon="-3.48187400959432125091552734375">
        <ele>9.6000003814697265625</ele>
        <time>2026-05-09T11:28:21.000Z</time>
        <extensions>
          <ns3:TrackPointExtension>
            <ns3:atemp>16.0</ns3:atemp>
            <ns3:hr>71</ns3:hr>
          </ns3:TrackPointExtension>
        </extensions>
      </trkpt>
      <trkpt lat="48.8364659808576107025146484375" lon="-3.48180435597896575927734375">
        <ele>9.19999980926513671875</ele>
        <time>2026-05-09T11:28:27.000Z</time>
        <extensions>
          <ns3:TrackPointExtension>
            <ns3:atemp>16.0</ns3:atemp>
            <ns3:hr>71</ns3:hr>
          </ns3:TrackPointExtension>
        </extensions>
      </trkpt>
      <trkpt lat="48.8364428468048572540283203125" lon="-3.4817401506006717681884765625">
        <ele>8.80000019073486328125</ele>
        <time>2026-05-09T11:28:32.000Z</time>
        <extensions>
          <ns3:TrackPointExtension>
            <ns3:atemp>16.0</ns3:atemp>
            <ns3:hr>71</ns3:hr>
          </ns3:TrackPointExtension>
        </extensions>
      </trkpt>
      <trkpt lat="48.83642717264592647552490234375" lon="-3.4817036055028438568115234375">
        <ele>8.19999980926513671875</ele>
        <time>2026-05-09T11:28:36.000Z</time>
        <extensions>
          <ns3:TrackPointExtension>
            <ns3:atemp>16.0</ns3:atemp>
            <ns3:hr>71</ns3:hr>
          </ns3:TrackPointExtension>
        </extensions>
      </trkpt>
      <trkpt lat="48.83640906773507595062255859375" lon="-3.4816922061145305633544921875">
        <ele>7.80000019073486328125</ele>
        <time>2026-05-09T11:28:40.000Z</time>
        <extensions>
          <ns3:TrackPointExtension>
            <ns3:atemp>16.0</ns3:atemp>
            <ns3:hr>71</ns3:hr>
          </ns3:TrackPointExtension>
        </extensions>
      </trkpt>
      <trkpt lat="48.83640437386929988861083984375" lon="-3.48166312091052532196044921875">
        <ele>7.599999904632568359375</ele>
        <time>2026-05-09T11:28:42.000Z</time>
        <extensions>
          <ns3:TrackPointExtension>
            <ns3:atemp>16.0</ns3:atemp>
            <ns3:hr>71</ns3:hr>
          </ns3:TrackPointExtension>
        </extensions>
      </trkpt>
      <trkpt lat="48.836390040814876556396484375" lon="-3.481604196131229400634765625">
        <ele>7.400000095367431640625</ele>
        <time>2026-05-09T11:28:46.000Z</time>
        <extensions>
          <ns3:TrackPointExtension>
            <ns3:atemp>16.0</ns3:atemp>
            <ns3:hr>70</ns3:hr>
          </ns3:TrackPointExtension>
        </extensions>
      </trkpt>
      <trkpt lat="48.83637453429400920867919921875" lon="-3.48156471736729145050048828125">
        <ele>7.19999980926513671875</ele>
        <time>2026-05-09T11:28:52.000Z</time>
        <extensions>
          <ns3:TrackPointExtension>
            <ns3:atemp>16.0</ns3:atemp>
            <ns3:hr>70</ns3:hr>
          </ns3:TrackPointExtension>
        </extensions>
      </trkpt>
      <trkpt lat="48.83634922094643115997314453125" lon="-3.4815000928938388824462890625">
        <ele>7.599999904632568359375</ele>
        <time>2026-05-09T11:28:58.000Z</time>
        <extensions>
          <ns3:TrackPointExtension>
            <ns3:atemp>16.0</ns3:atemp>
            <ns3:hr>69</ns3:hr>
          </ns3:TrackPointExtension>
        </extensions>
      </trkpt>
      <trkpt lat="48.8363462872803211212158203125" lon="-3.48147980868816375732421875">
        <ele>7</ele>
        <time>2026-05-09T11:29:04.000Z</time>
        <extensions>
          <ns3:TrackPointExtension>
            <ns3:atemp>16.0</ns3:atemp>
            <ns3:hr>67</ns3:hr>
          </ns3:TrackPointExtension>
        </extensions>
      </trkpt>
      <trkpt lat="48.836359195411205291748046875" lon="-3.48147771321237087249755859375">
        <ele>7.19999980926513671875</ele>
        <time>2026-05-09T11:29:12.000Z</time>
        <extensions>
          <ns3:TrackPointExtension>
            <ns3:atemp>16.0</ns3:atemp>
            <ns3:hr>69</ns3:hr>
          </ns3:TrackPointExtension>
        </extensions>
      </trkpt>
      <trkpt lat="48.836328350007534027099609375" lon="-3.48142105154693126678466796875">
        <ele>7</ele>
        <time>2026-05-09T11:29:18.000Z</time>
        <extensions>
          <ns3:TrackPointExtension>
            <ns3:atemp>16.0</ns3:atemp>
            <ns3:hr>69</ns3:hr>
          </ns3:TrackPointExtension>
        </extensions>
      </trkpt>
      <trkpt lat="48.83629716932773590087890625" lon="-3.48135114647448062896728515625">
        <ele>6.599999904632568359375</ele>
        <time>2026-05-09T11:29:23.000Z</time>
        <extensions>
          <ns3:TrackPointExtension>
            <ns3:atemp>16.0</ns3:atemp>
            <ns3:hr>69</ns3:hr>
          </ns3:TrackPointExtension>
        </extensions>
      </trkpt>
      <trkpt lat="48.83629381656646728515625" lon="-3.48133631050586700439453125">
        <ele>6.19999980926513671875</ele>
        <time>2026-05-09T11:29:24.000Z</time>
        <extensions>
          <ns3:TrackPointExtension>
            <ns3:atemp>16.0</ns3:atemp>
            <ns3:hr>69</ns3:hr>
          </ns3:TrackPointExtension>
        </extensions>
      </trkpt>
      <trkpt lat="48.83627026341855525970458984375" lon="-3.48122072406113147735595703125">
        <ele>6.599999904632568359375</ele>
        <time>2026-05-09T11:29:32.000Z</time>
        <extensions>
          <ns3:TrackPointExtension>
            <ns3:atemp>16.0</ns3:atemp>
            <ns3:hr>69</ns3:hr>
          </ns3:TrackPointExtension>
        </extensions>
      </trkpt>
      <trkpt lat="48.83628375828266143798828125" lon="-3.4810682572424411773681640625">
        <ele>6.80000019073486328125</ele>
        <time>2026-05-09T11:29:41.000Z</time>
        <extensions>
          <ns3:TrackPointExtension>
            <ns3:atemp>16.0</ns3:atemp>
            <ns3:hr>71</ns3:hr>
          </ns3:TrackPointExtension>
        </extensions>
      </trkpt>
      <trkpt lat="48.83627839386463165283203125" lon="-3.4809641540050506591796875">
        <ele>6.80000019073486328125</ele>
        <time>2026-05-09T11:29:47.000Z</time>
        <extensions>
          <ns3:TrackPointExtension>
            <ns3:atemp>16.0</ns3:atemp>
            <ns3:hr>71</ns3:hr>
          </ns3:TrackPointExtension>
        </extensions>
      </trkpt>
      <trkpt lat="48.836282081902027130126953125" lon="-3.48089776933193206787109375">
        <ele>6.19999980926513671875</ele>
        <time>2026-05-09T11:29:53.000Z</time>
        <extensions>
          <ns3:TrackPointExtension>
            <ns3:atemp>16.0</ns3:atemp>
            <ns3:hr>71</ns3:hr>
          </ns3:TrackPointExtension>
        </extensions>
      </trkpt>
      <trkpt lat="48.83628509938716888427734375" lon="-3.48084873519837856292724609375">
        <ele>6.400000095367431640625</ele>
        <time>2026-05-09T11:30:01.000Z</time>
        <extensions>
          <ns3:TrackPointExtension>
            <ns3:atemp>16.0</ns3:atemp>
            <ns3:hr>71</ns3:hr>
          </ns3:TrackPointExtension>
        </extensions>
      </trkpt>
      <trkpt lat="48.83628300391137599945068359375" lon="-3.48084538243710994720458984375">
        <ele>5.80000019073486328125</ele>
        <time>2026-05-09T11:30:07.000Z</time>
        <extensions>
          <ns3:TrackPointExtension>
            <ns3:atemp>16.0</ns3:atemp>
            <ns3:hr>72</ns3:hr>
          </ns3:TrackPointExtension>
        </extensions>
      </trkpt>
      <trkpt lat="48.83630965836346149444580078125" lon="-3.4807748906314373016357421875">
        <ele>6</ele>
        <time>2026-05-09T11:30:12.000Z</time>
        <extensions>
          <ns3:TrackPointExtension>
            <ns3:atemp>16.0</ns3:atemp>
            <ns3:hr>72</ns3:hr>
          </ns3:TrackPointExtension>
        </extensions>
      </trkpt>
      <trkpt lat="48.83632089011371135711669921875" lon="-3.48075921647250652313232421875">
        <ele>6</ele>
        <time>2026-05-09T11:30:13.000Z</time>
        <extensions>
          <ns3:TrackPointExtension>
            <ns3:atemp>16.0</ns3:atemp>
            <ns3:hr>71</ns3:hr>
          </ns3:TrackPointExtension>
        </extensions>
      </trkpt>
      <trkpt lat="48.8363677449524402618408203125" lon="-3.4806924127042293548583984375">
        <ele>6.400000095367431640625</ele>
        <time>2026-05-09T11:30:19.000Z</time>
        <extensions>
          <ns3:TrackPointExtension>
            <ns3:atemp>17.0</ns3:atemp>
            <ns3:hr>73</ns3:hr>
          </ns3:TrackPointExtension>
        </extensions>
      </trkpt>
      <trkpt lat="48.83642616681754589080810546875" lon="-3.48061739467084407806396484375">
        <ele>6.80000019073486328125</ele>
        <time>2026-05-09T11:30:28.000Z</time>
        <extensions>
          <ns3:TrackPointExtension>
            <ns3:atemp>17.0</ns3:atemp>
            <ns3:hr>74</ns3:hr>
          </ns3:TrackPointExtension>
        </extensions>
      </trkpt>
      <trkpt lat="48.8364451937377452850341796875" lon="-3.4805314801633358001708984375">
        <ele>7.400000095367431640625</ele>
        <time>2026-05-09T11:30:35.000Z</time>
        <extensions>
          <ns3:TrackPointExtension>
            <ns3:atemp>17.0</ns3:atemp>
            <ns3:hr>75</ns3:hr>
          </ns3:TrackPointExtension>
        </extensions>
      </trkpt>
      <trkpt lat="48.8364431820809841156005859375" lon="-3.480436764657497406005859375">
        <ele>7.599999904632568359375</ele>
        <time>2026-05-09T11:30:41.000Z</time>
        <extensions>
          <ns3:TrackPointExtension>
            <ns3:atemp>17.0</ns3:atemp>
            <ns3:hr>77</ns3:hr>
          </ns3:TrackPointExtension>
        </extensions>
      </trkpt>
      <trkpt lat="48.8364438526332378387451171875" lon="-3.48035688512027263641357421875">
        <ele>7</ele>
        <time>2026-05-09T11:30:46.000Z</time>
        <extensions>
          <ns3:TrackPointExtension>
            <ns3:atemp>17.0</ns3:atemp>
            <ns3:hr>78</ns3:hr>
          </ns3:TrackPointExtension>
        </extensions>
      </trkpt>
      <trkpt lat="48.83641476742923259735107421875" lon="-3.48028010688722133636474609375">
        <ele>6</ele>
        <time>2026-05-09T11:30:51.000Z</time>
        <extensions>
          <ns3:TrackPointExtension>
            <ns3:atemp>17.0</ns3:atemp>
            <ns3:hr>79</ns3:hr>
          </ns3:TrackPointExtension>
        </extensions>
      </trkpt>
      <trkpt lat="48.83639909327030181884765625" lon="-3.48019259981811046600341796875">
        <ele>6.19999980926513671875</ele>
        <time>2026-05-09T11:30:56.000Z</time>
        <extensions>
          <ns3:TrackPointExtension>
            <ns3:atemp>17.0</ns3:atemp>
            <ns3:hr>80</ns3:hr>
          </ns3:TrackPointExtension>
        </extensions>
      </trkpt>
      <trkpt lat="48.83640621788799762725830078125" lon="-3.4801801107823848724365234375">
        <ele>6.19999980926513671875</ele>
        <time>2026-05-09T11:30:57.000Z</time>
        <extensions>
          <ns3:TrackPointExtension>
            <ns3:atemp>17.0</ns3:atemp>
            <ns3:hr>80</ns3:hr>
          </ns3:TrackPointExtension>
        </extensions>
      </trkpt>
      <trkpt lat="48.83639465086162090301513671875" lon="-3.48011179827153682708740234375">
        <ele>6.19999980926513671875</ele>
        <time>2026-05-09T11:31:01.000Z</time>
        <extensions>
          <ns3:TrackPointExtension>
            <ns3:atemp>17.0</ns3:atemp>
            <ns3:hr>81</ns3:hr>
          </ns3:TrackPointExtension>
        </extensions>
      </trkpt>
      <trkpt lat="48.83638031780719757080078125" lon="-3.480025716125965118408203125">
        <ele>6.599999904632568359375</ele>
        <time>2026-05-09T11:31:08.000Z</time>
        <extensions>
          <ns3:TrackPointExtension>
            <ns3:atemp>17.0</ns3:atemp>
            <ns3:hr>80</ns3:hr>
          </ns3:TrackPointExtension>
        </extensions>
      </trkpt>
      <trkpt lat="48.836367242038249969482421875" lon="-3.47998858429491519927978515625">
        <ele>6.599999904632568359375</ele>
        <time>2026-05-09T11:31:14.000Z</time>
        <extensions>
          <ns3:TrackPointExtension>
            <ns3:atemp>17.0</ns3:atemp>
            <ns3:hr>78</ns3:hr>
          </ns3:TrackPointExtension>
        </extensions>
      </trkpt>
      <trkpt lat="48.83634746074676513671875" lon="-3.47989604808390140533447265625">
        <ele>7.19999980926513671875</ele>
        <time>2026-05-09T11:31:20.000Z</time>
        <extensions>
          <ns3:TrackPointExtension>
            <ns3:atemp>17.0</ns3:atemp>
            <ns3:hr>78</ns3:hr>
          </ns3:TrackPointExtension>
        </extensions>
      </trkpt>
      <trkpt lat="48.8363425992429256439208984375" lon="-3.47985397092998027801513671875">
        <ele>7.599999904632568359375</ele>
        <time>2026-05-09T11:31:23.000Z</time>
        <extensions>
          <ns3:TrackPointExtension>
            <ns3:atemp>17.0</ns3:atemp>
            <ns3:hr>79</ns3:hr>
          </ns3:TrackPointExtension>
        </extensions>
      </trkpt>
      <trkpt lat="48.836353830993175506591796875" lon="-3.4798451699316501617431640625">
        <ele>8</ele>
        <time>2026-05-09T11:31:25.000Z</time>
        <extensions>
          <ns3:TrackPointExtension>
            <ns3:atemp>17.0</ns3:atemp>
            <ns3:hr>79</ns3:hr>
          </ns3:TrackPointExtension>
        </extensions>
      </trkpt>
      <trkpt lat="48.83635827340185642242431640625" lon="-3.47983561456203460693359375">
        <ele>8.19999980926513671875</ele>
        <time>2026-05-09T11:31:26.000Z</time>
        <extensions>
          <ns3:TrackPointExtension>
            <ns3:atemp>17.0</ns3:atemp>
            <ns3:hr>79</ns3:hr>
          </ns3:TrackPointExtension>
        </extensions>
      </trkpt>
      <trkpt lat="48.83638274855911731719970703125" lon="-3.47980837337672710418701171875">
        <ele>8.6000003814697265625</ele>
        <time>2026-05-09T11:31:30.000Z</time>
        <extensions>
          <ns3:TrackPointExtension>
            <ns3:atemp>17.0</ns3:atemp>
            <ns3:hr>80</ns3:hr>
          </ns3:TrackPointExtension>
        </extensions>
      </trkpt>
      <trkpt lat="48.836387693881988525390625" lon="-3.4797958843410015106201171875">
        <ele>8.6000003814697265625</ele>
        <time>2026-05-09T11:31:32.000Z</time>
        <extensions>
          <ns3:TrackPointExtension>
            <ns3:atemp>17.0</ns3:atemp>
            <ns3:hr>81</ns3:hr>
          </ns3:TrackPointExtension>
        </extensions>
      </trkpt>
      <trkpt lat="48.83638962171971797943115234375" lon="-3.47978859208524227142333984375">
        <ele>8.6000003814697265625</ele>
        <time>2026-05-09T11:31:33.000Z</time>
        <extensions>
          <ns3:TrackPointExtension>
            <ns3:atemp>17.0</ns3:atemp>
            <ns3:hr>82</ns3:hr>
          </ns3:TrackPointExtension>
        </extensions>
      </trkpt>
      <trkpt lat="48.83641493506729602813720703125" lon="-3.4796986542642116546630859375">
        <ele>9.80000019073486328125</ele>
        <time>2026-05-09T11:31:43.000Z</time>
        <extensions>
          <ns3:TrackPointExtension>
            <ns3:atemp>17.0</ns3:atemp>
            <ns3:hr>83</ns3:hr>
          </ns3:TrackPointExtension>
        </extensions>
      </trkpt>
      <trkpt lat="48.83641946129500865936279296875" lon="-3.4796909429132938385009765625">
        <ele>10</ele>
        <time>2026-05-09T11:31:44.000Z</time>
        <extensions>
          <ns3:TrackPointExtension>
            <ns3:atemp>17.0</ns3:atemp>
            <ns3:hr>83</ns3:hr>
          </ns3:TrackPointExtension>
        </extensions>
      </trkpt>
      <trkpt lat="48.83643354289233684539794921875" lon="-3.4796248935163021087646484375">
        <ele>10.80000019073486328125</ele>
        <time>2026-05-09T11:31:49.000Z</time>
        <extensions>
          <ns3:TrackPointExtension>
            <ns3:atemp>17.0</ns3:atemp>
            <ns3:hr>84</ns3:hr>
          </ns3:TrackPointExtension>
        </extensions>
      </trkpt>
      <trkpt lat="48.8364394940435886383056640625" lon="-3.47958373837172985076904296875">
        <ele>11</ele>
        <time>2026-05-09T11:31:52.000Z</time>
        <extensions>
          <ns3:TrackPointExtension>
            <ns3:atemp>17.0</ns3:atemp>
            <ns3:hr>84</ns3:hr>
          </ns3:TrackPointExtension>
        </extensions>
      </trkpt>
      <trkpt lat="48.8364549167454242706298828125" lon="-3.479519784450531005859375">
        <ele>11.3999996185302734375</ele>
        <time>2026-05-09T11:31:58.000Z</time>
        <extensions>
          <ns3:TrackPointExtension>
            <ns3:atemp>17.0</ns3:atemp>
            <ns3:hr>87</ns3:hr>
          </ns3:TrackPointExtension>
        </extensions>
      </trkpt>
      <trkpt lat="48.83646153844892978668212890625" lon="-3.479492627084255218505859375">
        <ele>11.6000003814697265625</ele>
        <time>2026-05-09T11:32:00.000Z</time>
        <extensions>
          <ns3:TrackPointExtension>
            <ns3:atemp>17.0</ns3:atemp>
            <ns3:hr>88</ns3:hr>
          </ns3:TrackPointExtension>
        </extensions>
      </trkpt>
      <trkpt lat="48.83646757341921329498291015625" lon="-3.47946236841380596160888671875">
        <ele>11.6000003814697265625</ele>
        <time>2026-05-09T11:32:02.000Z</time>
        <extensions>
          <ns3:TrackPointExtension>
            <ns3:atemp>17.0</ns3:atemp>
            <ns3:hr>92</ns3:hr>
          </ns3:TrackPointExtension>
        </extensions>
      </trkpt>
      <trkpt lat="48.83647821843624114990234375" lon="-3.4793977439403533935546875">
        <ele>11.80000019073486328125</ele>
        <time>2026-05-09T11:32:07.000Z</time>
        <extensions>
          <ns3:TrackPointExtension>
            <ns3:atemp>17.0</ns3:atemp>
            <ns3:hr>95</ns3:hr>
          </ns3:TrackPointExtension>
        </extensions>
      </trkpt>
      <trkpt lat="48.83648232556879520416259765625" lon="-3.47938626073300838470458984375">
        <ele>12</ele>
        <time>2026-05-09T11:32:08.000Z</time>
        <extensions>
          <ns3:TrackPointExtension>
            <ns3:atemp>17.0</ns3:atemp>
            <ns3:hr>95</ns3:hr>
          </ns3:TrackPointExtension>
        </extensions>
      </trkpt>
      <trkpt lat="48.83648433722555637359619140625" lon="-3.47937402315437793731689453125">
        <ele>12.3999996185302734375</ele>
        <time>2026-05-09T11:32:09.000Z</time>
        <extensions>
          <ns3:TrackPointExtension>
            <ns3:atemp>17.0</ns3:atemp>
            <ns3:hr>96</ns3:hr>
          </ns3:TrackPointExtension>
        </extensions>
      </trkpt>
      <trkpt lat="48.83648567833006381988525390625" lon="-3.47935424186289310455322265625">
        <ele>12.6000003814697265625</ele>
        <time>2026-05-09T11:32:12.000Z</time>
        <extensions>
          <ns3:TrackPointExtension>
            <ns3:atemp>17.0</ns3:atemp>
            <ns3:hr>99</ns3:hr>
          </ns3:TrackPointExtension>
        </extensions>
      </trkpt>
      <trkpt lat="48.83648551069200038909912109375" lon="-3.4793513081967830657958984375">
        <ele>12.6000003814697265625</ele>
        <time>2026-05-09T11:32:16.000Z</time>
        <extensions>
          <ns3:TrackPointExtension>
            <ns3:atemp>17.0</ns3:atemp>
            <ns3:hr>101</ns3:hr>
          </ns3:TrackPointExtension>
        </extensions>
      </trkpt>
      <trkpt lat="48.836502023041248321533203125" lon="-3.47927109338343143463134765625">
        <ele>13.19999980926513671875</ele>
        <time>2026-05-09T11:32:22.000Z</time>
        <extensions>
          <ns3:TrackPointExtension>
            <ns3:atemp>17.0</ns3:atemp>
            <ns3:hr>102</ns3:hr>
          </ns3:TrackPointExtension>
        </extensions>
      </trkpt>
      <trkpt lat="48.8365045376121997833251953125" lon="-3.47925986163318157196044921875">
        <ele>13.3999996185302734375</ele>
        <time>2026-05-09T11:32:23.000Z</time>
        <extensions>
          <ns3:TrackPointExtension>
            <ns3:atemp>17.0</ns3:atemp>
            <ns3:hr>102</ns3:hr>
          </ns3:TrackPointExtension>
        </extensions>
      </trkpt>
      <trkpt lat="48.8365202955901622772216796875" lon="-3.47915165126323699951171875">
        <ele>13.80000019073486328125</ele>
        <time>2026-05-09T11:32:33.000Z</time>
        <extensions>
          <ns3:TrackPointExtension>
            <ns3:atemp>17.0</ns3:atemp>
            <ns3:hr>102</ns3:hr>
          </ns3:TrackPointExtension>
        </extensions>
      </trkpt>
      <trkpt lat="48.836540915071964263916015625" lon="-3.47906992770731449127197265625">
        <ele>14.19999980926513671875</ele>
        <time>2026-05-09T11:32:38.000Z</time>
        <extensions>
          <ns3:TrackPointExtension>
            <ns3:atemp>17.0</ns3:atemp>
            <ns3:hr>102</ns3:hr>
          </ns3:TrackPointExtension>
        </extensions>
      </trkpt>
      <trkpt lat="48.83656111545860767364501953125" lon="-3.4790168702602386474609375">
        <ele>15.19999980926513671875</ele>
        <time>2026-05-09T11:32:42.000Z</time>
        <extensions>
          <ns3:TrackPointExtension>
            <ns3:atemp>17.0</ns3:atemp>
            <ns3:hr>103</ns3:hr>
          </ns3:TrackPointExtension>
        </extensions>
      </trkpt>
      <trkpt lat="48.83657519705593585968017578125" lon="-3.478948138654232025146484375">
        <ele>16.3999996185302734375</ele>
        <time>2026-05-09T11:32:47.000Z</time>
        <extensions>
          <ns3:TrackPointExtension>
            <ns3:atemp>17.0</ns3:atemp>
            <ns3:hr>105</ns3:hr>
          </ns3:TrackPointExtension>
        </extensions>
      </trkpt>
      <trkpt lat="48.8365803100168704986572265625" lon="-3.47890228964388370513916015625">
        <ele>16.200000762939453125</ele>
        <time>2026-05-09T11:32:50.000Z</time>
        <extensions>
          <ns3:TrackPointExtension>
            <ns3:atemp>17.0</ns3:atemp>
            <ns3:hr>106</ns3:hr>
          </ns3:TrackPointExtension>
        </extensions>
      </trkpt>
      <trkpt lat="48.8366041146218776702880859375" lon="-3.47873565740883350372314453125">
        <ele>15.80000019073486328125</ele>
        <time>2026-05-09T11:33:01.000Z</time>
        <extensions>
          <ns3:TrackPointExtension>
            <ns3:atemp>17.0</ns3:atemp>
            <ns3:hr>108</ns3:hr>
          </ns3:TrackPointExtension>
        </extensions>
      </trkpt>
      <trkpt lat="48.8366235606372356414794921875" lon="-3.47864278592169284820556640625">
        <ele>17.3999996185302734375</ele>
        <time>2026-05-09T11:33:06.000Z</time>
        <extensions>
          <ns3:TrackPointExtension>
            <ns3:atemp>17.0</ns3:atemp>
            <ns3:hr>108</ns3:hr>
          </ns3:TrackPointExtension>
        </extensions>
      </trkpt>
      <trkpt lat="48.83664074353873729705810546875" lon="-3.478620238602161407470703125">
        <ele>18.799999237060546875</ele>
        <time>2026-05-09T11:33:08.000Z</time>
        <extensions>
          <ns3:TrackPointExtension>
            <ns3:atemp>17.0</ns3:atemp>
            <ns3:hr>108</ns3:hr>
          </ns3:TrackPointExtension>
        </extensions>
      </trkpt>
      <trkpt lat="48.836654238402843475341796875" lon="-3.47859920002520084381103515625">
        <ele>19.3999996185302734375</ele>
        <time>2026-05-09T11:33:10.000Z</time>
        <extensions>
          <ns3:TrackPointExtension>
            <ns3:atemp>17.0</ns3:atemp>
            <ns3:hr>108</ns3:hr>
          </ns3:TrackPointExtension>
        </extensions>
      </trkpt>
      <trkpt lat="48.83668801747262477874755859375" lon="-3.4785308875143527984619140625">
        <ele>18.799999237060546875</ele>
        <time>2026-05-09T11:33:16.000Z</time>
        <extensions>
          <ns3:TrackPointExtension>
            <ns3:atemp>17.0</ns3:atemp>
            <ns3:hr>110</ns3:hr>
          </ns3:TrackPointExtension>
        </extensions>
      </trkpt>
      <trkpt lat="48.836695142090320587158203125" lon="-3.4785355813801288604736328125">
        <ele>17.799999237060546875</ele>
        <time>2026-05-09T11:33:19.000Z</time>
        <extensions>
          <ns3:TrackPointExtension>
            <ns3:atemp>17.0</ns3:atemp>
            <ns3:hr>111</ns3:hr>
          </ns3:TrackPointExtension>
        </extensions>
      </trkpt>
      <trkpt lat="48.83670276962220668792724609375" lon="-3.478549160063266754150390625">
        <ele>17.6000003814697265625</ele>
        <time>2026-05-09T11:33:21.000Z</time>
        <extensions>
          <ns3:TrackPointExtension>
            <ns3:atemp>17.0</ns3:atemp>
            <ns3:hr>111</ns3:hr>
          </ns3:TrackPointExtension>
        </extensions>
      </trkpt>
      <trkpt lat="48.83670461364090442657470703125" lon="-3.478553853929042816162109375">
        <ele>17.6000003814697265625</ele>
        <time>2026-05-09T11:33:28.000Z</time>
        <extensions>
          <ns3:TrackPointExtension>
            <ns3:atemp>17.0</ns3:atemp>
            <ns3:hr>113</ns3:hr>
          </ns3:TrackPointExtension>
        </extensions>
      </trkpt>
      <trkpt lat="48.83670461364090442657470703125" lon="-3.478553853929042816162109375">
        <ele>17.799999237060546875</ele>
        <time>2026-05-09T11:33:38.000Z</time>
        <extensions>
          <ns3:TrackPointExtension>
            <ns3:atemp>17.0</ns3:atemp>
            <ns3:hr>110</ns3:hr>
          </ns3:TrackPointExtension>
        </extensions>
      </trkpt>
      <trkpt lat="48.83670461364090442657470703125" lon="-3.478553853929042816162109375">
        <ele>17.799999237060546875</ele>
        <time>2026-05-09T11:33:40.000Z</time>
        <extensions>
          <ns3:TrackPointExtension>
            <ns3:atemp>17.0</ns3:atemp>
            <ns3:hr>107</ns3:hr>
          </ns3:TrackPointExtension>
        </extensions>
      </trkpt>
      <trkpt lat="48.83670461364090442657470703125" lon="-3.478553853929042816162109375">
        <ele>17.799999237060546875</ele>
        <time>2026-05-09T11:33:41.000Z</time>
        <extensions>
          <ns3:TrackPointExtension>
            <ns3:atemp>17.0</ns3:atemp>
            <ns3:hr>103</ns3:hr>
          </ns3:TrackPointExtension>
        </extensions>
      </trkpt>
      <trkpt lat="48.83670461364090442657470703125" lon="-3.478553853929042816162109375">
        <ele>18</ele>
        <time>2026-05-09T11:33:42.000Z</time>
        <extensions>
          <ns3:TrackPointExtension>
            <ns3:atemp>17.0</ns3:atemp>
            <ns3:hr>97</ns3:hr>
          </ns3:TrackPointExtension>
        </extensions>
      </trkpt>
      <trkpt lat="48.83670461364090442657470703125" lon="-3.478553853929042816162109375">
        <ele>17.799999237060546875</ele>
        <time>2026-05-09T11:33:44.000Z</time>
        <extensions>
          <ns3:TrackPointExtension>
            <ns3:atemp>17.0</ns3:atemp>
            <ns3:hr>93</ns3:hr>
          </ns3:TrackPointExtension>
        </extensions>
      </trkpt>
      <trkpt lat="48.83670511655509471893310546875" lon="-3.47855427302420139312744140625">
        <ele>17.6000003814697265625</ele>
        <time>2026-05-09T11:33:46.000Z</time>
        <extensions>
          <ns3:TrackPointExtension>
            <ns3:atemp>17.0</ns3:atemp>
            <ns3:hr>92</ns3:hr>
          </ns3:TrackPointExtension>
        </extensions>
      </trkpt>
      <trkpt lat="48.83676613681018352508544921875" lon="-3.4786153770983219146728515625">
        <ele>17</ele>
        <time>2026-05-09T11:33:55.000Z</time>
        <extensions>
          <ns3:TrackPointExtension>
            <ns3:atemp>17.0</ns3:atemp>
            <ns3:hr>91</ns3:hr>
          </ns3:TrackPointExtension>
        </extensions>
      </trkpt>
      <trkpt lat="48.83682765997946262359619140625" lon="-3.47867815755307674407958984375">
        <ele>16.6000003814697265625</ele>
        <time>2026-05-09T11:34:03.000Z</time>
        <extensions>
          <ns3:TrackPointExtension>
            <ns3:atemp>17.0</ns3:atemp>
            <ns3:hr>92</ns3:hr>
          </ns3:TrackPointExtension>
        </extensions>
      </trkpt>
      <trkpt lat="48.8368512131273746490478515625" lon="-3.4786934964358806610107421875">
        <ele>16</ele>
        <time>2026-05-09T11:34:06.000Z</time>
        <extensions>
          <ns3:TrackPointExtension>
            <ns3:atemp>17.0</ns3:atemp>
            <ns3:hr>91</ns3:hr>
          </ns3:TrackPointExtension>
        </extensions>
      </trkpt>
      <trkpt lat="48.836870491504669189453125" lon="-3.47870640456676483154296875">
        <ele>15.80000019073486328125</ele>
        <time>2026-05-09T11:34:09.000Z</time>
        <extensions>
          <ns3:TrackPointExtension>
            <ns3:atemp>17.0</ns3:atemp>
            <ns3:hr>88</ns3:hr>
          </ns3:TrackPointExtension>
        </extensions>
      </trkpt>
      <trkpt lat="48.83691214956343173980712890625" lon="-3.47873901017010211944580078125">
        <ele>16</ele>
        <time>2026-05-09T11:34:17.000Z</time>
        <extensions>
          <ns3:TrackPointExtension>
            <ns3:atemp>17.0</ns3:atemp>
            <ns3:hr>87</ns3:hr>
          </ns3:TrackPointExtension>
        </extensions>
      </trkpt>
      <trkpt lat="48.83693612180650234222412109375" lon="-3.4787746332585811614990234375">
        <ele>16</ele>
        <time>2026-05-09T11:34:24.000Z</time>
        <extensions>
          <ns3:TrackPointExtension>
            <ns3:atemp>17.0</ns3:atemp>
            <ns3:hr>87</ns3:hr>
          </ns3:TrackPointExtension>
        </extensions>
      </trkpt>
      <trkpt lat="48.83693612180650234222412109375" lon="-3.4787746332585811614990234375">
        <ele>16</ele>
        <time>2026-05-09T11:34:38.000Z</time>
        <extensions>
          <ns3:TrackPointExtension>
            <ns3:atemp>17.0</ns3:atemp>
            <ns3:hr>86</ns3:hr>
          </ns3:TrackPointExtension>
        </extensions>
      </trkpt>
      <trkpt lat="48.83693478070199489593505859375" lon="-3.478775136172771453857421875">
        <ele>16.200000762939453125</ele>
        <time>2026-05-09T11:34:48.000Z</time>
        <extensions>
          <ns3:TrackPointExtension>
            <ns3:atemp>17.0</ns3:atemp>
            <ns3:hr>85</ns3:hr>
          </ns3:TrackPointExtension>
        </extensions>
      </trkpt>
      <trkpt lat="48.83693243376910686492919921875" lon="-3.47877086140215396881103515625">
        <ele>16</ele>
        <time>2026-05-09T11:34:51.000Z</time>
        <extensions>
          <ns3:TrackPointExtension>
            <ns3:atemp>17.0</ns3:atemp>
            <ns3:hr>82</ns3:hr>
          </ns3:TrackPointExtension>
        </extensions>
      </trkpt>
      <trkpt lat="48.83693612180650234222412109375" lon="-3.4787746332585811614990234375">
        <ele>15.80000019073486328125</ele>
        <time>2026-05-09T11:34:54.000Z</time>
        <extensions>
          <ns3:TrackPointExtension>
            <ns3:atemp>17.0</ns3:atemp>
            <ns3:hr>79</ns3:hr>
          </ns3:TrackPointExtension>
        </extensions>
      </trkpt>
      <trkpt lat="48.83693612180650234222412109375" lon="-3.4787746332585811614990234375">
        <ele>15.3999996185302734375</ele>
        <time>2026-05-09T11:34:59.000Z</time>
        <extensions>
          <ns3:TrackPointExtension>
            <ns3:atemp>17.0</ns3:atemp>
            <ns3:hr>79</ns3:hr>
          </ns3:TrackPointExtension>
        </extensions>
      </trkpt>
      <trkpt lat="48.83693612180650234222412109375" lon="-3.4787746332585811614990234375">
        <ele>16</ele>
        <time>2026-05-09T11:35:04.000Z</time>
        <extensions>
          <ns3:TrackPointExtension>
            <ns3:atemp>17.0</ns3:atemp>
            <ns3:hr>83</ns3:hr>
          </ns3:TrackPointExtension>
        </extensions>
      </trkpt>
      <trkpt lat="48.83693612180650234222412109375" lon="-3.4787746332585811614990234375">
        <ele>16</ele>
        <time>2026-05-09T11:35:06.000Z</time>
        <extensions>
          <ns3:TrackPointExtension>
            <ns3:atemp>17.0</ns3:atemp>
            <ns3:hr>87</ns3:hr>
          </ns3:TrackPointExtension>
        </extensions>
      </trkpt>
      <trkpt lat="48.8369362056255340576171875" lon="-3.47876482643187046051025390625">
        <ele>16.3999996185302734375</ele>
        <time>2026-05-09T11:35:13.000Z</time>
        <extensions>
          <ns3:TrackPointExtension>
            <ns3:atemp>17.0</ns3:atemp>
            <ns3:hr>87</ns3:hr>
          </ns3:TrackPointExtension>
        </extensions>
      </trkpt>
      <trkpt lat="48.8369415700435638427734375" lon="-3.47876197658479213714599609375">
        <ele>16.6000003814697265625</ele>
        <time>2026-05-09T11:35:14.000Z</time>
        <extensions>
          <ns3:TrackPointExtension>
            <ns3:atemp>17.0</ns3:atemp>
            <ns3:hr>87</ns3:hr>
          </ns3:TrackPointExtension>
        </extensions>
      </trkpt>
      <trkpt lat="48.836965374648571014404296875" lon="-3.4788061492145061492919921875">
        <ele>16.799999237060546875</ele>
        <time>2026-05-09T11:35:20.000Z</time>
        <extensions>
          <ns3:TrackPointExtension>
            <ns3:atemp>16.0</ns3:atemp>
            <ns3:hr>86</ns3:hr>
          </ns3:TrackPointExtension>
        </extensions>
      </trkpt>
      <trkpt lat="48.83695238269865512847900390625" lon="-3.478781171143054962158203125">
        <ele>16.3999996185302734375</ele>
        <time>2026-05-09T11:35:25.000Z</time>
        <extensions>
          <ns3:TrackPointExtension>
            <ns3:atemp>16.0</ns3:atemp>
            <ns3:hr>86</ns3:hr>
          </ns3:TrackPointExtension>
        </extensions>
      </trkpt>
      <trkpt lat="48.8369122333824634552001953125" lon="-3.47872694022953510284423828125">
        <ele>16.6000003814697265625</ele>
        <time>2026-05-09T11:35:30.000Z</time>
        <extensions>
          <ns3:TrackPointExtension>
            <ns3:atemp>16.0</ns3:atemp>
            <ns3:hr>85</ns3:hr>
          </ns3:TrackPointExtension>
        </extensions>
      </trkpt>
      <trkpt lat="48.83690812624990940093994140625" lon="-3.47872090525925159454345703125">
        <ele>16.6000003814697265625</ele>
        <time>2026-05-09T11:35:31.000Z</time>
        <extensions>
          <ns3:TrackPointExtension>
            <ns3:atemp>16.0</ns3:atemp>
            <ns3:hr>86</ns3:hr>
          </ns3:TrackPointExtension>
        </extensions>
      </trkpt>
      <trkpt lat="48.8368612714111804962158203125" lon="-3.47869961522519588470458984375">
        <ele>16.799999237060546875</ele>
        <time>2026-05-09T11:35:37.000Z</time>
        <extensions>
          <ns3:TrackPointExtension>
            <ns3:atemp>16.0</ns3:atemp>
            <ns3:hr>84</ns3:hr>
          </ns3:TrackPointExtension>
        </extensions>
      </trkpt>
      <trkpt lat="48.83677083067595958709716796875" lon="-3.47862736321985721588134765625">
        <ele>16.3999996185302734375</ele>
        <time>2026-05-09T11:35:46.000Z</time>
        <extensions>
          <ns3:TrackPointExtension>
            <ns3:atemp>16.0</ns3:atemp>
            <ns3:hr>83</ns3:hr>
          </ns3:TrackPointExtension>
        </extensions>
      </trkpt>
      <trkpt lat="48.83672154508531093597412109375" lon="-3.4785600565373897552490234375">
        <ele>17.6000003814697265625</ele>
        <time>2026-05-09T11:35:53.000Z</time>
        <extensions>
          <ns3:TrackPointExtension>
            <ns3:atemp>16.0</ns3:atemp>
            <ns3:hr>83</ns3:hr>
          </ns3:TrackPointExtension>
        </extensions>
      </trkpt>
      <trkpt lat="48.83668935857713222503662109375" lon="-3.47855427302420139312744140625">
        <ele>18</ele>
        <time>2026-05-09T11:35:59.000Z</time>
        <extensions>
          <ns3:TrackPointExtension>
            <ns3:atemp>16.0</ns3:atemp>
            <ns3:hr>84</ns3:hr>
          </ns3:TrackPointExtension>
        </extensions>
      </trkpt>
      <trkpt lat="48.8366859219968318939208984375" lon="-3.47855058498680591583251953125">
        <ele>17.799999237060546875</ele>
        <time>2026-05-09T11:36:04.000Z</time>
        <extensions>
          <ns3:TrackPointExtension>
            <ns3:atemp>16.0</ns3:atemp>
            <ns3:hr>85</ns3:hr>
          </ns3:TrackPointExtension>
        </extensions>
      </trkpt>
      <trkpt lat="48.8366812281310558319091796875" lon="-3.47852091304957866668701171875">
        <ele>17.799999237060546875</ele>
        <time>2026-05-09T11:36:10.000Z</time>
        <extensions>
          <ns3:TrackPointExtension>
            <ns3:atemp>16.0</ns3:atemp>
            <ns3:hr>85</ns3:hr>
          </ns3:TrackPointExtension>
        </extensions>
      </trkpt>
      <trkpt lat="48.83664744906127452850341796875" lon="-3.47846978344023227691650390625">
        <ele>17.799999237060546875</ele>
        <time>2026-05-09T11:36:15.000Z</time>
        <extensions>
          <ns3:TrackPointExtension>
            <ns3:atemp>16.0</ns3:atemp>
            <ns3:hr>84</ns3:hr>
          </ns3:TrackPointExtension>
        </extensions>
      </trkpt>
      <trkpt lat="48.83662465028464794158935546875" lon="-3.47846743650734424591064453125">
        <ele>18.6000003814697265625</ele>
        <time>2026-05-09T11:36:19.000Z</time>
        <extensions>
          <ns3:TrackPointExtension>
            <ns3:atemp>16.0</ns3:atemp>
            <ns3:hr>83</ns3:hr>
          </ns3:TrackPointExtension>
        </extensions>
      </trkpt>
      <trkpt lat="48.8366171903908252716064453125" lon="-3.47846500575542449951171875">
        <ele>18.799999237060546875</ele>
        <time>2026-05-09T11:36:20.000Z</time>
        <extensions>
          <ns3:TrackPointExtension>
            <ns3:atemp>16.0</ns3:atemp>
            <ns3:hr>83</ns3:hr>
          </ns3:TrackPointExtension>
        </extensions>
      </trkpt>
      <trkpt lat="48.8366017676889896392822265625" lon="-3.4784591384232044219970703125">
        <ele>19.799999237060546875</ele>
        <time>2026-05-09T11:36:24.000Z</time>
        <extensions>
          <ns3:TrackPointExtension>
            <ns3:atemp>16.0</ns3:atemp>
            <ns3:hr>84</ns3:hr>
          </ns3:TrackPointExtension>
        </extensions>
      </trkpt>
      <trkpt lat="48.8366017676889896392822265625" lon="-3.478459306061267852783203125">
        <ele>19.799999237060546875</ele>
        <time>2026-05-09T11:36:28.000Z</time>
        <extensions>
          <ns3:TrackPointExtension>
            <ns3:atemp>16.0</ns3:atemp>
            <ns3:hr>85</ns3:hr>
          </ns3:TrackPointExtension>
        </extensions>
      </trkpt>
      <trkpt lat="48.83658793754875659942626953125" lon="-3.47844832576811313629150390625">
        <ele>19</ele>
        <time>2026-05-09T11:36:31.000Z</time>
        <extensions>
          <ns3:TrackPointExtension>
            <ns3:atemp>16.0</ns3:atemp>
            <ns3:hr>88</ns3:hr>
          </ns3:TrackPointExtension>
        </extensions>
      </trkpt>
      <trkpt lat="48.8365756161510944366455078125" lon="-3.47843927331268787384033203125">
        <ele>18.6000003814697265625</ele>
        <time>2026-05-09T11:36:33.000Z</time>
        <extensions>
          <ns3:TrackPointExtension>
            <ns3:atemp>16.0</ns3:atemp>
            <ns3:hr>88</ns3:hr>
          </ns3:TrackPointExtension>
        </extensions>
      </trkpt>
      <trkpt lat="48.8365699164569377899169921875" lon="-3.47843441180884838104248046875">
        <ele>18.6000003814697265625</ele>
        <time>2026-05-09T11:36:34.000Z</time>
        <extensions>
          <ns3:TrackPointExtension>
            <ns3:atemp>16.0</ns3:atemp>
            <ns3:hr>88</ns3:hr>
          </ns3:TrackPointExtension>
        </extensions>
      </trkpt>
      <trkpt lat="48.8365392386913299560546875" lon="-3.478390239179134368896484375">
        <ele>19.799999237060546875</ele>
        <time>2026-05-09T11:36:39.000Z</time>
        <extensions>
          <ns3:TrackPointExtension>
            <ns3:atemp>16.0</ns3:atemp>
            <ns3:hr>90</ns3:hr>
          </ns3:TrackPointExtension>
        </extensions>
      </trkpt>
      <trkpt lat="48.83652255870401859283447265625" lon="-3.4783769957721233367919921875">
        <ele>20.3999996185302734375</ele>
        <time>2026-05-09T11:36:42.000Z</time>
        <extensions>
          <ns3:TrackPointExtension>
            <ns3:atemp>16.0</ns3:atemp>
            <ns3:hr>90</ns3:hr>
          </ns3:TrackPointExtension>
        </extensions>
      </trkpt>
      <trkpt lat="48.836520798504352569580078125" lon="-3.4783655963838100433349609375">
        <ele>20.799999237060546875</ele>
        <time>2026-05-09T11:36:46.000Z</time>
        <extensions>
          <ns3:TrackPointExtension>
            <ns3:atemp>16.0</ns3:atemp>
            <ns3:hr>89</ns3:hr>
          </ns3:TrackPointExtension>
        </extensions>
      </trkpt>
      <trkpt lat="48.83652088232338428497314453125" lon="-3.4783655963838100433349609375">
        <ele>21</ele>
        <time>2026-05-09T11:36:49.000Z</time>
        <extensions>
          <ns3:TrackPointExtension>
            <ns3:atemp>16.0</ns3:atemp>
            <ns3:hr>88</ns3:hr>
          </ns3:TrackPointExtension>
        </extensions>
      </trkpt>
      <trkpt lat="48.83652113378047943115234375" lon="-3.47835763357579708099365234375">
        <ele>21.200000762939453125</ele>
        <time>2026-05-09T11:36:56.000Z</time>
        <extensions>
          <ns3:TrackPointExtension>
            <ns3:atemp>16.0</ns3:atemp>
            <ns3:hr>87</ns3:hr>
          </ns3:TrackPointExtension>
        </extensions>
      </trkpt>
      <trkpt lat="48.83652239106595516204833984375" lon="-3.4783287160098552703857421875">
        <ele>21.3999996185302734375</ele>
        <time>2026-05-09T11:37:03.000Z</time>
        <extensions>
          <ns3:TrackPointExtension>
            <ns3:atemp>16.0</ns3:atemp>
            <ns3:hr>88</ns3:hr>
          </ns3:TrackPointExtension>
        </extensions>
      </trkpt>
      <trkpt lat="48.83649657480418682098388671875" lon="-3.47829644568264484405517578125">
        <ele>21.3999996185302734375</ele>
        <time>2026-05-09T11:37:09.000Z</time>
        <extensions>
          <ns3:TrackPointExtension>
            <ns3:atemp>16.0</ns3:atemp>
            <ns3:hr>91</ns3:hr>
          </ns3:TrackPointExtension>
        </extensions>
      </trkpt>
      <trkpt lat="48.83648484013974666595458984375" lon="-3.47830851562321186065673828125">
        <ele>22</ele>
        <time>2026-05-09T11:37:13.000Z</time>
        <extensions>
          <ns3:TrackPointExtension>
            <ns3:atemp>16.0</ns3:atemp>
            <ns3:hr>89</ns3:hr>
          </ns3:TrackPointExtension>
        </extensions>
      </trkpt>
      <trkpt lat="48.83648433722555637359619140625" lon="-3.47831371240317821502685546875">
        <ele>22</ele>
        <time>2026-05-09T11:37:14.000Z</time>
        <extensions>
          <ns3:TrackPointExtension>
            <ns3:atemp>16.0</ns3:atemp>
            <ns3:hr>88</ns3:hr>
          </ns3:TrackPointExtension>
        </extensions>
      </trkpt>
      <trkpt lat="48.8364985026419162750244140625" lon="-3.47830834798514842987060546875">
        <ele>22</ele>
        <time>2026-05-09T11:37:20.000Z</time>
        <extensions>
          <ns3:TrackPointExtension>
            <ns3:atemp>16.0</ns3:atemp>
            <ns3:hr>86</ns3:hr>
          </ns3:TrackPointExtension>
        </extensions>
      </trkpt>
      <trkpt lat="48.836516104638576507568359375" lon="-3.47831455059349536895751953125">
        <ele>21</ele>
        <time>2026-05-09T11:37:25.000Z</time>
        <extensions>
          <ns3:TrackPointExtension>
            <ns3:atemp>16.0</ns3:atemp>
            <ns3:hr>87</ns3:hr>
          </ns3:TrackPointExtension>
        </extensions>
      </trkpt>
      <trkpt lat="48.8365253247320652008056640625" lon="-3.478353023529052734375">
        <ele>21.799999237060546875</ele>
        <time>2026-05-09T11:37:32.000Z</time>
        <extensions>
          <ns3:TrackPointExtension>
            <ns3:atemp>16.0</ns3:atemp>
            <ns3:hr>85</ns3:hr>
          </ns3:TrackPointExtension>
        </extensions>
      </trkpt>
      <trkpt lat="48.836526833474636077880859375" lon="-3.4783498384058475494384765625">
        <ele>20.799999237060546875</ele>
        <time>2026-05-09T11:37:37.000Z</time>
        <extensions>
          <ns3:TrackPointExtension>
            <ns3:atemp>16.0</ns3:atemp>
            <ns3:hr>86</ns3:hr>
          </ns3:TrackPointExtension>
        </extensions>
      </trkpt>
      <trkpt lat="48.83652758784592151641845703125" lon="-3.4783478267490863800048828125">
        <ele>21.3999996185302734375</ele>
        <time>2026-05-09T11:37:43.000Z</time>
        <extensions>
          <ns3:TrackPointExtension>
            <ns3:atemp>16.0</ns3:atemp>
            <ns3:hr>85</ns3:hr>
          </ns3:TrackPointExtension>
        </extensions>
      </trkpt>
      <trkpt lat="48.83652758784592151641845703125" lon="-3.4783478267490863800048828125">
        <ele>20.799999237060546875</ele>
        <time>2026-05-09T11:37:51.000Z</time>
        <extensions>
          <ns3:TrackPointExtension>
            <ns3:atemp>16.0</ns3:atemp>
            <ns3:hr>82</ns3:hr>
          </ns3:TrackPointExtension>
        </extensions>
      </trkpt>
      <trkpt lat="48.83651283569633960723876953125" lon="-3.4783615730702877044677734375">
        <ele>21.200000762939453125</ele>
        <time>2026-05-09T11:37:55.000Z</time>
        <extensions>
          <ns3:TrackPointExtension>
            <ns3:atemp>16.0</ns3:atemp>
            <ns3:hr>81</ns3:hr>
          </ns3:TrackPointExtension>
        </extensions>
      </trkpt>
      <trkpt lat="48.83650227449834346771240234375" lon="-3.4783525206148624420166015625">
        <ele>21.799999237060546875</ele>
        <time>2026-05-09T11:38:04.000Z</time>
        <extensions>
          <ns3:TrackPointExtension>
            <ns3:atemp>16.0</ns3:atemp>
            <ns3:hr>83</ns3:hr>
          </ns3:TrackPointExtension>
        </extensions>
      </trkpt>
      <trkpt lat="48.836507387459278106689453125" lon="-3.47834757529199123382568359375">
        <ele>21.200000762939453125</ele>
        <time>2026-05-09T11:38:12.000Z</time>
        <extensions>
          <ns3:TrackPointExtension>
            <ns3:atemp>16.0</ns3:atemp>
            <ns3:hr>82</ns3:hr>
          </ns3:TrackPointExtension>
        </extensions>
      </trkpt>
      <trkpt lat="48.8365447707474231719970703125" lon="-3.47839082591235637664794921875">
        <ele>20.6000003814697265625</ele>
        <time>2026-05-09T11:38:18.000Z</time>
        <extensions>
          <ns3:TrackPointExtension>
            <ns3:atemp>16.0</ns3:atemp>
            <ns3:hr>81</ns3:hr>
          </ns3:TrackPointExtension>
        </extensions>
      </trkpt>
      <trkpt lat="48.83655038662254810333251953125" lon="-3.47840121947228908538818359375">
        <ele>20.200000762939453125</ele>
        <time>2026-05-09T11:38:19.000Z</time>
        <extensions>
          <ns3:TrackPointExtension>
            <ns3:atemp>15.0</ns3:atemp>
            <ns3:hr>81</ns3:hr>
          </ns3:TrackPointExtension>
        </extensions>
      </trkpt>
      <trkpt lat="48.83656647987663745880126953125" lon="-3.47842385061085224151611328125">
        <ele>19.799999237060546875</ele>
        <time>2026-05-09T11:38:22.000Z</time>
        <extensions>
          <ns3:TrackPointExtension>
            <ns3:atemp>15.0</ns3:atemp>
            <ns3:hr>81</ns3:hr>
          </ns3:TrackPointExtension>
        </extensions>
      </trkpt>
      <trkpt lat="48.83658542297780513763427734375" lon="-3.47846458666026592254638671875">
        <ele>19.3999996185302734375</ele>
        <time>2026-05-09T11:38:27.000Z</time>
        <extensions>
          <ns3:TrackPointExtension>
            <ns3:atemp>15.0</ns3:atemp>
            <ns3:hr>80</ns3:hr>
          </ns3:TrackPointExtension>
        </extensions>
      </trkpt>
      <trkpt lat="48.836603276431560516357421875" lon="-3.47848202101886272430419921875">
        <ele>19.200000762939453125</ele>
        <time>2026-05-09T11:38:29.000Z</time>
        <extensions>
          <ns3:TrackPointExtension>
            <ns3:atemp>15.0</ns3:atemp>
            <ns3:hr>79</ns3:hr>
          </ns3:TrackPointExtension>
        </extensions>
      </trkpt>
      <trkpt lat="48.8366349600255489349365234375" lon="-3.47847481258213520050048828125">
        <ele>18.6000003814697265625</ele>
        <time>2026-05-09T11:38:33.000Z</time>
        <extensions>
          <ns3:TrackPointExtension>
            <ns3:atemp>15.0</ns3:atemp>
            <ns3:hr>78</ns3:hr>
          </ns3:TrackPointExtension>
        </extensions>
      </trkpt>
      <trkpt lat="48.83663655258715152740478515625" lon="-3.47847917117178440093994140625">
        <ele>17.799999237060546875</ele>
        <time>2026-05-09T11:38:38.000Z</time>
        <extensions>
          <ns3:TrackPointExtension>
            <ns3:atemp>15.0</ns3:atemp>
            <ns3:hr>77</ns3:hr>
          </ns3:TrackPointExtension>
        </extensions>
      </trkpt>
      <trkpt lat="48.83664342574775218963623046875" lon="-3.478490822017192840576171875">
        <ele>17.799999237060546875</ele>
        <time>2026-05-09T11:38:45.000Z</time>
        <extensions>
          <ns3:TrackPointExtension>
            <ns3:atemp>15.0</ns3:atemp>
            <ns3:hr>79</ns3:hr>
          </ns3:TrackPointExtension>
        </extensions>
      </trkpt>
      <trkpt lat="48.836636133491992950439453125" lon="-3.4784772433340549468994140625">
        <ele>17.799999237060546875</ele>
        <time>2026-05-09T11:38:52.000Z</time>
        <extensions>
          <ns3:TrackPointExtension>
            <ns3:atemp>15.0</ns3:atemp>
            <ns3:hr>81</ns3:hr>
          </ns3:TrackPointExtension>
        </extensions>
      </trkpt>
      <trkpt lat="48.83664594031870365142822265625" lon="-3.478492833673954010009765625">
        <ele>17.6000003814697265625</ele>
        <time>2026-05-09T11:39:04.000Z</time>
        <extensions>
          <ns3:TrackPointExtension>
            <ns3:atemp>15.0</ns3:atemp>
            <ns3:hr>86</ns3:hr>
          </ns3:TrackPointExtension>
        </extensions>
      </trkpt>
      <trkpt lat="48.83664594031870365142822265625" lon="-3.478492833673954010009765625">
        <ele>17.3999996185302734375</ele>
        <time>2026-05-09T11:39:05.000Z</time>
        <extensions>
          <ns3:TrackPointExtension>
            <ns3:atemp>15.0</ns3:atemp>
            <ns3:hr>87</ns3:hr>
          </ns3:TrackPointExtension>
        </extensions>
      </trkpt>
      <trkpt lat="48.8366735167801380157470703125" lon="-3.47851186059415340423583984375">
        <ele>17</ele>
        <time>2026-05-09T11:39:09.000Z</time>
        <extensions>
          <ns3:TrackPointExtension>
            <ns3:atemp>15.0</ns3:atemp>
            <ns3:hr>89</ns3:hr>
          </ns3:TrackPointExtension>
        </extensions>
      </trkpt>
      <trkpt lat="48.83669011294841766357421875" lon="-3.4785107709467411041259765625">
        <ele>17.200000762939453125</ele>
        <time>2026-05-09T11:39:11.000Z</time>
        <extensions>
          <ns3:TrackPointExtension>
            <ns3:atemp>15.0</ns3:atemp>
            <ns3:hr>88</ns3:hr>
          </ns3:TrackPointExtension>
        </extensions>
      </trkpt>
      <trkpt lat="48.83670092560350894927978515625" lon="-3.47847531549632549285888671875">
        <ele>17.3999996185302734375</ele>
        <time>2026-05-09T11:39:15.000Z</time>
        <extensions>
          <ns3:TrackPointExtension>
            <ns3:atemp>15.0</ns3:atemp>
            <ns3:hr>88</ns3:hr>
          </ns3:TrackPointExtension>
        </extensions>
      </trkpt>
      <trkpt lat="48.83675440214574337005615234375" lon="-3.478397615253925323486328125">
        <ele>17.6000003814697265625</ele>
        <time>2026-05-09T11:39:21.000Z</time>
        <extensions>
          <ns3:TrackPointExtension>
            <ns3:atemp>15.0</ns3:atemp>
            <ns3:hr>87</ns3:hr>
          </ns3:TrackPointExtension>
        </extensions>
      </trkpt>
      <trkpt lat="48.8367898575961589813232421875" lon="-3.47828990779817104339599609375">
        <ele>17.3999996185302734375</ele>
        <time>2026-05-09T11:39:27.000Z</time>
        <extensions>
          <ns3:TrackPointExtension>
            <ns3:atemp>15.0</ns3:atemp>
            <ns3:hr>87</ns3:hr>
          </ns3:TrackPointExtension>
        </extensions>
      </trkpt>
      <trkpt lat="48.83680871687829494476318359375" lon="-3.47823592834174633026123046875">
        <ele>16.200000762939453125</ele>
        <time>2026-05-09T11:39:31.000Z</time>
        <extensions>
          <ns3:TrackPointExtension>
            <ns3:atemp>15.0</ns3:atemp>
            <ns3:hr>86</ns3:hr>
          </ns3:TrackPointExtension>
        </extensions>
      </trkpt>
      <trkpt lat="48.836806453764438629150390625" lon="-3.47821832634508609771728515625">
        <ele>16</ele>
        <time>2026-05-09T11:39:32.000Z</time>
        <extensions>
          <ns3:TrackPointExtension>
            <ns3:atemp>15.0</ns3:atemp>
            <ns3:hr>86</ns3:hr>
          </ns3:TrackPointExtension>
        </extensions>
      </trkpt>
      <trkpt lat="48.83679664693772792816162109375" lon="-3.478162586688995361328125">
        <ele>16</ele>
        <time>2026-05-09T11:39:36.000Z</time>
        <extensions>
          <ns3:TrackPointExtension>
            <ns3:atemp>15.0</ns3:atemp>
            <ns3:hr>85</ns3:hr>
          </ns3:TrackPointExtension>
        </extensions>
      </trkpt>
      <trkpt lat="48.83677368052303791046142578125" lon="-3.4780651889741420745849609375">
        <ele>15.6000003814697265625</ele>
        <time>2026-05-09T11:39:42.000Z</time>
        <extensions>
          <ns3:TrackPointExtension>
            <ns3:atemp>15.0</ns3:atemp>
            <ns3:hr>83</ns3:hr>
          </ns3:TrackPointExtension>
        </extensions>
      </trkpt>
      <trkpt lat="48.83675222285091876983642578125" lon="-3.47797416150569915771484375">
        <ele>15.3999996185302734375</ele>
        <time>2026-05-09T11:39:47.000Z</time>
        <extensions>
          <ns3:TrackPointExtension>
            <ns3:atemp>15.0</ns3:atemp>
            <ns3:hr>82</ns3:hr>
          </ns3:TrackPointExtension>
        </extensions>
      </trkpt>
      <trkpt lat="48.83674937300384044647216796875" lon="-3.47795647569000720977783203125">
        <ele>15.19999980926513671875</ele>
        <time>2026-05-09T11:39:48.000Z</time>
        <extensions>
          <ns3:TrackPointExtension>
            <ns3:atemp>15.0</ns3:atemp>
            <ns3:hr>82</ns3:hr>
          </ns3:TrackPointExtension>
        </extensions>
      </trkpt>
      <trkpt lat="48.836717270314693450927734375" lon="-3.477861173450946807861328125">
        <ele>15</ele>
        <time>2026-05-09T11:39:53.000Z</time>
        <extensions>
          <ns3:TrackPointExtension>
            <ns3:atemp>15.0</ns3:atemp>
            <ns3:hr>82</ns3:hr>
          </ns3:TrackPointExtension>
        </extensions>
      </trkpt>
      <trkpt lat="48.8366943039000034332275390625" lon="-3.47776201553642749786376953125">
        <ele>14.6000003814697265625</ele>
        <time>2026-05-09T11:39:59.000Z</time>
        <extensions>
          <ns3:TrackPointExtension>
            <ns3:atemp>15.0</ns3:atemp>
            <ns3:hr>80</ns3:hr>
          </ns3:TrackPointExtension>
        </extensions>
      </trkpt>
      <trkpt lat="48.83668835274875164031982421875" lon="-3.477749191224575042724609375">
        <ele>14.19999980926513671875</ele>
        <time>2026-05-09T11:40:01.000Z</time>
        <extensions>
          <ns3:TrackPointExtension>
            <ns3:atemp>15.0</ns3:atemp>
            <ns3:hr>80</ns3:hr>
          </ns3:TrackPointExtension>
        </extensions>
      </trkpt>
      <trkpt lat="48.836689107120037078857421875" lon="-3.4777455031871795654296875">
        <ele>14</ele>
        <time>2026-05-09T11:40:04.000Z</time>
        <extensions>
          <ns3:TrackPointExtension>
            <ns3:atemp>15.0</ns3:atemp>
            <ns3:hr>80</ns3:hr>
          </ns3:TrackPointExtension>
        </extensions>
      </trkpt>
      <trkpt lat="48.836666308343410491943359375" lon="-3.47765003331005573272705078125">
        <ele>14.3999996185302734375</ele>
        <time>2026-05-09T11:40:10.000Z</time>
        <extensions>
          <ns3:TrackPointExtension>
            <ns3:atemp>15.0</ns3:atemp>
            <ns3:hr>79</ns3:hr>
          </ns3:TrackPointExtension>
        </extensions>
      </trkpt>
      <trkpt lat="48.83664510212838649749755859375" lon="-3.4775847382843494415283203125">
        <ele>14</ele>
        <time>2026-05-09T11:40:15.000Z</time>
        <extensions>
          <ns3:TrackPointExtension>
            <ns3:atemp>15.0</ns3:atemp>
            <ns3:hr>81</ns3:hr>
          </ns3:TrackPointExtension>
        </extensions>
      </trkpt>
      <trkpt lat="48.83662615902721881866455078125" lon="-3.47752086818218231201171875">
        <ele>13.80000019073486328125</ele>
        <time>2026-05-09T11:40:19.000Z</time>
        <extensions>
          <ns3:TrackPointExtension>
            <ns3:atemp>16.0</ns3:atemp>
            <ns3:hr>81</ns3:hr>
          </ns3:TrackPointExtension>
        </extensions>
      </trkpt>
      <trkpt lat="48.83659866638481616973876953125" lon="-3.47742757759988307952880859375">
        <ele>13.6000003814697265625</ele>
        <time>2026-05-09T11:40:26.000Z</time>
        <extensions>
          <ns3:TrackPointExtension>
            <ns3:atemp>16.0</ns3:atemp>
            <ns3:hr>81</ns3:hr>
          </ns3:TrackPointExtension>
        </extensions>
      </trkpt>
      <trkpt lat="48.83657318539917469024658203125" lon="-3.477373011410236358642578125">
        <ele>13</ele>
        <time>2026-05-09T11:40:30.000Z</time>
        <extensions>
          <ns3:TrackPointExtension>
            <ns3:atemp>16.0</ns3:atemp>
            <ns3:hr>80</ns3:hr>
          </ns3:TrackPointExtension>
        </extensions>
      </trkpt>
      <trkpt lat="48.83656513877213001251220703125" lon="-3.47734828479588031768798828125">
        <ele>13</ele>
        <time>2026-05-09T11:40:32.000Z</time>
        <extensions>
          <ns3:TrackPointExtension>
            <ns3:atemp>16.0</ns3:atemp>
            <ns3:hr>80</ns3:hr>
          </ns3:TrackPointExtension>
        </extensions>
      </trkpt>
      <trkpt lat="48.83654150180518627166748046875" lon="-3.47725843079388141632080078125">
        <ele>13.6000003814697265625</ele>
        <time>2026-05-09T11:40:39.000Z</time>
        <extensions>
          <ns3:TrackPointExtension>
            <ns3:atemp>16.0</ns3:atemp>
            <ns3:hr>81</ns3:hr>
          </ns3:TrackPointExtension>
        </extensions>
      </trkpt>
      <trkpt lat="48.83650906383991241455078125" lon="-3.477190621197223663330078125">
        <ele>13.3999996185302734375</ele>
        <time>2026-05-09T11:40:46.000Z</time>
        <extensions>
          <ns3:TrackPointExtension>
            <ns3:atemp>16.0</ns3:atemp>
            <ns3:hr>79</ns3:hr>
          </ns3:TrackPointExtension>
        </extensions>
      </trkpt>
      <trkpt lat="48.83651434443891048431396484375" lon="-3.4772065468132495880126953125">
        <ele>13.3999996185302734375</ele>
        <time>2026-05-09T11:40:48.000Z</time>
        <extensions>
          <ns3:TrackPointExtension>
            <ns3:atemp>16.0</ns3:atemp>
            <ns3:hr>77</ns3:hr>
          </ns3:TrackPointExtension>
        </extensions>
      </trkpt>
      <trkpt lat="48.8365189544856548309326171875" lon="-3.4772125817835330963134765625">
        <ele>13.6000003814697265625</ele>
        <time>2026-05-09T11:40:50.000Z</time>
        <extensions>
          <ns3:TrackPointExtension>
            <ns3:atemp>16.0</ns3:atemp>
            <ns3:hr>75</ns3:hr>
          </ns3:TrackPointExtension>
        </extensions>
      </trkpt>
      <trkpt lat="48.8365099020302295684814453125" lon="-3.477181233465671539306640625">
        <ele>13.6000003814697265625</ele>
        <time>2026-05-09T11:40:52.000Z</time>
        <extensions>
          <ns3:TrackPointExtension>
            <ns3:atemp>16.0</ns3:atemp>
            <ns3:hr>75</ns3:hr>
          </ns3:TrackPointExtension>
        </extensions>
      </trkpt>
      <trkpt lat="48.83648299612104892730712890625" lon="-3.4771312773227691650390625">
        <ele>13.6000003814697265625</ele>
        <time>2026-05-09T11:40:57.000Z</time>
        <extensions>
          <ns3:TrackPointExtension>
            <ns3:atemp>16.0</ns3:atemp>
            <ns3:hr>75</ns3:hr>
          </ns3:TrackPointExtension>
        </extensions>
      </trkpt>
      <trkpt lat="48.83646992035210132598876953125" lon="-3.47712230868637561798095703125">
        <ele>13.3999996185302734375</ele>
        <time>2026-05-09T11:41:02.000Z</time>
        <extensions>
          <ns3:TrackPointExtension>
            <ns3:atemp>16.0</ns3:atemp>
            <ns3:hr>75</ns3:hr>
          </ns3:TrackPointExtension>
        </extensions>
      </trkpt>
      <trkpt lat="48.83646614849567413330078125" lon="-3.47703916020691394805908203125">
        <ele>13.80000019073486328125</ele>
        <time>2026-05-09T11:41:07.000Z</time>
        <extensions>
          <ns3:TrackPointExtension>
            <ns3:atemp>16.0</ns3:atemp>
            <ns3:hr>76</ns3:hr>
          </ns3:TrackPointExtension>
        </extensions>
      </trkpt>
      <trkpt lat="48.8364250771701335906982421875" lon="-3.476965315639972686767578125">
        <ele>13.3999996185302734375</ele>
        <time>2026-05-09T11:41:12.000Z</time>
        <extensions>
          <ns3:TrackPointExtension>
            <ns3:atemp>16.0</ns3:atemp>
            <ns3:hr>77</ns3:hr>
          </ns3:TrackPointExtension>
        </extensions>
      </trkpt>
      <trkpt lat="48.83637285791337490081787109375" lon="-3.47692483104765415191650390625">
        <ele>13.80000019073486328125</ele>
        <time>2026-05-09T11:41:17.000Z</time>
        <extensions>
          <ns3:TrackPointExtension>
            <ns3:atemp>16.0</ns3:atemp>
            <ns3:hr>78</ns3:hr>
          </ns3:TrackPointExtension>
        </extensions>
      </trkpt>
      <trkpt lat="48.83637520484626293182373046875" lon="-3.476929105818271636962890625">
        <ele>13.6000003814697265625</ele>
        <time>2026-05-09T11:41:18.000Z</time>
        <extensions>
          <ns3:TrackPointExtension>
            <ns3:atemp>16.0</ns3:atemp>
            <ns3:hr>78</ns3:hr>
          </ns3:TrackPointExtension>
        </extensions>
      </trkpt>
      <trkpt lat="48.83635072968900203704833984375" lon="-3.476905636489391326904296875">
        <ele>12.80000019073486328125</ele>
        <time>2026-05-09T11:41:24.000Z</time>
        <extensions>
          <ns3:TrackPointExtension>
            <ns3:atemp>16.0</ns3:atemp>
            <ns3:hr>78</ns3:hr>
          </ns3:TrackPointExtension>
        </extensions>
      </trkpt>
      <trkpt lat="48.836335055530071258544921875" lon="-3.476896584033966064453125">
        <ele>13</ele>
        <time>2026-05-09T11:41:30.000Z</time>
        <extensions>
          <ns3:TrackPointExtension>
            <ns3:atemp>16.0</ns3:atemp>
            <ns3:hr>77</ns3:hr>
          </ns3:TrackPointExtension>
        </extensions>
      </trkpt>
      <trkpt lat="48.836265318095684051513671875" lon="-3.47685794346034526824951171875">
        <ele>12.3999996185302734375</ele>
        <time>2026-05-09T11:41:37.000Z</time>
        <extensions>
          <ns3:TrackPointExtension>
            <ns3:atemp>16.0</ns3:atemp>
            <ns3:hr>75</ns3:hr>
          </ns3:TrackPointExtension>
        </extensions>
      </trkpt>
      <trkpt lat="48.83618745021522045135498046875" lon="-3.476829193532466888427734375">
        <ele>12.6000003814697265625</ele>
        <time>2026-05-09T11:41:44.000Z</time>
        <extensions>
          <ns3:TrackPointExtension>
            <ns3:atemp>16.0</ns3:atemp>
            <ns3:hr>75</ns3:hr>
          </ns3:TrackPointExtension>
        </extensions>
      </trkpt>
      <trkpt lat="48.836114443838596343994140625" lon="-3.47674160264432430267333984375">
        <ele>12.80000019073486328125</ele>
        <time>2026-05-09T11:41:52.000Z</time>
        <extensions>
          <ns3:TrackPointExtension>
            <ns3:atemp>16.0</ns3:atemp>
            <ns3:hr>75</ns3:hr>
          </ns3:TrackPointExtension>
        </extensions>
      </trkpt>
      <trkpt lat="48.8360482268035411834716796875" lon="-3.47664051689207553863525390625">
        <ele>13</ele>
        <time>2026-05-09T11:42:00.000Z</time>
        <extensions>
          <ns3:TrackPointExtension>
            <ns3:atemp>16.0</ns3:atemp>
            <ns3:hr>75</ns3:hr>
          </ns3:TrackPointExtension>
        </extensions>
      </trkpt>
      <trkpt lat="48.83597924374043941497802734375" lon="-3.47653515636920928955078125">
        <ele>13.80000019073486328125</ele>
        <time>2026-05-09T11:42:08.000Z</time>
        <extensions>
          <ns3:TrackPointExtension>
            <ns3:atemp>16.0</ns3:atemp>
            <ns3:hr>76</ns3:hr>
          </ns3:TrackPointExtension>
        </extensions>
      </trkpt>
      <trkpt lat="48.83597035892307758331298828125" lon="-3.47654663957655429840087890625">
        <ele>14</ele>
        <time>2026-05-09T11:42:13.000Z</time>
        <extensions>
          <ns3:TrackPointExtension>
            <ns3:atemp>16.0</ns3:atemp>
            <ns3:hr>78</ns3:hr>
          </ns3:TrackPointExtension>
        </extensions>
      </trkpt>
      <trkpt lat="48.83597035892307758331298828125" lon="-3.47654663957655429840087890625">
        <ele>13.3999996185302734375</ele>
        <time>2026-05-09T11:42:19.000Z</time>
        <extensions>
          <ns3:TrackPointExtension>
            <ns3:atemp>16.0</ns3:atemp>
            <ns3:hr>81</ns3:hr>
          </ns3:TrackPointExtension>
        </extensions>
      </trkpt>
      <trkpt lat="48.83597932755947113037109375" lon="-3.47654345445334911346435546875">
        <ele>13</ele>
        <time>2026-05-09T11:42:22.000Z</time>
        <extensions>
          <ns3:TrackPointExtension>
            <ns3:atemp>16.0</ns3:atemp>
            <ns3:hr>82</ns3:hr>
          </ns3:TrackPointExtension>
        </extensions>
      </trkpt>
      <trkpt lat="48.83598829619586467742919921875" lon="-3.4765306301414966583251953125">
        <ele>12.80000019073486328125</ele>
        <time>2026-05-09T11:42:24.000Z</time>
        <extensions>
          <ns3:TrackPointExtension>
            <ns3:atemp>16.0</ns3:atemp>
            <ns3:hr>83</ns3:hr>
          </ns3:TrackPointExtension>
        </extensions>
      </trkpt>
      <trkpt lat="48.8359483145177364349365234375" lon="-3.476538173854351043701171875">
        <ele>13.19999980926513671875</ele>
        <time>2026-05-09T11:42:35.000Z</time>
        <extensions>
          <ns3:TrackPointExtension>
            <ns3:atemp>16.0</ns3:atemp>
            <ns3:hr>84</ns3:hr>
          </ns3:TrackPointExtension>
        </extensions>
      </trkpt>
      <trkpt lat="48.8359157927334308624267578125" lon="-3.47651763819158077239990234375">
        <ele>14</ele>
        <time>2026-05-09T11:42:39.000Z</time>
        <extensions>
          <ns3:TrackPointExtension>
            <ns3:atemp>16.0</ns3:atemp>
            <ns3:hr>83</ns3:hr>
          </ns3:TrackPointExtension>
        </extensions>
      </trkpt>
      <trkpt lat="48.83590732701122760772705078125" lon="-3.4765131957828998565673828125">
        <ele>14.19999980926513671875</ele>
        <time>2026-05-09T11:42:40.000Z</time>
        <extensions>
          <ns3:TrackPointExtension>
            <ns3:atemp>16.0</ns3:atemp>
            <ns3:hr>83</ns3:hr>
          </ns3:TrackPointExtension>
        </extensions>
      </trkpt>
      <trkpt lat="48.83584815077483654022216796875" lon="-3.47644991241395473480224609375">
        <ele>15</ele>
        <time>2026-05-09T11:42:47.000Z</time>
        <extensions>
          <ns3:TrackPointExtension>
            <ns3:atemp>16.0</ns3:atemp>
            <ns3:hr>82</ns3:hr>
          </ns3:TrackPointExtension>
        </extensions>
      </trkpt>
      <trkpt lat="48.83583457209169864654541015625" lon="-3.476446978747844696044921875">
        <ele>15.19999980926513671875</ele>
        <time>2026-05-09T11:42:48.000Z</time>
        <extensions>
          <ns3:TrackPointExtension>
            <ns3:atemp>16.0</ns3:atemp>
            <ns3:hr>82</ns3:hr>
          </ns3:TrackPointExtension>
        </extensions>
      </trkpt>
      <trkpt lat="48.83580942638218402862548828125" lon="-3.476464413106441497802734375">
        <ele>15</ele>
        <time>2026-05-09T11:42:54.000Z</time>
        <extensions>
          <ns3:TrackPointExtension>
            <ns3:atemp>16.0</ns3:atemp>
            <ns3:hr>84</ns3:hr>
          </ns3:TrackPointExtension>
        </extensions>
      </trkpt>
      <trkpt lat="48.83580892346799373626708984375" lon="-3.47646550275385379791259765625">
        <ele>15</ele>
        <time>2026-05-09T11:43:02.000Z</time>
        <extensions>
          <ns3:TrackPointExtension>
            <ns3:atemp>16.0</ns3:atemp>
            <ns3:hr>87</ns3:hr>
          </ns3:TrackPointExtension>
        </extensions>
      </trkpt>
      <trkpt lat="48.83578562177717685699462890625" lon="-3.47645066678524017333984375">
        <ele>14.6000003814697265625</ele>
        <time>2026-05-09T11:43:07.000Z</time>
        <extensions>
          <ns3:TrackPointExtension>
            <ns3:atemp>16.0</ns3:atemp>
            <ns3:hr>87</ns3:hr>
          </ns3:TrackPointExtension>
        </extensions>
      </trkpt>
      <trkpt lat="48.835754692554473876953125" lon="-3.47643096931278705596923828125">
        <ele>14.3999996185302734375</ele>
        <time>2026-05-09T11:43:11.000Z</time>
        <extensions>
          <ns3:TrackPointExtension>
            <ns3:atemp>16.0</ns3:atemp>
            <ns3:hr>84</ns3:hr>
          </ns3:TrackPointExtension>
        </extensions>
      </trkpt>
      <trkpt lat="48.835752345621585845947265625" lon="-3.47643046639859676361083984375">
        <ele>14.3999996185302734375</ele>
        <time>2026-05-09T11:43:14.000Z</time>
        <extensions>
          <ns3:TrackPointExtension>
            <ns3:atemp>16.0</ns3:atemp>
            <ns3:hr>82</ns3:hr>
          </ns3:TrackPointExtension>
        </extensions>
      </trkpt>
      <trkpt lat="48.835752345621585845947265625" lon="-3.47643046639859676361083984375">
        <ele>13.80000019073486328125</ele>
        <time>2026-05-09T11:43:19.000Z</time>
        <extensions>
          <ns3:TrackPointExtension>
            <ns3:atemp>16.0</ns3:atemp>
            <ns3:hr>80</ns3:hr>
          </ns3:TrackPointExtension>
        </extensions>
      </trkpt>
      <trkpt lat="48.8357391022145748138427734375" lon="-3.47643163986504077911376953125">
        <ele>13.80000019073486328125</ele>
        <time>2026-05-09T11:43:26.000Z</time>
        <extensions>
          <ns3:TrackPointExtension>
            <ns3:atemp>16.0</ns3:atemp>
            <ns3:hr>82</ns3:hr>
          </ns3:TrackPointExtension>
        </extensions>
      </trkpt>
      <trkpt lat="48.83570699952542781829833984375" lon="-3.47644018940627574920654296875">
        <ele>13</ele>
        <time>2026-05-09T11:43:32.000Z</time>
        <extensions>
          <ns3:TrackPointExtension>
            <ns3:atemp>16.0</ns3:atemp>
            <ns3:hr>82</ns3:hr>
          </ns3:TrackPointExtension>
        </extensions>
      </trkpt>
      <trkpt lat="48.83571085520088672637939453125" lon="-3.47643918357789516448974609375">
        <ele>12.80000019073486328125</ele>
        <time>2026-05-09T11:43:33.000Z</time>
        <extensions>
          <ns3:TrackPointExtension>
            <ns3:atemp>16.0</ns3:atemp>
            <ns3:hr>82</ns3:hr>
          </ns3:TrackPointExtension>
        </extensions>
      </trkpt>
      <trkpt lat="48.83572158403694629669189453125" lon="-3.47643951885402202606201171875">
        <ele>13</ele>
        <time>2026-05-09T11:43:35.000Z</time>
        <extensions>
          <ns3:TrackPointExtension>
            <ns3:atemp>16.0</ns3:atemp>
            <ns3:hr>85</ns3:hr>
          </ns3:TrackPointExtension>
        </extensions>
      </trkpt>
      <trkpt lat="48.83573113940656185150146484375" lon="-3.47642610780894756317138671875">
        <ele>13.3999996185302734375</ele>
        <time>2026-05-09T11:43:37.000Z</time>
        <extensions>
          <ns3:TrackPointExtension>
            <ns3:atemp>16.0</ns3:atemp>
            <ns3:hr>89</ns3:hr>
          </ns3:TrackPointExtension>
        </extensions>
      </trkpt>
      <trkpt lat="48.8357334025204181671142578125" lon="-3.4764260239899158477783203125">
        <ele>14</ele>
        <time>2026-05-09T11:43:39.000Z</time>
        <extensions>
          <ns3:TrackPointExtension>
            <ns3:atemp>16.0</ns3:atemp>
            <ns3:hr>89</ns3:hr>
          </ns3:TrackPointExtension>
        </extensions>
      </trkpt>
      <trkpt lat="48.8357211649417877197265625" lon="-3.47643650136888027191162109375">
        <ele>13.3999996185302734375</ele>
        <time>2026-05-09T11:43:48.000Z</time>
        <extensions>
          <ns3:TrackPointExtension>
            <ns3:atemp>16.0</ns3:atemp>
            <ns3:hr>86</ns3:hr>
          </ns3:TrackPointExtension>
        </extensions>
      </trkpt>
      <trkpt lat="48.83571202866733074188232421875" lon="-3.47643499262630939483642578125">
        <ele>13.19999980926513671875</ele>
        <time>2026-05-09T11:43:49.000Z</time>
        <extensions>
          <ns3:TrackPointExtension>
            <ns3:atemp>16.0</ns3:atemp>
            <ns3:hr>86</ns3:hr>
          </ns3:TrackPointExtension>
        </extensions>
      </trkpt>
      <trkpt lat="48.83569107390940189361572265625" lon="-3.4764300473034381866455078125">
        <ele>13.19999980926513671875</ele>
        <time>2026-05-09T11:43:51.000Z</time>
        <extensions>
          <ns3:TrackPointExtension>
            <ns3:atemp>16.0</ns3:atemp>
            <ns3:hr>82</ns3:hr>
          </ns3:TrackPointExtension>
        </extensions>
      </trkpt>
      <trkpt lat="48.8356663472950458526611328125" lon="-3.476428203284740447998046875">
        <ele>13.19999980926513671875</ele>
        <time>2026-05-09T11:43:53.000Z</time>
        <extensions>
          <ns3:TrackPointExtension>
            <ns3:atemp>16.0</ns3:atemp>
            <ns3:hr>79</ns3:hr>
          </ns3:TrackPointExtension>
        </extensions>
      </trkpt>
      <trkpt lat="48.83565151132643222808837890625" lon="-3.4764303825795650482177734375">
        <ele>13.19999980926513671875</ele>
        <time>2026-05-09T11:43:54.000Z</time>
        <extensions>
          <ns3:TrackPointExtension>
            <ns3:atemp>16.0</ns3:atemp>
            <ns3:hr>76</ns3:hr>
          </ns3:TrackPointExtension>
        </extensions>
      </trkpt>
      <trkpt lat="48.83563977666199207305908203125" lon="-3.47643063403666019439697265625">
        <ele>12.80000019073486328125</ele>
        <time>2026-05-09T11:43:55.000Z</time>
        <extensions>
          <ns3:TrackPointExtension>
            <ns3:atemp>16.0</ns3:atemp>
            <ns3:hr>74</ns3:hr>
          </ns3:TrackPointExtension>
        </extensions>
      </trkpt>
      <trkpt lat="48.835577331483364105224609375" lon="-3.47640783526003360748291015625">
        <ele>12.6000003814697265625</ele>
        <time>2026-05-09T11:44:01.000Z</time>
        <extensions>
          <ns3:TrackPointExtension>
            <ns3:atemp>16.0</ns3:atemp>
            <ns3:hr>73</ns3:hr>
          </ns3:TrackPointExtension>
        </extensions>
      </trkpt>
      <trkpt lat="48.83550683967769145965576171875" lon="-3.47638738341629505157470703125">
        <ele>12.80000019073486328125</ele>
        <time>2026-05-09T11:44:09.000Z</time>
        <extensions>
          <ns3:TrackPointExtension>
            <ns3:atemp>16.0</ns3:atemp>
            <ns3:hr>73</ns3:hr>
          </ns3:TrackPointExtension>
        </extensions>
      </trkpt>
      <trkpt lat="48.8355060853064060211181640625" lon="-3.4763824380934238433837890625">
        <ele>11.80000019073486328125</ele>
        <time>2026-05-09T11:44:14.000Z</time>
        <extensions>
          <ns3:TrackPointExtension>
            <ns3:atemp>16.0</ns3:atemp>
            <ns3:hr>72</ns3:hr>
          </ns3:TrackPointExtension>
        </extensions>
      </trkpt>
      <trkpt lat="48.83550566621124744415283203125" lon="-3.47638235427439212799072265625">
        <ele>12.6000003814697265625</ele>
        <time>2026-05-09T11:44:16.000Z</time>
        <extensions>
          <ns3:TrackPointExtension>
            <ns3:atemp>16.0</ns3:atemp>
            <ns3:hr>72</ns3:hr>
          </ns3:TrackPointExtension>
        </extensions>
      </trkpt>
      <trkpt lat="48.83547448553144931793212890625" lon="-3.47636072896420955657958984375">
        <ele>13.80000019073486328125</ele>
        <time>2026-05-09T11:44:19.000Z</time>
        <extensions>
          <ns3:TrackPointExtension>
            <ns3:atemp>16.0</ns3:atemp>
            <ns3:hr>72</ns3:hr>
          </ns3:TrackPointExtension>
        </extensions>
      </trkpt>
      <trkpt lat="48.8354671932756900787353515625" lon="-3.47635234706103801727294921875">
        <ele>15</ele>
        <time>2026-05-09T11:44:20.000Z</time>
        <extensions>
          <ns3:TrackPointExtension>
            <ns3:atemp>16.0</ns3:atemp>
            <ns3:hr>72</ns3:hr>
          </ns3:TrackPointExtension>
        </extensions>
      </trkpt>
      <trkpt lat="48.83542955853044986724853515625" lon="-3.47634379751980304718017578125">
        <ele>15</ele>
        <time>2026-05-09T11:44:23.000Z</time>
        <extensions>
          <ns3:TrackPointExtension>
            <ns3:atemp>16.0</ns3:atemp>
            <ns3:hr>72</ns3:hr>
          </ns3:TrackPointExtension>
        </extensions>
      </trkpt>
      <trkpt lat="48.83533199317753314971923828125" lon="-3.476324267685413360595703125">
        <ele>15.19999980926513671875</ele>
        <time>2026-05-09T11:44:31.000Z</time>
        <extensions>
          <ns3:TrackPointExtension>
            <ns3:atemp>16.0</ns3:atemp>
            <ns3:hr>75</ns3:hr>
          </ns3:TrackPointExtension>
        </extensions>
      </trkpt>
      <trkpt lat="48.83531824685633182525634765625" lon="-3.476310186088085174560546875">
        <ele>15.3999996185302734375</ele>
        <time>2026-05-09T11:44:33.000Z</time>
        <extensions>
          <ns3:TrackPointExtension>
            <ns3:atemp>16.0</ns3:atemp>
            <ns3:hr>76</ns3:hr>
          </ns3:TrackPointExtension>
        </extensions>
      </trkpt>
      <trkpt lat="48.8353012315928936004638671875" lon="-3.4762888960540294647216796875">
        <ele>15.80000019073486328125</ele>
        <time>2026-05-09T11:44:35.000Z</time>
        <extensions>
          <ns3:TrackPointExtension>
            <ns3:atemp>16.0</ns3:atemp>
            <ns3:hr>79</ns3:hr>
          </ns3:TrackPointExtension>
        </extensions>
      </trkpt>
      <trkpt lat="48.83528874255716800689697265625" lon="-3.4762808494269847869873046875">
        <ele>15.80000019073486328125</ele>
        <time>2026-05-09T11:44:36.000Z</time>
        <extensions>
          <ns3:TrackPointExtension>
            <ns3:atemp>16.0</ns3:atemp>
            <ns3:hr>80</ns3:hr>
          </ns3:TrackPointExtension>
        </extensions>
      </trkpt>
      <trkpt lat="48.83526317775249481201171875" lon="-3.4762704558670520782470703125">
        <ele>16</ele>
        <time>2026-05-09T11:44:38.000Z</time>
        <extensions>
          <ns3:TrackPointExtension>
            <ns3:atemp>16.0</ns3:atemp>
            <ns3:hr>81</ns3:hr>
          </ns3:TrackPointExtension>
        </extensions>
      </trkpt>
      <trkpt lat="48.835218250751495361328125" lon="-3.47625075839459896087646484375">
        <ele>15.6000003814697265625</ele>
        <time>2026-05-09T11:44:42.000Z</time>
        <extensions>
          <ns3:TrackPointExtension>
            <ns3:atemp>16.0</ns3:atemp>
            <ns3:hr>84</ns3:hr>
          </ns3:TrackPointExtension>
        </extensions>
      </trkpt>
      <trkpt lat="48.83520978502929210662841796875" lon="-3.4762473218142986297607421875">
        <ele>15.6000003814697265625</ele>
        <time>2026-05-09T11:44:43.000Z</time>
        <extensions>
          <ns3:TrackPointExtension>
            <ns3:atemp>16.0</ns3:atemp>
            <ns3:hr>84</ns3:hr>
          </ns3:TrackPointExtension>
        </extensions>
      </trkpt>
      <trkpt lat="48.83515127934515476226806640625" lon="-3.4762047417461872100830078125">
        <ele>15.80000019073486328125</ele>
        <time>2026-05-09T11:44:49.000Z</time>
        <extensions>
          <ns3:TrackPointExtension>
            <ns3:atemp>16.0</ns3:atemp>
            <ns3:hr>86</ns3:hr>
          </ns3:TrackPointExtension>
        </extensions>
      </trkpt>
      <trkpt lat="48.8351091183722019195556640625" lon="-3.47622628323733806610107421875">
        <ele>15.6000003814697265625</ele>
        <time>2026-05-09T11:44:55.000Z</time>
        <extensions>
          <ns3:TrackPointExtension>
            <ns3:atemp>16.0</ns3:atemp>
            <ns3:hr>87</ns3:hr>
          </ns3:TrackPointExtension>
        </extensions>
      </trkpt>
      <trkpt lat="48.8350859843194484710693359375" lon="-3.4762268699705600738525390625">
        <ele>15.80000019073486328125</ele>
        <time>2026-05-09T11:45:02.000Z</time>
        <extensions>
          <ns3:TrackPointExtension>
            <ns3:atemp>16.0</ns3:atemp>
            <ns3:hr>86</ns3:hr>
          </ns3:TrackPointExtension>
        </extensions>
      </trkpt>
      <trkpt lat="48.83506712503731250762939453125" lon="-3.47623583860695362091064453125">
        <ele>16.200000762939453125</ele>
        <time>2026-05-09T11:45:10.000Z</time>
        <extensions>
          <ns3:TrackPointExtension>
            <ns3:atemp>16.0</ns3:atemp>
            <ns3:hr>87</ns3:hr>
          </ns3:TrackPointExtension>
        </extensions>
      </trkpt>
      <trkpt lat="48.83506712503731250762939453125" lon="-3.47623583860695362091064453125">
        <ele>16</ele>
        <time>2026-05-09T11:45:20.000Z</time>
        <extensions>
          <ns3:TrackPointExtension>
            <ns3:atemp>16.0</ns3:atemp>
            <ns3:hr>90</ns3:hr>
          </ns3:TrackPointExtension>
        </extensions>
      </trkpt>
      <trkpt lat="48.83506645448505878448486328125" lon="-3.476231396198272705078125">
        <ele>15.80000019073486328125</ele>
        <time>2026-05-09T11:45:29.000Z</time>
        <extensions>
          <ns3:TrackPointExtension>
            <ns3:atemp>16.0</ns3:atemp>
            <ns3:hr>91</ns3:hr>
          </ns3:TrackPointExtension>
        </extensions>
      </trkpt>
      <trkpt lat="48.83500845171511173248291015625" lon="-3.47620968706905841827392578125">
        <ele>15.80000019073486328125</ele>
        <time>2026-05-09T11:45:33.000Z</time>
        <extensions>
          <ns3:TrackPointExtension>
            <ns3:atemp>16.0</ns3:atemp>
            <ns3:hr>91</ns3:hr>
          </ns3:TrackPointExtension>
        </extensions>
      </trkpt>
      <trkpt lat="48.8349233753979206085205078125" lon="-3.47620348446071147918701171875">
        <ele>16.6000003814697265625</ele>
        <time>2026-05-09T11:45:41.000Z</time>
        <extensions>
          <ns3:TrackPointExtension>
            <ns3:atemp>16.0</ns3:atemp>
            <ns3:hr>92</ns3:hr>
          </ns3:TrackPointExtension>
        </extensions>
      </trkpt>
      <trkpt lat="48.8349015824496746063232421875" lon="-3.47615201957523822784423828125">
        <ele>16.3999996185302734375</ele>
        <time>2026-05-09T11:45:47.000Z</time>
        <extensions>
          <ns3:TrackPointExtension>
            <ns3:atemp>16.0</ns3:atemp>
            <ns3:hr>91</ns3:hr>
          </ns3:TrackPointExtension>
        </extensions>
      </trkpt>
      <trkpt lat="48.83490066044032573699951171875" lon="-3.47616325132548809051513671875">
        <ele>17.200000762939453125</ele>
        <time>2026-05-09T11:45:53.000Z</time>
        <extensions>
          <ns3:TrackPointExtension>
            <ns3:atemp>16.0</ns3:atemp>
            <ns3:hr>90</ns3:hr>
          </ns3:TrackPointExtension>
        </extensions>
      </trkpt>
      <trkpt lat="48.8349009118974208831787109375" lon="-3.47619677893817424774169921875">
        <ele>17.6000003814697265625</ele>
        <time>2026-05-09T11:45:56.000Z</time>
        <extensions>
          <ns3:TrackPointExtension>
            <ns3:atemp>16.0</ns3:atemp>
            <ns3:hr>90</ns3:hr>
          </ns3:TrackPointExtension>
        </extensions>
      </trkpt>
      <trkpt lat="48.83489496074616909027099609375" lon="-3.4762111119925975799560546875">
        <ele>17</ele>
        <time>2026-05-09T11:45:58.000Z</time>
        <extensions>
          <ns3:TrackPointExtension>
            <ns3:atemp>16.0</ns3:atemp>
            <ns3:hr>91</ns3:hr>
          </ns3:TrackPointExtension>
        </extensions>
      </trkpt>
      <trkpt lat="48.834895379841327667236328125" lon="-3.47620734013617038726806640625">
        <ele>16.3999996185302734375</ele>
        <time>2026-05-09T11:45:59.000Z</time>
        <extensions>
          <ns3:TrackPointExtension>
            <ns3:atemp>16.0</ns3:atemp>
            <ns3:hr>90</ns3:hr>
          </ns3:TrackPointExtension>
        </extensions>
      </trkpt>
      <trkpt lat="48.83489227853715419769287109375" lon="-3.47620281390845775604248046875">
        <ele>16</ele>
        <time>2026-05-09T11:46:04.000Z</time>
        <extensions>
          <ns3:TrackPointExtension>
            <ns3:atemp>16.0</ns3:atemp>
            <ns3:hr>91</ns3:hr>
          </ns3:TrackPointExtension>
        </extensions>
      </trkpt>
      <trkpt lat="48.83486813865602016448974609375" lon="-3.4761951863765716552734375">
        <ele>16.200000762939453125</ele>
        <time>2026-05-09T11:46:21.000Z</time>
        <extensions>
          <ns3:TrackPointExtension>
            <ns3:atemp>16.0</ns3:atemp>
            <ns3:hr>89</ns3:hr>
          </ns3:TrackPointExtension>
        </extensions>
      </trkpt>
      <trkpt lat="48.83484215475618839263916015625" lon="-3.47619694657623767852783203125">
        <ele>16.3999996185302734375</ele>
        <time>2026-05-09T11:46:25.000Z</time>
        <extensions>
          <ns3:TrackPointExtension>
            <ns3:atemp>16.0</ns3:atemp>
            <ns3:hr>86</ns3:hr>
          </ns3:TrackPointExtension>
        </extensions>
      </trkpt>
      <trkpt lat="48.83483025245368480682373046875" lon="-3.47618638537824153900146484375">
        <ele>16.200000762939453125</ele>
        <time>2026-05-09T11:46:27.000Z</time>
        <extensions>
          <ns3:TrackPointExtension>
            <ns3:atemp>16.0</ns3:atemp>
            <ns3:hr>82</ns3:hr>
          </ns3:TrackPointExtension>
        </extensions>
      </trkpt>
      <trkpt lat="48.834823630750179290771484375" lon="-3.47617917694151401519775390625">
        <ele>16.200000762939453125</ele>
        <time>2026-05-09T11:46:28.000Z</time>
        <extensions>
          <ns3:TrackPointExtension>
            <ns3:atemp>16.0</ns3:atemp>
            <ns3:hr>82</ns3:hr>
          </ns3:TrackPointExtension>
        </extensions>
      </trkpt>
      <trkpt lat="48.83475716225802898406982421875" lon="-3.47613626159727573394775390625">
        <ele>16.6000003814697265625</ele>
        <time>2026-05-09T11:46:35.000Z</time>
        <extensions>
          <ns3:TrackPointExtension>
            <ns3:atemp>16.0</ns3:atemp>
            <ns3:hr>81</ns3:hr>
          </ns3:TrackPointExtension>
        </extensions>
      </trkpt>
      <trkpt lat="48.83469463326036930084228515625" lon="-3.47608328796923160552978515625">
        <ele>17.200000762939453125</ele>
        <time>2026-05-09T11:46:41.000Z</time>
        <extensions>
          <ns3:TrackPointExtension>
            <ns3:atemp>16.0</ns3:atemp>
            <ns3:hr>84</ns3:hr>
          </ns3:TrackPointExtension>
        </extensions>
      </trkpt>
      <trkpt lat="48.83468625135719776153564453125" lon="-3.47607473842799663543701171875">
        <ele>17.200000762939453125</ele>
        <time>2026-05-09T11:46:42.000Z</time>
        <extensions>
          <ns3:TrackPointExtension>
            <ns3:atemp>16.0</ns3:atemp>
            <ns3:hr>88</ns3:hr>
          </ns3:TrackPointExtension>
        </extensions>
      </trkpt>
      <trkpt lat="48.8346762768924236297607421875" lon="-3.4760649316012859344482421875">
        <ele>17.200000762939453125</ele>
        <time>2026-05-09T11:46:43.000Z</time>
        <extensions>
          <ns3:TrackPointExtension>
            <ns3:atemp>16.0</ns3:atemp>
            <ns3:hr>92</ns3:hr>
          </ns3:TrackPointExtension>
        </extensions>
      </trkpt>
      <trkpt lat="48.83465708233416080474853515625" lon="-3.4760530292987823486328125">
        <ele>17.3999996185302734375</ele>
        <time>2026-05-09T11:46:45.000Z</time>
        <extensions>
          <ns3:TrackPointExtension>
            <ns3:atemp>16.0</ns3:atemp>
            <ns3:hr>95</ns3:hr>
          </ns3:TrackPointExtension>
        </extensions>
      </trkpt>
      <trkpt lat="48.8346290029585361480712890625" lon="-3.47604104317724704742431640625">
        <ele>17.200000762939453125</ele>
        <time>2026-05-09T11:46:48.000Z</time>
        <extensions>
          <ns3:TrackPointExtension>
            <ns3:atemp>16.0</ns3:atemp>
            <ns3:hr>98</ns3:hr>
          </ns3:TrackPointExtension>
        </extensions>
      </trkpt>
      <trkpt lat="48.83462439291179180145263671875" lon="-3.47604104317724704742431640625">
        <ele>16.799999237060546875</ele>
        <time>2026-05-09T11:46:50.000Z</time>
        <extensions>
          <ns3:TrackPointExtension>
            <ns3:atemp>16.0</ns3:atemp>
            <ns3:hr>100</ns3:hr>
          </ns3:TrackPointExtension>
        </extensions>
      </trkpt>
      <trkpt lat="48.83459388278424739837646484375" lon="-3.47600583918392658233642578125">
        <ele>16.799999237060546875</ele>
        <time>2026-05-09T11:46:57.000Z</time>
        <extensions>
          <ns3:TrackPointExtension>
            <ns3:atemp>16.0</ns3:atemp>
            <ns3:hr>98</ns3:hr>
          </ns3:TrackPointExtension>
        </extensions>
      </trkpt>
      <trkpt lat="48.83454426191747188568115234375" lon="-3.47594163380563259124755859375">
        <ele>16.6000003814697265625</ele>
        <time>2026-05-09T11:47:03.000Z</time>
        <extensions>
          <ns3:TrackPointExtension>
            <ns3:atemp>16.0</ns3:atemp>
            <ns3:hr>95</ns3:hr>
          </ns3:TrackPointExtension>
        </extensions>
      </trkpt>
      <trkpt lat="48.83453269489109516143798828125" lon="-3.4759162366390228271484375">
        <ele>16</ele>
        <time>2026-05-09T11:47:05.000Z</time>
        <extensions>
          <ns3:TrackPointExtension>
            <ns3:atemp>16.0</ns3:atemp>
            <ns3:hr>95</ns3:hr>
          </ns3:TrackPointExtension>
        </extensions>
      </trkpt>
      <trkpt lat="48.83448508568108081817626953125" lon="-3.47583518363535404205322265625">
        <ele>15.6000003814697265625</ele>
        <time>2026-05-09T11:47:12.000Z</time>
        <extensions>
          <ns3:TrackPointExtension>
            <ns3:atemp>16.0</ns3:atemp>
            <ns3:hr>93</ns3:hr>
          </ns3:TrackPointExtension>
        </extensions>
      </trkpt>
      <trkpt lat="48.8344787992537021636962890625" lon="-3.47582462243735790252685546875">
        <ele>15</ele>
        <time>2026-05-09T11:47:13.000Z</time>
        <extensions>
          <ns3:TrackPointExtension>
            <ns3:atemp>16.0</ns3:atemp>
            <ns3:hr>92</ns3:hr>
          </ns3:TrackPointExtension>
        </extensions>
      </trkpt>
      <trkpt lat="48.834454827010631561279296875" lon="-3.4757967106997966766357421875">
        <ele>13.80000019073486328125</ele>
        <time>2026-05-09T11:47:16.000Z</time>
        <extensions>
          <ns3:TrackPointExtension>
            <ns3:atemp>16.0</ns3:atemp>
            <ns3:hr>92</ns3:hr>
          </ns3:TrackPointExtension>
        </extensions>
      </trkpt>
      <trkpt lat="48.834410570561885833740234375" lon="-3.47574097104370594024658203125">
        <ele>13.19999980926513671875</ele>
        <time>2026-05-09T11:47:22.000Z</time>
        <extensions>
          <ns3:TrackPointExtension>
            <ns3:atemp>16.0</ns3:atemp>
            <ns3:hr>91</ns3:hr>
          </ns3:TrackPointExtension>
        </extensions>
      </trkpt>
      <trkpt lat="48.83435348980128765106201171875" lon="-3.47567961551249027252197265625">
        <ele>13</ele>
        <time>2026-05-09T11:47:30.000Z</time>
        <extensions>
          <ns3:TrackPointExtension>
            <ns3:atemp>16.0</ns3:atemp>
            <ns3:hr>90</ns3:hr>
          </ns3:TrackPointExtension>
        </extensions>
      </trkpt>
      <trkpt lat="48.83435189723968505859375" lon="-3.47567827440798282623291015625">
        <ele>12.80000019073486328125</ele>
        <time>2026-05-09T11:47:32.000Z</time>
        <extensions>
          <ns3:TrackPointExtension>
            <ns3:atemp>16.0</ns3:atemp>
            <ns3:hr>90</ns3:hr>
          </ns3:TrackPointExtension>
        </extensions>
      </trkpt>
      <trkpt lat="48.834335468709468841552734375" lon="-3.4756582416594028472900390625">
        <ele>12.6000003814697265625</ele>
        <time>2026-05-09T11:47:36.000Z</time>
        <extensions>
          <ns3:TrackPointExtension>
            <ns3:atemp>16.0</ns3:atemp>
            <ns3:hr>89</ns3:hr>
          </ns3:TrackPointExtension>
        </extensions>
      </trkpt>
      <trkpt lat="48.83429699577391147613525390625" lon="-3.47560350783169269561767578125">
        <ele>12.3999996185302734375</ele>
        <time>2026-05-09T11:47:41.000Z</time>
        <extensions>
          <ns3:TrackPointExtension>
            <ns3:atemp>16.0</ns3:atemp>
            <ns3:hr>88</ns3:hr>
          </ns3:TrackPointExtension>
        </extensions>
      </trkpt>
      <trkpt lat="48.83424854837357997894287109375" lon="-3.47557266242802143096923828125">
        <ele>11.80000019073486328125</ele>
        <time>2026-05-09T11:47:46.000Z</time>
        <extensions>
          <ns3:TrackPointExtension>
            <ns3:atemp>16.0</ns3:atemp>
            <ns3:hr>87</ns3:hr>
          </ns3:TrackPointExtension>
        </extensions>
      </trkpt>
      <trkpt lat="48.8342379033565521240234375" lon="-3.47556344233453273773193359375">
        <ele>11.6000003814697265625</ele>
        <time>2026-05-09T11:47:47.000Z</time>
        <extensions>
          <ns3:TrackPointExtension>
            <ns3:atemp>16.0</ns3:atemp>
            <ns3:hr>87</ns3:hr>
          </ns3:TrackPointExtension>
        </extensions>
      </trkpt>
      <trkpt lat="48.8341800682246685028076171875" lon="-3.47553829662501811981201171875">
        <ele>11.19999980926513671875</ele>
        <time>2026-05-09T11:47:53.000Z</time>
        <extensions>
          <ns3:TrackPointExtension>
            <ns3:atemp>16.0</ns3:atemp>
            <ns3:hr>87</ns3:hr>
          </ns3:TrackPointExtension>
        </extensions>
      </trkpt>
      <trkpt lat="48.8341203890740871429443359375" lon="-3.47553662024438381195068359375">
        <ele>10.80000019073486328125</ele>
        <time>2026-05-09T11:47:58.000Z</time>
        <extensions>
          <ns3:TrackPointExtension>
            <ns3:atemp>16.0</ns3:atemp>
            <ns3:hr>84</ns3:hr>
          </ns3:TrackPointExtension>
        </extensions>
      </trkpt>
      <trkpt lat="48.834090046584606170654296875" lon="-3.47554743289947509765625">
        <ele>10.80000019073486328125</ele>
        <time>2026-05-09T11:48:01.000Z</time>
        <extensions>
          <ns3:TrackPointExtension>
            <ns3:atemp>16.0</ns3:atemp>
            <ns3:hr>82</ns3:hr>
          </ns3:TrackPointExtension>
        </extensions>
      </trkpt>
      <trkpt lat="48.83408837020397186279296875" lon="-3.47555355168879032135009765625">
        <ele>10.6000003814697265625</ele>
        <time>2026-05-09T11:48:02.000Z</time>
        <extensions>
          <ns3:TrackPointExtension>
            <ns3:atemp>16.0</ns3:atemp>
            <ns3:hr>82</ns3:hr>
          </ns3:TrackPointExtension>
        </extensions>
      </trkpt>
      <trkpt lat="48.8340553455054759979248046875" lon="-3.4755693934857845306396484375">
        <ele>10.19999980926513671875</ele>
        <time>2026-05-09T11:48:06.000Z</time>
        <extensions>
          <ns3:TrackPointExtension>
            <ns3:atemp>16.0</ns3:atemp>
            <ns3:hr>81</ns3:hr>
          </ns3:TrackPointExtension>
        </extensions>
      </trkpt>
      <trkpt lat="48.83403145708143711090087890625" lon="-3.4755905158817768096923828125">
        <ele>10</ele>
        <time>2026-05-09T11:48:12.000Z</time>
        <extensions>
          <ns3:TrackPointExtension>
            <ns3:atemp>16.0</ns3:atemp>
            <ns3:hr>81</ns3:hr>
          </ns3:TrackPointExtension>
        </extensions>
      </trkpt>
      <trkpt lat="48.834007568657398223876953125" lon="-3.475589342415332794189453125">
        <ele>9.6000003814697265625</ele>
        <time>2026-05-09T11:48:15.000Z</time>
        <extensions>
          <ns3:TrackPointExtension>
            <ns3:atemp>16.0</ns3:atemp>
            <ns3:hr>80</ns3:hr>
          </ns3:TrackPointExtension>
        </extensions>
      </trkpt>
      <trkpt lat="48.8339933194220066070556640625" lon="-3.475592695176601409912109375">
        <ele>9</ele>
        <time>2026-05-09T11:48:18.000Z</time>
        <extensions>
          <ns3:TrackPointExtension>
            <ns3:atemp>16.0</ns3:atemp>
            <ns3:hr>78</ns3:hr>
          </ns3:TrackPointExtension>
        </extensions>
      </trkpt>
      <trkpt lat="48.83395819924771785736083984375" lon="-3.4755988977849483489990234375">
        <ele>8.80000019073486328125</ele>
        <time>2026-05-09T11:48:23.000Z</time>
        <extensions>
          <ns3:TrackPointExtension>
            <ns3:atemp>16.0</ns3:atemp>
            <ns3:hr>77</ns3:hr>
          </ns3:TrackPointExtension>
        </extensions>
      </trkpt>
      <trkpt lat="48.83391193114221096038818359375" lon="-3.475612811744213104248046875">
        <ele>8.3999996185302734375</ele>
        <time>2026-05-09T11:48:28.000Z</time>
        <extensions>
          <ns3:TrackPointExtension>
            <ns3:atemp>16.0</ns3:atemp>
            <ns3:hr>76</ns3:hr>
          </ns3:TrackPointExtension>
        </extensions>
      </trkpt>
      <trkpt lat="48.83390195667743682861328125" lon="-3.47561825998127460479736328125">
        <ele>8</ele>
        <time>2026-05-09T11:48:29.000Z</time>
        <extensions>
          <ns3:TrackPointExtension>
            <ns3:atemp>16.0</ns3:atemp>
            <ns3:hr>76</ns3:hr>
          </ns3:TrackPointExtension>
        </extensions>
      </trkpt>
      <trkpt lat="48.83386180736124515533447265625" lon="-3.47560652531683444976806640625">
        <ele>7.400000095367431640625</ele>
        <time>2026-05-09T11:48:35.000Z</time>
        <extensions>
          <ns3:TrackPointExtension>
            <ns3:atemp>16.0</ns3:atemp>
            <ns3:hr>76</ns3:hr>
          </ns3:TrackPointExtension>
        </extensions>
      </trkpt>
      <trkpt lat="48.8338675908744335174560546875" lon="-3.475590012967586517333984375">
        <ele>7.599999904632568359375</ele>
        <time>2026-05-09T11:48:36.000Z</time>
        <extensions>
          <ns3:TrackPointExtension>
            <ns3:atemp>16.0</ns3:atemp>
            <ns3:hr>77</ns3:hr>
          </ns3:TrackPointExtension>
        </extensions>
      </trkpt>
      <trkpt lat="48.8339027948677539825439453125" lon="-3.4755227901041507720947265625">
        <ele>8</ele>
        <time>2026-05-09T11:48:41.000Z</time>
        <extensions>
          <ns3:TrackPointExtension>
            <ns3:atemp>16.0</ns3:atemp>
            <ns3:hr>79</ns3:hr>
          </ns3:TrackPointExtension>
        </extensions>
      </trkpt>
      <trkpt lat="48.8339661620557308197021484375" lon="-3.47545078955590724945068359375">
        <ele>7.400000095367431640625</ele>
        <time>2026-05-09T11:48:47.000Z</time>
        <extensions>
          <ns3:TrackPointExtension>
            <ns3:atemp>16.0</ns3:atemp>
            <ns3:hr>80</ns3:hr>
          </ns3:TrackPointExtension>
        </extensions>
      </trkpt>
      <trkpt lat="48.83398451842367649078369140625" lon="-3.4754238836467266082763671875">
        <ele>7.400000095367431640625</ele>
        <time>2026-05-09T11:48:49.000Z</time>
        <extensions>
          <ns3:TrackPointExtension>
            <ns3:atemp>16.0</ns3:atemp>
            <ns3:hr>80</ns3:hr>
          </ns3:TrackPointExtension>
        </extensions>
      </trkpt>
      <trkpt lat="48.83401351980865001678466796875" lon="-3.4753900207579135894775390625">
        <ele>7.19999980926513671875</ele>
        <time>2026-05-09T11:48:55.000Z</time>
        <extensions>
          <ns3:TrackPointExtension>
            <ns3:atemp>16.0</ns3:atemp>
            <ns3:hr>81</ns3:hr>
          </ns3:TrackPointExtension>
        </extensions>
      </trkpt>
      <trkpt lat="48.83404050953686237335205078125" lon="-3.47537375986576080322265625">
        <ele>8.3999996185302734375</ele>
        <time>2026-05-09T11:48:58.000Z</time>
        <extensions>
          <ns3:TrackPointExtension>
            <ns3:atemp>16.0</ns3:atemp>
            <ns3:hr>81</ns3:hr>
          </ns3:TrackPointExtension>
        </extensions>
      </trkpt>
      <trkpt lat="48.83409130387008190155029296875" lon="-3.47532791085541248321533203125">
        <ele>8.19999980926513671875</ele>
        <time>2026-05-09T11:49:03.000Z</time>
        <extensions>
          <ns3:TrackPointExtension>
            <ns3:atemp>16.0</ns3:atemp>
            <ns3:hr>81</ns3:hr>
          </ns3:TrackPointExtension>
        </extensions>
      </trkpt>
      <trkpt lat="48.834159784018993377685546875" lon="-3.4752575866878032684326171875">
        <ele>7.80000019073486328125</ele>
        <time>2026-05-09T11:49:11.000Z</time>
        <extensions>
          <ns3:TrackPointExtension>
            <ns3:atemp>16.0</ns3:atemp>
            <ns3:hr>81</ns3:hr>
          </ns3:TrackPointExtension>
        </extensions>
      </trkpt>
      <trkpt lat="48.83422843180596828460693359375" lon="-3.47524702548980712890625">
        <ele>8.3999996185302734375</ele>
        <time>2026-05-09T11:49:18.000Z</time>
        <extensions>
          <ns3:TrackPointExtension>
            <ns3:atemp>16.0</ns3:atemp>
            <ns3:hr>82</ns3:hr>
          </ns3:TrackPointExtension>
        </extensions>
      </trkpt>
      <trkpt lat="48.834241591393947601318359375" lon="-3.47522330470383167266845703125">
        <ele>7.400000095367431640625</ele>
        <time>2026-05-09T11:49:23.000Z</time>
        <extensions>
          <ns3:TrackPointExtension>
            <ns3:atemp>16.0</ns3:atemp>
            <ns3:hr>81</ns3:hr>
          </ns3:TrackPointExtension>
        </extensions>
      </trkpt>
      <trkpt lat="48.83423597551882266998291015625" lon="-3.47522892057895660400390625">
        <ele>6.599999904632568359375</ele>
        <time>2026-05-09T11:49:27.000Z</time>
        <extensions>
          <ns3:TrackPointExtension>
            <ns3:atemp>16.0</ns3:atemp>
            <ns3:hr>81</ns3:hr>
          </ns3:TrackPointExtension>
        </extensions>
      </trkpt>
      <trkpt lat="48.83423597551882266998291015625" lon="-3.47522892057895660400390625">
        <ele>6.80000019073486328125</ele>
        <time>2026-05-09T11:49:34.000Z</time>
        <extensions>
          <ns3:TrackPointExtension>
            <ns3:atemp>16.0</ns3:atemp>
            <ns3:hr>82</ns3:hr>
          </ns3:TrackPointExtension>
        </extensions>
      </trkpt>
      <trkpt lat="48.83423597551882266998291015625" lon="-3.47522892057895660400390625">
        <ele>7.80000019073486328125</ele>
        <time>2026-05-09T11:49:41.000Z</time>
        <extensions>
          <ns3:TrackPointExtension>
            <ns3:atemp>16.0</ns3:atemp>
            <ns3:hr>83</ns3:hr>
          </ns3:TrackPointExtension>
        </extensions>
      </trkpt>
      <trkpt lat="48.83426397107541561126708984375" lon="-3.47523436881601810455322265625">
        <ele>8.6000003814697265625</ele>
        <time>2026-05-09T11:49:44.000Z</time>
        <extensions>
          <ns3:TrackPointExtension>
            <ns3:atemp>16.0</ns3:atemp>
            <ns3:hr>86</ns3:hr>
          </ns3:TrackPointExtension>
        </extensions>
      </trkpt>
      <trkpt lat="48.8342833332717418670654296875" lon="-3.47523772157728672027587890625">
        <ele>8.80000019073486328125</ele>
        <time>2026-05-09T11:49:46.000Z</time>
        <extensions>
          <ns3:TrackPointExtension>
            <ns3:atemp>16.0</ns3:atemp>
            <ns3:hr>87</ns3:hr>
          </ns3:TrackPointExtension>
        </extensions>
      </trkpt>
      <trkpt lat="48.83434728719294071197509765625" lon="-3.47525197081267833709716796875">
        <ele>9</ele>
        <time>2026-05-09T11:49:54.000Z</time>
        <extensions>
          <ns3:TrackPointExtension>
            <ns3:atemp>16.0</ns3:atemp>
            <ns3:hr>83</ns3:hr>
          </ns3:TrackPointExtension>
        </extensions>
      </trkpt>
      <trkpt lat="48.83438115008175373077392578125" lon="-3.47525574266910552978515625">
        <ele>9.6000003814697265625</ele>
        <time>2026-05-09T11:49:57.000Z</time>
        <extensions>
          <ns3:TrackPointExtension>
            <ns3:atemp>16.0</ns3:atemp>
            <ns3:hr>80</ns3:hr>
          </ns3:TrackPointExtension>
        </extensions>
      </trkpt>
      <trkpt lat="48.83438651449978351593017578125" lon="-3.47525699995458126068115234375">
        <ele>9.19999980926513671875</ele>
        <time>2026-05-09T11:50:02.000Z</time>
        <extensions>
          <ns3:TrackPointExtension>
            <ns3:atemp>16.0</ns3:atemp>
            <ns3:hr>79</ns3:hr>
          </ns3:TrackPointExtension>
        </extensions>
      </trkpt>
      <trkpt lat="48.83438651449978351593017578125" lon="-3.47525699995458126068115234375">
        <ele>9.19999980926513671875</ele>
        <time>2026-05-09T11:50:11.000Z</time>
        <extensions>
          <ns3:TrackPointExtension>
            <ns3:atemp>16.0</ns3:atemp>
            <ns3:hr>76</ns3:hr>
          </ns3:TrackPointExtension>
        </extensions>
      </trkpt>
      <trkpt lat="48.834391795098781585693359375" lon="-3.4752616100013256072998046875">
        <ele>9.3999996185302734375</ele>
        <time>2026-05-09T11:50:15.000Z</time>
        <extensions>
          <ns3:TrackPointExtension>
            <ns3:atemp>16.0</ns3:atemp>
            <ns3:hr>75</ns3:hr>
          </ns3:TrackPointExtension>
        </extensions>
      </trkpt>
      <trkpt lat="48.8344181142747402191162109375" lon="-3.475258760154247283935546875">
        <ele>9.6000003814697265625</ele>
        <time>2026-05-09T11:50:19.000Z</time>
        <extensions>
          <ns3:TrackPointExtension>
            <ns3:atemp>17.0</ns3:atemp>
            <ns3:hr>73</ns3:hr>
          </ns3:TrackPointExtension>
        </extensions>
      </trkpt>
      <trkpt lat="48.8344335369765758514404296875" lon="-3.4752537310123443603515625">
        <ele>9.19999980926513671875</ele>
        <time>2026-05-09T11:50:21.000Z</time>
        <extensions>
          <ns3:TrackPointExtension>
            <ns3:atemp>17.0</ns3:atemp>
            <ns3:hr>74</ns3:hr>
          </ns3:TrackPointExtension>
        </extensions>
      </trkpt>
      <trkpt lat="48.834464214742183685302734375" lon="-3.4752059541642665863037109375">
        <ele>9.3999996185302734375</ele>
        <time>2026-05-09T11:50:28.000Z</time>
        <extensions>
          <ns3:TrackPointExtension>
            <ns3:atemp>17.0</ns3:atemp>
            <ns3:hr>73</ns3:hr>
          </ns3:TrackPointExtension>
        </extensions>
      </trkpt>
      <trkpt lat="48.8344643823802471160888671875" lon="-3.47520352341234683990478515625">
        <ele>9.19999980926513671875</ele>
        <time>2026-05-09T11:50:34.000Z</time>
        <extensions>
          <ns3:TrackPointExtension>
            <ns3:atemp>17.0</ns3:atemp>
            <ns3:hr>70</ns3:hr>
          </ns3:TrackPointExtension>
        </extensions>
      </trkpt>
      <trkpt lat="48.8344643823802471160888671875" lon="-3.47520352341234683990478515625">
        <ele>9.19999980926513671875</ele>
        <time>2026-05-09T11:50:35.000Z</time>
        <extensions>
          <ns3:TrackPointExtension>
            <ns3:atemp>17.0</ns3:atemp>
            <ns3:hr>70</ns3:hr>
          </ns3:TrackPointExtension>
        </extensions>
      </trkpt>
      <trkpt lat="48.8344643823802471160888671875" lon="-3.47520352341234683990478515625">
        <ele>9.19999980926513671875</ele>
        <time>2026-05-09T11:50:39.000Z</time>
        <extensions>
          <ns3:TrackPointExtension>
            <ns3:atemp>17.0</ns3:atemp>
            <ns3:hr>73</ns3:hr>
          </ns3:TrackPointExtension>
        </extensions>
      </trkpt>
      <trkpt lat="48.8344643823802471160888671875" lon="-3.47520352341234683990478515625">
        <ele>9.19999980926513671875</ele>
        <time>2026-05-09T11:50:43.000Z</time>
        <extensions>
          <ns3:TrackPointExtension>
            <ns3:atemp>17.0</ns3:atemp>
            <ns3:hr>76</ns3:hr>
          </ns3:TrackPointExtension>
        </extensions>
      </trkpt>
      <trkpt lat="48.83448458276689052581787109375" lon="-3.47516379319131374359130859375">
        <ele>9</ele>
        <time>2026-05-09T11:50:48.000Z</time>
        <extensions>
          <ns3:TrackPointExtension>
            <ns3:atemp>17.0</ns3:atemp>
            <ns3:hr>77</ns3:hr>
          </ns3:TrackPointExtension>
        </extensions>
      </trkpt>
      <trkpt lat="48.83450486697256565093994140625" lon="-3.47509891726076602935791015625">
        <ele>9.80000019073486328125</ele>
        <time>2026-05-09T11:50:56.000Z</time>
        <extensions>
          <ns3:TrackPointExtension>
            <ns3:atemp>17.0</ns3:atemp>
            <ns3:hr>78</ns3:hr>
          </ns3:TrackPointExtension>
        </extensions>
      </trkpt>
      <trkpt lat="48.8345176912844181060791015625" lon="-3.47504116594791412353515625">
        <ele>10.3999996185302734375</ele>
        <time>2026-05-09T11:51:02.000Z</time>
        <extensions>
          <ns3:TrackPointExtension>
            <ns3:atemp>17.0</ns3:atemp>
            <ns3:hr>80</ns3:hr>
          </ns3:TrackPointExtension>
        </extensions>
      </trkpt>
      <trkpt lat="48.834526576101779937744140625" lon="-3.475030101835727691650390625">
        <ele>10.3999996185302734375</ele>
        <time>2026-05-09T11:51:11.000Z</time>
        <extensions>
          <ns3:TrackPointExtension>
            <ns3:atemp>17.0</ns3:atemp>
            <ns3:hr>80</ns3:hr>
          </ns3:TrackPointExtension>
        </extensions>
      </trkpt>
      <trkpt lat="48.834526576101779937744140625" lon="-3.475030101835727691650390625">
        <ele>10.3999996185302734375</ele>
        <time>2026-05-09T11:51:19.000Z</time>
        <extensions>
          <ns3:TrackPointExtension>
            <ns3:atemp>17.0</ns3:atemp>
            <ns3:hr>77</ns3:hr>
          </ns3:TrackPointExtension>
        </extensions>
      </trkpt>
      <trkpt lat="48.834526576101779937744140625" lon="-3.475030101835727691650390625">
        <ele>10.80000019073486328125</ele>
        <time>2026-05-09T11:51:23.000Z</time>
        <extensions>
          <ns3:TrackPointExtension>
            <ns3:atemp>17.0</ns3:atemp>
            <ns3:hr>78</ns3:hr>
          </ns3:TrackPointExtension>
        </extensions>
      </trkpt>
      <trkpt lat="48.834526576101779937744140625" lon="-3.475030101835727691650390625">
        <ele>10.6000003814697265625</ele>
        <time>2026-05-09T11:51:26.000Z</time>
        <extensions>
          <ns3:TrackPointExtension>
            <ns3:atemp>17.0</ns3:atemp>
            <ns3:hr>78</ns3:hr>
          </ns3:TrackPointExtension>
        </extensions>
      </trkpt>
      <trkpt lat="48.83455649949610233306884765625" lon="-3.475036136806011199951171875">
        <ele>10.3999996185302734375</ele>
        <time>2026-05-09T11:51:30.000Z</time>
        <extensions>
          <ns3:TrackPointExtension>
            <ns3:atemp>17.0</ns3:atemp>
            <ns3:hr>75</ns3:hr>
          </ns3:TrackPointExtension>
        </extensions>
      </trkpt>
      <trkpt lat="48.8345706649124622344970703125" lon="-3.47505725920200347900390625">
        <ele>10.3999996185302734375</ele>
        <time>2026-05-09T11:51:33.000Z</time>
        <extensions>
          <ns3:TrackPointExtension>
            <ns3:atemp>17.0</ns3:atemp>
            <ns3:hr>76</ns3:hr>
          </ns3:TrackPointExtension>
        </extensions>
      </trkpt>
      <trkpt lat="48.83457527495920658111572265625" lon="-3.475068323314189910888671875">
        <ele>9.80000019073486328125</ele>
        <time>2026-05-09T11:51:38.000Z</time>
        <extensions>
          <ns3:TrackPointExtension>
            <ns3:atemp>17.0</ns3:atemp>
            <ns3:hr>73</ns3:hr>
          </ns3:TrackPointExtension>
        </extensions>
      </trkpt>
      <trkpt lat="48.834579885005950927734375" lon="-3.47506538964807987213134765625">
        <ele>9.80000019073486328125</ele>
        <time>2026-05-09T11:51:39.000Z</time>
        <extensions>
          <ns3:TrackPointExtension>
            <ns3:atemp>17.0</ns3:atemp>
            <ns3:hr>71</ns3:hr>
          </ns3:TrackPointExtension>
        </extensions>
      </trkpt>
      <trkpt lat="48.8345803879201412200927734375" lon="-3.4750658087432384490966796875">
        <ele>9.6000003814697265625</ele>
        <time>2026-05-09T11:51:40.000Z</time>
        <extensions>
          <ns3:TrackPointExtension>
            <ns3:atemp>17.0</ns3:atemp>
            <ns3:hr>68</ns3:hr>
          </ns3:TrackPointExtension>
        </extensions>
      </trkpt>
      <trkpt lat="48.834585249423980712890625" lon="-3.4750554151833057403564453125">
        <ele>9.3999996185302734375</ele>
        <time>2026-05-09T11:51:48.000Z</time>
        <extensions>
          <ns3:TrackPointExtension>
            <ns3:atemp>17.0</ns3:atemp>
            <ns3:hr>67</ns3:hr>
          </ns3:TrackPointExtension>
        </extensions>
      </trkpt>
      <trkpt lat="48.834585249423980712890625" lon="-3.4750554151833057403564453125">
        <ele>9.3999996185302734375</ele>
        <time>2026-05-09T11:51:52.000Z</time>
        <extensions>
          <ns3:TrackPointExtension>
            <ns3:atemp>17.0</ns3:atemp>
            <ns3:hr>70</ns3:hr>
          </ns3:TrackPointExtension>
        </extensions>
      </trkpt>
      <trkpt lat="48.834585249423980712890625" lon="-3.4750554151833057403564453125">
        <ele>9.3999996185302734375</ele>
        <time>2026-05-09T11:51:53.000Z</time>
        <extensions>
          <ns3:TrackPointExtension>
            <ns3:atemp>17.0</ns3:atemp>
            <ns3:hr>73</ns3:hr>
          </ns3:TrackPointExtension>
        </extensions>
      </trkpt>
      <trkpt lat="48.834585249423980712890625" lon="-3.4750554151833057403564453125">
        <ele>9.3999996185302734375</ele>
        <time>2026-05-09T11:51:54.000Z</time>
        <extensions>
          <ns3:TrackPointExtension>
            <ns3:atemp>17.0</ns3:atemp>
            <ns3:hr>73</ns3:hr>
          </ns3:TrackPointExtension>
        </extensions>
      </trkpt>
      <trkpt lat="48.834585249423980712890625" lon="-3.4750554151833057403564453125">
        <ele>9.6000003814697265625</ele>
        <time>2026-05-09T11:52:08.000Z</time>
        <extensions>
          <ns3:TrackPointExtension>
            <ns3:atemp>17.0</ns3:atemp>
            <ns3:hr>75</ns3:hr>
          </ns3:TrackPointExtension>
        </extensions>
      </trkpt>
      <trkpt lat="48.834583573043346405029296875" lon="-3.47501174546778202056884765625">
        <ele>10</ele>
        <time>2026-05-09T11:52:20.000Z</time>
        <extensions>
          <ns3:TrackPointExtension>
            <ns3:atemp>16.0</ns3:atemp>
            <ns3:hr>75</ns3:hr>
          </ns3:TrackPointExtension>
        </extensions>
      </trkpt>
      <trkpt lat="48.83459036238491535186767578125" lon="-3.47501023672521114349365234375">
        <ele>9.80000019073486328125</ele>
        <time>2026-05-09T11:52:27.000Z</time>
        <extensions>
          <ns3:TrackPointExtension>
            <ns3:atemp>16.0</ns3:atemp>
            <ns3:hr>76</ns3:hr>
          </ns3:TrackPointExtension>
        </extensions>
      </trkpt>
      <trkpt lat="48.83459153585135936737060546875" lon="-3.47500939853489398956298828125">
        <ele>9.80000019073486328125</ele>
        <time>2026-05-09T11:52:30.000Z</time>
        <extensions>
          <ns3:TrackPointExtension>
            <ns3:atemp>16.0</ns3:atemp>
            <ns3:hr>80</ns3:hr>
          </ns3:TrackPointExtension>
        </extensions>
      </trkpt>
      <trkpt lat="48.83459153585135936737060546875" lon="-3.47500939853489398956298828125">
        <ele>9.3999996185302734375</ele>
        <time>2026-05-09T11:52:46.000Z</time>
        <extensions>
          <ns3:TrackPointExtension>
            <ns3:atemp>16.0</ns3:atemp>
            <ns3:hr>83</ns3:hr>
          </ns3:TrackPointExtension>
        </extensions>
      </trkpt>
      <trkpt lat="48.83459153585135936737060546875" lon="-3.47500939853489398956298828125">
        <ele>9.6000003814697265625</ele>
        <time>2026-05-09T11:52:48.000Z</time>
        <extensions>
          <ns3:TrackPointExtension>
            <ns3:atemp>16.0</ns3:atemp>
            <ns3:hr>84</ns3:hr>
          </ns3:TrackPointExtension>
        </extensions>
      </trkpt>
      <trkpt lat="48.83459153585135936737060546875" lon="-3.47500939853489398956298828125">
        <ele>9.3999996185302734375</ele>
        <time>2026-05-09T11:53:11.000Z</time>
        <extensions>
          <ns3:TrackPointExtension>
            <ns3:atemp>16.0</ns3:atemp>
            <ns3:hr>81</ns3:hr>
          </ns3:TrackPointExtension>
        </extensions>
      </trkpt>
      <trkpt lat="48.83459153585135936737060546875" lon="-3.47500939853489398956298828125">
        <ele>9.80000019073486328125</ele>
        <time>2026-05-09T11:53:16.000Z</time>
        <extensions>
          <ns3:TrackPointExtension>
            <ns3:atemp>16.0</ns3:atemp>
            <ns3:hr>81</ns3:hr>
          </ns3:TrackPointExtension>
        </extensions>
      </trkpt>
      <trkpt lat="48.83459153585135936737060546875" lon="-3.47500939853489398956298828125">
        <ele>9.80000019073486328125</ele>
        <time>2026-05-09T11:53:24.000Z</time>
        <extensions>
          <ns3:TrackPointExtension>
            <ns3:atemp>16.0</ns3:atemp>
            <ns3:hr>78</ns3:hr>
          </ns3:TrackPointExtension>
        </extensions>
      </trkpt>
      <trkpt lat="48.83459153585135936737060546875" lon="-3.47500939853489398956298828125">
        <ele>9.6000003814697265625</ele>
        <time>2026-05-09T11:53:35.000Z</time>
        <extensions>
          <ns3:TrackPointExtension>
            <ns3:atemp>16.0</ns3:atemp>
            <ns3:hr>78</ns3:hr>
          </ns3:TrackPointExtension>
        </extensions>
      </trkpt>
      <trkpt lat="48.83459153585135936737060546875" lon="-3.47500939853489398956298828125">
        <ele>9.80000019073486328125</ele>
        <time>2026-05-09T11:53:48.000Z</time>
        <extensions>
          <ns3:TrackPointExtension>
            <ns3:atemp>16.0</ns3:atemp>
            <ns3:hr>81</ns3:hr>
          </ns3:TrackPointExtension>
        </extensions>
      </trkpt>
      <trkpt lat="48.83459153585135936737060546875" lon="-3.47500939853489398956298828125">
        <ele>9.6000003814697265625</ele>
        <time>2026-05-09T11:53:50.000Z</time>
        <extensions>
          <ns3:TrackPointExtension>
            <ns3:atemp>16.0</ns3:atemp>
            <ns3:hr>80</ns3:hr>
          </ns3:TrackPointExtension>
        </extensions>
      </trkpt>
      <trkpt lat="48.83459153585135936737060546875" lon="-3.47500939853489398956298828125">
        <ele>9.6000003814697265625</ele>
        <time>2026-05-09T11:54:00.000Z</time>
        <extensions>
          <ns3:TrackPointExtension>
            <ns3:atemp>16.0</ns3:atemp>
            <ns3:hr>79</ns3:hr>
          </ns3:TrackPointExtension>
        </extensions>
      </trkpt>
      <trkpt lat="48.83459153585135936737060546875" lon="-3.47500939853489398956298828125">
        <ele>9.19999980926513671875</ele>
        <time>2026-05-09T11:54:12.000Z</time>
        <extensions>
          <ns3:TrackPointExtension>
            <ns3:atemp>16.0</ns3:atemp>
            <ns3:hr>77</ns3:hr>
          </ns3:TrackPointExtension>
        </extensions>
      </trkpt>
      <trkpt lat="48.83459153585135936737060546875" lon="-3.47500939853489398956298828125">
        <ele>8.80000019073486328125</ele>
        <time>2026-05-09T11:54:24.000Z</time>
        <extensions>
          <ns3:TrackPointExtension>
            <ns3:atemp>17.0</ns3:atemp>
            <ns3:hr>76</ns3:hr>
          </ns3:TrackPointExtension>
        </extensions>
      </trkpt>
      <trkpt lat="48.83459153585135936737060546875" lon="-3.47500939853489398956298828125">
        <ele>9.19999980926513671875</ele>
        <time>2026-05-09T11:54:51.000Z</time>
        <extensions>
          <ns3:TrackPointExtension>
            <ns3:atemp>17.0</ns3:atemp>
            <ns3:hr>78</ns3:hr>
          </ns3:TrackPointExtension>
        </extensions>
      </trkpt>
      <trkpt lat="48.83459153585135936737060546875" lon="-3.47500939853489398956298828125">
        <ele>8.80000019073486328125</ele>
        <time>2026-05-09T11:55:18.000Z</time>
        <extensions>
          <ns3:TrackPointExtension>
            <ns3:atemp>17.0</ns3:atemp>
            <ns3:hr>74</ns3:hr>
          </ns3:TrackPointExtension>
        </extensions>
      </trkpt>
      <trkpt lat="48.83459153585135936737060546875" lon="-3.47500939853489398956298828125">
        <ele>9</ele>
        <time>2026-05-09T11:55:22.000Z</time>
        <extensions>
          <ns3:TrackPointExtension>
            <ns3:atemp>17.0</ns3:atemp>
            <ns3:hr>73</ns3:hr>
          </ns3:TrackPointExtension>
        </extensions>
      </trkpt>
      <trkpt lat="48.83459153585135936737060546875" lon="-3.47500939853489398956298828125">
        <ele>9</ele>
        <time>2026-05-09T11:55:41.000Z</time>
        <extensions>
          <ns3:TrackPointExtension>
            <ns3:atemp>17.0</ns3:atemp>
            <ns3:hr>73</ns3:hr>
          </ns3:TrackPointExtension>
        </extensions>
      </trkpt>
      <trkpt lat="48.83459153585135936737060546875" lon="-3.47500939853489398956298828125">
        <ele>9.19999980926513671875</ele>
        <time>2026-05-09T11:55:56.000Z</time>
        <extensions>
          <ns3:TrackPointExtension>
            <ns3:atemp>17.0</ns3:atemp>
            <ns3:hr>73</ns3:hr>
          </ns3:TrackPointExtension>
        </extensions>
      </trkpt>
      <trkpt lat="48.8345758616924285888671875" lon="-3.475051224231719970703125">
        <ele>9.3999996185302734375</ele>
        <time>2026-05-09T11:56:06.000Z</time>
        <extensions>
          <ns3:TrackPointExtension>
            <ns3:atemp>17.0</ns3:atemp>
            <ns3:hr>74</ns3:hr>
          </ns3:TrackPointExtension>
        </extensions>
      </trkpt>
      <trkpt lat="48.83456974290311336517333984375" lon="-3.47507360391318798065185546875">
        <ele>9.80000019073486328125</ele>
        <time>2026-05-09T11:56:08.000Z</time>
        <extensions>
          <ns3:TrackPointExtension>
            <ns3:atemp>17.0</ns3:atemp>
            <ns3:hr>74</ns3:hr>
          </ns3:TrackPointExtension>
        </extensions>
      </trkpt>
      <trkpt lat="48.83456488139927387237548828125" lon="-3.47507410682737827301025390625">
        <ele>8.80000019073486328125</ele>
        <time>2026-05-09T11:56:13.000Z</time>
        <extensions>
          <ns3:TrackPointExtension>
            <ns3:atemp>17.0</ns3:atemp>
            <ns3:hr>74</ns3:hr>
          </ns3:TrackPointExtension>
        </extensions>
      </trkpt>
      <trkpt lat="48.8345649652183055877685546875" lon="-3.47507410682737827301025390625">
        <ele>8.6000003814697265625</ele>
        <time>2026-05-09T11:56:14.000Z</time>
        <extensions>
          <ns3:TrackPointExtension>
            <ns3:atemp>17.0</ns3:atemp>
            <ns3:hr>74</ns3:hr>
          </ns3:TrackPointExtension>
        </extensions>
      </trkpt>
      <trkpt lat="48.8345649652183055877685546875" lon="-3.47507410682737827301025390625">
        <ele>7.599999904632568359375</ele>
        <time>2026-05-09T11:56:20.000Z</time>
        <extensions>
          <ns3:TrackPointExtension>
            <ns3:atemp>17.0</ns3:atemp>
            <ns3:hr>75</ns3:hr>
          </ns3:TrackPointExtension>
        </extensions>
      </trkpt>
      <trkpt lat="48.8345649652183055877685546875" lon="-3.47507410682737827301025390625">
        <ele>7.599999904632568359375</ele>
        <time>2026-05-09T11:56:24.000Z</time>
        <extensions>
          <ns3:TrackPointExtension>
            <ns3:atemp>17.0</ns3:atemp>
            <ns3:hr>75</ns3:hr>
          </ns3:TrackPointExtension>
        </extensions>
      </trkpt>
      <trkpt lat="48.83457024581730365753173828125" lon="-3.47504141740500926971435546875">
        <ele>8</ele>
        <time>2026-05-09T11:56:33.000Z</time>
        <extensions>
          <ns3:TrackPointExtension>
            <ns3:atemp>17.0</ns3:atemp>
            <ns3:hr>75</ns3:hr>
          </ns3:TrackPointExtension>
        </extensions>
      </trkpt>
      <trkpt lat="48.834578879177570343017578125" lon="-3.47502750344574451446533203125">
        <ele>8.6000003814697265625</ele>
        <time>2026-05-09T11:56:36.000Z</time>
        <extensions>
          <ns3:TrackPointExtension>
            <ns3:atemp>17.0</ns3:atemp>
            <ns3:hr>76</ns3:hr>
          </ns3:TrackPointExtension>
        </extensions>
      </trkpt>
      <trkpt lat="48.83457996882498264312744140625" lon="-3.47502834163606166839599609375">
        <ele>9.80000019073486328125</ele>
        <time>2026-05-09T11:56:39.000Z</time>
        <extensions>
          <ns3:TrackPointExtension>
            <ns3:atemp>17.0</ns3:atemp>
            <ns3:hr>77</ns3:hr>
          </ns3:TrackPointExtension>
        </extensions>
      </trkpt>
      <trkpt lat="48.83457896299660205841064453125" lon="-3.475030101835727691650390625">
        <ele>9.6000003814697265625</ele>
        <time>2026-05-09T11:56:40.000Z</time>
        <extensions>
          <ns3:TrackPointExtension>
            <ns3:atemp>17.0</ns3:atemp>
            <ns3:hr>77</ns3:hr>
          </ns3:TrackPointExtension>
        </extensions>
      </trkpt>
      <trkpt lat="48.83457846008241176605224609375" lon="-3.475031442940235137939453125">
        <ele>8.80000019073486328125</ele>
        <time>2026-05-09T11:56:50.000Z</time>
        <extensions>
          <ns3:TrackPointExtension>
            <ns3:atemp>17.0</ns3:atemp>
            <ns3:hr>77</ns3:hr>
          </ns3:TrackPointExtension>
        </extensions>
      </trkpt>
      <trkpt lat="48.83457846008241176605224609375" lon="-3.475031442940235137939453125">
        <ele>9.19999980926513671875</ele>
        <time>2026-05-09T11:56:57.000Z</time>
        <extensions>
          <ns3:TrackPointExtension>
            <ns3:atemp>17.0</ns3:atemp>
            <ns3:hr>80</ns3:hr>
          </ns3:TrackPointExtension>
        </extensions>
      </trkpt>
      <trkpt lat="48.83457846008241176605224609375" lon="-3.475031442940235137939453125">
        <ele>8.80000019073486328125</ele>
        <time>2026-05-09T11:57:00.000Z</time>
        <extensions>
          <ns3:TrackPointExtension>
            <ns3:atemp>17.0</ns3:atemp>
            <ns3:hr>81</ns3:hr>
          </ns3:TrackPointExtension>
        </extensions>
      </trkpt>
      <trkpt lat="48.83457846008241176605224609375" lon="-3.475031442940235137939453125">
        <ele>8.3999996185302734375</ele>
        <time>2026-05-09T11:57:17.000Z</time>
        <extensions>
          <ns3:TrackPointExtension>
            <ns3:atemp>17.0</ns3:atemp>
            <ns3:hr>79</ns3:hr>
          </ns3:TrackPointExtension>
        </extensions>
      </trkpt>
      <trkpt lat="48.83457846008241176605224609375" lon="-3.475031442940235137939453125">
        <ele>8.19999980926513671875</ele>
        <time>2026-05-09T11:57:21.000Z</time>
        <extensions>
          <ns3:TrackPointExtension>
            <ns3:atemp>17.0</ns3:atemp>
            <ns3:hr>79</ns3:hr>
          </ns3:TrackPointExtension>
        </extensions>
      </trkpt>
      <trkpt lat="48.83457846008241176605224609375" lon="-3.475031442940235137939453125">
        <ele>8.3999996185302734375</ele>
        <time>2026-05-09T11:57:31.000Z</time>
        <extensions>
          <ns3:TrackPointExtension>
            <ns3:atemp>17.0</ns3:atemp>
            <ns3:hr>75</ns3:hr>
          </ns3:TrackPointExtension>
        </extensions>
      </trkpt>
      <trkpt lat="48.83457846008241176605224609375" lon="-3.475031442940235137939453125">
        <ele>8.3999996185302734375</ele>
        <time>2026-05-09T11:57:39.000Z</time>
        <extensions>
          <ns3:TrackPointExtension>
            <ns3:atemp>17.0</ns3:atemp>
            <ns3:hr>77</ns3:hr>
          </ns3:TrackPointExtension>
        </extensions>
      </trkpt>
      <trkpt lat="48.83457846008241176605224609375" lon="-3.475031442940235137939453125">
        <ele>8.19999980926513671875</ele>
        <time>2026-05-09T11:57:51.000Z</time>
        <extensions>
          <ns3:TrackPointExtension>
            <ns3:atemp>17.0</ns3:atemp>
            <ns3:hr>77</ns3:hr>
          </ns3:TrackPointExtension>
        </extensions>
      </trkpt>
      <trkpt lat="48.83457846008241176605224609375" lon="-3.475031442940235137939453125">
        <ele>8.19999980926513671875</ele>
        <time>2026-05-09T11:58:10.000Z</time>
        <extensions>
          <ns3:TrackPointExtension>
            <ns3:atemp>17.0</ns3:atemp>
            <ns3:hr>75</ns3:hr>
          </ns3:TrackPointExtension>
        </extensions>
      </trkpt>
      <trkpt lat="48.83457846008241176605224609375" lon="-3.475031442940235137939453125">
        <ele>8</ele>
        <time>2026-05-09T11:58:19.000Z</time>
        <extensions>
          <ns3:TrackPointExtension>
            <ns3:atemp>17.0</ns3:atemp>
            <ns3:hr>72</ns3:hr>
          </ns3:TrackPointExtension>
        </extensions>
      </trkpt>
      <trkpt lat="48.83457846008241176605224609375" lon="-3.475031442940235137939453125">
        <ele>8</ele>
        <time>2026-05-09T11:58:20.000Z</time>
        <extensions>
          <ns3:TrackPointExtension>
            <ns3:atemp>17.0</ns3:atemp>
            <ns3:hr>72</ns3:hr>
          </ns3:TrackPointExtension>
        </extensions>
      </trkpt>
      <trkpt lat="48.83457846008241176605224609375" lon="-3.475031442940235137939453125">
        <ele>7.599999904632568359375</ele>
        <time>2026-05-09T11:58:25.000Z</time>
        <extensions>
          <ns3:TrackPointExtension>
            <ns3:atemp>17.0</ns3:atemp>
            <ns3:hr>71</ns3:hr>
          </ns3:TrackPointExtension>
        </extensions>
      </trkpt>
      <trkpt lat="48.83457846008241176605224609375" lon="-3.475031442940235137939453125">
        <ele>7.599999904632568359375</ele>
        <time>2026-05-09T11:58:31.000Z</time>
        <extensions>
          <ns3:TrackPointExtension>
            <ns3:atemp>17.0</ns3:atemp>
            <ns3:hr>68</ns3:hr>
          </ns3:TrackPointExtension>
        </extensions>
      </trkpt>
      <trkpt lat="48.83457846008241176605224609375" lon="-3.475031442940235137939453125">
        <ele>7.599999904632568359375</ele>
        <time>2026-05-09T11:58:32.000Z</time>
        <extensions>
          <ns3:TrackPointExtension>
            <ns3:atemp>17.0</ns3:atemp>
            <ns3:hr>67</ns3:hr>
          </ns3:TrackPointExtension>
        </extensions>
      </trkpt>
      <trkpt lat="48.83457846008241176605224609375" lon="-3.475031442940235137939453125">
        <ele>8</ele>
        <time>2026-05-09T11:58:47.000Z</time>
        <extensions>
          <ns3:TrackPointExtension>
            <ns3:atemp>17.0</ns3:atemp>
            <ns3:hr>68</ns3:hr>
          </ns3:TrackPointExtension>
        </extensions>
      </trkpt>
      <trkpt lat="48.83457846008241176605224609375" lon="-3.475031442940235137939453125">
        <ele>7.599999904632568359375</ele>
        <time>2026-05-09T11:58:54.000Z</time>
        <extensions>
          <ns3:TrackPointExtension>
            <ns3:atemp>17.0</ns3:atemp>
            <ns3:hr>71</ns3:hr>
          </ns3:TrackPointExtension>
        </extensions>
      </trkpt>
      <trkpt lat="48.83457846008241176605224609375" lon="-3.475031442940235137939453125">
        <ele>7.80000019073486328125</ele>
        <time>2026-05-09T11:59:03.000Z</time>
        <extensions>
          <ns3:TrackPointExtension>
            <ns3:atemp>17.0</ns3:atemp>
            <ns3:hr>68</ns3:hr>
          </ns3:TrackPointExtension>
        </extensions>
      </trkpt>
      <trkpt lat="48.83457846008241176605224609375" lon="-3.475031442940235137939453125">
        <ele>7.599999904632568359375</ele>
        <time>2026-05-09T11:59:07.000Z</time>
        <extensions>
          <ns3:TrackPointExtension>
            <ns3:atemp>17.0</ns3:atemp>
            <ns3:hr>68</ns3:hr>
          </ns3:TrackPointExtension>
        </extensions>
      </trkpt>
      <trkpt lat="48.83457846008241176605224609375" lon="-3.475031442940235137939453125">
        <ele>7.599999904632568359375</ele>
        <time>2026-05-09T11:59:17.000Z</time>
        <extensions>
          <ns3:TrackPointExtension>
            <ns3:atemp>18.0</ns3:atemp>
            <ns3:hr>69</ns3:hr>
          </ns3:TrackPointExtension>
        </extensions>
      </trkpt>
      <trkpt lat="48.83457846008241176605224609375" lon="-3.475031442940235137939453125">
        <ele>7.599999904632568359375</ele>
        <time>2026-05-09T11:59:18.000Z</time>
        <extensions>
          <ns3:TrackPointExtension>
            <ns3:atemp>18.0</ns3:atemp>
            <ns3:hr>69</ns3:hr>
          </ns3:TrackPointExtension>
        </extensions>
      </trkpt>
      <trkpt lat="48.83457846008241176605224609375" lon="-3.475031442940235137939453125">
        <ele>7.599999904632568359375</ele>
        <time>2026-05-09T11:59:30.000Z</time>
        <extensions>
          <ns3:TrackPointExtension>
            <ns3:atemp>18.0</ns3:atemp>
            <ns3:hr>71</ns3:hr>
          </ns3:TrackPointExtension>
        </extensions>
      </trkpt>
      <trkpt lat="48.83457846008241176605224609375" lon="-3.475031442940235137939453125">
        <ele>7.599999904632568359375</ele>
        <time>2026-05-09T11:59:35.000Z</time>
        <extensions>
          <ns3:TrackPointExtension>
            <ns3:atemp>18.0</ns3:atemp>
            <ns3:hr>74</ns3:hr>
          </ns3:TrackPointExtension>
        </extensions>
      </trkpt>
      <trkpt lat="48.83457846008241176605224609375" lon="-3.475031442940235137939453125">
        <ele>7.599999904632568359375</ele>
        <time>2026-05-09T11:59:57.000Z</time>
        <extensions>
          <ns3:TrackPointExtension>
            <ns3:atemp>18.0</ns3:atemp>
            <ns3:hr>74</ns3:hr>
          </ns3:TrackPointExtension>
        </extensions>
      </trkpt>
      <trkpt lat="48.83457846008241176605224609375" lon="-3.475031442940235137939453125">
        <ele>7.599999904632568359375</ele>
        <time>2026-05-09T12:00:13.000Z</time>
        <extensions>
          <ns3:TrackPointExtension>
            <ns3:atemp>18.0</ns3:atemp>
            <ns3:hr>73</ns3:hr>
          </ns3:TrackPointExtension>
        </extensions>
      </trkpt>
      <trkpt lat="48.83458969183266162872314453125" lon="-3.475018702447414398193359375">
        <ele>7.599999904632568359375</ele>
        <time>2026-05-09T12:00:20.000Z</time>
        <extensions>
          <ns3:TrackPointExtension>
            <ns3:atemp>18.0</ns3:atemp>
            <ns3:hr>72</ns3:hr>
          </ns3:TrackPointExtension>
        </extensions>
      </trkpt>
      <trkpt lat="48.83457846008241176605224609375" lon="-3.475031442940235137939453125">
        <ele>7.19999980926513671875</ele>
        <time>2026-05-09T12:00:32.000Z</time>
        <extensions>
          <ns3:TrackPointExtension>
            <ns3:atemp>18.0</ns3:atemp>
            <ns3:hr>76</ns3:hr>
          </ns3:TrackPointExtension>
        </extensions>
      </trkpt>
      <trkpt lat="48.83457846008241176605224609375" lon="-3.475031442940235137939453125">
        <ele>7.599999904632568359375</ele>
        <time>2026-05-09T12:00:39.000Z</time>
        <extensions>
          <ns3:TrackPointExtension>
            <ns3:atemp>18.0</ns3:atemp>
            <ns3:hr>74</ns3:hr>
          </ns3:TrackPointExtension>
        </extensions>
      </trkpt>
      <trkpt lat="48.83457846008241176605224609375" lon="-3.475031442940235137939453125">
        <ele>7.19999980926513671875</ele>
        <time>2026-05-09T12:01:04.000Z</time>
        <extensions>
          <ns3:TrackPointExtension>
            <ns3:atemp>18.0</ns3:atemp>
            <ns3:hr>75</ns3:hr>
          </ns3:TrackPointExtension>
        </extensions>
      </trkpt>
      <trkpt lat="48.83457846008241176605224609375" lon="-3.475031442940235137939453125">
        <ele>6.80000019073486328125</ele>
        <time>2026-05-09T12:01:14.000Z</time>
        <extensions>
          <ns3:TrackPointExtension>
            <ns3:atemp>18.0</ns3:atemp>
            <ns3:hr>72</ns3:hr>
          </ns3:TrackPointExtension>
        </extensions>
      </trkpt>
      <trkpt lat="48.83457846008241176605224609375" lon="-3.475031442940235137939453125">
        <ele>7</ele>
        <time>2026-05-09T12:01:17.000Z</time>
        <extensions>
          <ns3:TrackPointExtension>
            <ns3:atemp>18.0</ns3:atemp>
            <ns3:hr>69</ns3:hr>
          </ns3:TrackPointExtension>
        </extensions>
      </trkpt>
      <trkpt lat="48.83457846008241176605224609375" lon="-3.475031442940235137939453125">
        <ele>7.599999904632568359375</ele>
        <time>2026-05-09T12:01:32.000Z</time>
        <extensions>
          <ns3:TrackPointExtension>
            <ns3:atemp>18.0</ns3:atemp>
            <ns3:hr>70</ns3:hr>
          </ns3:TrackPointExtension>
        </extensions>
      </trkpt>
      <trkpt lat="48.83457846008241176605224609375" lon="-3.475031442940235137939453125">
        <ele>7.400000095367431640625</ele>
        <time>2026-05-09T12:01:40.000Z</time>
        <extensions>
          <ns3:TrackPointExtension>
            <ns3:atemp>18.0</ns3:atemp>
            <ns3:hr>73</ns3:hr>
          </ns3:TrackPointExtension>
        </extensions>
      </trkpt>
      <trkpt lat="48.83457846008241176605224609375" lon="-3.475031442940235137939453125">
        <ele>7.19999980926513671875</ele>
        <time>2026-05-09T12:01:42.000Z</time>
        <extensions>
          <ns3:TrackPointExtension>
            <ns3:atemp>18.0</ns3:atemp>
            <ns3:hr>77</ns3:hr>
          </ns3:TrackPointExtension>
        </extensions>
      </trkpt>
      <trkpt lat="48.83457846008241176605224609375" lon="-3.475031442940235137939453125">
        <ele>7.599999904632568359375</ele>
        <time>2026-05-09T12:01:46.000Z</time>
        <extensions>
          <ns3:TrackPointExtension>
            <ns3:atemp>18.0</ns3:atemp>
            <ns3:hr>75</ns3:hr>
          </ns3:TrackPointExtension>
        </extensions>
      </trkpt>
      <trkpt lat="48.83457846008241176605224609375" lon="-3.475031442940235137939453125">
        <ele>7.599999904632568359375</ele>
        <time>2026-05-09T12:01:54.000Z</time>
        <extensions>
          <ns3:TrackPointExtension>
            <ns3:atemp>18.0</ns3:atemp>
            <ns3:hr>72</ns3:hr>
          </ns3:TrackPointExtension>
        </extensions>
      </trkpt>
      <trkpt lat="48.83457846008241176605224609375" lon="-3.475031442940235137939453125">
        <ele>7.19999980926513671875</ele>
        <time>2026-05-09T12:01:57.000Z</time>
        <extensions>
          <ns3:TrackPointExtension>
            <ns3:atemp>18.0</ns3:atemp>
            <ns3:hr>69</ns3:hr>
          </ns3:TrackPointExtension>
        </extensions>
      </trkpt>
      <trkpt lat="48.83457846008241176605224609375" lon="-3.475031442940235137939453125">
        <ele>7</ele>
        <time>2026-05-09T12:01:59.000Z</time>
        <extensions>
          <ns3:TrackPointExtension>
            <ns3:atemp>18.0</ns3:atemp>
            <ns3:hr>66</ns3:hr>
          </ns3:TrackPointExtension>
        </extensions>
      </trkpt>
      <trkpt lat="48.83457846008241176605224609375" lon="-3.475031442940235137939453125">
        <ele>7.599999904632568359375</ele>
        <time>2026-05-09T12:02:11.000Z</time>
        <extensions>
          <ns3:TrackPointExtension>
            <ns3:atemp>18.0</ns3:atemp>
            <ns3:hr>63</ns3:hr>
          </ns3:TrackPointExtension>
        </extensions>
      </trkpt>
      <trkpt lat="48.83457846008241176605224609375" lon="-3.475031442940235137939453125">
        <ele>7.599999904632568359375</ele>
        <time>2026-05-09T12:02:13.000Z</time>
        <extensions>
          <ns3:TrackPointExtension>
            <ns3:atemp>18.0</ns3:atemp>
            <ns3:hr>64</ns3:hr>
          </ns3:TrackPointExtension>
        </extensions>
      </trkpt>
      <trkpt lat="48.83457846008241176605224609375" lon="-3.475031442940235137939453125">
        <ele>7.19999980926513671875</ele>
        <time>2026-05-09T12:02:33.000Z</time>
        <extensions>
          <ns3:TrackPointExtension>
            <ns3:atemp>18.0</ns3:atemp>
            <ns3:hr>66</ns3:hr>
          </ns3:TrackPointExtension>
        </extensions>
      </trkpt>
      <trkpt lat="48.83457846008241176605224609375" lon="-3.475031442940235137939453125">
        <ele>7.400000095367431640625</ele>
        <time>2026-05-09T12:02:51.000Z</time>
        <extensions>
          <ns3:TrackPointExtension>
            <ns3:atemp>18.0</ns3:atemp>
            <ns3:hr>63</ns3:hr>
          </ns3:TrackPointExtension>
        </extensions>
      </trkpt>
      <trkpt lat="48.83457846008241176605224609375" lon="-3.475031442940235137939453125">
        <ele>7.599999904632568359375</ele>
        <time>2026-05-09T12:02:53.000Z</time>
        <extensions>
          <ns3:TrackPointExtension>
            <ns3:atemp>18.0</ns3:atemp>
            <ns3:hr>64</ns3:hr>
          </ns3:TrackPointExtension>
        </extensions>
      </trkpt>
      <trkpt lat="48.8345837406814098358154296875" lon="-3.475024737417697906494140625">
        <ele>8.19999980926513671875</ele>
        <time>2026-05-09T12:02:58.000Z</time>
        <extensions>
          <ns3:TrackPointExtension>
            <ns3:atemp>18.0</ns3:atemp>
            <ns3:hr>67</ns3:hr>
          </ns3:TrackPointExtension>
        </extensions>
      </trkpt>
      <trkpt lat="48.8345585949718952178955078125" lon="-3.47502046264708042144775390625">
        <ele>8.3999996185302734375</ele>
        <time>2026-05-09T12:03:01.000Z</time>
        <extensions>
          <ns3:TrackPointExtension>
            <ns3:atemp>18.0</ns3:atemp>
            <ns3:hr>67</ns3:hr>
          </ns3:TrackPointExtension>
        </extensions>
      </trkpt>
      <trkpt lat="48.83451458998024463653564453125" lon="-3.47503253258764743804931640625">
        <ele>8.6000003814697265625</ele>
        <time>2026-05-09T12:03:05.000Z</time>
        <extensions>
          <ns3:TrackPointExtension>
            <ns3:atemp>18.0</ns3:atemp>
            <ns3:hr>67</ns3:hr>
          </ns3:TrackPointExtension>
        </extensions>
      </trkpt>
      <trkpt lat="48.83449749089777469635009765625" lon="-3.47508969716727733612060546875">
        <ele>7.400000095367431640625</ele>
        <time>2026-05-09T12:03:11.000Z</time>
        <extensions>
          <ns3:TrackPointExtension>
            <ns3:atemp>18.0</ns3:atemp>
            <ns3:hr>66</ns3:hr>
          </ns3:TrackPointExtension>
        </extensions>
      </trkpt>
      <trkpt lat="48.8344875164330005645751953125" lon="-3.47514853812754154205322265625">
        <ele>6.400000095367431640625</ele>
        <time>2026-05-09T12:03:15.000Z</time>
        <extensions>
          <ns3:TrackPointExtension>
            <ns3:atemp>18.0</ns3:atemp>
            <ns3:hr>67</ns3:hr>
          </ns3:TrackPointExtension>
        </extensions>
      </trkpt>
      <trkpt lat="48.83448022417724132537841796875" lon="-3.4751734323799610137939453125">
        <ele>6.19999980926513671875</ele>
        <time>2026-05-09T12:03:17.000Z</time>
        <extensions>
          <ns3:TrackPointExtension>
            <ns3:atemp>18.0</ns3:atemp>
            <ns3:hr>68</ns3:hr>
          </ns3:TrackPointExtension>
        </extensions>
      </trkpt>
      <trkpt lat="48.8344647176563739776611328125" lon="-3.47522431053221225738525390625">
        <ele>6.19999980926513671875</ele>
        <time>2026-05-09T12:03:23.000Z</time>
        <extensions>
          <ns3:TrackPointExtension>
            <ns3:atemp>18.0</ns3:atemp>
            <ns3:hr>68</ns3:hr>
          </ns3:TrackPointExtension>
        </extensions>
      </trkpt>
      <trkpt lat="48.8344171084463596343994140625" lon="-3.4752743504941463470458984375">
        <ele>6.19999980926513671875</ele>
        <time>2026-05-09T12:03:29.000Z</time>
        <extensions>
          <ns3:TrackPointExtension>
            <ns3:atemp>18.0</ns3:atemp>
            <ns3:hr>68</ns3:hr>
          </ns3:TrackPointExtension>
        </extensions>
      </trkpt>
      <trkpt lat="48.83438064716756343841552734375" lon="-3.47533009015023708343505859375">
        <ele>6.80000019073486328125</ele>
        <time>2026-05-09T12:03:34.000Z</time>
        <extensions>
          <ns3:TrackPointExtension>
            <ns3:atemp>18.0</ns3:atemp>
            <ns3:hr>67</ns3:hr>
          </ns3:TrackPointExtension>
        </extensions>
      </trkpt>
      <trkpt lat="48.83431795053184032440185546875" lon="-3.475380800664424896240234375">
        <ele>6.400000095367431640625</ele>
        <time>2026-05-09T12:03:41.000Z</time>
        <extensions>
          <ns3:TrackPointExtension>
            <ns3:atemp>18.0</ns3:atemp>
            <ns3:hr>67</ns3:hr>
          </ns3:TrackPointExtension>
        </extensions>
      </trkpt>
      <trkpt lat="48.834263049066066741943359375" lon="-3.47544659860432147979736328125">
        <ele>6.599999904632568359375</ele>
        <time>2026-05-09T12:03:49.000Z</time>
        <extensions>
          <ns3:TrackPointExtension>
            <ns3:atemp>18.0</ns3:atemp>
            <ns3:hr>68</ns3:hr>
          </ns3:TrackPointExtension>
        </extensions>
      </trkpt>
      <trkpt lat="48.8342164456844329833984375" lon="-3.475510887801647186279296875">
        <ele>7.599999904632568359375</ele>
        <time>2026-05-09T12:03:56.000Z</time>
        <extensions>
          <ns3:TrackPointExtension>
            <ns3:atemp>18.0</ns3:atemp>
            <ns3:hr>68</ns3:hr>
          </ns3:TrackPointExtension>
        </extensions>
      </trkpt>
      <trkpt lat="48.83421904407441616058349609375" lon="-3.47552639432251453399658203125">
        <ele>7.80000019073486328125</ele>
        <time>2026-05-09T12:03:57.000Z</time>
        <extensions>
          <ns3:TrackPointExtension>
            <ns3:atemp>18.0</ns3:atemp>
            <ns3:hr>68</ns3:hr>
          </ns3:TrackPointExtension>
        </extensions>
      </trkpt>
      <trkpt lat="48.834228180348873138427734375" lon="-3.4755469299852848052978515625">
        <ele>8.19999980926513671875</ele>
        <time>2026-05-09T12:03:59.000Z</time>
        <extensions>
          <ns3:TrackPointExtension>
            <ns3:atemp>18.0</ns3:atemp>
            <ns3:hr>68</ns3:hr>
          </ns3:TrackPointExtension>
        </extensions>
      </trkpt>
      <trkpt lat="48.83424737490713596343994140625" lon="-3.47556796856224536895751953125">
        <ele>8</ele>
        <time>2026-05-09T12:04:01.000Z</time>
        <extensions>
          <ns3:TrackPointExtension>
            <ns3:atemp>18.0</ns3:atemp>
            <ns3:hr>69</ns3:hr>
          </ns3:TrackPointExtension>
        </extensions>
      </trkpt>
      <trkpt lat="48.834295235574245452880859375" lon="-3.47561180591583251953125">
        <ele>8.6000003814697265625</ele>
        <time>2026-05-09T12:04:08.000Z</time>
        <extensions>
          <ns3:TrackPointExtension>
            <ns3:atemp>18.0</ns3:atemp>
            <ns3:hr>70</ns3:hr>
          </ns3:TrackPointExtension>
        </extensions>
      </trkpt>
      <trkpt lat="48.834304623305797576904296875" lon="-3.4756213612854480743408203125">
        <ele>8.80000019073486328125</ele>
        <time>2026-05-09T12:04:09.000Z</time>
        <extensions>
          <ns3:TrackPointExtension>
            <ns3:atemp>18.0</ns3:atemp>
            <ns3:hr>70</ns3:hr>
          </ns3:TrackPointExtension>
        </extensions>
      </trkpt>
      <trkpt lat="48.83435416035354137420654296875" lon="-3.47568715922534465789794921875">
        <ele>9.6000003814697265625</ele>
        <time>2026-05-09T12:04:15.000Z</time>
        <extensions>
          <ns3:TrackPointExtension>
            <ns3:atemp>18.0</ns3:atemp>
            <ns3:hr>71</ns3:hr>
          </ns3:TrackPointExtension>
        </extensions>
      </trkpt>
      <trkpt lat="48.83440763689577579498291015625" lon="-3.4757499396800994873046875">
        <ele>9.80000019073486328125</ele>
        <time>2026-05-09T12:04:22.000Z</time>
        <extensions>
          <ns3:TrackPointExtension>
            <ns3:atemp>18.0</ns3:atemp>
            <ns3:hr>73</ns3:hr>
          </ns3:TrackPointExtension>
        </extensions>
      </trkpt>
      <trkpt lat="48.83445273153483867645263671875" lon="-3.47579729743301868438720703125">
        <ele>10.80000019073486328125</ele>
        <time>2026-05-09T12:04:28.000Z</time>
        <extensions>
          <ns3:TrackPointExtension>
            <ns3:atemp>18.0</ns3:atemp>
            <ns3:hr>76</ns3:hr>
          </ns3:TrackPointExtension>
        </extensions>
      </trkpt>
      <trkpt lat="48.83445792831480503082275390625" lon="-3.475807271897792816162109375">
        <ele>11</ele>
        <time>2026-05-09T12:04:29.000Z</time>
        <extensions>
          <ns3:TrackPointExtension>
            <ns3:atemp>18.0</ns3:atemp>
            <ns3:hr>78</ns3:hr>
          </ns3:TrackPointExtension>
        </extensions>
      </trkpt>
      <trkpt lat="48.834466896951198577880859375" lon="-3.47581841982901096343994140625">
        <ele>11.19999980926513671875</ele>
        <time>2026-05-09T12:04:30.000Z</time>
        <extensions>
          <ns3:TrackPointExtension>
            <ns3:atemp>18.0</ns3:atemp>
            <ns3:hr>81</ns3:hr>
          </ns3:TrackPointExtension>
        </extensions>
      </trkpt>
      <trkpt lat="48.83448533713817596435546875" lon="-3.47583711147308349609375">
        <ele>11.6000003814697265625</ele>
        <time>2026-05-09T12:04:32.000Z</time>
        <extensions>
          <ns3:TrackPointExtension>
            <ns3:atemp>18.0</ns3:atemp>
            <ns3:hr>84</ns3:hr>
          </ns3:TrackPointExtension>
        </extensions>
      </trkpt>
      <trkpt lat="48.8344922102987766265869140625" lon="-3.47584784030914306640625">
        <ele>11.80000019073486328125</ele>
        <time>2026-05-09T12:04:33.000Z</time>
        <extensions>
          <ns3:TrackPointExtension>
            <ns3:atemp>18.0</ns3:atemp>
            <ns3:hr>85</ns3:hr>
          </ns3:TrackPointExtension>
        </extensions>
      </trkpt>
      <trkpt lat="48.83451961912214756011962890625" lon="-3.47588446922600269317626953125">
        <ele>12.3999996185302734375</ele>
        <time>2026-05-09T12:04:36.000Z</time>
        <extensions>
          <ns3:TrackPointExtension>
            <ns3:atemp>18.0</ns3:atemp>
            <ns3:hr>85</ns3:hr>
          </ns3:TrackPointExtension>
        </extensions>
      </trkpt>
      <trkpt lat="48.83452833630144596099853515625" lon="-3.47590441815555095672607421875">
        <ele>12.80000019073486328125</ele>
        <time>2026-05-09T12:04:38.000Z</time>
        <extensions>
          <ns3:TrackPointExtension>
            <ns3:atemp>18.0</ns3:atemp>
            <ns3:hr>85</ns3:hr>
          </ns3:TrackPointExtension>
        </extensions>
      </trkpt>
      <trkpt lat="48.834557421505451202392578125" lon="-3.47595118917524814605712890625">
        <ele>13.80000019073486328125</ele>
        <time>2026-05-09T12:04:43.000Z</time>
        <extensions>
          <ns3:TrackPointExtension>
            <ns3:atemp>18.0</ns3:atemp>
            <ns3:hr>87</ns3:hr>
          </ns3:TrackPointExtension>
        </extensions>
      </trkpt>
      <trkpt lat="48.8345642946660518646240234375" lon="-3.47595839761197566986083984375">
        <ele>14.19999980926513671875</ele>
        <time>2026-05-09T12:04:44.000Z</time>
        <extensions>
          <ns3:TrackPointExtension>
            <ns3:atemp>18.0</ns3:atemp>
            <ns3:hr>88</ns3:hr>
          </ns3:TrackPointExtension>
        </extensions>
      </trkpt>
      <trkpt lat="48.83458667434751987457275390625" lon="-3.4759750775992870330810546875">
        <ele>14</ele>
        <time>2026-05-09T12:04:50.000Z</time>
        <extensions>
          <ns3:TrackPointExtension>
            <ns3:atemp>18.0</ns3:atemp>
            <ns3:hr>90</ns3:hr>
          </ns3:TrackPointExtension>
        </extensions>
      </trkpt>
      <trkpt lat="48.83458667434751987457275390625" lon="-3.4759750775992870330810546875">
        <ele>13.6000003814697265625</ele>
        <time>2026-05-09T12:04:56.000Z</time>
        <extensions>
          <ns3:TrackPointExtension>
            <ns3:atemp>18.0</ns3:atemp>
            <ns3:hr>93</ns3:hr>
          </ns3:TrackPointExtension>
        </extensions>
      </trkpt>
      <trkpt lat="48.83458667434751987457275390625" lon="-3.4759750775992870330810546875">
        <ele>13.19999980926513671875</ele>
        <time>2026-05-09T12:05:02.000Z</time>
        <extensions>
          <ns3:TrackPointExtension>
            <ns3:atemp>18.0</ns3:atemp>
            <ns3:hr>92</ns3:hr>
          </ns3:TrackPointExtension>
        </extensions>
      </trkpt>
      <trkpt lat="48.83458667434751987457275390625" lon="-3.4759750775992870330810546875">
        <ele>13.19999980926513671875</ele>
        <time>2026-05-09T12:05:03.000Z</time>
        <extensions>
          <ns3:TrackPointExtension>
            <ns3:atemp>18.0</ns3:atemp>
            <ns3:hr>92</ns3:hr>
          </ns3:TrackPointExtension>
        </extensions>
      </trkpt>
      <trkpt lat="48.83458667434751987457275390625" lon="-3.4759750775992870330810546875">
        <ele>14.6000003814697265625</ele>
        <time>2026-05-09T12:05:05.000Z</time>
        <extensions>
          <ns3:TrackPointExtension>
            <ns3:atemp>18.0</ns3:atemp>
            <ns3:hr>92</ns3:hr>
          </ns3:TrackPointExtension>
        </extensions>
      </trkpt>
      <trkpt lat="48.83458667434751987457275390625" lon="-3.4759750775992870330810546875">
        <ele>13.6000003814697265625</ele>
        <time>2026-05-09T12:05:10.000Z</time>
        <extensions>
          <ns3:TrackPointExtension>
            <ns3:atemp>18.0</ns3:atemp>
            <ns3:hr>91</ns3:hr>
          </ns3:TrackPointExtension>
        </extensions>
      </trkpt>
      <trkpt lat="48.83458667434751987457275390625" lon="-3.4759750775992870330810546875">
        <ele>13.3999996185302734375</ele>
        <time>2026-05-09T12:05:15.000Z</time>
        <extensions>
          <ns3:TrackPointExtension>
            <ns3:atemp>18.0</ns3:atemp>
            <ns3:hr>89</ns3:hr>
          </ns3:TrackPointExtension>
        </extensions>
      </trkpt>
      <trkpt lat="48.83458516560494899749755859375" lon="-3.4759717248380184173583984375">
        <ele>14.3999996185302734375</ele>
        <time>2026-05-09T12:05:25.000Z</time>
        <extensions>
          <ns3:TrackPointExtension>
            <ns3:atemp>17.0</ns3:atemp>
            <ns3:hr>86</ns3:hr>
          </ns3:TrackPointExtension>
        </extensions>
      </trkpt>
      <trkpt lat="48.83458055555820465087890625" lon="-3.4759710542857646942138671875">
        <ele>14.3999996185302734375</ele>
        <time>2026-05-09T12:05:26.000Z</time>
        <extensions>
          <ns3:TrackPointExtension>
            <ns3:atemp>17.0</ns3:atemp>
            <ns3:hr>86</ns3:hr>
          </ns3:TrackPointExtension>
        </extensions>
      </trkpt>
      <trkpt lat="48.83459128439426422119140625" lon="-3.476011790335178375244140625">
        <ele>14.3999996185302734375</ele>
        <time>2026-05-09T12:05:31.000Z</time>
        <extensions>
          <ns3:TrackPointExtension>
            <ns3:atemp>17.0</ns3:atemp>
            <ns3:hr>85</ns3:hr>
          </ns3:TrackPointExtension>
        </extensions>
      </trkpt>
      <trkpt lat="48.83459254167973995208740234375" lon="-3.47601480782032012939453125">
        <ele>14.6000003814697265625</ele>
        <time>2026-05-09T12:05:32.000Z</time>
        <extensions>
          <ns3:TrackPointExtension>
            <ns3:atemp>17.0</ns3:atemp>
            <ns3:hr>84</ns3:hr>
          </ns3:TrackPointExtension>
        </extensions>
      </trkpt>
      <trkpt lat="48.83463084697723388671875" lon="-3.47605026327073574066162109375">
        <ele>14.3999996185302734375</ele>
        <time>2026-05-09T12:05:38.000Z</time>
        <extensions>
          <ns3:TrackPointExtension>
            <ns3:atemp>17.0</ns3:atemp>
            <ns3:hr>83</ns3:hr>
          </ns3:TrackPointExtension>
        </extensions>
      </trkpt>
      <trkpt lat="48.83470972068607807159423828125" lon="-3.47610088996589183807373046875">
        <ele>15</ele>
        <time>2026-05-09T12:05:44.000Z</time>
        <extensions>
          <ns3:TrackPointExtension>
            <ns3:atemp>17.0</ns3:atemp>
            <ns3:hr>81</ns3:hr>
          </ns3:TrackPointExtension>
        </extensions>
      </trkpt>
      <trkpt lat="48.8348160870373249053955078125" lon="-3.476172722876071929931640625">
        <ele>14.6000003814697265625</ele>
        <time>2026-05-09T12:05:53.000Z</time>
        <extensions>
          <ns3:TrackPointExtension>
            <ns3:atemp>17.0</ns3:atemp>
            <ns3:hr>81</ns3:hr>
          </ns3:TrackPointExtension>
        </extensions>
      </trkpt>
      <trkpt lat="48.8349089585244655609130859375" lon="-3.476220667362213134765625">
        <ele>14.3999996185302734375</ele>
        <time>2026-05-09T12:06:02.000Z</time>
        <extensions>
          <ns3:TrackPointExtension>
            <ns3:atemp>17.0</ns3:atemp>
            <ns3:hr>82</ns3:hr>
          </ns3:TrackPointExtension>
        </extensions>
      </trkpt>
      <trkpt lat="48.83498967625200748443603515625" lon="-3.47622561268508434295654296875">
        <ele>13.6000003814697265625</ele>
        <time>2026-05-09T12:06:09.000Z</time>
        <extensions>
          <ns3:TrackPointExtension>
            <ns3:atemp>17.0</ns3:atemp>
            <ns3:hr>81</ns3:hr>
          </ns3:TrackPointExtension>
        </extensions>
      </trkpt>
      <trkpt lat="48.83500325493514537811279296875" lon="-3.47622812725603580474853515625">
        <ele>13.6000003814697265625</ele>
        <time>2026-05-09T12:06:10.000Z</time>
        <extensions>
          <ns3:TrackPointExtension>
            <ns3:atemp>17.0</ns3:atemp>
            <ns3:hr>81</ns3:hr>
          </ns3:TrackPointExtension>
        </extensions>
      </trkpt>
      <trkpt lat="48.83508891798555850982666015625" lon="-3.4762285463511943817138671875">
        <ele>13.19999980926513671875</ele>
        <time>2026-05-09T12:06:17.000Z</time>
        <extensions>
          <ns3:TrackPointExtension>
            <ns3:atemp>17.0</ns3:atemp>
            <ns3:hr>80</ns3:hr>
          </ns3:TrackPointExtension>
        </extensions>
      </trkpt>
      <trkpt lat="48.8351134769618511199951171875" lon="-3.47621991299092769622802734375">
        <ele>13</ele>
        <time>2026-05-09T12:06:19.000Z</time>
        <extensions>
          <ns3:TrackPointExtension>
            <ns3:atemp>17.0</ns3:atemp>
            <ns3:hr>81</ns3:hr>
          </ns3:TrackPointExtension>
        </extensions>
      </trkpt>
      <trkpt lat="48.83515832014381885528564453125" lon="-3.47622594796121120452880859375">
        <ele>12.3999996185302734375</ele>
        <time>2026-05-09T12:06:23.000Z</time>
        <extensions>
          <ns3:TrackPointExtension>
            <ns3:atemp>17.0</ns3:atemp>
            <ns3:hr>80</ns3:hr>
          </ns3:TrackPointExtension>
        </extensions>
      </trkpt>
      <trkpt lat="48.83518246002495288848876953125" lon="-3.47624413669109344482421875">
        <ele>12.3999996185302734375</ele>
        <time>2026-05-09T12:06:25.000Z</time>
        <extensions>
          <ns3:TrackPointExtension>
            <ns3:atemp>17.0</ns3:atemp>
            <ns3:hr>80</ns3:hr>
          </ns3:TrackPointExtension>
        </extensions>
      </trkpt>
      <trkpt lat="48.8352717272937297821044921875" lon="-3.4762969426810741424560546875">
        <ele>12.6000003814697265625</ele>
        <time>2026-05-09T12:06:33.000Z</time>
        <extensions>
          <ns3:TrackPointExtension>
            <ns3:atemp>17.0</ns3:atemp>
            <ns3:hr>81</ns3:hr>
          </ns3:TrackPointExtension>
        </extensions>
      </trkpt>
      <trkpt lat="48.835311122238636016845703125" lon="-3.47633742727339267730712890625">
        <ele>12.6000003814697265625</ele>
        <time>2026-05-09T12:06:39.000Z</time>
        <extensions>
          <ns3:TrackPointExtension>
            <ns3:atemp>17.0</ns3:atemp>
            <ns3:hr>80</ns3:hr>
          </ns3:TrackPointExtension>
        </extensions>
      </trkpt>
      <trkpt lat="48.83536652661859989166259765625" lon="-3.47634949721395969390869140625">
        <ele>12</ele>
        <time>2026-05-09T12:06:44.000Z</time>
        <extensions>
          <ns3:TrackPointExtension>
            <ns3:atemp>17.0</ns3:atemp>
            <ns3:hr>80</ns3:hr>
          </ns3:TrackPointExtension>
        </extensions>
      </trkpt>
      <trkpt lat="48.8354789279401302337646484375" lon="-3.476376570761203765869140625">
        <ele>11.3999996185302734375</ele>
        <time>2026-05-09T12:06:52.000Z</time>
        <extensions>
          <ns3:TrackPointExtension>
            <ns3:atemp>17.0</ns3:atemp>
            <ns3:hr>81</ns3:hr>
          </ns3:TrackPointExtension>
        </extensions>
      </trkpt>
      <trkpt lat="48.83549242280423641204833984375" lon="-3.47638553939759731292724609375">
        <ele>11.3999996185302734375</ele>
        <time>2026-05-09T12:06:53.000Z</time>
        <extensions>
          <ns3:TrackPointExtension>
            <ns3:atemp>17.0</ns3:atemp>
            <ns3:hr>80</ns3:hr>
          </ns3:TrackPointExtension>
        </extensions>
      </trkpt>
      <trkpt lat="48.83557640947401523590087890625" lon="-3.47642862237989902496337890625">
        <ele>10.6000003814697265625</ele>
        <time>2026-05-09T12:07:01.000Z</time>
        <extensions>
          <ns3:TrackPointExtension>
            <ns3:atemp>17.0</ns3:atemp>
            <ns3:hr>80</ns3:hr>
          </ns3:TrackPointExtension>
        </extensions>
      </trkpt>
      <trkpt lat="48.835700042545795440673828125" lon="-3.47644530236721038818359375">
        <ele>10.80000019073486328125</ele>
        <time>2026-05-09T12:07:11.000Z</time>
        <extensions>
          <ns3:TrackPointExtension>
            <ns3:atemp>17.0</ns3:atemp>
            <ns3:hr>79</ns3:hr>
          </ns3:TrackPointExtension>
        </extensions>
      </trkpt>
      <trkpt lat="48.8357840292155742645263671875" lon="-3.476460389792919158935546875">
        <ele>11.19999980926513671875</ele>
        <time>2026-05-09T12:07:18.000Z</time>
        <extensions>
          <ns3:TrackPointExtension>
            <ns3:atemp>17.0</ns3:atemp>
            <ns3:hr>79</ns3:hr>
          </ns3:TrackPointExtension>
        </extensions>
      </trkpt>
      <trkpt lat="48.83585653267800807952880859375" lon="-3.4764880500733852386474609375">
        <ele>11.3999996185302734375</ele>
        <time>2026-05-09T12:07:25.000Z</time>
        <extensions>
          <ns3:TrackPointExtension>
            <ns3:atemp>17.0</ns3:atemp>
            <ns3:hr>79</ns3:hr>
          </ns3:TrackPointExtension>
        </extensions>
      </trkpt>
      <trkpt lat="48.83593641221523284912109375" lon="-3.47654127515852451324462890625">
        <ele>10.6000003814697265625</ele>
        <time>2026-05-09T12:07:34.000Z</time>
        <extensions>
          <ns3:TrackPointExtension>
            <ns3:atemp>17.0</ns3:atemp>
            <ns3:hr>80</ns3:hr>
          </ns3:TrackPointExtension>
        </extensions>
      </trkpt>
      <trkpt lat="48.83593632839620113372802734375" lon="-3.47653792239725589752197265625">
        <ele>10.6000003814697265625</ele>
        <time>2026-05-09T12:07:37.000Z</time>
        <extensions>
          <ns3:TrackPointExtension>
            <ns3:atemp>17.0</ns3:atemp>
            <ns3:hr>81</ns3:hr>
          </ns3:TrackPointExtension>
        </extensions>
      </trkpt>
      <trkpt lat="48.8359660841524600982666015625" lon="-3.4765450470149517059326171875">
        <ele>11</ele>
        <time>2026-05-09T12:07:40.000Z</time>
        <extensions>
          <ns3:TrackPointExtension>
            <ns3:atemp>17.0</ns3:atemp>
            <ns3:hr>81</ns3:hr>
          </ns3:TrackPointExtension>
        </extensions>
      </trkpt>
      <trkpt lat="48.83601763285696506500244140625" lon="-3.4766064025461673736572265625">
        <ele>10.80000019073486328125</ele>
        <time>2026-05-09T12:07:45.000Z</time>
        <extensions>
          <ns3:TrackPointExtension>
            <ns3:atemp>17.0</ns3:atemp>
            <ns3:hr>81</ns3:hr>
          </ns3:TrackPointExtension>
        </extensions>
      </trkpt>
      <trkpt lat="48.83602869696915149688720703125" lon="-3.4766325540840625762939453125">
        <ele>10.3999996185302734375</ele>
        <time>2026-05-09T12:07:47.000Z</time>
        <extensions>
          <ns3:TrackPointExtension>
            <ns3:atemp>17.0</ns3:atemp>
            <ns3:hr>81</ns3:hr>
          </ns3:TrackPointExtension>
        </extensions>
      </trkpt>
      <trkpt lat="48.8360482268035411834716796875" lon="-3.4766623936593532562255859375">
        <ele>10</ele>
        <time>2026-05-09T12:07:49.000Z</time>
        <extensions>
          <ns3:TrackPointExtension>
            <ns3:atemp>17.0</ns3:atemp>
            <ns3:hr>82</ns3:hr>
          </ns3:TrackPointExtension>
        </extensions>
      </trkpt>
      <trkpt lat="48.836088292300701141357421875" lon="-3.476714193820953369140625">
        <ele>10</ele>
        <time>2026-05-09T12:07:54.000Z</time>
        <extensions>
          <ns3:TrackPointExtension>
            <ns3:atemp>17.0</ns3:atemp>
            <ns3:hr>83</ns3:hr>
          </ns3:TrackPointExtension>
        </extensions>
      </trkpt>
      <trkpt lat="48.83610731922090053558349609375" lon="-3.47676205448806285858154296875">
        <ele>9.80000019073486328125</ele>
        <time>2026-05-09T12:07:58.000Z</time>
        <extensions>
          <ns3:TrackPointExtension>
            <ns3:atemp>17.0</ns3:atemp>
            <ns3:hr>83</ns3:hr>
          </ns3:TrackPointExtension>
        </extensions>
      </trkpt>
      <trkpt lat="48.83612290956079959869384765625" lon="-3.47678116522729396820068359375">
        <ele>9.3999996185302734375</ele>
        <time>2026-05-09T12:08:01.000Z</time>
        <extensions>
          <ns3:TrackPointExtension>
            <ns3:atemp>17.0</ns3:atemp>
            <ns3:hr>83</ns3:hr>
          </ns3:TrackPointExtension>
        </extensions>
      </trkpt>
      <trkpt lat="48.836143277585506439208984375" lon="-3.47681016661226749420166015625">
        <ele>9.3999996185302734375</ele>
        <time>2026-05-09T12:08:06.000Z</time>
        <extensions>
          <ns3:TrackPointExtension>
            <ns3:atemp>17.0</ns3:atemp>
            <ns3:hr>80</ns3:hr>
          </ns3:TrackPointExtension>
        </extensions>
      </trkpt>
      <trkpt lat="48.836153335869312286376953125" lon="-3.4768263436853885650634765625">
        <ele>9.3999996185302734375</ele>
        <time>2026-05-09T12:08:09.000Z</time>
        <extensions>
          <ns3:TrackPointExtension>
            <ns3:atemp>17.0</ns3:atemp>
            <ns3:hr>79</ns3:hr>
          </ns3:TrackPointExtension>
        </extensions>
      </trkpt>
      <trkpt lat="48.83615744300186634063720703125" lon="-3.4768414311110973358154296875">
        <ele>9.19999980926513671875</ele>
        <time>2026-05-09T12:08:15.000Z</time>
        <extensions>
          <ns3:TrackPointExtension>
            <ns3:atemp>17.0</ns3:atemp>
            <ns3:hr>76</ns3:hr>
          </ns3:TrackPointExtension>
        </extensions>
      </trkpt>
      <trkpt lat="48.836186863481998443603515625" lon="-3.47686179913580417633056640625">
        <ele>9.3999996185302734375</ele>
        <time>2026-05-09T12:08:25.000Z</time>
        <extensions>
          <ns3:TrackPointExtension>
            <ns3:atemp>17.0</ns3:atemp>
            <ns3:hr>75</ns3:hr>
          </ns3:TrackPointExtension>
        </extensions>
      </trkpt>
      <trkpt lat="48.8362708501517772674560546875" lon="-3.47687118686735630035400390625">
        <ele>9.80000019073486328125</ele>
        <time>2026-05-09T12:08:31.000Z</time>
        <extensions>
          <ns3:TrackPointExtension>
            <ns3:atemp>17.0</ns3:atemp>
            <ns3:hr>76</ns3:hr>
          </ns3:TrackPointExtension>
        </extensions>
      </trkpt>
      <trkpt lat="48.83637855760753154754638671875" lon="-3.476917035877704620361328125">
        <ele>9.80000019073486328125</ele>
        <time>2026-05-09T12:08:40.000Z</time>
        <extensions>
          <ns3:TrackPointExtension>
            <ns3:atemp>17.0</ns3:atemp>
            <ns3:hr>75</ns3:hr>
          </ns3:TrackPointExtension>
        </extensions>
      </trkpt>
      <trkpt lat="48.83644527755677700042724609375" lon="-3.4769996814429759979248046875">
        <ele>9.6000003814697265625</ele>
        <time>2026-05-09T12:08:48.000Z</time>
        <extensions>
          <ns3:TrackPointExtension>
            <ns3:atemp>17.0</ns3:atemp>
            <ns3:hr>73</ns3:hr>
          </ns3:TrackPointExtension>
        </extensions>
      </trkpt>
      <trkpt lat="48.83646774105727672576904296875" lon="-3.47708660177886486053466796875">
        <ele>10</ele>
        <time>2026-05-09T12:08:54.000Z</time>
        <extensions>
          <ns3:TrackPointExtension>
            <ns3:atemp>17.0</ns3:atemp>
            <ns3:hr>74</ns3:hr>
          </ns3:TrackPointExtension>
        </extensions>
      </trkpt>
      <trkpt lat="48.83648131974041461944580078125" lon="-3.47712884657084941864013671875">
        <ele>10</ele>
        <time>2026-05-09T12:09:02.000Z</time>
        <extensions>
          <ns3:TrackPointExtension>
            <ns3:atemp>17.0</ns3:atemp>
            <ns3:hr>73</ns3:hr>
          </ns3:TrackPointExtension>
        </extensions>
      </trkpt>
      <trkpt lat="48.83651367388665676116943359375" lon="-3.4771911241114139556884765625">
        <ele>10.19999980926513671875</ele>
        <time>2026-05-09T12:09:08.000Z</time>
        <extensions>
          <ns3:TrackPointExtension>
            <ns3:atemp>17.0</ns3:atemp>
            <ns3:hr>74</ns3:hr>
          </ns3:TrackPointExtension>
        </extensions>
      </trkpt>
      <trkpt lat="48.83651317097246646881103515625" lon="-3.477175869047641754150390625">
        <ele>10.6000003814697265625</ele>
        <time>2026-05-09T12:09:10.000Z</time>
        <extensions>
          <ns3:TrackPointExtension>
            <ns3:atemp>17.0</ns3:atemp>
            <ns3:hr>74</ns3:hr>
          </ns3:TrackPointExtension>
        </extensions>
      </trkpt>
      <trkpt lat="48.8365115784108638763427734375" lon="-3.47717628814280033111572265625">
        <ele>9.80000019073486328125</ele>
        <time>2026-05-09T12:09:16.000Z</time>
        <extensions>
          <ns3:TrackPointExtension>
            <ns3:atemp>17.0</ns3:atemp>
            <ns3:hr>76</ns3:hr>
          </ns3:TrackPointExtension>
        </extensions>
      </trkpt>
      <trkpt lat="48.83651149459183216094970703125" lon="-3.477178551256656646728515625">
        <ele>10.19999980926513671875</ele>
        <time>2026-05-09T12:09:25.000Z</time>
        <extensions>
          <ns3:TrackPointExtension>
            <ns3:atemp>17.0</ns3:atemp>
            <ns3:hr>79</ns3:hr>
          </ns3:TrackPointExtension>
        </extensions>
      </trkpt>
      <trkpt lat="48.83651384152472019195556640625" lon="-3.47718986682593822479248046875">
        <ele>10.19999980926513671875</ele>
        <time>2026-05-09T12:09:26.000Z</time>
        <extensions>
          <ns3:TrackPointExtension>
            <ns3:atemp>17.0</ns3:atemp>
            <ns3:hr>79</ns3:hr>
          </ns3:TrackPointExtension>
        </extensions>
      </trkpt>
      <trkpt lat="48.8365115784108638763427734375" lon="-3.47717628814280033111572265625">
        <ele>10</ele>
        <time>2026-05-09T12:09:33.000Z</time>
        <extensions>
          <ns3:TrackPointExtension>
            <ns3:atemp>17.0</ns3:atemp>
            <ns3:hr>79</ns3:hr>
          </ns3:TrackPointExtension>
        </extensions>
      </trkpt>
      <trkpt lat="48.83651845157146453857421875" lon="-3.47716773860156536102294921875">
        <ele>10.19999980926513671875</ele>
        <time>2026-05-09T12:09:42.000Z</time>
        <extensions>
          <ns3:TrackPointExtension>
            <ns3:atemp>17.0</ns3:atemp>
            <ns3:hr>78</ns3:hr>
          </ns3:TrackPointExtension>
        </extensions>
      </trkpt>
      <trkpt lat="48.8365115784108638763427734375" lon="-3.47717628814280033111572265625">
        <ele>10.19999980926513671875</ele>
        <time>2026-05-09T12:09:49.000Z</time>
        <extensions>
          <ns3:TrackPointExtension>
            <ns3:atemp>17.0</ns3:atemp>
            <ns3:hr>78</ns3:hr>
          </ns3:TrackPointExtension>
        </extensions>
      </trkpt>
      <trkpt lat="48.83652239106595516204833984375" lon="-3.47719389013946056365966796875">
        <ele>10.80000019073486328125</ele>
        <time>2026-05-09T12:09:55.000Z</time>
        <extensions>
          <ns3:TrackPointExtension>
            <ns3:atemp>17.0</ns3:atemp>
            <ns3:hr>78</ns3:hr>
          </ns3:TrackPointExtension>
        </extensions>
      </trkpt>
      <trkpt lat="48.83655156008899211883544921875" lon="-3.47728659398853778839111328125">
        <ele>10.19999980926513671875</ele>
        <time>2026-05-09T12:10:02.000Z</time>
        <extensions>
          <ns3:TrackPointExtension>
            <ns3:atemp>17.0</ns3:atemp>
            <ns3:hr>78</ns3:hr>
          </ns3:TrackPointExtension>
        </extensions>
      </trkpt>
      <trkpt lat="48.8365853391587734222412109375" lon="-3.47739555872976779937744140625">
        <ele>10.6000003814697265625</ele>
        <time>2026-05-09T12:10:09.000Z</time>
        <extensions>
          <ns3:TrackPointExtension>
            <ns3:atemp>17.0</ns3:atemp>
            <ns3:hr>77</ns3:hr>
          </ns3:TrackPointExtension>
        </extensions>
      </trkpt>
      <trkpt lat="48.83660495281219482421875" lon="-3.4774714149534702301025390625">
        <ele>10.19999980926513671875</ele>
        <time>2026-05-09T12:10:14.000Z</time>
        <extensions>
          <ns3:TrackPointExtension>
            <ns3:atemp>17.0</ns3:atemp>
            <ns3:hr>77</ns3:hr>
          </ns3:TrackPointExtension>
        </extensions>
      </trkpt>
      <trkpt lat="48.8366373069584369659423828125" lon="-3.47757576964795589447021484375">
        <ele>10.6000003814697265625</ele>
        <time>2026-05-09T12:10:21.000Z</time>
        <extensions>
          <ns3:TrackPointExtension>
            <ns3:atemp>17.0</ns3:atemp>
            <ns3:hr>76</ns3:hr>
          </ns3:TrackPointExtension>
        </extensions>
      </trkpt>
      <trkpt lat="48.83665733970701694488525390625" lon="-3.47765690647065639495849609375">
        <ele>11.19999980926513671875</ele>
        <time>2026-05-09T12:10:27.000Z</time>
        <extensions>
          <ns3:TrackPointExtension>
            <ns3:atemp>17.0</ns3:atemp>
            <ns3:hr>75</ns3:hr>
          </ns3:TrackPointExtension>
        </extensions>
      </trkpt>
      <trkpt lat="48.83668097667396068572998046875" lon="-3.47772949375212192535400390625">
        <ele>11.3999996185302734375</ele>
        <time>2026-05-09T12:10:32.000Z</time>
        <extensions>
          <ns3:TrackPointExtension>
            <ns3:atemp>17.0</ns3:atemp>
            <ns3:hr>76</ns3:hr>
          </ns3:TrackPointExtension>
        </extensions>
      </trkpt>
      <trkpt lat="48.83669472299516201019287109375" lon="-3.47778565250337123870849609375">
        <ele>11.6000003814697265625</ele>
        <time>2026-05-09T12:10:35.000Z</time>
        <extensions>
          <ns3:TrackPointExtension>
            <ns3:atemp>17.0</ns3:atemp>
            <ns3:hr>79</ns3:hr>
          </ns3:TrackPointExtension>
        </extensions>
      </trkpt>
      <trkpt lat="48.83669774048030376434326171875" lon="-3.477800153195858001708984375">
        <ele>11.6000003814697265625</ele>
        <time>2026-05-09T12:10:36.000Z</time>
        <extensions>
          <ns3:TrackPointExtension>
            <ns3:atemp>17.0</ns3:atemp>
            <ns3:hr>80</ns3:hr>
          </ns3:TrackPointExtension>
        </extensions>
      </trkpt>
      <trkpt lat="48.83671383373439311981201171875" lon="-3.477872572839260101318359375">
        <ele>11.6000003814697265625</ele>
        <time>2026-05-09T12:10:41.000Z</time>
        <extensions>
          <ns3:TrackPointExtension>
            <ns3:atemp>17.0</ns3:atemp>
            <ns3:hr>82</ns3:hr>
          </ns3:TrackPointExtension>
        </extensions>
      </trkpt>
      <trkpt lat="48.8367308489978313446044921875" lon="-3.477938957512378692626953125">
        <ele>12</ele>
        <time>2026-05-09T12:10:46.000Z</time>
        <extensions>
          <ns3:TrackPointExtension>
            <ns3:atemp>17.0</ns3:atemp>
            <ns3:hr>83</ns3:hr>
          </ns3:TrackPointExtension>
        </extensions>
      </trkpt>
      <trkpt lat="48.83675171993672847747802734375" lon="-3.47803090699017047882080078125">
        <ele>12.19999980926513671875</ele>
        <time>2026-05-09T12:10:52.000Z</time>
        <extensions>
          <ns3:TrackPointExtension>
            <ns3:atemp>17.0</ns3:atemp>
            <ns3:hr>83</ns3:hr>
          </ns3:TrackPointExtension>
        </extensions>
      </trkpt>
      <trkpt lat="48.836774267256259918212890625" lon="-3.478127382695674896240234375">
        <ele>12.6000003814697265625</ele>
        <time>2026-05-09T12:10:59.000Z</time>
        <extensions>
          <ns3:TrackPointExtension>
            <ns3:atemp>17.0</ns3:atemp>
            <ns3:hr>84</ns3:hr>
          </ns3:TrackPointExtension>
        </extensions>
      </trkpt>
      <trkpt lat="48.83677334524691104888916015625" lon="-3.4781397879123687744140625">
        <ele>12.6000003814697265625</ele>
        <time>2026-05-09T12:11:00.000Z</time>
        <extensions>
          <ns3:TrackPointExtension>
            <ns3:atemp>17.0</ns3:atemp>
            <ns3:hr>84</ns3:hr>
          </ns3:TrackPointExtension>
        </extensions>
      </trkpt>
      <trkpt lat="48.8367895223200321197509765625" lon="-3.47818630747497081756591796875">
        <ele>13</ele>
        <time>2026-05-09T12:11:04.000Z</time>
        <extensions>
          <ns3:TrackPointExtension>
            <ns3:atemp>17.0</ns3:atemp>
            <ns3:hr>83</ns3:hr>
          </ns3:TrackPointExtension>
        </extensions>
      </trkpt>
      <trkpt lat="48.836780302226543426513671875" lon="-3.478250764310359954833984375">
        <ele>12.80000019073486328125</ele>
        <time>2026-05-09T12:11:09.000Z</time>
        <extensions>
          <ns3:TrackPointExtension>
            <ns3:atemp>17.0</ns3:atemp>
            <ns3:hr>84</ns3:hr>
          </ns3:TrackPointExtension>
        </extensions>
      </trkpt>
      <trkpt lat="48.8367677293717861175537109375" lon="-3.47830382175743579864501953125">
        <ele>13.6000003814697265625</ele>
        <time>2026-05-09T12:11:14.000Z</time>
        <extensions>
          <ns3:TrackPointExtension>
            <ns3:atemp>17.0</ns3:atemp>
            <ns3:hr>84</ns3:hr>
          </ns3:TrackPointExtension>
        </extensions>
      </trkpt>
      <trkpt lat="48.83675909601151943206787109375" lon="-3.47834254615008831024169921875">
        <ele>13.3999996185302734375</ele>
        <time>2026-05-09T12:11:17.000Z</time>
        <extensions>
          <ns3:TrackPointExtension>
            <ns3:atemp>17.0</ns3:atemp>
            <ns3:hr>87</ns3:hr>
          </ns3:TrackPointExtension>
        </extensions>
      </trkpt>
      <trkpt lat="48.8367415778338909149169921875" lon="-3.4784008003771305084228515625">
        <ele>13.6000003814697265625</ele>
        <time>2026-05-09T12:11:21.000Z</time>
        <extensions>
          <ns3:TrackPointExtension>
            <ns3:atemp>17.0</ns3:atemp>
            <ns3:hr>88</ns3:hr>
          </ns3:TrackPointExtension>
        </extensions>
      </trkpt>
      <trkpt lat="48.8367378897964954376220703125" lon="-3.4784054942429065704345703125">
        <ele>13.80000019073486328125</ele>
        <time>2026-05-09T12:11:22.000Z</time>
        <extensions>
          <ns3:TrackPointExtension>
            <ns3:atemp>17.0</ns3:atemp>
            <ns3:hr>88</ns3:hr>
          </ns3:TrackPointExtension>
        </extensions>
      </trkpt>
      <trkpt lat="48.83669924922287464141845703125" lon="-3.47848470322787761688232421875">
        <ele>14.19999980926513671875</ele>
        <time>2026-05-09T12:11:30.000Z</time>
        <extensions>
          <ns3:TrackPointExtension>
            <ns3:atemp>17.0</ns3:atemp>
            <ns3:hr>87</ns3:hr>
          </ns3:TrackPointExtension>
        </extensions>
      </trkpt>
      <trkpt lat="48.8366587646305561065673828125" lon="-3.4785716235637664794921875">
        <ele>14.19999980926513671875</ele>
        <time>2026-05-09T12:11:37.000Z</time>
        <extensions>
          <ns3:TrackPointExtension>
            <ns3:atemp>17.0</ns3:atemp>
            <ns3:hr>88</ns3:hr>
          </ns3:TrackPointExtension>
        </extensions>
      </trkpt>
      <trkpt lat="48.83659078739583492279052734375" lon="-3.478671200573444366455078125">
        <ele>13.80000019073486328125</ele>
        <time>2026-05-09T12:11:45.000Z</time>
        <extensions>
          <ns3:TrackPointExtension>
            <ns3:atemp>17.0</ns3:atemp>
            <ns3:hr>85</ns3:hr>
          </ns3:TrackPointExtension>
        </extensions>
      </trkpt>
      <trkpt lat="48.83654653094708919525146484375" lon="-3.47873724997043609619140625">
        <ele>13.3999996185302734375</ele>
        <time>2026-05-09T12:11:50.000Z</time>
        <extensions>
          <ns3:TrackPointExtension>
            <ns3:atemp>17.0</ns3:atemp>
            <ns3:hr>82</ns3:hr>
          </ns3:TrackPointExtension>
        </extensions>
      </trkpt>
      <trkpt lat="48.8365095667541027069091796875" lon="-3.47878796048462390899658203125">
        <ele>13</ele>
        <time>2026-05-09T12:11:54.000Z</time>
        <extensions>
          <ns3:TrackPointExtension>
            <ns3:atemp>17.0</ns3:atemp>
            <ns3:hr>81</ns3:hr>
          </ns3:TrackPointExtension>
        </extensions>
      </trkpt>
      <trkpt lat="48.8364639692008495330810546875" lon="-3.4788604639470577239990234375">
        <ele>12.6000003814697265625</ele>
        <time>2026-05-09T12:12:00.000Z</time>
        <extensions>
          <ns3:TrackPointExtension>
            <ns3:atemp>17.0</ns3:atemp>
            <ns3:hr>80</ns3:hr>
          </ns3:TrackPointExtension>
        </extensions>
      </trkpt>
      <trkpt lat="48.83645952679216861724853515625" lon="-3.478875048458576202392578125">
        <ele>12.3999996185302734375</ele>
        <time>2026-05-09T12:12:01.000Z</time>
        <extensions>
          <ns3:TrackPointExtension>
            <ns3:atemp>17.0</ns3:atemp>
            <ns3:hr>79</ns3:hr>
          </ns3:TrackPointExtension>
        </extensions>
      </trkpt>
      <trkpt lat="48.836393058300018310546875" lon="-3.4789846837520599365234375">
        <ele>11.6000003814697265625</ele>
        <time>2026-05-09T12:12:10.000Z</time>
        <extensions>
          <ns3:TrackPointExtension>
            <ns3:atemp>17.0</ns3:atemp>
            <ns3:hr>79</ns3:hr>
          </ns3:TrackPointExtension>
        </extensions>
      </trkpt>
      <trkpt lat="48.836337737739086151123046875" lon="-3.4790705144405364990234375">
        <ele>11</ele>
        <time>2026-05-09T12:12:16.000Z</time>
        <extensions>
          <ns3:TrackPointExtension>
            <ns3:atemp>17.0</ns3:atemp>
            <ns3:hr>76</ns3:hr>
          </ns3:TrackPointExtension>
        </extensions>
      </trkpt>
      <trkpt lat="48.83630982600152492523193359375" lon="-3.47910496406257152557373046875">
        <ele>10.80000019073486328125</ele>
        <time>2026-05-09T12:12:19.000Z</time>
        <extensions>
          <ns3:TrackPointExtension>
            <ns3:atemp>17.0</ns3:atemp>
            <ns3:hr>76</ns3:hr>
          </ns3:TrackPointExtension>
        </extensions>
      </trkpt>
      <trkpt lat="48.83627126924693584442138671875" lon="-3.4791675768792629241943359375">
        <ele>10.6000003814697265625</ele>
        <time>2026-05-09T12:12:23.000Z</time>
        <extensions>
          <ns3:TrackPointExtension>
            <ns3:atemp>17.0</ns3:atemp>
            <ns3:hr>77</ns3:hr>
          </ns3:TrackPointExtension>
        </extensions>
      </trkpt>
      <trkpt lat="48.83622332476079463958740234375" lon="-3.47923857159912586212158203125">
        <ele>9.6000003814697265625</ele>
        <time>2026-05-09T12:12:28.000Z</time>
        <extensions>
          <ns3:TrackPointExtension>
            <ns3:atemp>17.0</ns3:atemp>
            <ns3:hr>78</ns3:hr>
          </ns3:TrackPointExtension>
        </extensions>
      </trkpt>
      <trkpt lat="48.8362021185457706451416015625" lon="-3.47926472313702106475830078125">
        <ele>9.3999996185302734375</ele>
        <time>2026-05-09T12:12:30.000Z</time>
        <extensions>
          <ns3:TrackPointExtension>
            <ns3:atemp>17.0</ns3:atemp>
            <ns3:hr>77</ns3:hr>
          </ns3:TrackPointExtension>
        </extensions>
      </trkpt>
      <trkpt lat="48.83613732643425464630126953125" lon="-3.47934803925454616546630859375">
        <ele>8.3999996185302734375</ele>
        <time>2026-05-09T12:12:37.000Z</time>
        <extensions>
          <ns3:TrackPointExtension>
            <ns3:atemp>17.0</ns3:atemp>
            <ns3:hr>79</ns3:hr>
          </ns3:TrackPointExtension>
        </extensions>
      </trkpt>
      <trkpt lat="48.8360653258860111236572265625" lon="-3.47946756519377231597900390625">
        <ele>7.400000095367431640625</ele>
        <time>2026-05-09T12:12:46.000Z</time>
        <extensions>
          <ns3:TrackPointExtension>
            <ns3:atemp>17.0</ns3:atemp>
            <ns3:hr>78</ns3:hr>
          </ns3:TrackPointExtension>
        </extensions>
      </trkpt>
      <trkpt lat="48.8360495679080486297607421875" lon="-3.47949103452265262603759765625">
        <ele>7.400000095367431640625</ele>
        <time>2026-05-09T12:12:48.000Z</time>
        <extensions>
          <ns3:TrackPointExtension>
            <ns3:atemp>17.0</ns3:atemp>
            <ns3:hr>77</ns3:hr>
          </ns3:TrackPointExtension>
        </extensions>
      </trkpt>
      <trkpt lat="48.83600271306931972503662109375" lon="-3.4795538149774074554443359375">
        <ele>6.80000019073486328125</ele>
        <time>2026-05-09T12:12:53.000Z</time>
        <extensions>
          <ns3:TrackPointExtension>
            <ns3:atemp>17.0</ns3:atemp>
            <ns3:hr>77</ns3:hr>
          </ns3:TrackPointExtension>
        </extensions>
      </trkpt>
      <trkpt lat="48.83595996536314487457275390625" lon="-3.47960268147289752960205078125">
        <ele>6.19999980926513671875</ele>
        <time>2026-05-09T12:12:58.000Z</time>
        <extensions>
          <ns3:TrackPointExtension>
            <ns3:atemp>17.0</ns3:atemp>
            <ns3:hr>76</ns3:hr>
          </ns3:TrackPointExtension>
        </extensions>
      </trkpt>
      <trkpt lat="48.8359325565397739410400390625" lon="-3.4796305932104587554931640625">
        <ele>6.19999980926513671875</ele>
        <time>2026-05-09T12:13:01.000Z</time>
        <extensions>
          <ns3:TrackPointExtension>
            <ns3:atemp>17.0</ns3:atemp>
            <ns3:hr>77</ns3:hr>
          </ns3:TrackPointExtension>
        </extensions>
      </trkpt>
      <trkpt lat="48.83585971780121326446533203125" lon="-3.47973595373332500457763671875">
        <ele>5.599999904632568359375</ele>
        <time>2026-05-09T12:13:09.000Z</time>
        <extensions>
          <ns3:TrackPointExtension>
            <ns3:atemp>17.0</ns3:atemp>
            <ns3:hr>75</ns3:hr>
          </ns3:TrackPointExtension>
        </extensions>
      </trkpt>
      <trkpt lat="48.835816718637943267822265625" lon="-3.4798451699316501617431640625">
        <ele>5.599999904632568359375</ele>
        <time>2026-05-09T12:13:16.000Z</time>
        <extensions>
          <ns3:TrackPointExtension>
            <ns3:atemp>17.0</ns3:atemp>
            <ns3:hr>76</ns3:hr>
          </ns3:TrackPointExtension>
        </extensions>
      </trkpt>
      <trkpt lat="48.83581445552408695220947265625" lon="-3.47986537031829357147216796875">
        <ele>5.599999904632568359375</ele>
        <time>2026-05-09T12:13:17.000Z</time>
        <extensions>
          <ns3:TrackPointExtension>
            <ns3:atemp>17.0</ns3:atemp>
            <ns3:hr>75</ns3:hr>
          </ns3:TrackPointExtension>
        </extensions>
      </trkpt>
      <trkpt lat="48.8357900641858577728271484375" lon="-3.47996293567121028900146484375">
        <ele>5.400000095367431640625</ele>
        <time>2026-05-09T12:13:23.000Z</time>
        <extensions>
          <ns3:TrackPointExtension>
            <ns3:atemp>17.0</ns3:atemp>
            <ns3:hr>76</ns3:hr>
          </ns3:TrackPointExtension>
        </extensions>
      </trkpt>
      <trkpt lat="48.8357830233871936798095703125" lon="-3.48006821237504482269287109375">
        <ele>5.599999904632568359375</ele>
        <time>2026-05-09T12:13:29.000Z</time>
        <extensions>
          <ns3:TrackPointExtension>
            <ns3:atemp>17.0</ns3:atemp>
            <ns3:hr>75</ns3:hr>
          </ns3:TrackPointExtension>
        </extensions>
      </trkpt>
      <trkpt lat="48.83576148189604282379150390625" lon="-3.48014281131327152252197265625">
        <ele>5.80000019073486328125</ele>
        <time>2026-05-09T12:13:35.000Z</time>
        <extensions>
          <ns3:TrackPointExtension>
            <ns3:atemp>17.0</ns3:atemp>
            <ns3:hr>75</ns3:hr>
          </ns3:TrackPointExtension>
        </extensions>
      </trkpt>
      <trkpt lat="48.83569492958486080169677734375" lon="-3.48012034781277179718017578125">
        <ele>5.19999980926513671875</ele>
        <time>2026-05-09T12:13:41.000Z</time>
        <extensions>
          <ns3:TrackPointExtension>
            <ns3:atemp>17.0</ns3:atemp>
            <ns3:hr>74</ns3:hr>
          </ns3:TrackPointExtension>
        </extensions>
      </trkpt>
      <trkpt lat="48.835685290396213531494140625" lon="-3.4801184199750423431396484375">
        <ele>5.19999980926513671875</ele>
        <time>2026-05-09T12:13:42.000Z</time>
        <extensions>
          <ns3:TrackPointExtension>
            <ns3:atemp>17.0</ns3:atemp>
            <ns3:hr>75</ns3:hr>
          </ns3:TrackPointExtension>
        </extensions>
      </trkpt>
      <trkpt lat="48.83559619076550006866455078125" lon="-3.48010576330125331878662109375">
        <ele>6</ele>
        <time>2026-05-09T12:13:50.000Z</time>
        <extensions>
          <ns3:TrackPointExtension>
            <ns3:atemp>17.0</ns3:atemp>
            <ns3:hr>73</ns3:hr>
          </ns3:TrackPointExtension>
        </extensions>
      </trkpt>
      <trkpt lat="48.835563249886035919189453125" lon="-3.4801080264151096343994140625">
        <ele>6.400000095367431640625</ele>
        <time>2026-05-09T12:13:53.000Z</time>
        <extensions>
          <ns3:TrackPointExtension>
            <ns3:atemp>17.0</ns3:atemp>
            <ns3:hr>73</ns3:hr>
          </ns3:TrackPointExtension>
        </extensions>
      </trkpt>
      <trkpt lat="48.83548772893846035003662109375" lon="-3.48011079244315624237060546875">
        <ele>6.19999980926513671875</ele>
        <time>2026-05-09T12:13:59.000Z</time>
        <extensions>
          <ns3:TrackPointExtension>
            <ns3:atemp>17.0</ns3:atemp>
            <ns3:hr>72</ns3:hr>
          </ns3:TrackPointExtension>
        </extensions>
      </trkpt>
      <trkpt lat="48.8354068435728549957275390625" lon="-3.48009386099874973297119140625">
        <ele>6.80000019073486328125</ele>
        <time>2026-05-09T12:14:06.000Z</time>
        <extensions>
          <ns3:TrackPointExtension>
            <ns3:atemp>17.0</ns3:atemp>
            <ns3:hr>73</ns3:hr>
          </ns3:TrackPointExtension>
        </extensions>
      </trkpt>
      <trkpt lat="48.83533827960491180419921875" lon="-3.48008011467754840850830078125">
        <ele>7</ele>
        <time>2026-05-09T12:14:12.000Z</time>
        <extensions>
          <ns3:TrackPointExtension>
            <ns3:atemp>17.0</ns3:atemp>
            <ns3:hr>76</ns3:hr>
          </ns3:TrackPointExtension>
        </extensions>
      </trkpt>
      <trkpt lat="48.83527013473212718963623046875" lon="-3.4800637699663639068603515625">
        <ele>7.400000095367431640625</ele>
        <time>2026-05-09T12:14:18.000Z</time>
        <extensions>
          <ns3:TrackPointExtension>
            <ns3:atemp>17.0</ns3:atemp>
            <ns3:hr>78</ns3:hr>
          </ns3:TrackPointExtension>
        </extensions>
      </trkpt>
      <trkpt lat="48.8351838849484920501708984375" lon="-3.4800996445119380950927734375">
        <ele>7.599999904632568359375</ele>
        <time>2026-05-09T12:14:26.000Z</time>
        <extensions>
          <ns3:TrackPointExtension>
            <ns3:atemp>17.0</ns3:atemp>
            <ns3:hr>80</ns3:hr>
          </ns3:TrackPointExtension>
        </extensions>
      </trkpt>
      <trkpt lat="48.8351275585591793060302734375" lon="-3.4801422245800495147705078125">
        <ele>8.3999996185302734375</ele>
        <time>2026-05-09T12:14:33.000Z</time>
        <extensions>
          <ns3:TrackPointExtension>
            <ns3:atemp>17.0</ns3:atemp>
            <ns3:hr>81</ns3:hr>
          </ns3:TrackPointExtension>
        </extensions>
      </trkpt>
      <trkpt lat="48.83506360463798046112060546875" lon="-3.4802156500518321990966796875">
        <ele>8.3999996185302734375</ele>
        <time>2026-05-09T12:14:40.000Z</time>
        <extensions>
          <ns3:TrackPointExtension>
            <ns3:atemp>17.0</ns3:atemp>
            <ns3:hr>82</ns3:hr>
          </ns3:TrackPointExtension>
        </extensions>
      </trkpt>
      <trkpt lat="48.835016749799251556396484375" lon="-3.4802957810461521148681640625">
        <ele>9</ele>
        <time>2026-05-09T12:14:47.000Z</time>
        <extensions>
          <ns3:TrackPointExtension>
            <ns3:atemp>17.0</ns3:atemp>
            <ns3:hr>81</ns3:hr>
          </ns3:TrackPointExtension>
        </extensions>
      </trkpt>
      <trkpt lat="48.83501465432345867156982421875" lon="-3.48030290566384792327880859375">
        <ele>9</ele>
        <time>2026-05-09T12:14:48.000Z</time>
        <extensions>
          <ns3:TrackPointExtension>
            <ns3:atemp>17.0</ns3:atemp>
            <ns3:hr>82</ns3:hr>
          </ns3:TrackPointExtension>
        </extensions>
      </trkpt>
    </trkseg>
  </trk>
</gpx>
